<?xml version="1.0" encoding="UTF-8" standalone="no" ?>
<gpx xmlns="http://www.topografix.com/GPX/1/1" xmlns:xsi="http://www.w3.org/2001/XMLSchema-instance" xsi:schemaLocation="http://www.topografix.com/GPX/1/1 http://www.topografix.com/GPX/1/1/gpx.xsd" version="1.1" creator="VisuGPX - https://www.visugpx.com">
  <metadata>
    <name>trail de rochetaillée 2015 30 kms</name>
    <desc><![CDATA[parcours exigeant mais tellement beau]]></desc>
  </metadata>
  <trk>
    <name><![CDATA[trail roche events 30 kms]]></name>
    <trkseg>
      <trkpt lat="45.40983" lon="4.44726">
        <ele>752</ele>
        <time>2015-04-19T05:36:03Z</time>
      </trkpt>
      <trkpt lat="45.40983" lon="4.44721">
        <ele>752</ele>
        <time>2015-04-19T05:36:05Z</time>
      </trkpt>
      <trkpt lat="45.40983" lon="4.44711">
        <ele>752</ele>
        <time>2015-04-19T05:36:08Z</time>
      </trkpt>
      <trkpt lat="45.40983" lon="4.44702">
        <ele>752</ele>
        <time>2015-04-19T05:36:11Z</time>
      </trkpt>
      <trkpt lat="45.40982" lon="4.44699">
        <ele>753</ele>
        <time>2015-04-19T05:36:14Z</time>
      </trkpt>
      <trkpt lat="45.40981" lon="4.44707">
        <ele>753</ele>
        <time>2015-04-19T05:36:17Z</time>
      </trkpt>
      <trkpt lat="45.40977" lon="4.44718">
        <ele>753</ele>
        <time>2015-04-19T05:36:20Z</time>
      </trkpt>
      <trkpt lat="45.40974" lon="4.44727">
        <ele>753</ele>
        <time>2015-04-19T05:36:23Z</time>
      </trkpt>
      <trkpt lat="45.40973" lon="4.44734">
        <ele>754</ele>
        <time>2015-04-19T05:36:25Z</time>
      </trkpt>
      <trkpt lat="45.40973" lon="4.44741">
        <ele>754</ele>
        <time>2015-04-19T05:36:27Z</time>
      </trkpt>
      <trkpt lat="45.40971" lon="4.44752">
        <ele>755</ele>
        <time>2015-04-19T05:36:30Z</time>
      </trkpt>
      <trkpt lat="45.40968" lon="4.44761">
        <ele>755</ele>
        <time>2015-04-19T05:36:33Z</time>
      </trkpt>
      <trkpt lat="45.40966" lon="4.44767">
        <ele>756</ele>
        <time>2015-04-19T05:36:35Z</time>
      </trkpt>
      <trkpt lat="45.40962" lon="4.44774">
        <ele>756</ele>
        <time>2015-04-19T05:36:38Z</time>
      </trkpt>
      <trkpt lat="45.40958" lon="4.44782">
        <ele>757</ele>
        <time>2015-04-19T05:36:41Z</time>
      </trkpt>
      <trkpt lat="45.40954" lon="4.44789">
        <ele>757</ele>
        <time>2015-04-19T05:36:44Z</time>
      </trkpt>
      <trkpt lat="45.4095" lon="4.44796">
        <ele>757</ele>
        <time>2015-04-19T05:36:47Z</time>
      </trkpt>
      <trkpt lat="45.40947" lon="4.448">
        <ele>757</ele>
        <time>2015-04-19T05:36:49Z</time>
      </trkpt>
      <trkpt lat="45.40942" lon="4.44806">
        <ele>757</ele>
        <time>2015-04-19T05:36:52Z</time>
      </trkpt>
      <trkpt lat="45.40937" lon="4.44813">
        <ele>757</ele>
        <time>2015-04-19T05:36:55Z</time>
      </trkpt>
      <trkpt lat="45.40933" lon="4.44823">
        <ele>757</ele>
        <time>2015-04-19T05:36:58Z</time>
      </trkpt>
      <trkpt lat="45.40932" lon="4.4483">
        <ele>757</ele>
        <time>2015-04-19T05:37:00Z</time>
      </trkpt>
      <trkpt lat="45.4093" lon="4.44836">
        <ele>757</ele>
        <time>2015-04-19T05:37:02Z</time>
      </trkpt>
      <trkpt lat="45.40928" lon="4.44846">
        <ele>757</ele>
        <time>2015-04-19T05:37:05Z</time>
      </trkpt>
      <trkpt lat="45.40926" lon="4.44852">
        <ele>758</ele>
        <time>2015-04-19T05:37:07Z</time>
      </trkpt>
      <trkpt lat="45.40925" lon="4.44862">
        <ele>758</ele>
        <time>2015-04-19T05:37:10Z</time>
      </trkpt>
      <trkpt lat="45.40924" lon="4.44869">
        <ele>758</ele>
        <time>2015-04-19T05:37:12Z</time>
      </trkpt>
      <trkpt lat="45.40924" lon="4.4488">
        <ele>759</ele>
        <time>2015-04-19T05:37:15Z</time>
      </trkpt>
      <trkpt lat="45.40923" lon="4.44891">
        <ele>759</ele>
        <time>2015-04-19T05:37:18Z</time>
      </trkpt>
      <trkpt lat="45.40924" lon="4.44897">
        <ele>759</ele>
        <time>2015-04-19T05:37:20Z</time>
      </trkpt>
      <trkpt lat="45.40924" lon="4.44903">
        <ele>759</ele>
        <time>2015-04-19T05:37:22Z</time>
      </trkpt>
      <trkpt lat="45.40924" lon="4.44912">
        <ele>759</ele>
        <time>2015-04-19T05:37:25Z</time>
      </trkpt>
      <trkpt lat="45.40924" lon="4.44918">
        <ele>759</ele>
        <time>2015-04-19T05:37:27Z</time>
      </trkpt>
      <trkpt lat="45.40924" lon="4.44925">
        <ele>759</ele>
        <time>2015-04-19T05:37:29Z</time>
      </trkpt>
      <trkpt lat="45.40925" lon="4.44937">
        <ele>759</ele>
        <time>2015-04-19T05:37:32Z</time>
      </trkpt>
      <trkpt lat="45.40925" lon="4.44943">
        <ele>759</ele>
        <time>2015-04-19T05:37:34Z</time>
      </trkpt>
      <trkpt lat="45.40923" lon="4.44952">
        <ele>759</ele>
        <time>2015-04-19T05:37:37Z</time>
      </trkpt>
      <trkpt lat="45.40923" lon="4.44958">
        <ele>759</ele>
        <time>2015-04-19T05:37:39Z</time>
      </trkpt>
      <trkpt lat="45.40923" lon="4.44966">
        <ele>759</ele>
        <time>2015-04-19T05:37:42Z</time>
      </trkpt>
      <trkpt lat="45.40921" lon="4.44975">
        <ele>760</ele>
        <time>2015-04-19T05:37:45Z</time>
      </trkpt>
      <trkpt lat="45.4092" lon="4.44982">
        <ele>760</ele>
        <time>2015-04-19T05:37:47Z</time>
      </trkpt>
      <trkpt lat="45.40919" lon="4.44991">
        <ele>760</ele>
        <time>2015-04-19T05:37:50Z</time>
      </trkpt>
      <trkpt lat="45.40919" lon="4.45">
        <ele>761</ele>
        <time>2015-04-19T05:37:53Z</time>
      </trkpt>
      <trkpt lat="45.40919" lon="4.45006">
        <ele>762</ele>
        <time>2015-04-19T05:37:55Z</time>
      </trkpt>
      <trkpt lat="45.40923" lon="4.4501">
        <ele>762</ele>
        <time>2015-04-19T05:37:58Z</time>
      </trkpt>
      <trkpt lat="45.40926" lon="4.45011">
        <ele>763</ele>
        <time>2015-04-19T05:38:00Z</time>
      </trkpt>
      <trkpt lat="45.4093" lon="4.45009">
        <ele>764</ele>
        <time>2015-04-19T05:38:03Z</time>
      </trkpt>
      <trkpt lat="45.40933" lon="4.45005">
        <ele>765</ele>
        <time>2015-04-19T05:38:05Z</time>
      </trkpt>
      <trkpt lat="45.40938" lon="4.45002">
        <ele>766</ele>
        <time>2015-04-19T05:38:08Z</time>
      </trkpt>
      <trkpt lat="45.4094" lon="4.44996">
        <ele>766</ele>
        <time>2015-04-19T05:38:11Z</time>
      </trkpt>
      <trkpt lat="45.40945" lon="4.44989">
        <ele>767</ele>
        <time>2015-04-19T05:38:14Z</time>
      </trkpt>
      <trkpt lat="45.4095" lon="4.44985">
        <ele>768</ele>
        <time>2015-04-19T05:38:17Z</time>
      </trkpt>
      <trkpt lat="45.40954" lon="4.44982">
        <ele>768</ele>
        <time>2015-04-19T05:38:19Z</time>
      </trkpt>
      <trkpt lat="45.40958" lon="4.4498">
        <ele>769</ele>
        <time>2015-04-19T05:38:21Z</time>
      </trkpt>
      <trkpt lat="45.40964" lon="4.44978">
        <ele>769</ele>
        <time>2015-04-19T05:38:24Z</time>
      </trkpt>
      <trkpt lat="45.40969" lon="4.44975">
        <ele>770</ele>
        <time>2015-04-19T05:38:27Z</time>
      </trkpt>
      <trkpt lat="45.40975" lon="4.44972">
        <ele>770</ele>
        <time>2015-04-19T05:38:30Z</time>
      </trkpt>
      <trkpt lat="45.40979" lon="4.4497">
        <ele>770</ele>
        <time>2015-04-19T05:38:32Z</time>
      </trkpt>
      <trkpt lat="45.40983" lon="4.44968">
        <ele>771</ele>
        <time>2015-04-19T05:38:34Z</time>
      </trkpt>
      <trkpt lat="45.40988" lon="4.44962">
        <ele>771</ele>
        <time>2015-04-19T05:38:37Z</time>
      </trkpt>
      <trkpt lat="45.4099" lon="4.44958">
        <ele>771</ele>
        <time>2015-04-19T05:38:39Z</time>
      </trkpt>
      <trkpt lat="45.40995" lon="4.44953">
        <ele>771</ele>
        <time>2015-04-19T05:38:42Z</time>
      </trkpt>
      <trkpt lat="45.41001" lon="4.44948">
        <ele>772</ele>
        <time>2015-04-19T05:38:45Z</time>
      </trkpt>
      <trkpt lat="45.41005" lon="4.44945">
        <ele>772</ele>
        <time>2015-04-19T05:38:47Z</time>
      </trkpt>
      <trkpt lat="45.41011" lon="4.44939">
        <ele>772</ele>
        <time>2015-04-19T05:38:50Z</time>
      </trkpt>
      <trkpt lat="45.41018" lon="4.44935">
        <ele>773</ele>
        <time>2015-04-19T05:38:53Z</time>
      </trkpt>
      <trkpt lat="45.41023" lon="4.44932">
        <ele>774</ele>
        <time>2015-04-19T05:38:55Z</time>
      </trkpt>
      <trkpt lat="45.41029" lon="4.44928">
        <ele>774</ele>
        <time>2015-04-19T05:38:58Z</time>
      </trkpt>
      <trkpt lat="45.41033" lon="4.44925">
        <ele>774</ele>
        <time>2015-04-19T05:39:00Z</time>
      </trkpt>
      <trkpt lat="45.4104" lon="4.44923">
        <ele>774</ele>
        <time>2015-04-19T05:39:03Z</time>
      </trkpt>
      <trkpt lat="45.41044" lon="4.44922">
        <ele>775</ele>
        <time>2015-04-19T05:39:05Z</time>
      </trkpt>
      <trkpt lat="45.41051" lon="4.4492">
        <ele>776</ele>
        <time>2015-04-19T05:39:08Z</time>
      </trkpt>
      <trkpt lat="45.41055" lon="4.44919">
        <ele>776</ele>
        <time>2015-04-19T05:39:10Z</time>
      </trkpt>
      <trkpt lat="45.41061" lon="4.44918">
        <ele>777</ele>
        <time>2015-04-19T05:39:12Z</time>
      </trkpt>
      <trkpt lat="45.41067" lon="4.44917">
        <ele>777</ele>
        <time>2015-04-19T05:39:15Z</time>
      </trkpt>
      <trkpt lat="45.41071" lon="4.44915">
        <ele>778</ele>
        <time>2015-04-19T05:39:17Z</time>
      </trkpt>
      <trkpt lat="45.41077" lon="4.44915">
        <ele>779</ele>
        <time>2015-04-19T05:39:20Z</time>
      </trkpt>
      <trkpt lat="45.41081" lon="4.44915">
        <ele>779</ele>
        <time>2015-04-19T05:39:22Z</time>
      </trkpt>
      <trkpt lat="45.41087" lon="4.44917">
        <ele>780</ele>
        <time>2015-04-19T05:39:25Z</time>
      </trkpt>
      <trkpt lat="45.41094" lon="4.44921">
        <ele>780</ele>
        <time>2015-04-19T05:39:28Z</time>
      </trkpt>
      <trkpt lat="45.41101" lon="4.44925">
        <ele>781</ele>
        <time>2015-04-19T05:39:31Z</time>
      </trkpt>
      <trkpt lat="45.41105" lon="4.44928">
        <ele>781</ele>
        <time>2015-04-19T05:39:33Z</time>
      </trkpt>
      <trkpt lat="45.41109" lon="4.4493">
        <ele>781</ele>
        <time>2015-04-19T05:39:35Z</time>
      </trkpt>
      <trkpt lat="45.41115" lon="4.44935">
        <ele>781</ele>
        <time>2015-04-19T05:39:38Z</time>
      </trkpt>
      <trkpt lat="45.41121" lon="4.4494">
        <ele>782</ele>
        <time>2015-04-19T05:39:41Z</time>
      </trkpt>
      <trkpt lat="45.41127" lon="4.44945">
        <ele>782</ele>
        <time>2015-04-19T05:39:44Z</time>
      </trkpt>
      <trkpt lat="45.41132" lon="4.44949">
        <ele>783</ele>
        <time>2015-04-19T05:39:46Z</time>
      </trkpt>
      <trkpt lat="45.41138" lon="4.44954">
        <ele>784</ele>
        <time>2015-04-19T05:39:49Z</time>
      </trkpt>
      <trkpt lat="45.41145" lon="4.44959">
        <ele>784</ele>
        <time>2015-04-19T05:39:52Z</time>
      </trkpt>
      <trkpt lat="45.41151" lon="4.44964">
        <ele>785</ele>
        <time>2015-04-19T05:39:55Z</time>
      </trkpt>
      <trkpt lat="45.41158" lon="4.44969">
        <ele>785</ele>
        <time>2015-04-19T05:39:58Z</time>
      </trkpt>
      <trkpt lat="45.41164" lon="4.44972">
        <ele>786</ele>
        <time>2015-04-19T05:40:01Z</time>
      </trkpt>
      <trkpt lat="45.41169" lon="4.44975">
        <ele>786</ele>
        <time>2015-04-19T05:40:03Z</time>
      </trkpt>
      <trkpt lat="45.41174" lon="4.44977">
        <ele>786</ele>
        <time>2015-04-19T05:40:05Z</time>
      </trkpt>
      <trkpt lat="45.41181" lon="4.44979">
        <ele>787</ele>
        <time>2015-04-19T05:40:08Z</time>
      </trkpt>
      <trkpt lat="45.41187" lon="4.44982">
        <ele>787</ele>
        <time>2015-04-19T05:40:11Z</time>
      </trkpt>
      <trkpt lat="45.41192" lon="4.44984">
        <ele>788</ele>
        <time>2015-04-19T05:40:13Z</time>
      </trkpt>
      <trkpt lat="45.41198" lon="4.44987">
        <ele>789</ele>
        <time>2015-04-19T05:40:16Z</time>
      </trkpt>
      <trkpt lat="45.41205" lon="4.4499">
        <ele>789</ele>
        <time>2015-04-19T05:40:19Z</time>
      </trkpt>
      <trkpt lat="45.41212" lon="4.44993">
        <ele>790</ele>
        <time>2015-04-19T05:40:22Z</time>
      </trkpt>
      <trkpt lat="45.41216" lon="4.44995">
        <ele>790</ele>
        <time>2015-04-19T05:40:24Z</time>
      </trkpt>
      <trkpt lat="45.41224" lon="4.44998">
        <ele>791</ele>
        <time>2015-04-19T05:40:27Z</time>
      </trkpt>
      <trkpt lat="45.4123" lon="4.45001">
        <ele>791</ele>
        <time>2015-04-19T05:40:29Z</time>
      </trkpt>
      <trkpt lat="45.41237" lon="4.45004">
        <ele>792</ele>
        <time>2015-04-19T05:40:32Z</time>
      </trkpt>
      <trkpt lat="45.41241" lon="4.45005">
        <ele>792</ele>
        <time>2015-04-19T05:40:34Z</time>
      </trkpt>
      <trkpt lat="45.41246" lon="4.45008">
        <ele>792</ele>
        <time>2015-04-19T05:40:37Z</time>
      </trkpt>
      <trkpt lat="45.41249" lon="4.45011">
        <ele>793</ele>
        <time>2015-04-19T05:40:39Z</time>
      </trkpt>
      <trkpt lat="45.41252" lon="4.45013">
        <ele>794</ele>
        <time>2015-04-19T05:40:41Z</time>
      </trkpt>
      <trkpt lat="45.41258" lon="4.45017">
        <ele>794</ele>
        <time>2015-04-19T05:40:44Z</time>
      </trkpt>
      <trkpt lat="45.41263" lon="4.4502">
        <ele>795</ele>
        <time>2015-04-19T05:40:47Z</time>
      </trkpt>
      <trkpt lat="45.41266" lon="4.45023">
        <ele>795</ele>
        <time>2015-04-19T05:40:49Z</time>
      </trkpt>
      <trkpt lat="45.41272" lon="4.45026">
        <ele>795</ele>
        <time>2015-04-19T05:40:52Z</time>
      </trkpt>
      <trkpt lat="45.41277" lon="4.45028">
        <ele>796</ele>
        <time>2015-04-19T05:40:54Z</time>
      </trkpt>
      <trkpt lat="45.41283" lon="4.45032">
        <ele>796</ele>
        <time>2015-04-19T05:40:57Z</time>
      </trkpt>
      <trkpt lat="45.41285" lon="4.45034">
        <ele>797</ele>
        <time>2015-04-19T05:40:59Z</time>
      </trkpt>
      <trkpt lat="45.41291" lon="4.45037">
        <ele>797</ele>
        <time>2015-04-19T05:41:02Z</time>
      </trkpt>
      <trkpt lat="45.41296" lon="4.45041">
        <ele>798</ele>
        <time>2015-04-19T05:41:05Z</time>
      </trkpt>
      <trkpt lat="45.41299" lon="4.45044">
        <ele>798</ele>
        <time>2015-04-19T05:41:07Z</time>
      </trkpt>
      <trkpt lat="45.41305" lon="4.45048">
        <ele>799</ele>
        <time>2015-04-19T05:41:10Z</time>
      </trkpt>
      <trkpt lat="45.41308" lon="4.4505">
        <ele>799</ele>
        <time>2015-04-19T05:41:12Z</time>
      </trkpt>
      <trkpt lat="45.41311" lon="4.45053">
        <ele>799</ele>
        <time>2015-04-19T05:41:14Z</time>
      </trkpt>
      <trkpt lat="45.41315" lon="4.45058">
        <ele>800</ele>
        <time>2015-04-19T05:41:17Z</time>
      </trkpt>
      <trkpt lat="45.41317" lon="4.45061">
        <ele>801</ele>
        <time>2015-04-19T05:41:19Z</time>
      </trkpt>
      <trkpt lat="45.41321" lon="4.45066">
        <ele>801</ele>
        <time>2015-04-19T05:41:22Z</time>
      </trkpt>
      <trkpt lat="45.41325" lon="4.4507">
        <ele>802</ele>
        <time>2015-04-19T05:41:25Z</time>
      </trkpt>
      <trkpt lat="45.4133" lon="4.45072">
        <ele>802</ele>
        <time>2015-04-19T05:41:28Z</time>
      </trkpt>
      <trkpt lat="45.41335" lon="4.45074">
        <ele>803</ele>
        <time>2015-04-19T05:41:30Z</time>
      </trkpt>
      <trkpt lat="45.41338" lon="4.45077">
        <ele>803</ele>
        <time>2015-04-19T05:41:32Z</time>
      </trkpt>
      <trkpt lat="45.41346" lon="4.45081">
        <ele>803</ele>
        <time>2015-04-19T05:41:35Z</time>
      </trkpt>
      <trkpt lat="45.41353" lon="4.45087">
        <ele>803</ele>
        <time>2015-04-19T05:41:38Z</time>
      </trkpt>
      <trkpt lat="45.4136" lon="4.45094">
        <ele>804</ele>
        <time>2015-04-19T05:41:41Z</time>
      </trkpt>
      <trkpt lat="45.41366" lon="4.45099">
        <ele>805</ele>
        <time>2015-04-19T05:41:44Z</time>
      </trkpt>
      <trkpt lat="45.4137" lon="4.45103">
        <ele>806</ele>
        <time>2015-04-19T05:41:46Z</time>
      </trkpt>
      <trkpt lat="45.41375" lon="4.45106">
        <ele>806</ele>
        <time>2015-04-19T05:41:48Z</time>
      </trkpt>
      <trkpt lat="45.41383" lon="4.4511">
        <ele>806</ele>
        <time>2015-04-19T05:41:51Z</time>
      </trkpt>
      <trkpt lat="45.41388" lon="4.45113">
        <ele>806</ele>
        <time>2015-04-19T05:41:53Z</time>
      </trkpt>
      <trkpt lat="45.41395" lon="4.45118">
        <ele>806</ele>
        <time>2015-04-19T05:41:56Z</time>
      </trkpt>
      <trkpt lat="45.414" lon="4.45121">
        <ele>807</ele>
        <time>2015-04-19T05:41:58Z</time>
      </trkpt>
      <trkpt lat="45.41407" lon="4.45125">
        <ele>808</ele>
        <time>2015-04-19T05:42:01Z</time>
      </trkpt>
      <trkpt lat="45.41412" lon="4.45129">
        <ele>809</ele>
        <time>2015-04-19T05:42:03Z</time>
      </trkpt>
      <trkpt lat="45.41417" lon="4.45134">
        <ele>809</ele>
        <time>2015-04-19T05:42:06Z</time>
      </trkpt>
      <trkpt lat="45.41423" lon="4.45139">
        <ele>810</ele>
        <time>2015-04-19T05:42:09Z</time>
      </trkpt>
      <trkpt lat="45.41427" lon="4.45143">
        <ele>810</ele>
        <time>2015-04-19T05:42:11Z</time>
      </trkpt>
      <trkpt lat="45.41432" lon="4.45149">
        <ele>810</ele>
        <time>2015-04-19T05:42:14Z</time>
      </trkpt>
      <trkpt lat="45.41434" lon="4.45153">
        <ele>810</ele>
        <time>2015-04-19T05:42:16Z</time>
      </trkpt>
      <trkpt lat="45.41439" lon="4.45159">
        <ele>811</ele>
        <time>2015-04-19T05:42:19Z</time>
      </trkpt>
      <trkpt lat="45.41444" lon="4.45164">
        <ele>811</ele>
        <time>2015-04-19T05:42:22Z</time>
      </trkpt>
      <trkpt lat="45.41451" lon="4.4517">
        <ele>812</ele>
        <time>2015-04-19T05:42:25Z</time>
      </trkpt>
      <trkpt lat="45.41454" lon="4.45173">
        <ele>812</ele>
        <time>2015-04-19T05:42:27Z</time>
      </trkpt>
      <trkpt lat="45.41459" lon="4.45178">
        <ele>812</ele>
        <time>2015-04-19T05:42:30Z</time>
      </trkpt>
      <trkpt lat="45.41463" lon="4.45181">
        <ele>813</ele>
        <time>2015-04-19T05:42:32Z</time>
      </trkpt>
      <trkpt lat="45.41468" lon="4.45184">
        <ele>813</ele>
        <time>2015-04-19T05:42:34Z</time>
      </trkpt>
      <trkpt lat="45.41474" lon="4.45188">
        <ele>813</ele>
        <time>2015-04-19T05:42:37Z</time>
      </trkpt>
      <trkpt lat="45.41479" lon="4.45193">
        <ele>814</ele>
        <time>2015-04-19T05:42:40Z</time>
      </trkpt>
      <trkpt lat="45.41484" lon="4.45197">
        <ele>814</ele>
        <time>2015-04-19T05:42:42Z</time>
      </trkpt>
      <trkpt lat="45.41491" lon="4.45202">
        <ele>814</ele>
        <time>2015-04-19T05:42:45Z</time>
      </trkpt>
      <trkpt lat="45.41495" lon="4.45204">
        <ele>814</ele>
        <time>2015-04-19T05:42:47Z</time>
      </trkpt>
      <trkpt lat="45.41499" lon="4.45207">
        <ele>814</ele>
        <time>2015-04-19T05:42:49Z</time>
      </trkpt>
      <trkpt lat="45.41507" lon="4.45213">
        <ele>815</ele>
        <time>2015-04-19T05:42:52Z</time>
      </trkpt>
      <trkpt lat="45.41511" lon="4.45216">
        <ele>815</ele>
        <time>2015-04-19T05:42:54Z</time>
      </trkpt>
      <trkpt lat="45.41518" lon="4.45222">
        <ele>816</ele>
        <time>2015-04-19T05:42:57Z</time>
      </trkpt>
      <trkpt lat="45.41523" lon="4.45226">
        <ele>816</ele>
        <time>2015-04-19T05:42:59Z</time>
      </trkpt>
      <trkpt lat="45.41528" lon="4.45231">
        <ele>817</ele>
        <time>2015-04-19T05:43:01Z</time>
      </trkpt>
      <trkpt lat="45.41534" lon="4.45239">
        <ele>817</ele>
        <time>2015-04-19T05:43:04Z</time>
      </trkpt>
      <trkpt lat="45.41537" lon="4.45248">
        <ele>817</ele>
        <time>2015-04-19T05:43:07Z</time>
      </trkpt>
      <trkpt lat="45.41538" lon="4.45256">
        <ele>818</ele>
        <time>2015-04-19T05:43:10Z</time>
      </trkpt>
      <trkpt lat="45.41538" lon="4.4526">
        <ele>819</ele>
        <time>2015-04-19T05:43:12Z</time>
      </trkpt>
      <trkpt lat="45.41537" lon="4.45269">
        <ele>820</ele>
        <time>2015-04-19T05:43:15Z</time>
      </trkpt>
      <trkpt lat="45.41537" lon="4.45273">
        <ele>820</ele>
        <time>2015-04-19T05:43:17Z</time>
      </trkpt>
      <trkpt lat="45.41536" lon="4.45276">
        <ele>820</ele>
        <time>2015-04-19T05:43:19Z</time>
      </trkpt>
      <trkpt lat="45.41536" lon="4.45283">
        <ele>821</ele>
        <time>2015-04-19T05:43:22Z</time>
      </trkpt>
      <trkpt lat="45.41534" lon="4.45288">
        <ele>822</ele>
        <time>2015-04-19T05:43:24Z</time>
      </trkpt>
      <trkpt lat="45.41533" lon="4.45292">
        <ele>822</ele>
        <time>2015-04-19T05:43:27Z</time>
      </trkpt>
      <trkpt lat="45.41531" lon="4.45296">
        <ele>823</ele>
        <time>2015-04-19T05:43:29Z</time>
      </trkpt>
      <trkpt lat="45.41529" lon="4.45299">
        <ele>824</ele>
        <time>2015-04-19T05:43:31Z</time>
      </trkpt>
      <trkpt lat="45.41528" lon="4.45302">
        <ele>825</ele>
        <time>2015-04-19T05:43:33Z</time>
      </trkpt>
      <trkpt lat="45.41528" lon="4.45307">
        <ele>826</ele>
        <time>2015-04-19T05:43:36Z</time>
      </trkpt>
      <trkpt lat="45.41526" lon="4.45312">
        <ele>827</ele>
        <time>2015-04-19T05:43:39Z</time>
      </trkpt>
      <trkpt lat="45.41525" lon="4.45318">
        <ele>828</ele>
        <time>2015-04-19T05:43:42Z</time>
      </trkpt>
      <trkpt lat="45.41523" lon="4.45321">
        <ele>829</ele>
        <time>2015-04-19T05:43:44Z</time>
      </trkpt>
      <trkpt lat="45.41522" lon="4.45325">
        <ele>829</ele>
        <time>2015-04-19T05:43:46Z</time>
      </trkpt>
      <trkpt lat="45.4152" lon="4.45328">
        <ele>830</ele>
        <time>2015-04-19T05:43:48Z</time>
      </trkpt>
      <trkpt lat="45.41517" lon="4.45334">
        <ele>831</ele>
        <time>2015-04-19T05:43:51Z</time>
      </trkpt>
      <trkpt lat="45.41516" lon="4.45337">
        <ele>832</ele>
        <time>2015-04-19T05:43:53Z</time>
      </trkpt>
      <trkpt lat="45.41514" lon="4.45342">
        <ele>833</ele>
        <time>2015-04-19T05:43:56Z</time>
      </trkpt>
      <trkpt lat="45.41512" lon="4.45346">
        <ele>834</ele>
        <time>2015-04-19T05:43:59Z</time>
      </trkpt>
      <trkpt lat="45.41509" lon="4.45351">
        <ele>835</ele>
        <time>2015-04-19T05:44:02Z</time>
      </trkpt>
      <trkpt lat="45.41507" lon="4.45356">
        <ele>836</ele>
        <time>2015-04-19T05:44:04Z</time>
      </trkpt>
      <trkpt lat="45.41505" lon="4.45359">
        <ele>836</ele>
        <time>2015-04-19T05:44:06Z</time>
      </trkpt>
      <trkpt lat="45.41504" lon="4.45363">
        <ele>837</ele>
        <time>2015-04-19T05:44:08Z</time>
      </trkpt>
      <trkpt lat="45.41502" lon="4.45365">
        <ele>838</ele>
        <time>2015-04-19T05:44:10Z</time>
      </trkpt>
      <trkpt lat="45.41499" lon="4.45368">
        <ele>838</ele>
        <time>2015-04-19T05:44:12Z</time>
      </trkpt>
      <trkpt lat="45.41496" lon="4.45373">
        <ele>839</ele>
        <time>2015-04-19T05:44:15Z</time>
      </trkpt>
      <trkpt lat="45.41494" lon="4.45376">
        <ele>839</ele>
        <time>2015-04-19T05:44:17Z</time>
      </trkpt>
      <trkpt lat="45.41491" lon="4.45382">
        <ele>840</ele>
        <time>2015-04-19T05:44:20Z</time>
      </trkpt>
      <trkpt lat="45.41489" lon="4.45385">
        <ele>841</ele>
        <time>2015-04-19T05:44:22Z</time>
      </trkpt>
      <trkpt lat="45.41485" lon="4.45388">
        <ele>842</ele>
        <time>2015-04-19T05:44:25Z</time>
      </trkpt>
      <trkpt lat="45.41483" lon="4.45389">
        <ele>843</ele>
        <time>2015-04-19T05:44:27Z</time>
      </trkpt>
      <trkpt lat="45.41478" lon="4.45393">
        <ele>843</ele>
        <time>2015-04-19T05:44:30Z</time>
      </trkpt>
      <trkpt lat="45.41476" lon="4.45395">
        <ele>844</ele>
        <time>2015-04-19T05:44:32Z</time>
      </trkpt>
      <trkpt lat="45.41473" lon="4.45397">
        <ele>844</ele>
        <time>2015-04-19T05:44:34Z</time>
      </trkpt>
      <trkpt lat="45.41471" lon="4.45399">
        <ele>845</ele>
        <time>2015-04-19T05:44:36Z</time>
      </trkpt>
      <trkpt lat="45.41466" lon="4.45402">
        <ele>846</ele>
        <time>2015-04-19T05:44:39Z</time>
      </trkpt>
      <trkpt lat="45.41464" lon="4.45402">
        <ele>847</ele>
        <time>2015-04-19T05:44:41Z</time>
      </trkpt>
      <trkpt lat="45.41462" lon="4.45403">
        <ele>847</ele>
        <time>2015-04-19T05:44:43Z</time>
      </trkpt>
      <trkpt lat="45.4146" lon="4.45406">
        <ele>848</ele>
        <time>2015-04-19T05:44:46Z</time>
      </trkpt>
      <trkpt lat="45.41457" lon="4.45408">
        <ele>849</ele>
        <time>2015-04-19T05:44:49Z</time>
      </trkpt>
      <trkpt lat="45.41454" lon="4.45409">
        <ele>850</ele>
        <time>2015-04-19T05:44:51Z</time>
      </trkpt>
      <trkpt lat="45.41451" lon="4.45411">
        <ele>851</ele>
        <time>2015-04-19T05:44:53Z</time>
      </trkpt>
      <trkpt lat="45.41446" lon="4.45411">
        <ele>851</ele>
        <time>2015-04-19T05:44:56Z</time>
      </trkpt>
      <trkpt lat="45.41444" lon="4.45411">
        <ele>852</ele>
        <time>2015-04-19T05:44:58Z</time>
      </trkpt>
      <trkpt lat="45.41442" lon="4.45411">
        <ele>853</ele>
        <time>2015-04-19T05:45:00Z</time>
      </trkpt>
      <trkpt lat="45.41438" lon="4.45411">
        <ele>854</ele>
        <time>2015-04-19T05:45:03Z</time>
      </trkpt>
      <trkpt lat="45.41436" lon="4.4541">
        <ele>854</ele>
        <time>2015-04-19T05:45:05Z</time>
      </trkpt>
      <trkpt lat="45.41433" lon="4.4541">
        <ele>855</ele>
        <time>2015-04-19T05:45:08Z</time>
      </trkpt>
      <trkpt lat="45.41429" lon="4.45409">
        <ele>856</ele>
        <time>2015-04-19T05:45:11Z</time>
      </trkpt>
      <trkpt lat="45.41426" lon="4.45408">
        <ele>857</ele>
        <time>2015-04-19T05:45:14Z</time>
      </trkpt>
      <trkpt lat="45.41423" lon="4.45407">
        <ele>857</ele>
        <time>2015-04-19T05:45:17Z</time>
      </trkpt>
      <trkpt lat="45.41419" lon="4.45406">
        <ele>858</ele>
        <time>2015-04-19T05:45:20Z</time>
      </trkpt>
      <trkpt lat="45.41415" lon="4.45405">
        <ele>859</ele>
        <time>2015-04-19T05:45:23Z</time>
      </trkpt>
      <trkpt lat="45.41412" lon="4.45404">
        <ele>860</ele>
        <time>2015-04-19T05:45:25Z</time>
      </trkpt>
      <trkpt lat="45.4141" lon="4.45404">
        <ele>860</ele>
        <time>2015-04-19T05:45:27Z</time>
      </trkpt>
      <trkpt lat="45.41409" lon="4.45403">
        <ele>860</ele>
        <time>2015-04-19T05:45:29Z</time>
      </trkpt>
      <trkpt lat="45.41405" lon="4.45402">
        <ele>861</ele>
        <time>2015-04-19T05:45:32Z</time>
      </trkpt>
      <trkpt lat="45.41402" lon="4.45402">
        <ele>861</ele>
        <time>2015-04-19T05:45:35Z</time>
      </trkpt>
      <trkpt lat="45.41398" lon="4.45401">
        <ele>862</ele>
        <time>2015-04-19T05:45:38Z</time>
      </trkpt>
      <trkpt lat="45.41395" lon="4.45399">
        <ele>863</ele>
        <time>2015-04-19T05:45:41Z</time>
      </trkpt>
      <trkpt lat="45.41392" lon="4.45399">
        <ele>864</ele>
        <time>2015-04-19T05:45:43Z</time>
      </trkpt>
      <trkpt lat="45.4139" lon="4.45398">
        <ele>864</ele>
        <time>2015-04-19T05:45:45Z</time>
      </trkpt>
      <trkpt lat="45.41387" lon="4.45397">
        <ele>865</ele>
        <time>2015-04-19T05:45:48Z</time>
      </trkpt>
      <trkpt lat="45.41385" lon="4.45396">
        <ele>865</ele>
        <time>2015-04-19T05:45:50Z</time>
      </trkpt>
      <trkpt lat="45.41382" lon="4.45395">
        <ele>866</ele>
        <time>2015-04-19T05:45:53Z</time>
      </trkpt>
      <trkpt lat="45.41379" lon="4.45394">
        <ele>867</ele>
        <time>2015-04-19T05:45:56Z</time>
      </trkpt>
      <trkpt lat="45.41378" lon="4.45393">
        <ele>868</ele>
        <time>2015-04-19T05:45:58Z</time>
      </trkpt>
      <trkpt lat="45.41374" lon="4.45392">
        <ele>868</ele>
        <time>2015-04-19T05:46:01Z</time>
      </trkpt>
      <trkpt lat="45.4137" lon="4.45391">
        <ele>869</ele>
        <time>2015-04-19T05:46:04Z</time>
      </trkpt>
      <trkpt lat="45.41368" lon="4.45391">
        <ele>870</ele>
        <time>2015-04-19T05:46:06Z</time>
      </trkpt>
      <trkpt lat="45.41364" lon="4.4539">
        <ele>871</ele>
        <time>2015-04-19T05:46:09Z</time>
      </trkpt>
      <trkpt lat="45.41362" lon="4.45391">
        <ele>871</ele>
        <time>2015-04-19T05:46:11Z</time>
      </trkpt>
      <trkpt lat="45.41359" lon="4.45391">
        <ele>872</ele>
        <time>2015-04-19T05:46:13Z</time>
      </trkpt>
      <trkpt lat="45.41356" lon="4.45392">
        <ele>873</ele>
        <time>2015-04-19T05:46:16Z</time>
      </trkpt>
      <trkpt lat="45.41354" lon="4.45394">
        <ele>873</ele>
        <time>2015-04-19T05:46:18Z</time>
      </trkpt>
      <trkpt lat="45.41352" lon="4.45395">
        <ele>874</ele>
        <time>2015-04-19T05:46:20Z</time>
      </trkpt>
      <trkpt lat="45.41351" lon="4.45396">
        <ele>874</ele>
        <time>2015-04-19T05:46:22Z</time>
      </trkpt>
      <trkpt lat="45.41348" lon="4.45399">
        <ele>875</ele>
        <time>2015-04-19T05:46:25Z</time>
      </trkpt>
      <trkpt lat="45.41346" lon="4.45402">
        <ele>875</ele>
        <time>2015-04-19T05:46:28Z</time>
      </trkpt>
      <trkpt lat="45.41344" lon="4.45406">
        <ele>876</ele>
        <time>2015-04-19T05:46:31Z</time>
      </trkpt>
      <trkpt lat="45.41341" lon="4.4541">
        <ele>877</ele>
        <time>2015-04-19T05:46:33Z</time>
      </trkpt>
      <trkpt lat="45.4134" lon="4.45416">
        <ele>878</ele>
        <time>2015-04-19T05:46:36Z</time>
      </trkpt>
      <trkpt lat="45.41339" lon="4.4542">
        <ele>878</ele>
        <time>2015-04-19T05:46:38Z</time>
      </trkpt>
      <trkpt lat="45.41338" lon="4.45426">
        <ele>878</ele>
        <time>2015-04-19T05:46:41Z</time>
      </trkpt>
      <trkpt lat="45.41339" lon="4.45431">
        <ele>879</ele>
        <time>2015-04-19T05:46:43Z</time>
      </trkpt>
      <trkpt lat="45.41338" lon="4.4544">
        <ele>879</ele>
        <time>2015-04-19T05:46:46Z</time>
      </trkpt>
      <trkpt lat="45.41336" lon="4.45452">
        <ele>879</ele>
        <time>2015-04-19T05:46:49Z</time>
      </trkpt>
      <trkpt lat="45.41335" lon="4.45458">
        <ele>879</ele>
        <time>2015-04-19T05:46:51Z</time>
      </trkpt>
      <trkpt lat="45.41333" lon="4.45466">
        <ele>880</ele>
        <time>2015-04-19T05:46:53Z</time>
      </trkpt>
      <trkpt lat="45.41332" lon="4.45472">
        <ele>880</ele>
        <time>2015-04-19T05:46:55Z</time>
      </trkpt>
      <trkpt lat="45.41329" lon="4.45482">
        <ele>881</ele>
        <time>2015-04-19T05:46:58Z</time>
      </trkpt>
      <trkpt lat="45.41325" lon="4.45488">
        <ele>881</ele>
        <time>2015-04-19T05:47:00Z</time>
      </trkpt>
      <trkpt lat="45.41321" lon="4.45495">
        <ele>881</ele>
        <time>2015-04-19T05:47:03Z</time>
      </trkpt>
      <trkpt lat="45.41317" lon="4.45499">
        <ele>881</ele>
        <time>2015-04-19T05:47:05Z</time>
      </trkpt>
      <trkpt lat="45.41312" lon="4.45501">
        <ele>882</ele>
        <time>2015-04-19T05:47:08Z</time>
      </trkpt>
      <trkpt lat="45.41307" lon="4.45498">
        <ele>884</ele>
        <time>2015-04-19T05:47:11Z</time>
      </trkpt>
      <trkpt lat="45.41303" lon="4.45496">
        <ele>884</ele>
        <time>2015-04-19T05:47:13Z</time>
      </trkpt>
      <trkpt lat="45.41299" lon="4.45494">
        <ele>885</ele>
        <time>2015-04-19T05:47:15Z</time>
      </trkpt>
      <trkpt lat="45.41295" lon="4.45492">
        <ele>886</ele>
        <time>2015-04-19T05:47:18Z</time>
      </trkpt>
      <trkpt lat="45.41291" lon="4.45493">
        <ele>886</ele>
        <time>2015-04-19T05:47:20Z</time>
      </trkpt>
      <trkpt lat="45.41289" lon="4.45495">
        <ele>887</ele>
        <time>2015-04-19T05:47:22Z</time>
      </trkpt>
      <trkpt lat="45.41285" lon="4.45497">
        <ele>888</ele>
        <time>2015-04-19T05:47:25Z</time>
      </trkpt>
      <trkpt lat="45.4128" lon="4.45501">
        <ele>890</ele>
        <time>2015-04-19T05:47:28Z</time>
      </trkpt>
      <trkpt lat="45.41278" lon="4.45505">
        <ele>891</ele>
        <time>2015-04-19T05:47:30Z</time>
      </trkpt>
      <trkpt lat="45.41275" lon="4.45511">
        <ele>891</ele>
        <time>2015-04-19T05:47:33Z</time>
      </trkpt>
      <trkpt lat="45.41273" lon="4.45518">
        <ele>892</ele>
        <time>2015-04-19T05:47:36Z</time>
      </trkpt>
      <trkpt lat="45.41271" lon="4.45525">
        <ele>893</ele>
        <time>2015-04-19T05:47:39Z</time>
      </trkpt>
      <trkpt lat="45.41269" lon="4.45532">
        <ele>894</ele>
        <time>2015-04-19T05:47:42Z</time>
      </trkpt>
      <trkpt lat="45.41266" lon="4.45537">
        <ele>894</ele>
        <time>2015-04-19T05:47:44Z</time>
      </trkpt>
      <trkpt lat="45.41262" lon="4.45544">
        <ele>895</ele>
        <time>2015-04-19T05:47:47Z</time>
      </trkpt>
      <trkpt lat="45.41259" lon="4.45548">
        <ele>895</ele>
        <time>2015-04-19T05:47:49Z</time>
      </trkpt>
      <trkpt lat="45.41255" lon="4.45553">
        <ele>895</ele>
        <time>2015-04-19T05:47:51Z</time>
      </trkpt>
      <trkpt lat="45.4125" lon="4.45557">
        <ele>895</ele>
        <time>2015-04-19T05:47:54Z</time>
      </trkpt>
      <trkpt lat="45.41246" lon="4.45561">
        <ele>896</ele>
        <time>2015-04-19T05:47:57Z</time>
      </trkpt>
      <trkpt lat="45.41245" lon="4.45564">
        <ele>897</ele>
        <time>2015-04-19T05:47:59Z</time>
      </trkpt>
      <trkpt lat="45.41242" lon="4.4557">
        <ele>897</ele>
        <time>2015-04-19T05:48:02Z</time>
      </trkpt>
      <trkpt lat="45.4124" lon="4.45574">
        <ele>898</ele>
        <time>2015-04-19T05:48:04Z</time>
      </trkpt>
      <trkpt lat="45.41238" lon="4.45578">
        <ele>898</ele>
        <time>2015-04-19T05:48:06Z</time>
      </trkpt>
      <trkpt lat="45.41235" lon="4.45584">
        <ele>899</ele>
        <time>2015-04-19T05:48:09Z</time>
      </trkpt>
      <trkpt lat="45.41234" lon="4.45591">
        <ele>900</ele>
        <time>2015-04-19T05:48:12Z</time>
      </trkpt>
      <trkpt lat="45.41232" lon="4.45597">
        <ele>900</ele>
        <time>2015-04-19T05:48:14Z</time>
      </trkpt>
      <trkpt lat="45.41231" lon="4.45604">
        <ele>900</ele>
        <time>2015-04-19T05:48:17Z</time>
      </trkpt>
      <trkpt lat="45.4123" lon="4.45609">
        <ele>901</ele>
        <time>2015-04-19T05:48:19Z</time>
      </trkpt>
      <trkpt lat="45.41231" lon="4.45614">
        <ele>901</ele>
        <time>2015-04-19T05:48:21Z</time>
      </trkpt>
      <trkpt lat="45.41232" lon="4.45622">
        <ele>902</ele>
        <time>2015-04-19T05:48:24Z</time>
      </trkpt>
      <trkpt lat="45.41231" lon="4.45629">
        <ele>903</ele>
        <time>2015-04-19T05:48:27Z</time>
      </trkpt>
      <trkpt lat="45.41232" lon="4.45638">
        <ele>903</ele>
        <time>2015-04-19T05:48:30Z</time>
      </trkpt>
      <trkpt lat="45.41232" lon="4.45646">
        <ele>904</ele>
        <time>2015-04-19T05:48:33Z</time>
      </trkpt>
      <trkpt lat="45.41233" lon="4.45654">
        <ele>904</ele>
        <time>2015-04-19T05:48:36Z</time>
      </trkpt>
      <trkpt lat="45.41233" lon="4.45661">
        <ele>905</ele>
        <time>2015-04-19T05:48:39Z</time>
      </trkpt>
      <trkpt lat="45.41234" lon="4.45668">
        <ele>906</ele>
        <time>2015-04-19T05:48:42Z</time>
      </trkpt>
      <trkpt lat="45.41235" lon="4.45674">
        <ele>907</ele>
        <time>2015-04-19T05:48:45Z</time>
      </trkpt>
      <trkpt lat="45.41236" lon="4.45679">
        <ele>907</ele>
        <time>2015-04-19T05:48:47Z</time>
      </trkpt>
      <trkpt lat="45.41236" lon="4.45684">
        <ele>908</ele>
        <time>2015-04-19T05:48:49Z</time>
      </trkpt>
      <trkpt lat="45.41237" lon="4.4569">
        <ele>908</ele>
        <time>2015-04-19T05:48:52Z</time>
      </trkpt>
      <trkpt lat="45.41237" lon="4.45696">
        <ele>909</ele>
        <time>2015-04-19T05:48:55Z</time>
      </trkpt>
      <trkpt lat="45.41236" lon="4.45701">
        <ele>910</ele>
        <time>2015-04-19T05:48:57Z</time>
      </trkpt>
      <trkpt lat="45.41233" lon="4.45706">
        <ele>910</ele>
        <time>2015-04-19T05:49:00Z</time>
      </trkpt>
      <trkpt lat="45.4123" lon="4.45709">
        <ele>911</ele>
        <time>2015-04-19T05:49:02Z</time>
      </trkpt>
      <trkpt lat="45.41229" lon="4.45713">
        <ele>911</ele>
        <time>2015-04-19T05:49:05Z</time>
      </trkpt>
      <trkpt lat="45.41228" lon="4.45717">
        <ele>912</ele>
        <time>2015-04-19T05:49:08Z</time>
      </trkpt>
      <trkpt lat="45.41228" lon="4.45721">
        <ele>912</ele>
        <time>2015-04-19T05:49:10Z</time>
      </trkpt>
      <trkpt lat="45.41229" lon="4.45725">
        <ele>912</ele>
        <time>2015-04-19T05:49:13Z</time>
      </trkpt>
      <trkpt lat="45.41229" lon="4.45729">
        <ele>913</ele>
        <time>2015-04-19T05:49:15Z</time>
      </trkpt>
      <trkpt lat="45.4123" lon="4.45732">
        <ele>914</ele>
        <time>2015-04-19T05:49:17Z</time>
      </trkpt>
      <trkpt lat="45.41229" lon="4.45738">
        <ele>914</ele>
        <time>2015-04-19T05:49:20Z</time>
      </trkpt>
      <trkpt lat="45.41227" lon="4.45745">
        <ele>915</ele>
        <time>2015-04-19T05:49:23Z</time>
      </trkpt>
      <trkpt lat="45.41227" lon="4.45749">
        <ele>916</ele>
        <time>2015-04-19T05:49:25Z</time>
      </trkpt>
      <trkpt lat="45.41226" lon="4.45755">
        <ele>916</ele>
        <time>2015-04-19T05:49:28Z</time>
      </trkpt>
      <trkpt lat="45.41226" lon="4.45759">
        <ele>917</ele>
        <time>2015-04-19T05:49:30Z</time>
      </trkpt>
      <trkpt lat="45.41225" lon="4.45763">
        <ele>917</ele>
        <time>2015-04-19T05:49:32Z</time>
      </trkpt>
      <trkpt lat="45.41225" lon="4.45768">
        <ele>918</ele>
        <time>2015-04-19T05:49:35Z</time>
      </trkpt>
      <trkpt lat="45.41224" lon="4.45774">
        <ele>919</ele>
        <time>2015-04-19T05:49:38Z</time>
      </trkpt>
      <trkpt lat="45.41224" lon="4.45778">
        <ele>919</ele>
        <time>2015-04-19T05:49:40Z</time>
      </trkpt>
      <trkpt lat="45.41224" lon="4.45784">
        <ele>919</ele>
        <time>2015-04-19T05:49:43Z</time>
      </trkpt>
      <trkpt lat="45.41225" lon="4.45787">
        <ele>920</ele>
        <time>2015-04-19T05:49:45Z</time>
      </trkpt>
      <trkpt lat="45.41224" lon="4.45793">
        <ele>920</ele>
        <time>2015-04-19T05:49:48Z</time>
      </trkpt>
      <trkpt lat="45.41224" lon="4.45796">
        <ele>921</ele>
        <time>2015-04-19T05:49:50Z</time>
      </trkpt>
      <trkpt lat="45.41223" lon="4.45799">
        <ele>921</ele>
        <time>2015-04-19T05:49:52Z</time>
      </trkpt>
      <trkpt lat="45.41223" lon="4.45804">
        <ele>922</ele>
        <time>2015-04-19T05:49:55Z</time>
      </trkpt>
      <trkpt lat="45.41223" lon="4.4581">
        <ele>922</ele>
        <time>2015-04-19T05:49:58Z</time>
      </trkpt>
      <trkpt lat="45.41223" lon="4.45813">
        <ele>922</ele>
        <time>2015-04-19T05:50:00Z</time>
      </trkpt>
      <trkpt lat="45.41222" lon="4.45817">
        <ele>923</ele>
        <time>2015-04-19T05:50:02Z</time>
      </trkpt>
      <trkpt lat="45.41222" lon="4.45822">
        <ele>923</ele>
        <time>2015-04-19T05:50:05Z</time>
      </trkpt>
      <trkpt lat="45.41222" lon="4.45825">
        <ele>924</ele>
        <time>2015-04-19T05:50:07Z</time>
      </trkpt>
      <trkpt lat="45.41221" lon="4.45829">
        <ele>924</ele>
        <time>2015-04-19T05:50:10Z</time>
      </trkpt>
      <trkpt lat="45.41221" lon="4.45832">
        <ele>925</ele>
        <time>2015-04-19T05:50:12Z</time>
      </trkpt>
      <trkpt lat="45.41221" lon="4.45837">
        <ele>926</ele>
        <time>2015-04-19T05:50:15Z</time>
      </trkpt>
      <trkpt lat="45.4122" lon="4.45843">
        <ele>926</ele>
        <time>2015-04-19T05:50:18Z</time>
      </trkpt>
      <trkpt lat="45.41219" lon="4.45846">
        <ele>927</ele>
        <time>2015-04-19T05:50:20Z</time>
      </trkpt>
      <trkpt lat="45.41219" lon="4.45851">
        <ele>928</ele>
        <time>2015-04-19T05:50:23Z</time>
      </trkpt>
      <trkpt lat="45.41219" lon="4.45857">
        <ele>928</ele>
        <time>2015-04-19T05:50:26Z</time>
      </trkpt>
      <trkpt lat="45.41219" lon="4.45861">
        <ele>929</ele>
        <time>2015-04-19T05:50:28Z</time>
      </trkpt>
      <trkpt lat="45.41219" lon="4.45865">
        <ele>929</ele>
        <time>2015-04-19T05:50:30Z</time>
      </trkpt>
      <trkpt lat="45.4122" lon="4.45872">
        <ele>930</ele>
        <time>2015-04-19T05:50:33Z</time>
      </trkpt>
      <trkpt lat="45.41219" lon="4.45875">
        <ele>930</ele>
        <time>2015-04-19T05:50:35Z</time>
      </trkpt>
      <trkpt lat="45.41219" lon="4.45881">
        <ele>930</ele>
        <time>2015-04-19T05:50:38Z</time>
      </trkpt>
      <trkpt lat="45.41219" lon="4.45885">
        <ele>931</ele>
        <time>2015-04-19T05:50:40Z</time>
      </trkpt>
      <trkpt lat="45.41219" lon="4.4589">
        <ele>932</ele>
        <time>2015-04-19T05:50:43Z</time>
      </trkpt>
      <trkpt lat="45.41219" lon="4.45896">
        <ele>933</ele>
        <time>2015-04-19T05:50:46Z</time>
      </trkpt>
      <trkpt lat="45.41219" lon="4.45902">
        <ele>933</ele>
        <time>2015-04-19T05:50:49Z</time>
      </trkpt>
      <trkpt lat="45.41218" lon="4.45906">
        <ele>934</ele>
        <time>2015-04-19T05:50:52Z</time>
      </trkpt>
      <trkpt lat="45.41217" lon="4.4591">
        <ele>935</ele>
        <time>2015-04-19T05:50:54Z</time>
      </trkpt>
      <trkpt lat="45.41216" lon="4.45915">
        <ele>935</ele>
        <time>2015-04-19T05:50:57Z</time>
      </trkpt>
      <trkpt lat="45.41215" lon="4.45919">
        <ele>936</ele>
        <time>2015-04-19T05:51:00Z</time>
      </trkpt>
      <trkpt lat="45.41215" lon="4.45924">
        <ele>937</ele>
        <time>2015-04-19T05:51:03Z</time>
      </trkpt>
      <trkpt lat="45.41214" lon="4.45928">
        <ele>938</ele>
        <time>2015-04-19T05:51:06Z</time>
      </trkpt>
      <trkpt lat="45.41214" lon="4.4593">
        <ele>938</ele>
        <time>2015-04-19T05:51:08Z</time>
      </trkpt>
      <trkpt lat="45.41214" lon="4.45934">
        <ele>938</ele>
        <time>2015-04-19T05:51:11Z</time>
      </trkpt>
      <trkpt lat="45.41213" lon="4.45938">
        <ele>939</ele>
        <time>2015-04-19T05:51:14Z</time>
      </trkpt>
      <trkpt lat="45.41213" lon="4.4594">
        <ele>940</ele>
        <time>2015-04-19T05:51:16Z</time>
      </trkpt>
      <trkpt lat="45.41213" lon="4.45944">
        <ele>940</ele>
        <time>2015-04-19T05:51:19Z</time>
      </trkpt>
      <trkpt lat="45.41213" lon="4.45948">
        <ele>941</ele>
        <time>2015-04-19T05:51:22Z</time>
      </trkpt>
      <trkpt lat="45.41214" lon="4.45952">
        <ele>942</ele>
        <time>2015-04-19T05:51:25Z</time>
      </trkpt>
      <trkpt lat="45.41216" lon="4.45955">
        <ele>942</ele>
        <time>2015-04-19T05:51:27Z</time>
      </trkpt>
      <trkpt lat="45.41217" lon="4.4596">
        <ele>943</ele>
        <time>2015-04-19T05:51:30Z</time>
      </trkpt>
      <trkpt lat="45.41219" lon="4.45966">
        <ele>943</ele>
        <time>2015-04-19T05:51:33Z</time>
      </trkpt>
      <trkpt lat="45.41221" lon="4.45971">
        <ele>944</ele>
        <time>2015-04-19T05:51:36Z</time>
      </trkpt>
      <trkpt lat="45.41221" lon="4.45975">
        <ele>945</ele>
        <time>2015-04-19T05:51:38Z</time>
      </trkpt>
      <trkpt lat="45.41222" lon="4.4598">
        <ele>946</ele>
        <time>2015-04-19T05:51:41Z</time>
      </trkpt>
      <trkpt lat="45.41222" lon="4.45984">
        <ele>946</ele>
        <time>2015-04-19T05:51:43Z</time>
      </trkpt>
      <trkpt lat="45.41223" lon="4.4599">
        <ele>946</ele>
        <time>2015-04-19T05:51:46Z</time>
      </trkpt>
      <trkpt lat="45.41224" lon="4.45994">
        <ele>947</ele>
        <time>2015-04-19T05:51:48Z</time>
      </trkpt>
      <trkpt lat="45.41226" lon="4.45999">
        <ele>948</ele>
        <time>2015-04-19T05:51:51Z</time>
      </trkpt>
      <trkpt lat="45.41226" lon="4.46002">
        <ele>948</ele>
        <time>2015-04-19T05:51:53Z</time>
      </trkpt>
      <trkpt lat="45.41226" lon="4.46006">
        <ele>949</ele>
        <time>2015-04-19T05:51:55Z</time>
      </trkpt>
      <trkpt lat="45.41226" lon="4.46009">
        <ele>949</ele>
        <time>2015-04-19T05:51:57Z</time>
      </trkpt>
      <trkpt lat="45.41225" lon="4.46017">
        <ele>950</ele>
        <time>2015-04-19T05:52:00Z</time>
      </trkpt>
      <trkpt lat="45.41225" lon="4.46023">
        <ele>951</ele>
        <time>2015-04-19T05:52:03Z</time>
      </trkpt>
      <trkpt lat="45.41223" lon="4.46028">
        <ele>951</ele>
        <time>2015-04-19T05:52:05Z</time>
      </trkpt>
      <trkpt lat="45.4122" lon="4.46034">
        <ele>952</ele>
        <time>2015-04-19T05:52:08Z</time>
      </trkpt>
      <trkpt lat="45.41217" lon="4.4604">
        <ele>953</ele>
        <time>2015-04-19T05:52:11Z</time>
      </trkpt>
      <trkpt lat="45.41215" lon="4.46044">
        <ele>954</ele>
        <time>2015-04-19T05:52:13Z</time>
      </trkpt>
      <trkpt lat="45.41214" lon="4.46048">
        <ele>954</ele>
        <time>2015-04-19T05:52:15Z</time>
      </trkpt>
      <trkpt lat="45.4121" lon="4.46053">
        <ele>955</ele>
        <time>2015-04-19T05:52:18Z</time>
      </trkpt>
      <trkpt lat="45.41208" lon="4.46057">
        <ele>955</ele>
        <time>2015-04-19T05:52:20Z</time>
      </trkpt>
      <trkpt lat="45.41205" lon="4.46062">
        <ele>956</ele>
        <time>2015-04-19T05:52:22Z</time>
      </trkpt>
      <trkpt lat="45.412" lon="4.46068">
        <ele>956</ele>
        <time>2015-04-19T05:52:25Z</time>
      </trkpt>
      <trkpt lat="45.41195" lon="4.46073">
        <ele>957</ele>
        <time>2015-04-19T05:52:28Z</time>
      </trkpt>
      <trkpt lat="45.41192" lon="4.46077">
        <ele>958</ele>
        <time>2015-04-19T05:52:30Z</time>
      </trkpt>
      <trkpt lat="45.41189" lon="4.4608">
        <ele>958</ele>
        <time>2015-04-19T05:52:32Z</time>
      </trkpt>
      <trkpt lat="45.41187" lon="4.46086">
        <ele>958</ele>
        <time>2015-04-19T05:52:35Z</time>
      </trkpt>
      <trkpt lat="45.4118" lon="4.4609">
        <ele>958</ele>
        <time>2015-04-19T05:52:38Z</time>
      </trkpt>
      <trkpt lat="45.41176" lon="4.46094">
        <ele>958</ele>
        <time>2015-04-19T05:52:41Z</time>
      </trkpt>
      <trkpt lat="45.41172" lon="4.46101">
        <ele>957</ele>
        <time>2015-04-19T05:52:44Z</time>
      </trkpt>
      <trkpt lat="45.41168" lon="4.4611">
        <ele>956</ele>
        <time>2015-04-19T05:52:47Z</time>
      </trkpt>
      <trkpt lat="45.41164" lon="4.46118">
        <ele>955</ele>
        <time>2015-04-19T05:52:50Z</time>
      </trkpt>
      <trkpt lat="45.41163" lon="4.46124">
        <ele>955</ele>
        <time>2015-04-19T05:52:52Z</time>
      </trkpt>
      <trkpt lat="45.41158" lon="4.46134">
        <ele>954</ele>
        <time>2015-04-19T05:52:55Z</time>
      </trkpt>
      <trkpt lat="45.41153" lon="4.46144">
        <ele>954</ele>
        <time>2015-04-19T05:52:58Z</time>
      </trkpt>
      <trkpt lat="45.4115" lon="4.46149">
        <ele>953</ele>
        <time>2015-04-19T05:53:00Z</time>
      </trkpt>
      <trkpt lat="45.41146" lon="4.46159">
        <ele>953</ele>
        <time>2015-04-19T05:53:03Z</time>
      </trkpt>
      <trkpt lat="45.41142" lon="4.46166">
        <ele>952</ele>
        <time>2015-04-19T05:53:05Z</time>
      </trkpt>
      <trkpt lat="45.41138" lon="4.46174">
        <ele>951</ele>
        <time>2015-04-19T05:53:08Z</time>
      </trkpt>
      <trkpt lat="45.41135" lon="4.4618">
        <ele>951</ele>
        <time>2015-04-19T05:53:10Z</time>
      </trkpt>
      <trkpt lat="45.41132" lon="4.46189">
        <ele>951</ele>
        <time>2015-04-19T05:53:13Z</time>
      </trkpt>
      <trkpt lat="45.41129" lon="4.46198">
        <ele>950</ele>
        <time>2015-04-19T05:53:16Z</time>
      </trkpt>
      <trkpt lat="45.41127" lon="4.46205">
        <ele>950</ele>
        <time>2015-04-19T05:53:18Z</time>
      </trkpt>
      <trkpt lat="45.41124" lon="4.46213">
        <ele>949</ele>
        <time>2015-04-19T05:53:20Z</time>
      </trkpt>
      <trkpt lat="45.41121" lon="4.46225">
        <ele>949</ele>
        <time>2015-04-19T05:53:23Z</time>
      </trkpt>
      <trkpt lat="45.41118" lon="4.46237">
        <ele>949</ele>
        <time>2015-04-19T05:53:26Z</time>
      </trkpt>
      <trkpt lat="45.41117" lon="4.46244">
        <ele>948</ele>
        <time>2015-04-19T05:53:28Z</time>
      </trkpt>
      <trkpt lat="45.41118" lon="4.46255">
        <ele>948</ele>
        <time>2015-04-19T05:53:31Z</time>
      </trkpt>
      <trkpt lat="45.41121" lon="4.46261">
        <ele>948</ele>
        <time>2015-04-19T05:53:34Z</time>
      </trkpt>
      <trkpt lat="45.41125" lon="4.46265">
        <ele>948</ele>
        <time>2015-04-19T05:53:37Z</time>
      </trkpt>
      <trkpt lat="45.41128" lon="4.46269">
        <ele>948</ele>
        <time>2015-04-19T05:53:39Z</time>
      </trkpt>
      <trkpt lat="45.41134" lon="4.46274">
        <ele>947</ele>
        <time>2015-04-19T05:53:42Z</time>
      </trkpt>
      <trkpt lat="45.4114" lon="4.46278">
        <ele>947</ele>
        <time>2015-04-19T05:53:45Z</time>
      </trkpt>
      <trkpt lat="45.41146" lon="4.46284">
        <ele>947</ele>
        <time>2015-04-19T05:53:48Z</time>
      </trkpt>
      <trkpt lat="45.41153" lon="4.46289">
        <ele>947</ele>
        <time>2015-04-19T05:53:51Z</time>
      </trkpt>
      <trkpt lat="45.41156" lon="4.46292">
        <ele>947</ele>
        <time>2015-04-19T05:53:53Z</time>
      </trkpt>
      <trkpt lat="45.4116" lon="4.46298">
        <ele>947</ele>
        <time>2015-04-19T05:53:56Z</time>
      </trkpt>
      <trkpt lat="45.41163" lon="4.46302">
        <ele>947</ele>
        <time>2015-04-19T05:53:58Z</time>
      </trkpt>
      <trkpt lat="45.4117" lon="4.46306">
        <ele>948</ele>
        <time>2015-04-19T05:54:01Z</time>
      </trkpt>
      <trkpt lat="45.41175" lon="4.46309">
        <ele>948</ele>
        <time>2015-04-19T05:54:03Z</time>
      </trkpt>
      <trkpt lat="45.41178" lon="4.46312">
        <ele>948</ele>
        <time>2015-04-19T05:54:05Z</time>
      </trkpt>
      <trkpt lat="45.41184" lon="4.46314">
        <ele>948</ele>
        <time>2015-04-19T05:54:08Z</time>
      </trkpt>
      <trkpt lat="45.41187" lon="4.46317">
        <ele>948</ele>
        <time>2015-04-19T05:54:10Z</time>
      </trkpt>
      <trkpt lat="45.41191" lon="4.46319">
        <ele>948</ele>
        <time>2015-04-19T05:54:13Z</time>
      </trkpt>
      <trkpt lat="45.41196" lon="4.46322">
        <ele>948</ele>
        <time>2015-04-19T05:54:15Z</time>
      </trkpt>
      <trkpt lat="45.41203" lon="4.46326">
        <ele>948</ele>
        <time>2015-04-19T05:54:18Z</time>
      </trkpt>
      <trkpt lat="45.41207" lon="4.4633">
        <ele>948</ele>
        <time>2015-04-19T05:54:20Z</time>
      </trkpt>
      <trkpt lat="45.41211" lon="4.46333">
        <ele>948</ele>
        <time>2015-04-19T05:54:22Z</time>
      </trkpt>
      <trkpt lat="45.41219" lon="4.46338">
        <ele>948</ele>
        <time>2015-04-19T05:54:25Z</time>
      </trkpt>
      <trkpt lat="45.41224" lon="4.46345">
        <ele>948</ele>
        <time>2015-04-19T05:54:28Z</time>
      </trkpt>
      <trkpt lat="45.41229" lon="4.46349">
        <ele>948</ele>
        <time>2015-04-19T05:54:30Z</time>
      </trkpt>
      <trkpt lat="45.41233" lon="4.46353">
        <ele>948</ele>
        <time>2015-04-19T05:54:32Z</time>
      </trkpt>
      <trkpt lat="45.41239" lon="4.4636">
        <ele>949</ele>
        <time>2015-04-19T05:54:35Z</time>
      </trkpt>
      <trkpt lat="45.41243" lon="4.46366">
        <ele>949</ele>
        <time>2015-04-19T05:54:38Z</time>
      </trkpt>
      <trkpt lat="45.41245" lon="4.46369">
        <ele>949</ele>
        <time>2015-04-19T05:54:40Z</time>
      </trkpt>
      <trkpt lat="45.41249" lon="4.46375">
        <ele>950</ele>
        <time>2015-04-19T05:54:43Z</time>
      </trkpt>
      <trkpt lat="45.41251" lon="4.4638">
        <ele>950</ele>
        <time>2015-04-19T05:54:45Z</time>
      </trkpt>
      <trkpt lat="45.41255" lon="4.46387">
        <ele>950</ele>
        <time>2015-04-19T05:54:48Z</time>
      </trkpt>
      <trkpt lat="45.41258" lon="4.46391">
        <ele>950</ele>
        <time>2015-04-19T05:54:50Z</time>
      </trkpt>
      <trkpt lat="45.41262" lon="4.46396">
        <ele>950</ele>
        <time>2015-04-19T05:54:52Z</time>
      </trkpt>
      <trkpt lat="45.41266" lon="4.46402">
        <ele>951</ele>
        <time>2015-04-19T05:54:54Z</time>
      </trkpt>
      <trkpt lat="45.41273" lon="4.46408">
        <ele>951</ele>
        <time>2015-04-19T05:54:57Z</time>
      </trkpt>
      <trkpt lat="45.41277" lon="4.46412">
        <ele>951</ele>
        <time>2015-04-19T05:54:59Z</time>
      </trkpt>
      <trkpt lat="45.41286" lon="4.46418">
        <ele>951</ele>
        <time>2015-04-19T05:55:02Z</time>
      </trkpt>
      <trkpt lat="45.41292" lon="4.46422">
        <ele>951</ele>
        <time>2015-04-19T05:55:04Z</time>
      </trkpt>
      <trkpt lat="45.41298" lon="4.46431">
        <ele>950</ele>
        <time>2015-04-19T05:55:07Z</time>
      </trkpt>
      <trkpt lat="45.41302" lon="4.46439">
        <ele>950</ele>
        <time>2015-04-19T05:55:10Z</time>
      </trkpt>
      <trkpt lat="45.41305" lon="4.46446">
        <ele>949</ele>
        <time>2015-04-19T05:55:12Z</time>
      </trkpt>
      <trkpt lat="45.41309" lon="4.46456">
        <ele>949</ele>
        <time>2015-04-19T05:55:15Z</time>
      </trkpt>
      <trkpt lat="45.41315" lon="4.46465">
        <ele>950</ele>
        <time>2015-04-19T05:55:18Z</time>
      </trkpt>
      <trkpt lat="45.4132" lon="4.46473">
        <ele>951</ele>
        <time>2015-04-19T05:55:21Z</time>
      </trkpt>
      <trkpt lat="45.41322" lon="4.46478">
        <ele>952</ele>
        <time>2015-04-19T05:55:23Z</time>
      </trkpt>
      <trkpt lat="45.41325" lon="4.46485">
        <ele>953</ele>
        <time>2015-04-19T05:55:26Z</time>
      </trkpt>
      <trkpt lat="45.41329" lon="4.46492">
        <ele>954</ele>
        <time>2015-04-19T05:55:29Z</time>
      </trkpt>
      <trkpt lat="45.41332" lon="4.46501">
        <ele>954</ele>
        <time>2015-04-19T05:55:32Z</time>
      </trkpt>
      <trkpt lat="45.41335" lon="4.46506">
        <ele>955</ele>
        <time>2015-04-19T05:55:34Z</time>
      </trkpt>
      <trkpt lat="45.41338" lon="4.46514">
        <ele>956</ele>
        <time>2015-04-19T05:55:37Z</time>
      </trkpt>
      <trkpt lat="45.41341" lon="4.46523">
        <ele>956</ele>
        <time>2015-04-19T05:55:40Z</time>
      </trkpt>
      <trkpt lat="45.41345" lon="4.46531">
        <ele>957</ele>
        <time>2015-04-19T05:55:43Z</time>
      </trkpt>
      <trkpt lat="45.41348" lon="4.46539">
        <ele>957</ele>
        <time>2015-04-19T05:55:46Z</time>
      </trkpt>
      <trkpt lat="45.4135" lon="4.46545">
        <ele>958</ele>
        <time>2015-04-19T05:55:48Z</time>
      </trkpt>
      <trkpt lat="45.41354" lon="4.46555">
        <ele>958</ele>
        <time>2015-04-19T05:55:51Z</time>
      </trkpt>
      <trkpt lat="45.41355" lon="4.46562">
        <ele>959</ele>
        <time>2015-04-19T05:55:53Z</time>
      </trkpt>
      <trkpt lat="45.41356" lon="4.46573">
        <ele>959</ele>
        <time>2015-04-19T05:55:56Z</time>
      </trkpt>
      <trkpt lat="45.41357" lon="4.46584">
        <ele>959</ele>
        <time>2015-04-19T05:55:59Z</time>
      </trkpt>
      <trkpt lat="45.41357" lon="4.46596">
        <ele>959</ele>
        <time>2015-04-19T05:56:02Z</time>
      </trkpt>
      <trkpt lat="45.41358" lon="4.46607">
        <ele>958</ele>
        <time>2015-04-19T05:56:05Z</time>
      </trkpt>
      <trkpt lat="45.41357" lon="4.46617">
        <ele>958</ele>
        <time>2015-04-19T05:56:08Z</time>
      </trkpt>
      <trkpt lat="45.41357" lon="4.46626">
        <ele>958</ele>
        <time>2015-04-19T05:56:11Z</time>
      </trkpt>
      <trkpt lat="45.41355" lon="4.46632">
        <ele>958</ele>
        <time>2015-04-19T05:56:13Z</time>
      </trkpt>
      <trkpt lat="45.41353" lon="4.46642">
        <ele>957</ele>
        <time>2015-04-19T05:56:16Z</time>
      </trkpt>
      <trkpt lat="45.41351" lon="4.46648">
        <ele>956</ele>
        <time>2015-04-19T05:56:18Z</time>
      </trkpt>
      <trkpt lat="45.41349" lon="4.46657">
        <ele>955</ele>
        <time>2015-04-19T05:56:21Z</time>
      </trkpt>
      <trkpt lat="45.41344" lon="4.46666">
        <ele>954</ele>
        <time>2015-04-19T05:56:24Z</time>
      </trkpt>
      <trkpt lat="45.41342" lon="4.46673">
        <ele>953</ele>
        <time>2015-04-19T05:56:26Z</time>
      </trkpt>
      <trkpt lat="45.41338" lon="4.46682">
        <ele>952</ele>
        <time>2015-04-19T05:56:29Z</time>
      </trkpt>
      <trkpt lat="45.41336" lon="4.46689">
        <ele>951</ele>
        <time>2015-04-19T05:56:31Z</time>
      </trkpt>
      <trkpt lat="45.41333" lon="4.46695">
        <ele>951</ele>
        <time>2015-04-19T05:56:33Z</time>
      </trkpt>
      <trkpt lat="45.41329" lon="4.46704">
        <ele>950</ele>
        <time>2015-04-19T05:56:36Z</time>
      </trkpt>
      <trkpt lat="45.41325" lon="4.4671">
        <ele>949</ele>
        <time>2015-04-19T05:56:38Z</time>
      </trkpt>
      <trkpt lat="45.41324" lon="4.46716">
        <ele>948</ele>
        <time>2015-04-19T05:56:40Z</time>
      </trkpt>
      <trkpt lat="45.41322" lon="4.46721">
        <ele>947</ele>
        <time>2015-04-19T05:56:42Z</time>
      </trkpt>
      <trkpt lat="45.4132" lon="4.46727">
        <ele>947</ele>
        <time>2015-04-19T05:56:44Z</time>
      </trkpt>
      <trkpt lat="45.41317" lon="4.46732">
        <ele>946</ele>
        <time>2015-04-19T05:56:46Z</time>
      </trkpt>
      <trkpt lat="45.41313" lon="4.46741">
        <ele>945</ele>
        <time>2015-04-19T05:56:49Z</time>
      </trkpt>
      <trkpt lat="45.4131" lon="4.4675">
        <ele>944</ele>
        <time>2015-04-19T05:56:52Z</time>
      </trkpt>
      <trkpt lat="45.41307" lon="4.46756">
        <ele>943</ele>
        <time>2015-04-19T05:56:54Z</time>
      </trkpt>
      <trkpt lat="45.41304" lon="4.46761">
        <ele>941</ele>
        <time>2015-04-19T05:56:57Z</time>
      </trkpt>
      <trkpt lat="45.41302" lon="4.46766">
        <ele>941</ele>
        <time>2015-04-19T05:56:59Z</time>
      </trkpt>
      <trkpt lat="45.41296" lon="4.46775">
        <ele>940</ele>
        <time>2015-04-19T05:57:02Z</time>
      </trkpt>
      <trkpt lat="45.41293" lon="4.46781">
        <ele>939</ele>
        <time>2015-04-19T05:57:04Z</time>
      </trkpt>
      <trkpt lat="45.41289" lon="4.46789">
        <ele>938</ele>
        <time>2015-04-19T05:57:07Z</time>
      </trkpt>
      <trkpt lat="45.41286" lon="4.46794">
        <ele>936</ele>
        <time>2015-04-19T05:57:09Z</time>
      </trkpt>
      <trkpt lat="45.41282" lon="4.46803">
        <ele>936</ele>
        <time>2015-04-19T05:57:12Z</time>
      </trkpt>
      <trkpt lat="45.41277" lon="4.46811">
        <ele>934</ele>
        <time>2015-04-19T05:57:15Z</time>
      </trkpt>
      <trkpt lat="45.41274" lon="4.46815">
        <ele>933</ele>
        <time>2015-04-19T05:57:17Z</time>
      </trkpt>
      <trkpt lat="45.4127" lon="4.4682">
        <ele>932</ele>
        <time>2015-04-19T05:57:19Z</time>
      </trkpt>
      <trkpt lat="45.41265" lon="4.46829">
        <ele>930</ele>
        <time>2015-04-19T05:57:22Z</time>
      </trkpt>
      <trkpt lat="45.41261" lon="4.46836">
        <ele>929</ele>
        <time>2015-04-19T05:57:25Z</time>
      </trkpt>
      <trkpt lat="45.41258" lon="4.4684">
        <ele>928</ele>
        <time>2015-04-19T05:57:27Z</time>
      </trkpt>
      <trkpt lat="45.41254" lon="4.46847">
        <ele>927</ele>
        <time>2015-04-19T05:57:30Z</time>
      </trkpt>
      <trkpt lat="45.41251" lon="4.46851">
        <ele>926</ele>
        <time>2015-04-19T05:57:32Z</time>
      </trkpt>
      <trkpt lat="45.41246" lon="4.46856">
        <ele>925</ele>
        <time>2015-04-19T05:57:34Z</time>
      </trkpt>
      <trkpt lat="45.41243" lon="4.46862">
        <ele>925</ele>
        <time>2015-04-19T05:57:36Z</time>
      </trkpt>
      <trkpt lat="45.41238" lon="4.46872">
        <ele>924</ele>
        <time>2015-04-19T05:57:39Z</time>
      </trkpt>
      <trkpt lat="45.41235" lon="4.46878">
        <ele>923</ele>
        <time>2015-04-19T05:57:41Z</time>
      </trkpt>
      <trkpt lat="45.4123" lon="4.46889">
        <ele>921</ele>
        <time>2015-04-19T05:57:44Z</time>
      </trkpt>
      <trkpt lat="45.41227" lon="4.46896">
        <ele>920</ele>
        <time>2015-04-19T05:57:46Z</time>
      </trkpt>
      <trkpt lat="45.41221" lon="4.46905">
        <ele>918</ele>
        <time>2015-04-19T05:57:49Z</time>
      </trkpt>
      <trkpt lat="45.41216" lon="4.46912">
        <ele>917</ele>
        <time>2015-04-19T05:57:51Z</time>
      </trkpt>
      <trkpt lat="45.4121" lon="4.4692">
        <ele>916</ele>
        <time>2015-04-19T05:57:54Z</time>
      </trkpt>
      <trkpt lat="45.41203" lon="4.46926">
        <ele>914</ele>
        <time>2015-04-19T05:57:57Z</time>
      </trkpt>
      <trkpt lat="45.41194" lon="4.4693">
        <ele>913</ele>
        <time>2015-04-19T05:58:00Z</time>
      </trkpt>
      <trkpt lat="45.41188" lon="4.46933">
        <ele>911</ele>
        <time>2015-04-19T05:58:02Z</time>
      </trkpt>
      <trkpt lat="45.41178" lon="4.46938">
        <ele>910</ele>
        <time>2015-04-19T05:58:05Z</time>
      </trkpt>
      <trkpt lat="45.4117" lon="4.46943">
        <ele>909</ele>
        <time>2015-04-19T05:58:08Z</time>
      </trkpt>
      <trkpt lat="45.41162" lon="4.46946">
        <ele>908</ele>
        <time>2015-04-19T05:58:11Z</time>
      </trkpt>
      <trkpt lat="45.41154" lon="4.46948">
        <ele>907</ele>
        <time>2015-04-19T05:58:14Z</time>
      </trkpt>
      <trkpt lat="45.4115" lon="4.46951">
        <ele>906</ele>
        <time>2015-04-19T05:58:16Z</time>
      </trkpt>
      <trkpt lat="45.41143" lon="4.46955">
        <ele>906</ele>
        <time>2015-04-19T05:58:19Z</time>
      </trkpt>
      <trkpt lat="45.41137" lon="4.4696">
        <ele>905</ele>
        <time>2015-04-19T05:58:22Z</time>
      </trkpt>
      <trkpt lat="45.41132" lon="4.46963">
        <ele>904</ele>
        <time>2015-04-19T05:58:24Z</time>
      </trkpt>
      <trkpt lat="45.41127" lon="4.46967">
        <ele>903</ele>
        <time>2015-04-19T05:58:27Z</time>
      </trkpt>
      <trkpt lat="45.41121" lon="4.46974">
        <ele>901</ele>
        <time>2015-04-19T05:58:30Z</time>
      </trkpt>
      <trkpt lat="45.41115" lon="4.46979">
        <ele>900</ele>
        <time>2015-04-19T05:58:33Z</time>
      </trkpt>
      <trkpt lat="45.4111" lon="4.46982">
        <ele>899</ele>
        <time>2015-04-19T05:58:35Z</time>
      </trkpt>
      <trkpt lat="45.41106" lon="4.46986">
        <ele>898</ele>
        <time>2015-04-19T05:58:37Z</time>
      </trkpt>
      <trkpt lat="45.41099" lon="4.4699">
        <ele>897</ele>
        <time>2015-04-19T05:58:40Z</time>
      </trkpt>
      <trkpt lat="45.41093" lon="4.46995">
        <ele>895</ele>
        <time>2015-04-19T05:58:43Z</time>
      </trkpt>
      <trkpt lat="45.41086" lon="4.47001">
        <ele>893</ele>
        <time>2015-04-19T05:58:46Z</time>
      </trkpt>
      <trkpt lat="45.41081" lon="4.47006">
        <ele>892</ele>
        <time>2015-04-19T05:58:49Z</time>
      </trkpt>
      <trkpt lat="45.41072" lon="4.4701">
        <ele>891</ele>
        <time>2015-04-19T05:58:52Z</time>
      </trkpt>
      <trkpt lat="45.41068" lon="4.47013">
        <ele>889</ele>
        <time>2015-04-19T05:58:54Z</time>
      </trkpt>
      <trkpt lat="45.41063" lon="4.47016">
        <ele>888</ele>
        <time>2015-04-19T05:58:57Z</time>
      </trkpt>
      <trkpt lat="45.41056" lon="4.47022">
        <ele>887</ele>
        <time>2015-04-19T05:59:00Z</time>
      </trkpt>
      <trkpt lat="45.41051" lon="4.47025">
        <ele>886</ele>
        <time>2015-04-19T05:59:02Z</time>
      </trkpt>
      <trkpt lat="45.41042" lon="4.47031">
        <ele>885</ele>
        <time>2015-04-19T05:59:05Z</time>
      </trkpt>
      <trkpt lat="45.41037" lon="4.47035">
        <ele>884</ele>
        <time>2015-04-19T05:59:07Z</time>
      </trkpt>
      <trkpt lat="45.41034" lon="4.47043">
        <ele>882</ele>
        <time>2015-04-19T05:59:10Z</time>
      </trkpt>
      <trkpt lat="45.41034" lon="4.47048">
        <ele>882</ele>
        <time>2015-04-19T05:59:12Z</time>
      </trkpt>
      <trkpt lat="45.41035" lon="4.47056">
        <ele>881</ele>
        <time>2015-04-19T05:59:15Z</time>
      </trkpt>
      <trkpt lat="45.41035" lon="4.47066">
        <ele>881</ele>
        <time>2015-04-19T05:59:18Z</time>
      </trkpt>
      <trkpt lat="45.41036" lon="4.47075">
        <ele>881</ele>
        <time>2015-04-19T05:59:21Z</time>
      </trkpt>
      <trkpt lat="45.41041" lon="4.47082">
        <ele>882</ele>
        <time>2015-04-19T05:59:24Z</time>
      </trkpt>
      <trkpt lat="45.41048" lon="4.47085">
        <ele>882</ele>
        <time>2015-04-19T05:59:27Z</time>
      </trkpt>
      <trkpt lat="45.41055" lon="4.47086">
        <ele>882</ele>
        <time>2015-04-19T05:59:30Z</time>
      </trkpt>
      <trkpt lat="45.41059" lon="4.47088">
        <ele>882</ele>
        <time>2015-04-19T05:59:32Z</time>
      </trkpt>
      <trkpt lat="45.41066" lon="4.47091">
        <ele>882</ele>
        <time>2015-04-19T05:59:35Z</time>
      </trkpt>
      <trkpt lat="45.41072" lon="4.47095">
        <ele>882</ele>
        <time>2015-04-19T05:59:38Z</time>
      </trkpt>
      <trkpt lat="45.41078" lon="4.47099">
        <ele>883</ele>
        <time>2015-04-19T05:59:41Z</time>
      </trkpt>
      <trkpt lat="45.41083" lon="4.47102">
        <ele>884</ele>
        <time>2015-04-19T05:59:44Z</time>
      </trkpt>
      <trkpt lat="45.41087" lon="4.47103">
        <ele>884</ele>
        <time>2015-04-19T05:59:47Z</time>
      </trkpt>
      <trkpt lat="45.4109" lon="4.47106">
        <ele>885</ele>
        <time>2015-04-19T05:59:50Z</time>
      </trkpt>
      <trkpt lat="45.41093" lon="4.47109">
        <ele>886</ele>
        <time>2015-04-19T05:59:52Z</time>
      </trkpt>
      <trkpt lat="45.41098" lon="4.47112">
        <ele>887</ele>
        <time>2015-04-19T05:59:55Z</time>
      </trkpt>
      <trkpt lat="45.41101" lon="4.47115">
        <ele>887</ele>
        <time>2015-04-19T05:59:57Z</time>
      </trkpt>
      <trkpt lat="45.41106" lon="4.47119">
        <ele>888</ele>
        <time>2015-04-19T06:00:00Z</time>
      </trkpt>
      <trkpt lat="45.4111" lon="4.47121">
        <ele>888</ele>
        <time>2015-04-19T06:00:02Z</time>
      </trkpt>
      <trkpt lat="45.41116" lon="4.47125">
        <ele>889</ele>
        <time>2015-04-19T06:00:05Z</time>
      </trkpt>
      <trkpt lat="45.4112" lon="4.47128">
        <ele>889</ele>
        <time>2015-04-19T06:00:07Z</time>
      </trkpt>
      <trkpt lat="45.41127" lon="4.47132">
        <ele>890</ele>
        <time>2015-04-19T06:00:10Z</time>
      </trkpt>
      <trkpt lat="45.4113" lon="4.47135">
        <ele>890</ele>
        <time>2015-04-19T06:00:12Z</time>
      </trkpt>
      <trkpt lat="45.41136" lon="4.47141">
        <ele>891</ele>
        <time>2015-04-19T06:00:15Z</time>
      </trkpt>
      <trkpt lat="45.41141" lon="4.47145">
        <ele>890</ele>
        <time>2015-04-19T06:00:17Z</time>
      </trkpt>
      <trkpt lat="45.41148" lon="4.47152">
        <ele>890</ele>
        <time>2015-04-19T06:00:20Z</time>
      </trkpt>
      <trkpt lat="45.41155" lon="4.47158">
        <ele>891</ele>
        <time>2015-04-19T06:00:23Z</time>
      </trkpt>
      <trkpt lat="45.41161" lon="4.47165">
        <ele>891</ele>
        <time>2015-04-19T06:00:26Z</time>
      </trkpt>
      <trkpt lat="45.41168" lon="4.47171">
        <ele>892</ele>
        <time>2015-04-19T06:00:29Z</time>
      </trkpt>
      <trkpt lat="45.41177" lon="4.47176">
        <ele>892</ele>
        <time>2015-04-19T06:00:32Z</time>
      </trkpt>
      <trkpt lat="45.41182" lon="4.47181">
        <ele>892</ele>
        <time>2015-04-19T06:00:34Z</time>
      </trkpt>
      <trkpt lat="45.41185" lon="4.47184">
        <ele>892</ele>
        <time>2015-04-19T06:00:36Z</time>
      </trkpt>
      <trkpt lat="45.41191" lon="4.47189">
        <ele>892</ele>
        <time>2015-04-19T06:00:39Z</time>
      </trkpt>
      <trkpt lat="45.41198" lon="4.4719">
        <ele>892</ele>
        <time>2015-04-19T06:00:42Z</time>
      </trkpt>
      <trkpt lat="45.41202" lon="4.4719">
        <ele>892</ele>
        <time>2015-04-19T06:00:44Z</time>
      </trkpt>
      <trkpt lat="45.41208" lon="4.47189">
        <ele>892</ele>
        <time>2015-04-19T06:00:47Z</time>
      </trkpt>
      <trkpt lat="45.41212" lon="4.47189">
        <ele>893</ele>
        <time>2015-04-19T06:00:50Z</time>
      </trkpt>
      <trkpt lat="45.41218" lon="4.47189">
        <ele>893</ele>
        <time>2015-04-19T06:00:53Z</time>
      </trkpt>
      <trkpt lat="45.41224" lon="4.47189">
        <ele>894</ele>
        <time>2015-04-19T06:00:56Z</time>
      </trkpt>
      <trkpt lat="45.41229" lon="4.47191">
        <ele>895</ele>
        <time>2015-04-19T06:00:59Z</time>
      </trkpt>
      <trkpt lat="45.41233" lon="4.47191">
        <ele>895</ele>
        <time>2015-04-19T06:01:01Z</time>
      </trkpt>
      <trkpt lat="45.41235" lon="4.47193">
        <ele>895</ele>
        <time>2015-04-19T06:01:03Z</time>
      </trkpt>
      <trkpt lat="45.41241" lon="4.47196">
        <ele>896</ele>
        <time>2015-04-19T06:01:06Z</time>
      </trkpt>
      <trkpt lat="45.41245" lon="4.47198">
        <ele>897</ele>
        <time>2015-04-19T06:01:08Z</time>
      </trkpt>
      <trkpt lat="45.41248" lon="4.47199">
        <ele>898</ele>
        <time>2015-04-19T06:01:10Z</time>
      </trkpt>
      <trkpt lat="45.41252" lon="4.472">
        <ele>898</ele>
        <time>2015-04-19T06:01:13Z</time>
      </trkpt>
      <trkpt lat="45.41255" lon="4.47201">
        <ele>899</ele>
        <time>2015-04-19T06:01:15Z</time>
      </trkpt>
      <trkpt lat="45.41259" lon="4.47203">
        <ele>900</ele>
        <time>2015-04-19T06:01:17Z</time>
      </trkpt>
      <trkpt lat="45.41264" lon="4.47204">
        <ele>901</ele>
        <time>2015-04-19T06:01:20Z</time>
      </trkpt>
      <trkpt lat="45.41268" lon="4.47205">
        <ele>901</ele>
        <time>2015-04-19T06:01:23Z</time>
      </trkpt>
      <trkpt lat="45.41274" lon="4.47206">
        <ele>902</ele>
        <time>2015-04-19T06:01:26Z</time>
      </trkpt>
      <trkpt lat="45.41276" lon="4.47206">
        <ele>902</ele>
        <time>2015-04-19T06:01:28Z</time>
      </trkpt>
      <trkpt lat="45.4128" lon="4.47206">
        <ele>903</ele>
        <time>2015-04-19T06:01:30Z</time>
      </trkpt>
      <trkpt lat="45.41288" lon="4.47206">
        <ele>903</ele>
        <time>2015-04-19T06:01:33Z</time>
      </trkpt>
      <trkpt lat="45.41291" lon="4.47206">
        <ele>903</ele>
        <time>2015-04-19T06:01:35Z</time>
      </trkpt>
      <trkpt lat="45.41299" lon="4.47208">
        <ele>903</ele>
        <time>2015-04-19T06:01:38Z</time>
      </trkpt>
      <trkpt lat="45.41303" lon="4.47209">
        <ele>904</ele>
        <time>2015-04-19T06:01:40Z</time>
      </trkpt>
      <trkpt lat="45.41307" lon="4.47209">
        <ele>905</ele>
        <time>2015-04-19T06:01:42Z</time>
      </trkpt>
      <trkpt lat="45.41312" lon="4.47209">
        <ele>905</ele>
        <time>2015-04-19T06:01:45Z</time>
      </trkpt>
      <trkpt lat="45.41317" lon="4.47209">
        <ele>905</ele>
        <time>2015-04-19T06:01:48Z</time>
      </trkpt>
      <trkpt lat="45.41323" lon="4.4721">
        <ele>906</ele>
        <time>2015-04-19T06:01:51Z</time>
      </trkpt>
      <trkpt lat="45.4133" lon="4.47212">
        <ele>906</ele>
        <time>2015-04-19T06:01:54Z</time>
      </trkpt>
      <trkpt lat="45.41334" lon="4.47213">
        <ele>907</ele>
        <time>2015-04-19T06:01:56Z</time>
      </trkpt>
      <trkpt lat="45.4134" lon="4.47214">
        <ele>907</ele>
        <time>2015-04-19T06:01:59Z</time>
      </trkpt>
      <trkpt lat="45.41346" lon="4.47215">
        <ele>908</ele>
        <time>2015-04-19T06:02:02Z</time>
      </trkpt>
      <trkpt lat="45.41349" lon="4.47216">
        <ele>909</ele>
        <time>2015-04-19T06:02:04Z</time>
      </trkpt>
      <trkpt lat="45.41354" lon="4.47219">
        <ele>910</ele>
        <time>2015-04-19T06:02:07Z</time>
      </trkpt>
      <trkpt lat="45.41357" lon="4.47221">
        <ele>911</ele>
        <time>2015-04-19T06:02:09Z</time>
      </trkpt>
      <trkpt lat="45.41362" lon="4.47223">
        <ele>911</ele>
        <time>2015-04-19T06:02:12Z</time>
      </trkpt>
      <trkpt lat="45.41365" lon="4.47224">
        <ele>912</ele>
        <time>2015-04-19T06:02:14Z</time>
      </trkpt>
      <trkpt lat="45.41369" lon="4.47225">
        <ele>913</ele>
        <time>2015-04-19T06:02:16Z</time>
      </trkpt>
      <trkpt lat="45.41375" lon="4.47227">
        <ele>914</ele>
        <time>2015-04-19T06:02:19Z</time>
      </trkpt>
      <trkpt lat="45.4138" lon="4.4723">
        <ele>915</ele>
        <time>2015-04-19T06:02:22Z</time>
      </trkpt>
      <trkpt lat="45.41383" lon="4.47233">
        <ele>915</ele>
        <time>2015-04-19T06:02:24Z</time>
      </trkpt>
      <trkpt lat="45.41386" lon="4.47236">
        <ele>916</ele>
        <time>2015-04-19T06:02:26Z</time>
      </trkpt>
      <trkpt lat="45.41392" lon="4.47241">
        <ele>916</ele>
        <time>2015-04-19T06:02:29Z</time>
      </trkpt>
      <trkpt lat="45.41395" lon="4.47244">
        <ele>917</ele>
        <time>2015-04-19T06:02:31Z</time>
      </trkpt>
      <trkpt lat="45.41401" lon="4.47251">
        <ele>918</ele>
        <time>2015-04-19T06:02:34Z</time>
      </trkpt>
      <trkpt lat="45.41404" lon="4.47255">
        <ele>918</ele>
        <time>2015-04-19T06:02:36Z</time>
      </trkpt>
      <trkpt lat="45.41408" lon="4.47263">
        <ele>919</ele>
        <time>2015-04-19T06:02:39Z</time>
      </trkpt>
      <trkpt lat="45.41411" lon="4.47271">
        <ele>919</ele>
        <time>2015-04-19T06:02:42Z</time>
      </trkpt>
      <trkpt lat="45.41415" lon="4.47279">
        <ele>919</ele>
        <time>2015-04-19T06:02:45Z</time>
      </trkpt>
      <trkpt lat="45.41418" lon="4.47286">
        <ele>919</ele>
        <time>2015-04-19T06:02:48Z</time>
      </trkpt>
      <trkpt lat="45.4142" lon="4.47295">
        <ele>918</ele>
        <time>2015-04-19T06:02:51Z</time>
      </trkpt>
      <trkpt lat="45.41425" lon="4.47301">
        <ele>917</ele>
        <time>2015-04-19T06:02:53Z</time>
      </trkpt>
      <trkpt lat="45.41427" lon="4.47308">
        <ele>917</ele>
        <time>2015-04-19T06:02:55Z</time>
      </trkpt>
      <trkpt lat="45.41432" lon="4.47316">
        <ele>917</ele>
        <time>2015-04-19T06:02:58Z</time>
      </trkpt>
      <trkpt lat="45.41436" lon="4.47317">
        <ele>917</ele>
        <time>2015-04-19T06:03:00Z</time>
      </trkpt>
      <trkpt lat="45.41441" lon="4.47319">
        <ele>918</ele>
        <time>2015-04-19T06:03:03Z</time>
      </trkpt>
      <trkpt lat="45.41444" lon="4.4732">
        <ele>918</ele>
        <time>2015-04-19T06:03:05Z</time>
      </trkpt>
      <trkpt lat="45.41448" lon="4.4732">
        <ele>918</ele>
        <time>2015-04-19T06:03:07Z</time>
      </trkpt>
      <trkpt lat="45.41451" lon="4.47322">
        <ele>918</ele>
        <time>2015-04-19T06:03:09Z</time>
      </trkpt>
      <trkpt lat="45.41457" lon="4.47323">
        <ele>918</ele>
        <time>2015-04-19T06:03:12Z</time>
      </trkpt>
      <trkpt lat="45.41462" lon="4.47324">
        <ele>919</ele>
        <time>2015-04-19T06:03:15Z</time>
      </trkpt>
      <trkpt lat="45.41466" lon="4.47324">
        <ele>919</ele>
        <time>2015-04-19T06:03:17Z</time>
      </trkpt>
      <trkpt lat="45.41472" lon="4.47325">
        <ele>920</ele>
        <time>2015-04-19T06:03:20Z</time>
      </trkpt>
      <trkpt lat="45.41475" lon="4.47325">
        <ele>921</ele>
        <time>2015-04-19T06:03:22Z</time>
      </trkpt>
      <trkpt lat="45.4148" lon="4.47326">
        <ele>922</ele>
        <time>2015-04-19T06:03:25Z</time>
      </trkpt>
      <trkpt lat="45.41483" lon="4.47326">
        <ele>922</ele>
        <time>2015-04-19T06:03:27Z</time>
      </trkpt>
      <trkpt lat="45.41487" lon="4.47327">
        <ele>924</ele>
        <time>2015-04-19T06:03:30Z</time>
      </trkpt>
      <trkpt lat="45.4149" lon="4.47327">
        <ele>924</ele>
        <time>2015-04-19T06:03:32Z</time>
      </trkpt>
      <trkpt lat="45.41496" lon="4.47328">
        <ele>926</ele>
        <time>2015-04-19T06:03:35Z</time>
      </trkpt>
      <trkpt lat="45.415" lon="4.47328">
        <ele>926</ele>
        <time>2015-04-19T06:03:37Z</time>
      </trkpt>
      <trkpt lat="45.41502" lon="4.47328">
        <ele>927</ele>
        <time>2015-04-19T06:03:39Z</time>
      </trkpt>
      <trkpt lat="45.41507" lon="4.47329">
        <ele>928</ele>
        <time>2015-04-19T06:03:42Z</time>
      </trkpt>
      <trkpt lat="45.41513" lon="4.47329">
        <ele>928</ele>
        <time>2015-04-19T06:03:45Z</time>
      </trkpt>
      <trkpt lat="45.41517" lon="4.4733">
        <ele>929</ele>
        <time>2015-04-19T06:03:47Z</time>
      </trkpt>
      <trkpt lat="45.41523" lon="4.4733">
        <ele>930</ele>
        <time>2015-04-19T06:03:50Z</time>
      </trkpt>
      <trkpt lat="45.41526" lon="4.4733">
        <ele>931</ele>
        <time>2015-04-19T06:03:52Z</time>
      </trkpt>
      <trkpt lat="45.4153" lon="4.4733">
        <ele>931</ele>
        <time>2015-04-19T06:03:54Z</time>
      </trkpt>
      <trkpt lat="45.41536" lon="4.47329">
        <ele>932</ele>
        <time>2015-04-19T06:03:57Z</time>
      </trkpt>
      <trkpt lat="45.41539" lon="4.47329">
        <ele>932</ele>
        <time>2015-04-19T06:03:59Z</time>
      </trkpt>
      <trkpt lat="45.41545" lon="4.47329">
        <ele>933</ele>
        <time>2015-04-19T06:04:02Z</time>
      </trkpt>
      <trkpt lat="45.4155" lon="4.47329">
        <ele>933</ele>
        <time>2015-04-19T06:04:05Z</time>
      </trkpt>
      <trkpt lat="45.41552" lon="4.47329">
        <ele>933</ele>
        <time>2015-04-19T06:04:07Z</time>
      </trkpt>
      <trkpt lat="45.41555" lon="4.47329">
        <ele>934</ele>
        <time>2015-04-19T06:04:09Z</time>
      </trkpt>
      <trkpt lat="45.41558" lon="4.47329">
        <ele>935</ele>
        <time>2015-04-19T06:04:12Z</time>
      </trkpt>
      <trkpt lat="45.41561" lon="4.4733">
        <ele>935</ele>
        <time>2015-04-19T06:04:14Z</time>
      </trkpt>
      <trkpt lat="45.41565" lon="4.47331">
        <ele>936</ele>
        <time>2015-04-19T06:04:17Z</time>
      </trkpt>
      <trkpt lat="45.41566" lon="4.47331">
        <ele>936</ele>
        <time>2015-04-19T06:04:19Z</time>
      </trkpt>
      <trkpt lat="45.41569" lon="4.47331">
        <ele>937</ele>
        <time>2015-04-19T06:04:22Z</time>
      </trkpt>
      <trkpt lat="45.41571" lon="4.47332">
        <ele>938</ele>
        <time>2015-04-19T06:04:24Z</time>
      </trkpt>
      <trkpt lat="45.41575" lon="4.47333">
        <ele>938</ele>
        <time>2015-04-19T06:04:27Z</time>
      </trkpt>
      <trkpt lat="45.41577" lon="4.47333">
        <ele>938</ele>
        <time>2015-04-19T06:04:29Z</time>
      </trkpt>
      <trkpt lat="45.41581" lon="4.47334">
        <ele>939</ele>
        <time>2015-04-19T06:04:32Z</time>
      </trkpt>
      <trkpt lat="45.41584" lon="4.47334">
        <ele>940</ele>
        <time>2015-04-19T06:04:34Z</time>
      </trkpt>
      <trkpt lat="45.41588" lon="4.47335">
        <ele>941</ele>
        <time>2015-04-19T06:04:37Z</time>
      </trkpt>
      <trkpt lat="45.41593" lon="4.47334">
        <ele>940</ele>
        <time>2015-04-19T06:04:39Z</time>
      </trkpt>
      <trkpt lat="45.41598" lon="4.47333">
        <ele>940</ele>
        <time>2015-04-19T06:04:41Z</time>
      </trkpt>
      <trkpt lat="45.41604" lon="4.47331">
        <ele>940</ele>
        <time>2015-04-19T06:04:44Z</time>
      </trkpt>
      <trkpt lat="45.41609" lon="4.47329">
        <ele>940</ele>
        <time>2015-04-19T06:04:46Z</time>
      </trkpt>
      <trkpt lat="45.41614" lon="4.47327">
        <ele>940</ele>
        <time>2015-04-19T06:04:48Z</time>
      </trkpt>
      <trkpt lat="45.41621" lon="4.47325">
        <ele>940</ele>
        <time>2015-04-19T06:04:51Z</time>
      </trkpt>
      <trkpt lat="45.41627" lon="4.47323">
        <ele>940</ele>
        <time>2015-04-19T06:04:53Z</time>
      </trkpt>
      <trkpt lat="45.41632" lon="4.47322">
        <ele>941</ele>
        <time>2015-04-19T06:04:55Z</time>
      </trkpt>
      <trkpt lat="45.41637" lon="4.47321">
        <ele>941</ele>
        <time>2015-04-19T06:04:57Z</time>
      </trkpt>
      <trkpt lat="45.41645" lon="4.4732">
        <ele>941</ele>
        <time>2015-04-19T06:05:00Z</time>
      </trkpt>
      <trkpt lat="45.41652" lon="4.47319">
        <ele>941</ele>
        <time>2015-04-19T06:05:03Z</time>
      </trkpt>
      <trkpt lat="45.4166" lon="4.47319">
        <ele>941</ele>
        <time>2015-04-19T06:05:06Z</time>
      </trkpt>
      <trkpt lat="45.41668" lon="4.4732">
        <ele>941</ele>
        <time>2015-04-19T06:05:08Z</time>
      </trkpt>
      <trkpt lat="45.41673" lon="4.47321">
        <ele>942</ele>
        <time>2015-04-19T06:05:11Z</time>
      </trkpt>
      <trkpt lat="45.41679" lon="4.47323">
        <ele>942</ele>
        <time>2015-04-19T06:05:13Z</time>
      </trkpt>
      <trkpt lat="45.41687" lon="4.47324">
        <ele>942</ele>
        <time>2015-04-19T06:05:16Z</time>
      </trkpt>
      <trkpt lat="45.41695" lon="4.47326">
        <ele>942</ele>
        <time>2015-04-19T06:05:19Z</time>
      </trkpt>
      <trkpt lat="45.417" lon="4.47328">
        <ele>942</ele>
        <time>2015-04-19T06:05:21Z</time>
      </trkpt>
      <trkpt lat="45.41706" lon="4.4733">
        <ele>942</ele>
        <time>2015-04-19T06:05:24Z</time>
      </trkpt>
      <trkpt lat="45.41715" lon="4.47334">
        <ele>941</ele>
        <time>2015-04-19T06:05:27Z</time>
      </trkpt>
      <trkpt lat="45.41722" lon="4.47337">
        <ele>941</ele>
        <time>2015-04-19T06:05:30Z</time>
      </trkpt>
      <trkpt lat="45.41727" lon="4.4734">
        <ele>941</ele>
        <time>2015-04-19T06:05:32Z</time>
      </trkpt>
      <trkpt lat="45.41734" lon="4.47345">
        <ele>941</ele>
        <time>2015-04-19T06:05:35Z</time>
      </trkpt>
      <trkpt lat="45.41739" lon="4.47349">
        <ele>941</ele>
        <time>2015-04-19T06:05:37Z</time>
      </trkpt>
      <trkpt lat="45.41746" lon="4.47355">
        <ele>940</ele>
        <time>2015-04-19T06:05:39Z</time>
      </trkpt>
      <trkpt lat="45.4175" lon="4.4736">
        <ele>941</ele>
        <time>2015-04-19T06:05:42Z</time>
      </trkpt>
      <trkpt lat="45.41758" lon="4.47366">
        <ele>940</ele>
        <time>2015-04-19T06:05:45Z</time>
      </trkpt>
      <trkpt lat="45.41763" lon="4.4737">
        <ele>940</ele>
        <time>2015-04-19T06:05:47Z</time>
      </trkpt>
      <trkpt lat="45.41769" lon="4.47376">
        <ele>940</ele>
        <time>2015-04-19T06:05:50Z</time>
      </trkpt>
      <trkpt lat="45.41776" lon="4.47383">
        <ele>940</ele>
        <time>2015-04-19T06:05:53Z</time>
      </trkpt>
      <trkpt lat="45.41783" lon="4.4739">
        <ele>940</ele>
        <time>2015-04-19T06:05:55Z</time>
      </trkpt>
      <trkpt lat="45.41787" lon="4.47394">
        <ele>939</ele>
        <time>2015-04-19T06:05:57Z</time>
      </trkpt>
      <trkpt lat="45.41792" lon="4.47398">
        <ele>939</ele>
        <time>2015-04-19T06:06:00Z</time>
      </trkpt>
      <trkpt lat="45.41798" lon="4.47404">
        <ele>939</ele>
        <time>2015-04-19T06:06:03Z</time>
      </trkpt>
      <trkpt lat="45.41801" lon="4.47409">
        <ele>939</ele>
        <time>2015-04-19T06:06:05Z</time>
      </trkpt>
      <trkpt lat="45.41806" lon="4.47417">
        <ele>938</ele>
        <time>2015-04-19T06:06:08Z</time>
      </trkpt>
      <trkpt lat="45.4181" lon="4.47422">
        <ele>938</ele>
        <time>2015-04-19T06:06:10Z</time>
      </trkpt>
      <trkpt lat="45.41813" lon="4.47426">
        <ele>937</ele>
        <time>2015-04-19T06:06:12Z</time>
      </trkpt>
      <trkpt lat="45.41819" lon="4.47434">
        <ele>937</ele>
        <time>2015-04-19T06:06:15Z</time>
      </trkpt>
      <trkpt lat="45.41822" lon="4.4744">
        <ele>938</ele>
        <time>2015-04-19T06:06:17Z</time>
      </trkpt>
      <trkpt lat="45.41825" lon="4.47445">
        <ele>938</ele>
        <time>2015-04-19T06:06:19Z</time>
      </trkpt>
      <trkpt lat="45.41831" lon="4.47454">
        <ele>937</ele>
        <time>2015-04-19T06:06:22Z</time>
      </trkpt>
      <trkpt lat="45.41836" lon="4.47463">
        <ele>937</ele>
        <time>2015-04-19T06:06:25Z</time>
      </trkpt>
      <trkpt lat="45.41841" lon="4.47471">
        <ele>937</ele>
        <time>2015-04-19T06:06:28Z</time>
      </trkpt>
      <trkpt lat="45.41846" lon="4.4748">
        <ele>938</ele>
        <time>2015-04-19T06:06:30Z</time>
      </trkpt>
      <trkpt lat="45.4185" lon="4.47486">
        <ele>938</ele>
        <time>2015-04-19T06:06:32Z</time>
      </trkpt>
      <trkpt lat="45.41853" lon="4.47491">
        <ele>938</ele>
        <time>2015-04-19T06:06:35Z</time>
      </trkpt>
      <trkpt lat="45.41857" lon="4.47501">
        <ele>938</ele>
        <time>2015-04-19T06:06:37Z</time>
      </trkpt>
      <trkpt lat="45.41859" lon="4.47507">
        <ele>939</ele>
        <time>2015-04-19T06:06:40Z</time>
      </trkpt>
      <trkpt lat="45.41862" lon="4.47516">
        <ele>939</ele>
        <time>2015-04-19T06:06:43Z</time>
      </trkpt>
      <trkpt lat="45.41866" lon="4.47526">
        <ele>939</ele>
        <time>2015-04-19T06:06:45Z</time>
      </trkpt>
      <trkpt lat="45.41868" lon="4.47532">
        <ele>940</ele>
        <time>2015-04-19T06:06:48Z</time>
      </trkpt>
      <trkpt lat="45.41871" lon="4.47541">
        <ele>940</ele>
        <time>2015-04-19T06:06:51Z</time>
      </trkpt>
      <trkpt lat="45.41876" lon="4.47549">
        <ele>941</ele>
        <time>2015-04-19T06:06:54Z</time>
      </trkpt>
      <trkpt lat="45.41879" lon="4.47554">
        <ele>941</ele>
        <time>2015-04-19T06:06:56Z</time>
      </trkpt>
      <trkpt lat="45.41883" lon="4.47562">
        <ele>942</ele>
        <time>2015-04-19T06:06:58Z</time>
      </trkpt>
      <trkpt lat="45.41886" lon="4.47567">
        <ele>942</ele>
        <time>2015-04-19T06:07:01Z</time>
      </trkpt>
      <trkpt lat="45.41889" lon="4.47571">
        <ele>943</ele>
        <time>2015-04-19T06:07:03Z</time>
      </trkpt>
      <trkpt lat="45.41895" lon="4.47576">
        <ele>943</ele>
        <time>2015-04-19T06:07:06Z</time>
      </trkpt>
      <trkpt lat="45.41901" lon="4.47582">
        <ele>944</ele>
        <time>2015-04-19T06:07:08Z</time>
      </trkpt>
      <trkpt lat="45.41903" lon="4.47587">
        <ele>945</ele>
        <time>2015-04-19T06:07:11Z</time>
      </trkpt>
      <trkpt lat="45.41903" lon="4.47593">
        <ele>945</ele>
        <time>2015-04-19T06:07:13Z</time>
      </trkpt>
      <trkpt lat="45.41901" lon="4.47597">
        <ele>946</ele>
        <time>2015-04-19T06:07:15Z</time>
      </trkpt>
      <trkpt lat="45.41898" lon="4.47601">
        <ele>946</ele>
        <time>2015-04-19T06:07:17Z</time>
      </trkpt>
      <trkpt lat="45.41894" lon="4.47602">
        <ele>947</ele>
        <time>2015-04-19T06:07:19Z</time>
      </trkpt>
      <trkpt lat="45.41888" lon="4.47602">
        <ele>947</ele>
        <time>2015-04-19T06:07:22Z</time>
      </trkpt>
      <trkpt lat="45.41885" lon="4.47601">
        <ele>948</ele>
        <time>2015-04-19T06:07:24Z</time>
      </trkpt>
      <trkpt lat="45.41879" lon="4.47599">
        <ele>949</ele>
        <time>2015-04-19T06:07:26Z</time>
      </trkpt>
      <trkpt lat="45.41875" lon="4.47597">
        <ele>950</ele>
        <time>2015-04-19T06:07:28Z</time>
      </trkpt>
      <trkpt lat="45.41869" lon="4.47595">
        <ele>950</ele>
        <time>2015-04-19T06:07:32Z</time>
      </trkpt>
      <trkpt lat="45.41864" lon="4.47595">
        <ele>951</ele>
        <time>2015-04-19T06:07:35Z</time>
      </trkpt>
      <trkpt lat="45.41858" lon="4.47593">
        <ele>952</ele>
        <time>2015-04-19T06:07:38Z</time>
      </trkpt>
      <trkpt lat="45.41853" lon="4.47592">
        <ele>953</ele>
        <time>2015-04-19T06:07:40Z</time>
      </trkpt>
      <trkpt lat="45.4185" lon="4.47592">
        <ele>954</ele>
        <time>2015-04-19T06:07:43Z</time>
      </trkpt>
      <trkpt lat="45.41844" lon="4.47591">
        <ele>954</ele>
        <time>2015-04-19T06:07:45Z</time>
      </trkpt>
      <trkpt lat="45.4184" lon="4.4759">
        <ele>955</ele>
        <time>2015-04-19T06:07:48Z</time>
      </trkpt>
      <trkpt lat="45.41837" lon="4.47589">
        <ele>956</ele>
        <time>2015-04-19T06:07:50Z</time>
      </trkpt>
      <trkpt lat="45.41832" lon="4.47588">
        <ele>956</ele>
        <time>2015-04-19T06:07:52Z</time>
      </trkpt>
      <trkpt lat="45.41829" lon="4.47586">
        <ele>957</ele>
        <time>2015-04-19T06:07:55Z</time>
      </trkpt>
      <trkpt lat="45.41824" lon="4.47584">
        <ele>957</ele>
        <time>2015-04-19T06:07:57Z</time>
      </trkpt>
      <trkpt lat="45.41819" lon="4.47581">
        <ele>958</ele>
        <time>2015-04-19T06:08:01Z</time>
      </trkpt>
      <trkpt lat="45.41814" lon="4.47578">
        <ele>959</ele>
        <time>2015-04-19T06:08:03Z</time>
      </trkpt>
      <trkpt lat="45.41811" lon="4.47577">
        <ele>960</ele>
        <time>2015-04-19T06:08:06Z</time>
      </trkpt>
      <trkpt lat="45.41807" lon="4.47575">
        <ele>961</ele>
        <time>2015-04-19T06:08:08Z</time>
      </trkpt>
      <trkpt lat="45.41805" lon="4.47574">
        <ele>962</ele>
        <time>2015-04-19T06:08:11Z</time>
      </trkpt>
      <trkpt lat="45.41801" lon="4.47572">
        <ele>962</ele>
        <time>2015-04-19T06:08:13Z</time>
      </trkpt>
      <trkpt lat="45.41798" lon="4.47572">
        <ele>963</ele>
        <time>2015-04-19T06:08:16Z</time>
      </trkpt>
      <trkpt lat="45.41795" lon="4.47571">
        <ele>963</ele>
        <time>2015-04-19T06:08:18Z</time>
      </trkpt>
      <trkpt lat="45.41791" lon="4.4757">
        <ele>963</ele>
        <time>2015-04-19T06:08:20Z</time>
      </trkpt>
      <trkpt lat="45.41788" lon="4.47569">
        <ele>964</ele>
        <time>2015-04-19T06:08:23Z</time>
      </trkpt>
      <trkpt lat="45.41784" lon="4.47568">
        <ele>964</ele>
        <time>2015-04-19T06:08:26Z</time>
      </trkpt>
      <trkpt lat="45.41779" lon="4.47567">
        <ele>965</ele>
        <time>2015-04-19T06:08:28Z</time>
      </trkpt>
      <trkpt lat="45.41777" lon="4.47567">
        <ele>966</ele>
        <time>2015-04-19T06:08:31Z</time>
      </trkpt>
      <trkpt lat="45.41772" lon="4.47566">
        <ele>966</ele>
        <time>2015-04-19T06:08:33Z</time>
      </trkpt>
      <trkpt lat="45.41769" lon="4.47565">
        <ele>966</ele>
        <time>2015-04-19T06:08:36Z</time>
      </trkpt>
      <trkpt lat="45.41766" lon="4.47565">
        <ele>967</ele>
        <time>2015-04-19T06:08:38Z</time>
      </trkpt>
      <trkpt lat="45.41763" lon="4.47564">
        <ele>967</ele>
        <time>2015-04-19T06:08:41Z</time>
      </trkpt>
      <trkpt lat="45.41758" lon="4.47563">
        <ele>968</ele>
        <time>2015-04-19T06:08:43Z</time>
      </trkpt>
      <trkpt lat="45.41755" lon="4.47562">
        <ele>968</ele>
        <time>2015-04-19T06:08:46Z</time>
      </trkpt>
      <trkpt lat="45.41751" lon="4.47561">
        <ele>969</ele>
        <time>2015-04-19T06:08:48Z</time>
      </trkpt>
      <trkpt lat="45.41748" lon="4.4756">
        <ele>969</ele>
        <time>2015-04-19T06:08:50Z</time>
      </trkpt>
      <trkpt lat="45.41745" lon="4.47559">
        <ele>970</ele>
        <time>2015-04-19T06:08:53Z</time>
      </trkpt>
      <trkpt lat="45.41742" lon="4.47558">
        <ele>971</ele>
        <time>2015-04-19T06:08:55Z</time>
      </trkpt>
      <trkpt lat="45.41739" lon="4.47557">
        <ele>971</ele>
        <time>2015-04-19T06:08:59Z</time>
      </trkpt>
      <trkpt lat="45.41736" lon="4.47556">
        <ele>972</ele>
        <time>2015-04-19T06:09:01Z</time>
      </trkpt>
      <trkpt lat="45.41732" lon="4.47555">
        <ele>972</ele>
        <time>2015-04-19T06:09:03Z</time>
      </trkpt>
      <trkpt lat="45.41729" lon="4.47555">
        <ele>972</ele>
        <time>2015-04-19T06:09:05Z</time>
      </trkpt>
      <trkpt lat="45.41726" lon="4.47554">
        <ele>973</ele>
        <time>2015-04-19T06:09:08Z</time>
      </trkpt>
      <trkpt lat="45.41723" lon="4.47554">
        <ele>974</ele>
        <time>2015-04-19T06:09:10Z</time>
      </trkpt>
      <trkpt lat="45.41719" lon="4.47554">
        <ele>975</ele>
        <time>2015-04-19T06:09:14Z</time>
      </trkpt>
      <trkpt lat="45.41715" lon="4.47554">
        <ele>975</ele>
        <time>2015-04-19T06:09:16Z</time>
      </trkpt>
      <trkpt lat="45.41711" lon="4.47554">
        <ele>975</ele>
        <time>2015-04-19T06:09:20Z</time>
      </trkpt>
      <trkpt lat="45.41708" lon="4.47554">
        <ele>976</ele>
        <time>2015-04-19T06:09:22Z</time>
      </trkpt>
      <trkpt lat="45.41704" lon="4.47554">
        <ele>977</ele>
        <time>2015-04-19T06:09:26Z</time>
      </trkpt>
      <trkpt lat="45.41701" lon="4.47554">
        <ele>977</ele>
        <time>2015-04-19T06:09:28Z</time>
      </trkpt>
      <trkpt lat="45.41697" lon="4.47554">
        <ele>978</ele>
        <time>2015-04-19T06:09:31Z</time>
      </trkpt>
      <trkpt lat="45.41695" lon="4.47554">
        <ele>979</ele>
        <time>2015-04-19T06:09:34Z</time>
      </trkpt>
      <trkpt lat="45.41691" lon="4.47555">
        <ele>979</ele>
        <time>2015-04-19T06:09:36Z</time>
      </trkpt>
      <trkpt lat="45.41687" lon="4.47556">
        <ele>980</ele>
        <time>2015-04-19T06:09:39Z</time>
      </trkpt>
      <trkpt lat="45.41684" lon="4.47557">
        <ele>981</ele>
        <time>2015-04-19T06:09:42Z</time>
      </trkpt>
      <trkpt lat="45.41682" lon="4.47558">
        <ele>981</ele>
        <time>2015-04-19T06:09:44Z</time>
      </trkpt>
      <trkpt lat="45.4168" lon="4.47558">
        <ele>982</ele>
        <time>2015-04-19T06:09:46Z</time>
      </trkpt>
      <trkpt lat="45.41676" lon="4.47561">
        <ele>983</ele>
        <time>2015-04-19T06:09:50Z</time>
      </trkpt>
      <trkpt lat="45.41674" lon="4.47562">
        <ele>983</ele>
        <time>2015-04-19T06:09:52Z</time>
      </trkpt>
      <trkpt lat="45.4167" lon="4.47563">
        <ele>984</ele>
        <time>2015-04-19T06:09:54Z</time>
      </trkpt>
      <trkpt lat="45.41668" lon="4.47565">
        <ele>984</ele>
        <time>2015-04-19T06:09:57Z</time>
      </trkpt>
      <trkpt lat="45.41665" lon="4.47566">
        <ele>985</ele>
        <time>2015-04-19T06:09:59Z</time>
      </trkpt>
      <trkpt lat="45.41662" lon="4.47568">
        <ele>986</ele>
        <time>2015-04-19T06:10:01Z</time>
      </trkpt>
      <trkpt lat="45.41658" lon="4.4757">
        <ele>986</ele>
        <time>2015-04-19T06:10:05Z</time>
      </trkpt>
      <trkpt lat="45.41655" lon="4.47572">
        <ele>987</ele>
        <time>2015-04-19T06:10:07Z</time>
      </trkpt>
      <trkpt lat="45.41652" lon="4.47574">
        <ele>987</ele>
        <time>2015-04-19T06:10:09Z</time>
      </trkpt>
      <trkpt lat="45.4165" lon="4.47576">
        <ele>987</ele>
        <time>2015-04-19T06:10:11Z</time>
      </trkpt>
      <trkpt lat="45.41647" lon="4.47578">
        <ele>988</ele>
        <time>2015-04-19T06:10:14Z</time>
      </trkpt>
      <trkpt lat="45.41644" lon="4.4758">
        <ele>989</ele>
        <time>2015-04-19T06:10:17Z</time>
      </trkpt>
      <trkpt lat="45.4164" lon="4.47583">
        <ele>989</ele>
        <time>2015-04-19T06:10:20Z</time>
      </trkpt>
      <trkpt lat="45.41637" lon="4.47587">
        <ele>990</ele>
        <time>2015-04-19T06:10:22Z</time>
      </trkpt>
      <trkpt lat="45.41633" lon="4.4759">
        <ele>990</ele>
        <time>2015-04-19T06:10:25Z</time>
      </trkpt>
      <trkpt lat="45.41631" lon="4.47592">
        <ele>991</ele>
        <time>2015-04-19T06:10:28Z</time>
      </trkpt>
      <trkpt lat="45.41628" lon="4.47596">
        <ele>991</ele>
        <time>2015-04-19T06:10:31Z</time>
      </trkpt>
      <trkpt lat="45.41625" lon="4.476">
        <ele>992</ele>
        <time>2015-04-19T06:10:33Z</time>
      </trkpt>
      <trkpt lat="45.41623" lon="4.47602">
        <ele>993</ele>
        <time>2015-04-19T06:10:36Z</time>
      </trkpt>
      <trkpt lat="45.4162" lon="4.47605">
        <ele>993</ele>
        <time>2015-04-19T06:10:39Z</time>
      </trkpt>
      <trkpt lat="45.41616" lon="4.47609">
        <ele>994</ele>
        <time>2015-04-19T06:10:42Z</time>
      </trkpt>
      <trkpt lat="45.41611" lon="4.47613">
        <ele>995</ele>
        <time>2015-04-19T06:10:44Z</time>
      </trkpt>
      <trkpt lat="45.41606" lon="4.47619">
        <ele>995</ele>
        <time>2015-04-19T06:10:47Z</time>
      </trkpt>
      <trkpt lat="45.41602" lon="4.47622">
        <ele>995</ele>
        <time>2015-04-19T06:10:50Z</time>
      </trkpt>
      <trkpt lat="45.41598" lon="4.47628">
        <ele>996</ele>
        <time>2015-04-19T06:10:52Z</time>
      </trkpt>
      <trkpt lat="45.41593" lon="4.47634">
        <ele>997</ele>
        <time>2015-04-19T06:10:55Z</time>
      </trkpt>
      <trkpt lat="45.41589" lon="4.47637">
        <ele>997</ele>
        <time>2015-04-19T06:10:58Z</time>
      </trkpt>
      <trkpt lat="45.41587" lon="4.47641">
        <ele>997</ele>
        <time>2015-04-19T06:11:00Z</time>
      </trkpt>
      <trkpt lat="45.41582" lon="4.47647">
        <ele>997</ele>
        <time>2015-04-19T06:11:02Z</time>
      </trkpt>
      <trkpt lat="45.41579" lon="4.47651">
        <ele>997</ele>
        <time>2015-04-19T06:11:05Z</time>
      </trkpt>
      <trkpt lat="45.41575" lon="4.47657">
        <ele>998</ele>
        <time>2015-04-19T06:11:07Z</time>
      </trkpt>
      <trkpt lat="45.41572" lon="4.47662">
        <ele>998</ele>
        <time>2015-04-19T06:11:09Z</time>
      </trkpt>
      <trkpt lat="45.41568" lon="4.47668">
        <ele>998</ele>
        <time>2015-04-19T06:11:13Z</time>
      </trkpt>
      <trkpt lat="45.41563" lon="4.47675">
        <ele>998</ele>
        <time>2015-04-19T06:11:16Z</time>
      </trkpt>
      <trkpt lat="45.4156" lon="4.47679">
        <ele>998</ele>
        <time>2015-04-19T06:11:18Z</time>
      </trkpt>
      <trkpt lat="45.41556" lon="4.47685">
        <ele>998</ele>
        <time>2015-04-19T06:11:21Z</time>
      </trkpt>
      <trkpt lat="45.41552" lon="4.47691">
        <ele>999</ele>
        <time>2015-04-19T06:11:24Z</time>
      </trkpt>
      <trkpt lat="45.41548" lon="4.47698">
        <ele>999</ele>
        <time>2015-04-19T06:11:26Z</time>
      </trkpt>
      <trkpt lat="45.41545" lon="4.47702">
        <ele>1000</ele>
        <time>2015-04-19T06:11:28Z</time>
      </trkpt>
      <trkpt lat="45.41543" lon="4.47707">
        <ele>1000</ele>
        <time>2015-04-19T06:11:31Z</time>
      </trkpt>
      <trkpt lat="45.41539" lon="4.47714">
        <ele>1001</ele>
        <time>2015-04-19T06:11:34Z</time>
      </trkpt>
      <trkpt lat="45.41534" lon="4.47718">
        <ele>1001</ele>
        <time>2015-04-19T06:11:36Z</time>
      </trkpt>
      <trkpt lat="45.41532" lon="4.47722">
        <ele>1001</ele>
        <time>2015-04-19T06:11:38Z</time>
      </trkpt>
      <trkpt lat="45.41527" lon="4.47729">
        <ele>1001</ele>
        <time>2015-04-19T06:11:42Z</time>
      </trkpt>
      <trkpt lat="45.41522" lon="4.47736">
        <ele>1002</ele>
        <time>2015-04-19T06:11:44Z</time>
      </trkpt>
      <trkpt lat="45.4152" lon="4.47741">
        <ele>1002</ele>
        <time>2015-04-19T06:11:46Z</time>
      </trkpt>
      <trkpt lat="45.41516" lon="4.47746">
        <ele>1003</ele>
        <time>2015-04-19T06:11:48Z</time>
      </trkpt>
      <trkpt lat="45.41512" lon="4.47753">
        <ele>1004</ele>
        <time>2015-04-19T06:11:51Z</time>
      </trkpt>
      <trkpt lat="45.41509" lon="4.47757">
        <ele>1004</ele>
        <time>2015-04-19T06:11:53Z</time>
      </trkpt>
      <trkpt lat="45.41505" lon="4.47764">
        <ele>1004</ele>
        <time>2015-04-19T06:11:57Z</time>
      </trkpt>
      <trkpt lat="45.415" lon="4.4777">
        <ele>1004</ele>
        <time>2015-04-19T06:11:59Z</time>
      </trkpt>
      <trkpt lat="45.41498" lon="4.47774">
        <ele>1004</ele>
        <time>2015-04-19T06:12:02Z</time>
      </trkpt>
      <trkpt lat="45.41494" lon="4.47779">
        <ele>1005</ele>
        <time>2015-04-19T06:12:05Z</time>
      </trkpt>
      <trkpt lat="45.4149" lon="4.47784">
        <ele>1005</ele>
        <time>2015-04-19T06:12:07Z</time>
      </trkpt>
      <trkpt lat="45.41486" lon="4.4779">
        <ele>1006</ele>
        <time>2015-04-19T06:12:11Z</time>
      </trkpt>
      <trkpt lat="45.41482" lon="4.47797">
        <ele>1006</ele>
        <time>2015-04-19T06:12:13Z</time>
      </trkpt>
      <trkpt lat="45.41479" lon="4.47802">
        <ele>1006</ele>
        <time>2015-04-19T06:12:15Z</time>
      </trkpt>
      <trkpt lat="45.41475" lon="4.47807">
        <ele>1007</ele>
        <time>2015-04-19T06:12:19Z</time>
      </trkpt>
      <trkpt lat="45.41473" lon="4.47811">
        <ele>1007</ele>
        <time>2015-04-19T06:12:21Z</time>
      </trkpt>
      <trkpt lat="45.4147" lon="4.47816">
        <ele>1008</ele>
        <time>2015-04-19T06:12:23Z</time>
      </trkpt>
      <trkpt lat="45.41467" lon="4.4782">
        <ele>1008</ele>
        <time>2015-04-19T06:12:26Z</time>
      </trkpt>
      <trkpt lat="45.41464" lon="4.47825">
        <ele>1009</ele>
        <time>2015-04-19T06:12:28Z</time>
      </trkpt>
      <trkpt lat="45.41461" lon="4.47829">
        <ele>1009</ele>
        <time>2015-04-19T06:12:30Z</time>
      </trkpt>
      <trkpt lat="45.41458" lon="4.47835">
        <ele>1010</ele>
        <time>2015-04-19T06:12:34Z</time>
      </trkpt>
      <trkpt lat="45.41455" lon="4.47839">
        <ele>1010</ele>
        <time>2015-04-19T06:12:36Z</time>
      </trkpt>
      <trkpt lat="45.41451" lon="4.47846">
        <ele>1010</ele>
        <time>2015-04-19T06:12:38Z</time>
      </trkpt>
      <trkpt lat="45.41448" lon="4.47851">
        <ele>1011</ele>
        <time>2015-04-19T06:12:41Z</time>
      </trkpt>
      <trkpt lat="45.41443" lon="4.47859">
        <ele>1012</ele>
        <time>2015-04-19T06:12:43Z</time>
      </trkpt>
      <trkpt lat="45.4144" lon="4.47863">
        <ele>1012</ele>
        <time>2015-04-19T06:12:45Z</time>
      </trkpt>
      <trkpt lat="45.41436" lon="4.47868">
        <ele>1012</ele>
        <time>2015-04-19T06:12:47Z</time>
      </trkpt>
      <trkpt lat="45.41431" lon="4.47875">
        <ele>1012</ele>
        <time>2015-04-19T06:12:50Z</time>
      </trkpt>
      <trkpt lat="45.41427" lon="4.4788">
        <ele>1012</ele>
        <time>2015-04-19T06:12:52Z</time>
      </trkpt>
      <trkpt lat="45.41424" lon="4.47884">
        <ele>1013</ele>
        <time>2015-04-19T06:12:54Z</time>
      </trkpt>
      <trkpt lat="45.41421" lon="4.47888">
        <ele>1014</ele>
        <time>2015-04-19T06:12:57Z</time>
      </trkpt>
      <trkpt lat="45.41416" lon="4.47894">
        <ele>1014</ele>
        <time>2015-04-19T06:12:59Z</time>
      </trkpt>
      <trkpt lat="45.41413" lon="4.47897">
        <ele>1015</ele>
        <time>2015-04-19T06:13:01Z</time>
      </trkpt>
      <trkpt lat="45.41409" lon="4.47903">
        <ele>1015</ele>
        <time>2015-04-19T06:13:04Z</time>
      </trkpt>
      <trkpt lat="45.41405" lon="4.47907">
        <ele>1016</ele>
        <time>2015-04-19T06:13:06Z</time>
      </trkpt>
      <trkpt lat="45.41401" lon="4.47913">
        <ele>1016</ele>
        <time>2015-04-19T06:13:10Z</time>
      </trkpt>
      <trkpt lat="45.41398" lon="4.47917">
        <ele>1016</ele>
        <time>2015-04-19T06:13:12Z</time>
      </trkpt>
      <trkpt lat="45.41394" lon="4.47922">
        <ele>1017</ele>
        <time>2015-04-19T06:13:14Z</time>
      </trkpt>
      <trkpt lat="45.41391" lon="4.47926">
        <ele>1017</ele>
        <time>2015-04-19T06:13:17Z</time>
      </trkpt>
      <trkpt lat="45.41386" lon="4.47932">
        <ele>1018</ele>
        <time>2015-04-19T06:13:19Z</time>
      </trkpt>
      <trkpt lat="45.41383" lon="4.47935">
        <ele>1018</ele>
        <time>2015-04-19T06:13:21Z</time>
      </trkpt>
      <trkpt lat="45.4138" lon="4.47939">
        <ele>1019</ele>
        <time>2015-04-19T06:13:24Z</time>
      </trkpt>
      <trkpt lat="45.41377" lon="4.47943">
        <ele>1020</ele>
        <time>2015-04-19T06:13:26Z</time>
      </trkpt>
      <trkpt lat="45.41373" lon="4.4795">
        <ele>1020</ele>
        <time>2015-04-19T06:13:28Z</time>
      </trkpt>
      <trkpt lat="45.4137" lon="4.47954">
        <ele>1021</ele>
        <time>2015-04-19T06:13:30Z</time>
      </trkpt>
      <trkpt lat="45.41368" lon="4.47957">
        <ele>1021</ele>
        <time>2015-04-19T06:13:33Z</time>
      </trkpt>
      <trkpt lat="45.41364" lon="4.47963">
        <ele>1022</ele>
        <time>2015-04-19T06:13:35Z</time>
      </trkpt>
      <trkpt lat="45.41361" lon="4.4797">
        <ele>1023</ele>
        <time>2015-04-19T06:13:39Z</time>
      </trkpt>
      <trkpt lat="45.41357" lon="4.47977">
        <ele>1024</ele>
        <time>2015-04-19T06:13:42Z</time>
      </trkpt>
      <trkpt lat="45.41355" lon="4.47981">
        <ele>1024</ele>
        <time>2015-04-19T06:13:44Z</time>
      </trkpt>
      <trkpt lat="45.41354" lon="4.47985">
        <ele>1024</ele>
        <time>2015-04-19T06:13:46Z</time>
      </trkpt>
      <trkpt lat="45.41351" lon="4.47989">
        <ele>1025</ele>
        <time>2015-04-19T06:13:48Z</time>
      </trkpt>
      <trkpt lat="45.41348" lon="4.47996">
        <ele>1026</ele>
        <time>2015-04-19T06:13:50Z</time>
      </trkpt>
      <trkpt lat="45.41346" lon="4.48001">
        <ele>1026</ele>
        <time>2015-04-19T06:13:52Z</time>
      </trkpt>
      <trkpt lat="45.41342" lon="4.48007">
        <ele>1027</ele>
        <time>2015-04-19T06:13:56Z</time>
      </trkpt>
      <trkpt lat="45.41339" lon="4.48012">
        <ele>1027</ele>
        <time>2015-04-19T06:13:58Z</time>
      </trkpt>
      <trkpt lat="45.41335" lon="4.48018">
        <ele>1028</ele>
        <time>2015-04-19T06:14:00Z</time>
      </trkpt>
      <trkpt lat="45.41332" lon="4.48023">
        <ele>1028</ele>
        <time>2015-04-19T06:14:02Z</time>
      </trkpt>
      <trkpt lat="45.41328" lon="4.4803">
        <ele>1029</ele>
        <time>2015-04-19T06:14:05Z</time>
      </trkpt>
      <trkpt lat="45.41325" lon="4.48034">
        <ele>1029</ele>
        <time>2015-04-19T06:14:08Z</time>
      </trkpt>
      <trkpt lat="45.41322" lon="4.48041">
        <ele>1029</ele>
        <time>2015-04-19T06:14:10Z</time>
      </trkpt>
      <trkpt lat="45.41322" lon="4.48046">
        <ele>1030</ele>
        <time>2015-04-19T06:14:12Z</time>
      </trkpt>
      <trkpt lat="45.41325" lon="4.48054">
        <ele>1030</ele>
        <time>2015-04-19T06:14:15Z</time>
      </trkpt>
      <trkpt lat="45.41329" lon="4.48059">
        <ele>1030</ele>
        <time>2015-04-19T06:14:18Z</time>
      </trkpt>
      <trkpt lat="45.41332" lon="4.48063">
        <ele>1030</ele>
        <time>2015-04-19T06:14:20Z</time>
      </trkpt>
      <trkpt lat="45.41335" lon="4.48066">
        <ele>1030</ele>
        <time>2015-04-19T06:14:22Z</time>
      </trkpt>
      <trkpt lat="45.41341" lon="4.4807">
        <ele>1031</ele>
        <time>2015-04-19T06:14:25Z</time>
      </trkpt>
      <trkpt lat="45.41344" lon="4.48074">
        <ele>1031</ele>
        <time>2015-04-19T06:14:28Z</time>
      </trkpt>
      <trkpt lat="45.41349" lon="4.48079">
        <ele>1031</ele>
        <time>2015-04-19T06:14:30Z</time>
      </trkpt>
      <trkpt lat="45.41352" lon="4.48083">
        <ele>1031</ele>
        <time>2015-04-19T06:14:32Z</time>
      </trkpt>
      <trkpt lat="45.41356" lon="4.48085">
        <ele>1031</ele>
        <time>2015-04-19T06:14:34Z</time>
      </trkpt>
      <trkpt lat="45.4136" lon="4.48088">
        <ele>1031</ele>
        <time>2015-04-19T06:14:36Z</time>
      </trkpt>
      <trkpt lat="45.41363" lon="4.4809">
        <ele>1032</ele>
        <time>2015-04-19T06:14:38Z</time>
      </trkpt>
      <trkpt lat="45.41367" lon="4.48091">
        <ele>1032</ele>
        <time>2015-04-19T06:14:41Z</time>
      </trkpt>
      <trkpt lat="45.41373" lon="4.48093">
        <ele>1032</ele>
        <time>2015-04-19T06:14:43Z</time>
      </trkpt>
      <trkpt lat="45.41376" lon="4.48093">
        <ele>1033</ele>
        <time>2015-04-19T06:14:46Z</time>
      </trkpt>
      <trkpt lat="45.41381" lon="4.48095">
        <ele>1033</ele>
        <time>2015-04-19T06:14:48Z</time>
      </trkpt>
      <trkpt lat="45.41385" lon="4.48096">
        <ele>1034</ele>
        <time>2015-04-19T06:14:50Z</time>
      </trkpt>
      <trkpt lat="45.41391" lon="4.48096">
        <ele>1035</ele>
        <time>2015-04-19T06:14:54Z</time>
      </trkpt>
      <trkpt lat="45.41397" lon="4.48097">
        <ele>1036</ele>
        <time>2015-04-19T06:14:56Z</time>
      </trkpt>
      <trkpt lat="45.41401" lon="4.48098">
        <ele>1036</ele>
        <time>2015-04-19T06:14:59Z</time>
      </trkpt>
      <trkpt lat="45.41406" lon="4.481">
        <ele>1037</ele>
        <time>2015-04-19T06:15:02Z</time>
      </trkpt>
      <trkpt lat="45.41411" lon="4.48101">
        <ele>1037</ele>
        <time>2015-04-19T06:15:04Z</time>
      </trkpt>
      <trkpt lat="45.41415" lon="4.48101">
        <ele>1038</ele>
        <time>2015-04-19T06:15:07Z</time>
      </trkpt>
      <trkpt lat="45.4142" lon="4.481">
        <ele>1038</ele>
        <time>2015-04-19T06:15:09Z</time>
      </trkpt>
      <trkpt lat="45.41423" lon="4.48098">
        <ele>1039</ele>
        <time>2015-04-19T06:15:11Z</time>
      </trkpt>
      <trkpt lat="45.41427" lon="4.48096">
        <ele>1039</ele>
        <time>2015-04-19T06:15:13Z</time>
      </trkpt>
      <trkpt lat="45.41433" lon="4.48094">
        <ele>1040</ele>
        <time>2015-04-19T06:15:15Z</time>
      </trkpt>
      <trkpt lat="45.41437" lon="4.48092">
        <ele>1040</ele>
        <time>2015-04-19T06:15:18Z</time>
      </trkpt>
      <trkpt lat="45.41443" lon="4.4809">
        <ele>1040</ele>
        <time>2015-04-19T06:15:21Z</time>
      </trkpt>
      <trkpt lat="45.41448" lon="4.48089">
        <ele>1040</ele>
        <time>2015-04-19T06:15:23Z</time>
      </trkpt>
      <trkpt lat="45.41454" lon="4.48086">
        <ele>1041</ele>
        <time>2015-04-19T06:15:25Z</time>
      </trkpt>
      <trkpt lat="45.41458" lon="4.48083">
        <ele>1041</ele>
        <time>2015-04-19T06:15:27Z</time>
      </trkpt>
      <trkpt lat="45.41462" lon="4.48081">
        <ele>1042</ele>
        <time>2015-04-19T06:15:29Z</time>
      </trkpt>
      <trkpt lat="45.41466" lon="4.48078">
        <ele>1042</ele>
        <time>2015-04-19T06:15:32Z</time>
      </trkpt>
      <trkpt lat="45.41472" lon="4.48073">
        <ele>1042</ele>
        <time>2015-04-19T06:15:34Z</time>
      </trkpt>
      <trkpt lat="45.41476" lon="4.4807">
        <ele>1042</ele>
        <time>2015-04-19T06:15:36Z</time>
      </trkpt>
      <trkpt lat="45.41481" lon="4.48068">
        <ele>1043</ele>
        <time>2015-04-19T06:15:39Z</time>
      </trkpt>
      <trkpt lat="45.41484" lon="4.48066">
        <ele>1043</ele>
        <time>2015-04-19T06:15:41Z</time>
      </trkpt>
      <trkpt lat="45.41491" lon="4.48062">
        <ele>1043</ele>
        <time>2015-04-19T06:15:43Z</time>
      </trkpt>
      <trkpt lat="45.41494" lon="4.4806">
        <ele>1044</ele>
        <time>2015-04-19T06:15:46Z</time>
      </trkpt>
      <trkpt lat="45.415" lon="4.48057">
        <ele>1045</ele>
        <time>2015-04-19T06:15:48Z</time>
      </trkpt>
      <trkpt lat="45.41504" lon="4.48055">
        <ele>1045</ele>
        <time>2015-04-19T06:15:51Z</time>
      </trkpt>
      <trkpt lat="45.41508" lon="4.48054">
        <ele>1045</ele>
        <time>2015-04-19T06:15:53Z</time>
      </trkpt>
      <trkpt lat="45.41514" lon="4.48051">
        <ele>1045</ele>
        <time>2015-04-19T06:15:55Z</time>
      </trkpt>
      <trkpt lat="45.41518" lon="4.48049">
        <ele>1045</ele>
        <time>2015-04-19T06:15:57Z</time>
      </trkpt>
      <trkpt lat="45.41523" lon="4.48048">
        <ele>1045</ele>
        <time>2015-04-19T06:16:00Z</time>
      </trkpt>
      <trkpt lat="45.41526" lon="4.48046">
        <ele>1046</ele>
        <time>2015-04-19T06:16:02Z</time>
      </trkpt>
      <trkpt lat="45.41532" lon="4.48043">
        <ele>1047</ele>
        <time>2015-04-19T06:16:04Z</time>
      </trkpt>
      <trkpt lat="45.41538" lon="4.4804">
        <ele>1047</ele>
        <time>2015-04-19T06:16:08Z</time>
      </trkpt>
      <trkpt lat="45.41544" lon="4.48037">
        <ele>1047</ele>
        <time>2015-04-19T06:16:10Z</time>
      </trkpt>
      <trkpt lat="45.4155" lon="4.48033">
        <ele>1047</ele>
        <time>2015-04-19T06:16:13Z</time>
      </trkpt>
      <trkpt lat="45.41555" lon="4.4803">
        <ele>1047</ele>
        <time>2015-04-19T06:16:16Z</time>
      </trkpt>
      <trkpt lat="45.41561" lon="4.48025">
        <ele>1048</ele>
        <time>2015-04-19T06:16:18Z</time>
      </trkpt>
      <trkpt lat="45.41565" lon="4.48021">
        <ele>1048</ele>
        <time>2015-04-19T06:16:20Z</time>
      </trkpt>
      <trkpt lat="45.41571" lon="4.48015">
        <ele>1048</ele>
        <time>2015-04-19T06:16:23Z</time>
      </trkpt>
      <trkpt lat="45.41574" lon="4.48011">
        <ele>1048</ele>
        <time>2015-04-19T06:16:26Z</time>
      </trkpt>
      <trkpt lat="45.4158" lon="4.48005">
        <ele>1049</ele>
        <time>2015-04-19T06:16:29Z</time>
      </trkpt>
      <trkpt lat="45.41586" lon="4.48">
        <ele>1049</ele>
        <time>2015-04-19T06:16:32Z</time>
      </trkpt>
      <trkpt lat="45.4159" lon="4.47998">
        <ele>1049</ele>
        <time>2015-04-19T06:16:34Z</time>
      </trkpt>
      <trkpt lat="45.41594" lon="4.47996">
        <ele>1049</ele>
        <time>2015-04-19T06:16:36Z</time>
      </trkpt>
      <trkpt lat="45.41601" lon="4.47994">
        <ele>1049</ele>
        <time>2015-04-19T06:16:38Z</time>
      </trkpt>
      <trkpt lat="45.41606" lon="4.47994">
        <ele>1050</ele>
        <time>2015-04-19T06:16:41Z</time>
      </trkpt>
      <trkpt lat="45.41611" lon="4.47994">
        <ele>1050</ele>
        <time>2015-04-19T06:16:43Z</time>
      </trkpt>
      <trkpt lat="45.41618" lon="4.47993">
        <ele>1050</ele>
        <time>2015-04-19T06:16:45Z</time>
      </trkpt>
      <trkpt lat="45.41625" lon="4.47994">
        <ele>1049</ele>
        <time>2015-04-19T06:16:48Z</time>
      </trkpt>
      <trkpt lat="45.41631" lon="4.47995">
        <ele>1049</ele>
        <time>2015-04-19T06:16:52Z</time>
      </trkpt>
      <trkpt lat="45.41639" lon="4.47997">
        <ele>1048</ele>
        <time>2015-04-19T06:16:55Z</time>
      </trkpt>
      <trkpt lat="45.41646" lon="4.47999">
        <ele>1048</ele>
        <time>2015-04-19T06:16:57Z</time>
      </trkpt>
      <trkpt lat="45.41651" lon="4.48">
        <ele>1048</ele>
        <time>2015-04-19T06:17:00Z</time>
      </trkpt>
      <trkpt lat="45.41659" lon="4.48002">
        <ele>1047</ele>
        <time>2015-04-19T06:17:02Z</time>
      </trkpt>
      <trkpt lat="45.41664" lon="4.48004">
        <ele>1047</ele>
        <time>2015-04-19T06:17:04Z</time>
      </trkpt>
      <trkpt lat="45.41669" lon="4.48007">
        <ele>1046</ele>
        <time>2015-04-19T06:17:07Z</time>
      </trkpt>
      <trkpt lat="45.41676" lon="4.48011">
        <ele>1045</ele>
        <time>2015-04-19T06:17:09Z</time>
      </trkpt>
      <trkpt lat="45.41684" lon="4.48015">
        <ele>1045</ele>
        <time>2015-04-19T06:17:12Z</time>
      </trkpt>
      <trkpt lat="45.41691" lon="4.48018">
        <ele>1044</ele>
        <time>2015-04-19T06:17:15Z</time>
      </trkpt>
      <trkpt lat="45.41697" lon="4.4802">
        <ele>1044</ele>
        <time>2015-04-19T06:17:17Z</time>
      </trkpt>
      <trkpt lat="45.41702" lon="4.48022">
        <ele>1044</ele>
        <time>2015-04-19T06:17:20Z</time>
      </trkpt>
      <trkpt lat="45.41711" lon="4.48025">
        <ele>1044</ele>
        <time>2015-04-19T06:17:22Z</time>
      </trkpt>
      <trkpt lat="45.41716" lon="4.48028">
        <ele>1043</ele>
        <time>2015-04-19T06:17:24Z</time>
      </trkpt>
      <trkpt lat="45.41722" lon="4.48033">
        <ele>1042</ele>
        <time>2015-04-19T06:17:27Z</time>
      </trkpt>
      <trkpt lat="45.41729" lon="4.48037">
        <ele>1042</ele>
        <time>2015-04-19T06:17:30Z</time>
      </trkpt>
      <trkpt lat="45.41735" lon="4.48042">
        <ele>1041</ele>
        <time>2015-04-19T06:17:33Z</time>
      </trkpt>
      <trkpt lat="45.41739" lon="4.48046">
        <ele>1041</ele>
        <time>2015-04-19T06:17:35Z</time>
      </trkpt>
      <trkpt lat="45.41743" lon="4.48049">
        <ele>1040</ele>
        <time>2015-04-19T06:17:38Z</time>
      </trkpt>
      <trkpt lat="45.4175" lon="4.48055">
        <ele>1039</ele>
        <time>2015-04-19T06:17:40Z</time>
      </trkpt>
      <trkpt lat="45.41755" lon="4.48055">
        <ele>1039</ele>
        <time>2015-04-19T06:17:42Z</time>
      </trkpt>
      <trkpt lat="45.41759" lon="4.48051">
        <ele>1038</ele>
        <time>2015-04-19T06:17:45Z</time>
      </trkpt>
      <trkpt lat="45.41764" lon="4.48045">
        <ele>1038</ele>
        <time>2015-04-19T06:17:47Z</time>
      </trkpt>
      <trkpt lat="45.4177" lon="4.48039">
        <ele>1037</ele>
        <time>2015-04-19T06:17:51Z</time>
      </trkpt>
      <trkpt lat="45.41774" lon="4.48034">
        <ele>1036</ele>
        <time>2015-04-19T06:17:53Z</time>
      </trkpt>
      <trkpt lat="45.4178" lon="4.48028">
        <ele>1035</ele>
        <time>2015-04-19T06:17:56Z</time>
      </trkpt>
      <trkpt lat="45.41785" lon="4.48024">
        <ele>1034</ele>
        <time>2015-04-19T06:17:58Z</time>
      </trkpt>
      <trkpt lat="45.41792" lon="4.48017">
        <ele>1033</ele>
        <time>2015-04-19T06:18:01Z</time>
      </trkpt>
      <trkpt lat="45.41798" lon="4.48011">
        <ele>1033</ele>
        <time>2015-04-19T06:18:04Z</time>
      </trkpt>
      <trkpt lat="45.41805" lon="4.48003">
        <ele>1032</ele>
        <time>2015-04-19T06:18:07Z</time>
      </trkpt>
      <trkpt lat="45.41809" lon="4.47999">
        <ele>1031</ele>
        <time>2015-04-19T06:18:09Z</time>
      </trkpt>
      <trkpt lat="45.41814" lon="4.47995">
        <ele>1030</ele>
        <time>2015-04-19T06:18:11Z</time>
      </trkpt>
      <trkpt lat="45.41821" lon="4.47989">
        <ele>1029</ele>
        <time>2015-04-19T06:18:14Z</time>
      </trkpt>
      <trkpt lat="45.41825" lon="4.47986">
        <ele>1028</ele>
        <time>2015-04-19T06:18:16Z</time>
      </trkpt>
      <trkpt lat="45.4183" lon="4.47982">
        <ele>1027</ele>
        <time>2015-04-19T06:18:19Z</time>
      </trkpt>
      <trkpt lat="45.41835" lon="4.47979">
        <ele>1027</ele>
        <time>2015-04-19T06:18:21Z</time>
      </trkpt>
      <trkpt lat="45.41843" lon="4.47975">
        <ele>1026</ele>
        <time>2015-04-19T06:18:23Z</time>
      </trkpt>
      <trkpt lat="45.41848" lon="4.47972">
        <ele>1025</ele>
        <time>2015-04-19T06:18:25Z</time>
      </trkpt>
      <trkpt lat="45.41853" lon="4.47969">
        <ele>1024</ele>
        <time>2015-04-19T06:18:27Z</time>
      </trkpt>
      <trkpt lat="45.41861" lon="4.47965">
        <ele>1023</ele>
        <time>2015-04-19T06:18:30Z</time>
      </trkpt>
      <trkpt lat="45.41867" lon="4.47963">
        <ele>1021</ele>
        <time>2015-04-19T06:18:32Z</time>
      </trkpt>
      <trkpt lat="45.4187" lon="4.4796">
        <ele>1021</ele>
        <time>2015-04-19T06:18:34Z</time>
      </trkpt>
      <trkpt lat="45.41873" lon="4.47958">
        <ele>1019</ele>
        <time>2015-04-19T06:18:37Z</time>
      </trkpt>
      <trkpt lat="45.41879" lon="4.47955">
        <ele>1019</ele>
        <time>2015-04-19T06:18:39Z</time>
      </trkpt>
      <trkpt lat="45.41884" lon="4.47953">
        <ele>1018</ele>
        <time>2015-04-19T06:18:41Z</time>
      </trkpt>
      <trkpt lat="45.41894" lon="4.47951">
        <ele>1016</ele>
        <time>2015-04-19T06:18:44Z</time>
      </trkpt>
      <trkpt lat="45.41899" lon="4.47949">
        <ele>1014</ele>
        <time>2015-04-19T06:18:47Z</time>
      </trkpt>
      <trkpt lat="45.41905" lon="4.47947">
        <ele>1013</ele>
        <time>2015-04-19T06:18:49Z</time>
      </trkpt>
      <trkpt lat="45.41911" lon="4.47943">
        <ele>1012</ele>
        <time>2015-04-19T06:18:51Z</time>
      </trkpt>
      <trkpt lat="45.41917" lon="4.4794">
        <ele>1011</ele>
        <time>2015-04-19T06:18:54Z</time>
      </trkpt>
      <trkpt lat="45.41927" lon="4.47937">
        <ele>1009</ele>
        <time>2015-04-19T06:18:57Z</time>
      </trkpt>
      <trkpt lat="45.41934" lon="4.47934">
        <ele>1008</ele>
        <time>2015-04-19T06:19:01Z</time>
      </trkpt>
      <trkpt lat="45.41942" lon="4.47931">
        <ele>1008</ele>
        <time>2015-04-19T06:19:03Z</time>
      </trkpt>
      <trkpt lat="45.41948" lon="4.47929">
        <ele>1007</ele>
        <time>2015-04-19T06:19:05Z</time>
      </trkpt>
      <trkpt lat="45.41953" lon="4.47928">
        <ele>1006</ele>
        <time>2015-04-19T06:19:07Z</time>
      </trkpt>
      <trkpt lat="45.41959" lon="4.47927">
        <ele>1005</ele>
        <time>2015-04-19T06:19:09Z</time>
      </trkpt>
      <trkpt lat="45.41968" lon="4.47923">
        <ele>1003</ele>
        <time>2015-04-19T06:19:12Z</time>
      </trkpt>
      <trkpt lat="45.41974" lon="4.47922">
        <ele>1002</ele>
        <time>2015-04-19T06:19:14Z</time>
      </trkpt>
      <trkpt lat="45.41979" lon="4.4792">
        <ele>1001</ele>
        <time>2015-04-19T06:19:17Z</time>
      </trkpt>
      <trkpt lat="45.41987" lon="4.47916">
        <ele>999</ele>
        <time>2015-04-19T06:19:19Z</time>
      </trkpt>
      <trkpt lat="45.41993" lon="4.47914">
        <ele>998</ele>
        <time>2015-04-19T06:19:21Z</time>
      </trkpt>
      <trkpt lat="45.41999" lon="4.47911">
        <ele>997</ele>
        <time>2015-04-19T06:19:23Z</time>
      </trkpt>
      <trkpt lat="45.42007" lon="4.47905">
        <ele>995</ele>
        <time>2015-04-19T06:19:26Z</time>
      </trkpt>
      <trkpt lat="45.42014" lon="4.47896">
        <ele>993</ele>
        <time>2015-04-19T06:19:29Z</time>
      </trkpt>
      <trkpt lat="45.42017" lon="4.47891">
        <ele>992</ele>
        <time>2015-04-19T06:19:32Z</time>
      </trkpt>
      <trkpt lat="45.42023" lon="4.47883">
        <ele>991</ele>
        <time>2015-04-19T06:19:34Z</time>
      </trkpt>
      <trkpt lat="45.42029" lon="4.47875">
        <ele>989</ele>
        <time>2015-04-19T06:19:37Z</time>
      </trkpt>
      <trkpt lat="45.42033" lon="4.4787">
        <ele>988</ele>
        <time>2015-04-19T06:19:39Z</time>
      </trkpt>
      <trkpt lat="45.42037" lon="4.47864">
        <ele>987</ele>
        <time>2015-04-19T06:19:41Z</time>
      </trkpt>
      <trkpt lat="45.42043" lon="4.47855">
        <ele>985</ele>
        <time>2015-04-19T06:19:44Z</time>
      </trkpt>
      <trkpt lat="45.42047" lon="4.47849">
        <ele>984</ele>
        <time>2015-04-19T06:19:47Z</time>
      </trkpt>
      <trkpt lat="45.42053" lon="4.4784">
        <ele>984</ele>
        <time>2015-04-19T06:19:49Z</time>
      </trkpt>
      <trkpt lat="45.42057" lon="4.47834">
        <ele>983</ele>
        <time>2015-04-19T06:19:51Z</time>
      </trkpt>
      <trkpt lat="45.42061" lon="4.47827">
        <ele>981</ele>
        <time>2015-04-19T06:19:54Z</time>
      </trkpt>
      <trkpt lat="45.42065" lon="4.4782">
        <ele>980</ele>
        <time>2015-04-19T06:19:56Z</time>
      </trkpt>
      <trkpt lat="45.42073" lon="4.47812">
        <ele>978</ele>
        <time>2015-04-19T06:19:59Z</time>
      </trkpt>
      <trkpt lat="45.42076" lon="4.47806">
        <ele>976</ele>
        <time>2015-04-19T06:20:01Z</time>
      </trkpt>
      <trkpt lat="45.42079" lon="4.47798">
        <ele>975</ele>
        <time>2015-04-19T06:20:04Z</time>
      </trkpt>
      <trkpt lat="45.42083" lon="4.47788">
        <ele>974</ele>
        <time>2015-04-19T06:20:06Z</time>
      </trkpt>
      <trkpt lat="45.42087" lon="4.47783">
        <ele>973</ele>
        <time>2015-04-19T06:20:08Z</time>
      </trkpt>
      <trkpt lat="45.42089" lon="4.47777">
        <ele>972</ele>
        <time>2015-04-19T06:20:10Z</time>
      </trkpt>
      <trkpt lat="45.42094" lon="4.47767">
        <ele>970</ele>
        <time>2015-04-19T06:20:13Z</time>
      </trkpt>
      <trkpt lat="45.42097" lon="4.4776">
        <ele>969</ele>
        <time>2015-04-19T06:20:15Z</time>
      </trkpt>
      <trkpt lat="45.42099" lon="4.4775">
        <ele>968</ele>
        <time>2015-04-19T06:20:17Z</time>
      </trkpt>
      <trkpt lat="45.42104" lon="4.47738">
        <ele>966</ele>
        <time>2015-04-19T06:20:20Z</time>
      </trkpt>
      <trkpt lat="45.42108" lon="4.47725">
        <ele>965</ele>
        <time>2015-04-19T06:20:23Z</time>
      </trkpt>
      <trkpt lat="45.42113" lon="4.47717">
        <ele>964</ele>
        <time>2015-04-19T06:20:25Z</time>
      </trkpt>
      <trkpt lat="45.42117" lon="4.4771">
        <ele>963</ele>
        <time>2015-04-19T06:20:27Z</time>
      </trkpt>
      <trkpt lat="45.42124" lon="4.477">
        <ele>962</ele>
        <time>2015-04-19T06:20:30Z</time>
      </trkpt>
      <trkpt lat="45.4213" lon="4.4769">
        <ele>961</ele>
        <time>2015-04-19T06:20:33Z</time>
      </trkpt>
      <trkpt lat="45.42134" lon="4.47684">
        <ele>960</ele>
        <time>2015-04-19T06:20:36Z</time>
      </trkpt>
      <trkpt lat="45.42141" lon="4.47675">
        <ele>959</ele>
        <time>2015-04-19T06:20:38Z</time>
      </trkpt>
      <trkpt lat="45.42147" lon="4.47664">
        <ele>958</ele>
        <time>2015-04-19T06:20:41Z</time>
      </trkpt>
      <trkpt lat="45.4215" lon="4.47657">
        <ele>957</ele>
        <time>2015-04-19T06:20:43Z</time>
      </trkpt>
      <trkpt lat="45.42154" lon="4.4765">
        <ele>956</ele>
        <time>2015-04-19T06:20:45Z</time>
      </trkpt>
      <trkpt lat="45.42159" lon="4.47644">
        <ele>956</ele>
        <time>2015-04-19T06:20:47Z</time>
      </trkpt>
      <trkpt lat="45.42165" lon="4.47635">
        <ele>954</ele>
        <time>2015-04-19T06:20:51Z</time>
      </trkpt>
      <trkpt lat="45.4217" lon="4.47625">
        <ele>954</ele>
        <time>2015-04-19T06:20:53Z</time>
      </trkpt>
      <trkpt lat="45.42173" lon="4.47619">
        <ele>953</ele>
        <time>2015-04-19T06:20:55Z</time>
      </trkpt>
      <trkpt lat="45.42178" lon="4.47611">
        <ele>953</ele>
        <time>2015-04-19T06:20:58Z</time>
      </trkpt>
      <trkpt lat="45.42182" lon="4.47605">
        <ele>952</ele>
        <time>2015-04-19T06:21:00Z</time>
      </trkpt>
      <trkpt lat="45.42185" lon="4.47599">
        <ele>952</ele>
        <time>2015-04-19T06:21:02Z</time>
      </trkpt>
      <trkpt lat="45.42191" lon="4.4759">
        <ele>950</ele>
        <time>2015-04-19T06:21:05Z</time>
      </trkpt>
      <trkpt lat="45.42196" lon="4.47579">
        <ele>949</ele>
        <time>2015-04-19T06:21:08Z</time>
      </trkpt>
      <trkpt lat="45.422" lon="4.47569">
        <ele>948</ele>
        <time>2015-04-19T06:21:11Z</time>
      </trkpt>
      <trkpt lat="45.42204" lon="4.47563">
        <ele>948</ele>
        <time>2015-04-19T06:21:13Z</time>
      </trkpt>
      <trkpt lat="45.42207" lon="4.47553">
        <ele>947</ele>
        <time>2015-04-19T06:21:16Z</time>
      </trkpt>
      <trkpt lat="45.42212" lon="4.47543">
        <ele>946</ele>
        <time>2015-04-19T06:21:19Z</time>
      </trkpt>
      <trkpt lat="45.42216" lon="4.47537">
        <ele>946</ele>
        <time>2015-04-19T06:21:21Z</time>
      </trkpt>
      <trkpt lat="45.42221" lon="4.47534">
        <ele>946</ele>
        <time>2015-04-19T06:21:23Z</time>
      </trkpt>
      <trkpt lat="45.42228" lon="4.47535">
        <ele>946</ele>
        <time>2015-04-19T06:21:26Z</time>
      </trkpt>
      <trkpt lat="45.42231" lon="4.47544">
        <ele>945</ele>
        <time>2015-04-19T06:21:29Z</time>
      </trkpt>
      <trkpt lat="45.42232" lon="4.47551">
        <ele>944</ele>
        <time>2015-04-19T06:21:31Z</time>
      </trkpt>
      <trkpt lat="45.42231" lon="4.47558">
        <ele>944</ele>
        <time>2015-04-19T06:21:33Z</time>
      </trkpt>
      <trkpt lat="45.4223" lon="4.47568">
        <ele>944</ele>
        <time>2015-04-19T06:21:36Z</time>
      </trkpt>
      <trkpt lat="45.4223" lon="4.47575">
        <ele>944</ele>
        <time>2015-04-19T06:21:38Z</time>
      </trkpt>
      <trkpt lat="45.42229" lon="4.47583">
        <ele>944</ele>
        <time>2015-04-19T06:21:41Z</time>
      </trkpt>
      <trkpt lat="45.42227" lon="4.47595">
        <ele>944</ele>
        <time>2015-04-19T06:21:43Z</time>
      </trkpt>
      <trkpt lat="45.42226" lon="4.47602">
        <ele>943</ele>
        <time>2015-04-19T06:21:45Z</time>
      </trkpt>
      <trkpt lat="45.42227" lon="4.47613">
        <ele>943</ele>
        <time>2015-04-19T06:21:48Z</time>
      </trkpt>
      <trkpt lat="45.42226" lon="4.47621">
        <ele>943</ele>
        <time>2015-04-19T06:21:50Z</time>
      </trkpt>
      <trkpt lat="45.42227" lon="4.47629">
        <ele>942</ele>
        <time>2015-04-19T06:21:52Z</time>
      </trkpt>
      <trkpt lat="45.42226" lon="4.4764">
        <ele>942</ele>
        <time>2015-04-19T06:21:55Z</time>
      </trkpt>
      <trkpt lat="45.42225" lon="4.47646">
        <ele>942</ele>
        <time>2015-04-19T06:21:57Z</time>
      </trkpt>
      <trkpt lat="45.42224" lon="4.47653">
        <ele>941</ele>
        <time>2015-04-19T06:21:59Z</time>
      </trkpt>
      <trkpt lat="45.42223" lon="4.47664">
        <ele>941</ele>
        <time>2015-04-19T06:22:02Z</time>
      </trkpt>
      <trkpt lat="45.42221" lon="4.47675">
        <ele>941</ele>
        <time>2015-04-19T06:22:05Z</time>
      </trkpt>
      <trkpt lat="45.4222" lon="4.47681">
        <ele>941</ele>
        <time>2015-04-19T06:22:07Z</time>
      </trkpt>
      <trkpt lat="45.42218" lon="4.47691">
        <ele>942</ele>
        <time>2015-04-19T06:22:10Z</time>
      </trkpt>
      <trkpt lat="45.42216" lon="4.47702">
        <ele>942</ele>
        <time>2015-04-19T06:22:13Z</time>
      </trkpt>
      <trkpt lat="45.42216" lon="4.47709">
        <ele>942</ele>
        <time>2015-04-19T06:22:15Z</time>
      </trkpt>
      <trkpt lat="45.42214" lon="4.47719">
        <ele>941</ele>
        <time>2015-04-19T06:22:18Z</time>
      </trkpt>
      <trkpt lat="45.42213" lon="4.47726">
        <ele>941</ele>
        <time>2015-04-19T06:22:20Z</time>
      </trkpt>
      <trkpt lat="45.42212" lon="4.47733">
        <ele>941</ele>
        <time>2015-04-19T06:22:22Z</time>
      </trkpt>
      <trkpt lat="45.42212" lon="4.4774">
        <ele>941</ele>
        <time>2015-04-19T06:22:24Z</time>
      </trkpt>
      <trkpt lat="45.42212" lon="4.4775">
        <ele>940</ele>
        <time>2015-04-19T06:22:27Z</time>
      </trkpt>
      <trkpt lat="45.42212" lon="4.47757">
        <ele>940</ele>
        <time>2015-04-19T06:22:29Z</time>
      </trkpt>
      <trkpt lat="45.4221" lon="4.47765">
        <ele>940</ele>
        <time>2015-04-19T06:22:31Z</time>
      </trkpt>
      <trkpt lat="45.42208" lon="4.47772">
        <ele>940</ele>
        <time>2015-04-19T06:22:33Z</time>
      </trkpt>
      <trkpt lat="45.42207" lon="4.47781">
        <ele>940</ele>
        <time>2015-04-19T06:22:35Z</time>
      </trkpt>
      <trkpt lat="45.42205" lon="4.47788">
        <ele>940</ele>
        <time>2015-04-19T06:22:37Z</time>
      </trkpt>
      <trkpt lat="45.42205" lon="4.47797">
        <ele>940</ele>
        <time>2015-04-19T06:22:40Z</time>
      </trkpt>
      <trkpt lat="45.42205" lon="4.47805">
        <ele>940</ele>
        <time>2015-04-19T06:22:43Z</time>
      </trkpt>
      <trkpt lat="45.42204" lon="4.47812">
        <ele>940</ele>
        <time>2015-04-19T06:22:45Z</time>
      </trkpt>
      <trkpt lat="45.42204" lon="4.4782">
        <ele>940</ele>
        <time>2015-04-19T06:22:47Z</time>
      </trkpt>
      <trkpt lat="45.42202" lon="4.47832">
        <ele>940</ele>
        <time>2015-04-19T06:22:50Z</time>
      </trkpt>
      <trkpt lat="45.42201" lon="4.47843">
        <ele>940</ele>
        <time>2015-04-19T06:22:53Z</time>
      </trkpt>
      <trkpt lat="45.42199" lon="4.47853">
        <ele>940</ele>
        <time>2015-04-19T06:22:56Z</time>
      </trkpt>
      <trkpt lat="45.42197" lon="4.4786">
        <ele>940</ele>
        <time>2015-04-19T06:22:58Z</time>
      </trkpt>
      <trkpt lat="45.42196" lon="4.47872">
        <ele>940</ele>
        <time>2015-04-19T06:23:01Z</time>
      </trkpt>
      <trkpt lat="45.42196" lon="4.47879">
        <ele>940</ele>
        <time>2015-04-19T06:23:03Z</time>
      </trkpt>
      <trkpt lat="45.42195" lon="4.47886">
        <ele>939</ele>
        <time>2015-04-19T06:23:05Z</time>
      </trkpt>
      <trkpt lat="45.42194" lon="4.47893">
        <ele>939</ele>
        <time>2015-04-19T06:23:07Z</time>
      </trkpt>
      <trkpt lat="45.42192" lon="4.47904">
        <ele>938</ele>
        <time>2015-04-19T06:23:10Z</time>
      </trkpt>
      <trkpt lat="45.4219" lon="4.47912">
        <ele>938</ele>
        <time>2015-04-19T06:23:12Z</time>
      </trkpt>
      <trkpt lat="45.42189" lon="4.47919">
        <ele>938</ele>
        <time>2015-04-19T06:23:14Z</time>
      </trkpt>
      <trkpt lat="45.42186" lon="4.47928">
        <ele>938</ele>
        <time>2015-04-19T06:23:17Z</time>
      </trkpt>
      <trkpt lat="45.42183" lon="4.47938">
        <ele>938</ele>
        <time>2015-04-19T06:23:20Z</time>
      </trkpt>
      <trkpt lat="45.42179" lon="4.47948">
        <ele>938</ele>
        <time>2015-04-19T06:23:23Z</time>
      </trkpt>
      <trkpt lat="45.42176" lon="4.47958">
        <ele>938</ele>
        <time>2015-04-19T06:23:26Z</time>
      </trkpt>
      <trkpt lat="45.42173" lon="4.47964">
        <ele>938</ele>
        <time>2015-04-19T06:23:28Z</time>
      </trkpt>
      <trkpt lat="45.42168" lon="4.47974">
        <ele>938</ele>
        <time>2015-04-19T06:23:31Z</time>
      </trkpt>
      <trkpt lat="45.42166" lon="4.4798">
        <ele>938</ele>
        <time>2015-04-19T06:23:33Z</time>
      </trkpt>
      <trkpt lat="45.42163" lon="4.47985">
        <ele>938</ele>
        <time>2015-04-19T06:23:35Z</time>
      </trkpt>
      <trkpt lat="45.42161" lon="4.4799">
        <ele>938</ele>
        <time>2015-04-19T06:23:37Z</time>
      </trkpt>
      <trkpt lat="45.42156" lon="4.48">
        <ele>937</ele>
        <time>2015-04-19T06:23:40Z</time>
      </trkpt>
      <trkpt lat="45.42152" lon="4.48006">
        <ele>937</ele>
        <time>2015-04-19T06:23:42Z</time>
      </trkpt>
      <trkpt lat="45.42148" lon="4.48014">
        <ele>936</ele>
        <time>2015-04-19T06:23:45Z</time>
      </trkpt>
      <trkpt lat="45.42144" lon="4.48022">
        <ele>936</ele>
        <time>2015-04-19T06:23:47Z</time>
      </trkpt>
      <trkpt lat="45.42139" lon="4.48028">
        <ele>935</ele>
        <time>2015-04-19T06:23:49Z</time>
      </trkpt>
      <trkpt lat="45.42135" lon="4.48033">
        <ele>935</ele>
        <time>2015-04-19T06:23:51Z</time>
      </trkpt>
      <trkpt lat="45.42131" lon="4.48038">
        <ele>935</ele>
        <time>2015-04-19T06:23:53Z</time>
      </trkpt>
      <trkpt lat="45.42126" lon="4.48047">
        <ele>935</ele>
        <time>2015-04-19T06:23:56Z</time>
      </trkpt>
      <trkpt lat="45.42122" lon="4.48051">
        <ele>934</ele>
        <time>2015-04-19T06:23:58Z</time>
      </trkpt>
      <trkpt lat="45.42115" lon="4.48059">
        <ele>934</ele>
        <time>2015-04-19T06:24:01Z</time>
      </trkpt>
      <trkpt lat="45.42111" lon="4.48063">
        <ele>934</ele>
        <time>2015-04-19T06:24:03Z</time>
      </trkpt>
      <trkpt lat="45.42107" lon="4.48066">
        <ele>934</ele>
        <time>2015-04-19T06:24:06Z</time>
      </trkpt>
      <trkpt lat="45.42101" lon="4.48072">
        <ele>934</ele>
        <time>2015-04-19T06:24:08Z</time>
      </trkpt>
      <trkpt lat="45.42097" lon="4.48076">
        <ele>934</ele>
        <time>2015-04-19T06:24:10Z</time>
      </trkpt>
      <trkpt lat="45.42094" lon="4.48079">
        <ele>935</ele>
        <time>2015-04-19T06:24:12Z</time>
      </trkpt>
      <trkpt lat="45.42089" lon="4.48082">
        <ele>934</ele>
        <time>2015-04-19T06:24:14Z</time>
      </trkpt>
      <trkpt lat="45.42083" lon="4.48087">
        <ele>934</ele>
        <time>2015-04-19T06:24:17Z</time>
      </trkpt>
      <trkpt lat="45.4208" lon="4.4809">
        <ele>934</ele>
        <time>2015-04-19T06:24:19Z</time>
      </trkpt>
      <trkpt lat="45.42074" lon="4.48096">
        <ele>933</ele>
        <time>2015-04-19T06:24:22Z</time>
      </trkpt>
      <trkpt lat="45.42069" lon="4.48101">
        <ele>933</ele>
        <time>2015-04-19T06:24:24Z</time>
      </trkpt>
      <trkpt lat="45.42063" lon="4.48109">
        <ele>934</ele>
        <time>2015-04-19T06:24:27Z</time>
      </trkpt>
      <trkpt lat="45.42059" lon="4.48112">
        <ele>935</ele>
        <time>2015-04-19T06:24:29Z</time>
      </trkpt>
      <trkpt lat="45.42054" lon="4.48117">
        <ele>935</ele>
        <time>2015-04-19T06:24:31Z</time>
      </trkpt>
      <trkpt lat="45.4205" lon="4.48122">
        <ele>935</ele>
        <time>2015-04-19T06:24:33Z</time>
      </trkpt>
      <trkpt lat="45.42046" lon="4.48127">
        <ele>934</ele>
        <time>2015-04-19T06:24:36Z</time>
      </trkpt>
      <trkpt lat="45.4204" lon="4.48134">
        <ele>934</ele>
        <time>2015-04-19T06:24:38Z</time>
      </trkpt>
      <trkpt lat="45.42035" lon="4.4814">
        <ele>933</ele>
        <time>2015-04-19T06:24:41Z</time>
      </trkpt>
      <trkpt lat="45.4203" lon="4.48145">
        <ele>933</ele>
        <time>2015-04-19T06:24:44Z</time>
      </trkpt>
      <trkpt lat="45.42026" lon="4.48149">
        <ele>933</ele>
        <time>2015-04-19T06:24:46Z</time>
      </trkpt>
      <trkpt lat="45.42022" lon="4.48155">
        <ele>934</ele>
        <time>2015-04-19T06:24:49Z</time>
      </trkpt>
      <trkpt lat="45.42017" lon="4.48161">
        <ele>933</ele>
        <time>2015-04-19T06:24:51Z</time>
      </trkpt>
      <trkpt lat="45.42014" lon="4.48166">
        <ele>933</ele>
        <time>2015-04-19T06:24:53Z</time>
      </trkpt>
      <trkpt lat="45.4201" lon="4.48172">
        <ele>933</ele>
        <time>2015-04-19T06:24:55Z</time>
      </trkpt>
      <trkpt lat="45.42007" lon="4.48178">
        <ele>933</ele>
        <time>2015-04-19T06:24:57Z</time>
      </trkpt>
      <trkpt lat="45.42003" lon="4.48187">
        <ele>932</ele>
        <time>2015-04-19T06:25:00Z</time>
      </trkpt>
      <trkpt lat="45.41996" lon="4.48198">
        <ele>931</ele>
        <time>2015-04-19T06:25:03Z</time>
      </trkpt>
      <trkpt lat="45.41992" lon="4.48206">
        <ele>931</ele>
        <time>2015-04-19T06:25:05Z</time>
      </trkpt>
      <trkpt lat="45.41986" lon="4.48218">
        <ele>930</ele>
        <time>2015-04-19T06:25:08Z</time>
      </trkpt>
      <trkpt lat="45.41981" lon="4.4823">
        <ele>930</ele>
        <time>2015-04-19T06:25:11Z</time>
      </trkpt>
      <trkpt lat="45.41978" lon="4.48238">
        <ele>930</ele>
        <time>2015-04-19T06:25:13Z</time>
      </trkpt>
      <trkpt lat="45.41974" lon="4.48249">
        <ele>929</ele>
        <time>2015-04-19T06:25:16Z</time>
      </trkpt>
      <trkpt lat="45.41972" lon="4.48257">
        <ele>929</ele>
        <time>2015-04-19T06:25:18Z</time>
      </trkpt>
      <trkpt lat="45.41972" lon="4.48266">
        <ele>928</ele>
        <time>2015-04-19T06:25:20Z</time>
      </trkpt>
      <trkpt lat="45.41972" lon="4.48272">
        <ele>928</ele>
        <time>2015-04-19T06:25:22Z</time>
      </trkpt>
      <trkpt lat="45.41972" lon="4.4828">
        <ele>927</ele>
        <time>2015-04-19T06:25:25Z</time>
      </trkpt>
      <trkpt lat="45.41973" lon="4.48285">
        <ele>927</ele>
        <time>2015-04-19T06:25:28Z</time>
      </trkpt>
      <trkpt lat="45.41976" lon="4.4829">
        <ele>926</ele>
        <time>2015-04-19T06:25:31Z</time>
      </trkpt>
      <trkpt lat="45.41977" lon="4.48293">
        <ele>925</ele>
        <time>2015-04-19T06:25:33Z</time>
      </trkpt>
      <trkpt lat="45.4198" lon="4.48298">
        <ele>925</ele>
        <time>2015-04-19T06:25:36Z</time>
      </trkpt>
      <trkpt lat="45.41985" lon="4.48302">
        <ele>924</ele>
        <time>2015-04-19T06:25:39Z</time>
      </trkpt>
      <trkpt lat="45.4199" lon="4.48309">
        <ele>923</ele>
        <time>2015-04-19T06:25:42Z</time>
      </trkpt>
      <trkpt lat="45.41996" lon="4.48316">
        <ele>923</ele>
        <time>2015-04-19T06:25:45Z</time>
      </trkpt>
      <trkpt lat="45.42001" lon="4.48319">
        <ele>923</ele>
        <time>2015-04-19T06:25:47Z</time>
      </trkpt>
      <trkpt lat="45.42005" lon="4.48322">
        <ele>923</ele>
        <time>2015-04-19T06:25:49Z</time>
      </trkpt>
      <trkpt lat="45.42011" lon="4.48325">
        <ele>922</ele>
        <time>2015-04-19T06:25:52Z</time>
      </trkpt>
      <trkpt lat="45.42018" lon="4.48328">
        <ele>922</ele>
        <time>2015-04-19T06:25:54Z</time>
      </trkpt>
      <trkpt lat="45.42026" lon="4.4833">
        <ele>922</ele>
        <time>2015-04-19T06:25:57Z</time>
      </trkpt>
      <trkpt lat="45.42032" lon="4.48332">
        <ele>922</ele>
        <time>2015-04-19T06:25:59Z</time>
      </trkpt>
      <trkpt lat="45.42041" lon="4.48335">
        <ele>921</ele>
        <time>2015-04-19T06:26:02Z</time>
      </trkpt>
      <trkpt lat="45.42048" lon="4.48338">
        <ele>921</ele>
        <time>2015-04-19T06:26:04Z</time>
      </trkpt>
      <trkpt lat="45.42057" lon="4.48342">
        <ele>920</ele>
        <time>2015-04-19T06:26:07Z</time>
      </trkpt>
      <trkpt lat="45.42062" lon="4.48346">
        <ele>920</ele>
        <time>2015-04-19T06:26:09Z</time>
      </trkpt>
      <trkpt lat="45.42066" lon="4.48349">
        <ele>919</ele>
        <time>2015-04-19T06:26:12Z</time>
      </trkpt>
      <trkpt lat="45.42074" lon="4.48353">
        <ele>919</ele>
        <time>2015-04-19T06:26:14Z</time>
      </trkpt>
      <trkpt lat="45.4208" lon="4.48355">
        <ele>919</ele>
        <time>2015-04-19T06:26:16Z</time>
      </trkpt>
      <trkpt lat="45.42086" lon="4.48359">
        <ele>918</ele>
        <time>2015-04-19T06:26:19Z</time>
      </trkpt>
      <trkpt lat="45.42093" lon="4.48364">
        <ele>917</ele>
        <time>2015-04-19T06:26:22Z</time>
      </trkpt>
      <trkpt lat="45.42099" lon="4.48367">
        <ele>916</ele>
        <time>2015-04-19T06:26:24Z</time>
      </trkpt>
      <trkpt lat="45.42109" lon="4.48371">
        <ele>915</ele>
        <time>2015-04-19T06:26:27Z</time>
      </trkpt>
      <trkpt lat="45.42118" lon="4.48375">
        <ele>915</ele>
        <time>2015-04-19T06:26:30Z</time>
      </trkpt>
      <trkpt lat="45.42124" lon="4.48377">
        <ele>915</ele>
        <time>2015-04-19T06:26:32Z</time>
      </trkpt>
      <trkpt lat="45.4213" lon="4.4838">
        <ele>914</ele>
        <time>2015-04-19T06:26:34Z</time>
      </trkpt>
      <trkpt lat="45.42136" lon="4.48384">
        <ele>914</ele>
        <time>2015-04-19T06:26:36Z</time>
      </trkpt>
      <trkpt lat="45.42141" lon="4.48389">
        <ele>913</ele>
        <time>2015-04-19T06:26:39Z</time>
      </trkpt>
      <trkpt lat="45.42145" lon="4.48392">
        <ele>912</ele>
        <time>2015-04-19T06:26:41Z</time>
      </trkpt>
      <trkpt lat="45.42153" lon="4.48398">
        <ele>912</ele>
        <time>2015-04-19T06:26:44Z</time>
      </trkpt>
      <trkpt lat="45.4216" lon="4.48404">
        <ele>911</ele>
        <time>2015-04-19T06:26:47Z</time>
      </trkpt>
      <trkpt lat="45.42164" lon="4.48408">
        <ele>910</ele>
        <time>2015-04-19T06:26:49Z</time>
      </trkpt>
      <trkpt lat="45.4217" lon="4.48412">
        <ele>910</ele>
        <time>2015-04-19T06:26:51Z</time>
      </trkpt>
      <trkpt lat="45.42175" lon="4.48416">
        <ele>909</ele>
        <time>2015-04-19T06:26:53Z</time>
      </trkpt>
      <trkpt lat="45.42181" lon="4.48423">
        <ele>909</ele>
        <time>2015-04-19T06:26:56Z</time>
      </trkpt>
      <trkpt lat="45.42186" lon="4.48428">
        <ele>908</ele>
        <time>2015-04-19T06:26:59Z</time>
      </trkpt>
      <trkpt lat="45.42192" lon="4.48432">
        <ele>907</ele>
        <time>2015-04-19T06:27:02Z</time>
      </trkpt>
      <trkpt lat="45.42199" lon="4.48439">
        <ele>907</ele>
        <time>2015-04-19T06:27:04Z</time>
      </trkpt>
      <trkpt lat="45.42205" lon="4.48445">
        <ele>906</ele>
        <time>2015-04-19T06:27:07Z</time>
      </trkpt>
      <trkpt lat="45.42213" lon="4.48451">
        <ele>905</ele>
        <time>2015-04-19T06:27:10Z</time>
      </trkpt>
      <trkpt lat="45.42219" lon="4.48455">
        <ele>904</ele>
        <time>2015-04-19T06:27:12Z</time>
      </trkpt>
      <trkpt lat="45.42226" lon="4.48459">
        <ele>904</ele>
        <time>2015-04-19T06:27:14Z</time>
      </trkpt>
      <trkpt lat="45.42232" lon="4.48463">
        <ele>903</ele>
        <time>2015-04-19T06:27:16Z</time>
      </trkpt>
      <trkpt lat="45.42239" lon="4.48469">
        <ele>903</ele>
        <time>2015-04-19T06:27:19Z</time>
      </trkpt>
      <trkpt lat="45.42245" lon="4.48474">
        <ele>903</ele>
        <time>2015-04-19T06:27:21Z</time>
      </trkpt>
      <trkpt lat="45.4225" lon="4.48479">
        <ele>902</ele>
        <time>2015-04-19T06:27:23Z</time>
      </trkpt>
      <trkpt lat="45.42257" lon="4.48487">
        <ele>901</ele>
        <time>2015-04-19T06:27:26Z</time>
      </trkpt>
      <trkpt lat="45.42261" lon="4.48498">
        <ele>901</ele>
        <time>2015-04-19T06:27:29Z</time>
      </trkpt>
      <trkpt lat="45.42266" lon="4.48508">
        <ele>900</ele>
        <time>2015-04-19T06:27:32Z</time>
      </trkpt>
      <trkpt lat="45.42269" lon="4.48514">
        <ele>900</ele>
        <time>2015-04-19T06:27:34Z</time>
      </trkpt>
      <trkpt lat="45.42272" lon="4.48525">
        <ele>899</ele>
        <time>2015-04-19T06:27:37Z</time>
      </trkpt>
      <trkpt lat="45.42274" lon="4.48537">
        <ele>899</ele>
        <time>2015-04-19T06:27:40Z</time>
      </trkpt>
      <trkpt lat="45.42274" lon="4.48546">
        <ele>898</ele>
        <time>2015-04-19T06:27:42Z</time>
      </trkpt>
      <trkpt lat="45.42277" lon="4.48559">
        <ele>898</ele>
        <time>2015-04-19T06:27:45Z</time>
      </trkpt>
      <trkpt lat="45.42279" lon="4.48566">
        <ele>898</ele>
        <time>2015-04-19T06:27:47Z</time>
      </trkpt>
      <trkpt lat="45.42281" lon="4.48574">
        <ele>898</ele>
        <time>2015-04-19T06:27:49Z</time>
      </trkpt>
      <trkpt lat="45.42284" lon="4.48586">
        <ele>898</ele>
        <time>2015-04-19T06:27:52Z</time>
      </trkpt>
      <trkpt lat="45.42288" lon="4.48594">
        <ele>898</ele>
        <time>2015-04-19T06:27:55Z</time>
      </trkpt>
      <trkpt lat="45.42292" lon="4.48596">
        <ele>897</ele>
        <time>2015-04-19T06:27:57Z</time>
      </trkpt>
      <trkpt lat="45.42298" lon="4.48597">
        <ele>897</ele>
        <time>2015-04-19T06:27:59Z</time>
      </trkpt>
      <trkpt lat="45.42304" lon="4.48598">
        <ele>897</ele>
        <time>2015-04-19T06:28:01Z</time>
      </trkpt>
      <trkpt lat="45.42308" lon="4.48601">
        <ele>897</ele>
        <time>2015-04-19T06:28:03Z</time>
      </trkpt>
      <trkpt lat="45.4231" lon="4.48604">
        <ele>897</ele>
        <time>2015-04-19T06:28:05Z</time>
      </trkpt>
      <trkpt lat="45.42313" lon="4.48611">
        <ele>898</ele>
        <time>2015-04-19T06:28:08Z</time>
      </trkpt>
      <trkpt lat="45.42315" lon="4.48616">
        <ele>898</ele>
        <time>2015-04-19T06:28:11Z</time>
      </trkpt>
      <trkpt lat="45.42316" lon="4.48624">
        <ele>899</ele>
        <time>2015-04-19T06:28:13Z</time>
      </trkpt>
      <trkpt lat="45.42316" lon="4.48631">
        <ele>900</ele>
        <time>2015-04-19T06:28:16Z</time>
      </trkpt>
      <trkpt lat="45.42317" lon="4.48638">
        <ele>901</ele>
        <time>2015-04-19T06:28:19Z</time>
      </trkpt>
      <trkpt lat="45.42318" lon="4.48643">
        <ele>901</ele>
        <time>2015-04-19T06:28:22Z</time>
      </trkpt>
      <trkpt lat="45.42318" lon="4.48646">
        <ele>902</ele>
        <time>2015-04-19T06:28:24Z</time>
      </trkpt>
      <trkpt lat="45.42317" lon="4.48651">
        <ele>902</ele>
        <time>2015-04-19T06:28:26Z</time>
      </trkpt>
      <trkpt lat="45.42316" lon="4.48656">
        <ele>903</ele>
        <time>2015-04-19T06:28:29Z</time>
      </trkpt>
      <trkpt lat="45.42315" lon="4.48663">
        <ele>903</ele>
        <time>2015-04-19T06:28:31Z</time>
      </trkpt>
      <trkpt lat="45.42314" lon="4.48667">
        <ele>904</ele>
        <time>2015-04-19T06:28:33Z</time>
      </trkpt>
      <trkpt lat="45.42312" lon="4.48673">
        <ele>905</ele>
        <time>2015-04-19T06:28:36Z</time>
      </trkpt>
      <trkpt lat="45.4231" lon="4.4868">
        <ele>906</ele>
        <time>2015-04-19T06:28:39Z</time>
      </trkpt>
      <trkpt lat="45.42308" lon="4.48686">
        <ele>907</ele>
        <time>2015-04-19T06:28:42Z</time>
      </trkpt>
      <trkpt lat="45.42307" lon="4.48689">
        <ele>908</ele>
        <time>2015-04-19T06:28:44Z</time>
      </trkpt>
      <trkpt lat="45.42306" lon="4.48694">
        <ele>908</ele>
        <time>2015-04-19T06:28:47Z</time>
      </trkpt>
      <trkpt lat="45.42305" lon="4.48697">
        <ele>909</ele>
        <time>2015-04-19T06:28:50Z</time>
      </trkpt>
      <trkpt lat="45.42303" lon="4.487">
        <ele>911</ele>
        <time>2015-04-19T06:28:53Z</time>
      </trkpt>
      <trkpt lat="45.42301" lon="4.48704">
        <ele>911</ele>
        <time>2015-04-19T06:28:56Z</time>
      </trkpt>
      <trkpt lat="45.423" lon="4.48706">
        <ele>912</ele>
        <time>2015-04-19T06:28:58Z</time>
      </trkpt>
      <trkpt lat="45.42299" lon="4.48709">
        <ele>912</ele>
        <time>2015-04-19T06:29:01Z</time>
      </trkpt>
      <trkpt lat="45.42297" lon="4.48711">
        <ele>913</ele>
        <time>2015-04-19T06:29:03Z</time>
      </trkpt>
      <trkpt lat="45.42296" lon="4.48714">
        <ele>914</ele>
        <time>2015-04-19T06:29:05Z</time>
      </trkpt>
      <trkpt lat="45.42295" lon="4.48718">
        <ele>915</ele>
        <time>2015-04-19T06:29:08Z</time>
      </trkpt>
      <trkpt lat="45.42293" lon="4.48723">
        <ele>915</ele>
        <time>2015-04-19T06:29:11Z</time>
      </trkpt>
      <trkpt lat="45.42292" lon="4.48727">
        <ele>916</ele>
        <time>2015-04-19T06:29:14Z</time>
      </trkpt>
      <trkpt lat="45.42292" lon="4.4873">
        <ele>917</ele>
        <time>2015-04-19T06:29:16Z</time>
      </trkpt>
      <trkpt lat="45.4229" lon="4.48733">
        <ele>918</ele>
        <time>2015-04-19T06:29:19Z</time>
      </trkpt>
      <trkpt lat="45.42289" lon="4.48736">
        <ele>919</ele>
        <time>2015-04-19T06:29:22Z</time>
      </trkpt>
      <trkpt lat="45.42288" lon="4.48739">
        <ele>919</ele>
        <time>2015-04-19T06:29:24Z</time>
      </trkpt>
      <trkpt lat="45.42286" lon="4.48743">
        <ele>920</ele>
        <time>2015-04-19T06:29:27Z</time>
      </trkpt>
      <trkpt lat="45.42285" lon="4.48745">
        <ele>921</ele>
        <time>2015-04-19T06:29:30Z</time>
      </trkpt>
      <trkpt lat="45.42285" lon="4.48748">
        <ele>922</ele>
        <time>2015-04-19T06:29:32Z</time>
      </trkpt>
      <trkpt lat="45.42285" lon="4.4875">
        <ele>922</ele>
        <time>2015-04-19T06:29:34Z</time>
      </trkpt>
      <trkpt lat="45.42284" lon="4.48752">
        <ele>923</ele>
        <time>2015-04-19T06:29:37Z</time>
      </trkpt>
      <trkpt lat="45.42284" lon="4.48755">
        <ele>923</ele>
        <time>2015-04-19T06:29:39Z</time>
      </trkpt>
      <trkpt lat="45.42284" lon="4.48756">
        <ele>924</ele>
        <time>2015-04-19T06:29:41Z</time>
      </trkpt>
      <trkpt lat="45.42284" lon="4.48758">
        <ele>924</ele>
        <time>2015-04-19T06:29:44Z</time>
      </trkpt>
      <trkpt lat="45.42284" lon="4.48761">
        <ele>925</ele>
        <time>2015-04-19T06:29:47Z</time>
      </trkpt>
      <trkpt lat="45.42284" lon="4.48762">
        <ele>926</ele>
        <time>2015-04-19T06:29:49Z</time>
      </trkpt>
      <trkpt lat="45.42284" lon="4.48766">
        <ele>927</ele>
        <time>2015-04-19T06:29:52Z</time>
      </trkpt>
      <trkpt lat="45.42283" lon="4.48768">
        <ele>928</ele>
        <time>2015-04-19T06:29:54Z</time>
      </trkpt>
      <trkpt lat="45.42282" lon="4.48771">
        <ele>928</ele>
        <time>2015-04-19T06:29:57Z</time>
      </trkpt>
      <trkpt lat="45.42281" lon="4.48773">
        <ele>929</ele>
        <time>2015-04-19T06:29:59Z</time>
      </trkpt>
      <trkpt lat="45.42282" lon="4.48775">
        <ele>929</ele>
        <time>2015-04-19T06:30:01Z</time>
      </trkpt>
      <trkpt lat="45.42281" lon="4.48777">
        <ele>930</ele>
        <time>2015-04-19T06:30:04Z</time>
      </trkpt>
      <trkpt lat="45.42282" lon="4.48779">
        <ele>931</ele>
        <time>2015-04-19T06:30:06Z</time>
      </trkpt>
      <trkpt lat="45.42282" lon="4.4878">
        <ele>932</ele>
        <time>2015-04-19T06:30:09Z</time>
      </trkpt>
      <trkpt lat="45.42281" lon="4.48782">
        <ele>933</ele>
        <time>2015-04-19T06:30:11Z</time>
      </trkpt>
      <trkpt lat="45.42281" lon="4.48783">
        <ele>934</ele>
        <time>2015-04-19T06:30:14Z</time>
      </trkpt>
      <trkpt lat="45.42281" lon="4.48784">
        <ele>934</ele>
        <time>2015-04-19T06:30:16Z</time>
      </trkpt>
      <trkpt lat="45.42281" lon="4.48785">
        <ele>935</ele>
        <time>2015-04-19T06:30:18Z</time>
      </trkpt>
      <trkpt lat="45.42281" lon="4.48787">
        <ele>935</ele>
        <time>2015-04-19T06:30:20Z</time>
      </trkpt>
      <trkpt lat="45.4228" lon="4.48789">
        <ele>936</ele>
        <time>2015-04-19T06:30:23Z</time>
      </trkpt>
      <trkpt lat="45.4228" lon="4.48791">
        <ele>937</ele>
        <time>2015-04-19T06:30:25Z</time>
      </trkpt>
      <trkpt lat="45.4228" lon="4.48794">
        <ele>937</ele>
        <time>2015-04-19T06:30:28Z</time>
      </trkpt>
      <trkpt lat="45.42279" lon="4.48797">
        <ele>938</ele>
        <time>2015-04-19T06:30:31Z</time>
      </trkpt>
      <trkpt lat="45.42279" lon="4.48798">
        <ele>939</ele>
        <time>2015-04-19T06:30:33Z</time>
      </trkpt>
      <trkpt lat="45.42277" lon="4.488">
        <ele>940</ele>
        <time>2015-04-19T06:30:36Z</time>
      </trkpt>
      <trkpt lat="45.42276" lon="4.48802">
        <ele>940</ele>
        <time>2015-04-19T06:30:38Z</time>
      </trkpt>
      <trkpt lat="45.42274" lon="4.48805">
        <ele>941</ele>
        <time>2015-04-19T06:30:40Z</time>
      </trkpt>
      <trkpt lat="45.42272" lon="4.48807">
        <ele>941</ele>
        <time>2015-04-19T06:30:43Z</time>
      </trkpt>
      <trkpt lat="45.42271" lon="4.48809">
        <ele>942</ele>
        <time>2015-04-19T06:30:46Z</time>
      </trkpt>
      <trkpt lat="45.42268" lon="4.48811">
        <ele>943</ele>
        <time>2015-04-19T06:30:49Z</time>
      </trkpt>
      <trkpt lat="45.42267" lon="4.48813">
        <ele>943</ele>
        <time>2015-04-19T06:30:51Z</time>
      </trkpt>
      <trkpt lat="45.42265" lon="4.48813">
        <ele>944</ele>
        <time>2015-04-19T06:30:54Z</time>
      </trkpt>
      <trkpt lat="45.42262" lon="4.48813">
        <ele>945</ele>
        <time>2015-04-19T06:30:57Z</time>
      </trkpt>
      <trkpt lat="45.4226" lon="4.48814">
        <ele>945</ele>
        <time>2015-04-19T06:30:59Z</time>
      </trkpt>
      <trkpt lat="45.42258" lon="4.48814">
        <ele>946</ele>
        <time>2015-04-19T06:31:02Z</time>
      </trkpt>
      <trkpt lat="45.42256" lon="4.48814">
        <ele>947</ele>
        <time>2015-04-19T06:31:04Z</time>
      </trkpt>
      <trkpt lat="45.42254" lon="4.48814">
        <ele>947</ele>
        <time>2015-04-19T06:31:06Z</time>
      </trkpt>
      <trkpt lat="45.42251" lon="4.48813">
        <ele>948</ele>
        <time>2015-04-19T06:31:09Z</time>
      </trkpt>
      <trkpt lat="45.42249" lon="4.48813">
        <ele>948</ele>
        <time>2015-04-19T06:31:11Z</time>
      </trkpt>
      <trkpt lat="45.42246" lon="4.48813">
        <ele>949</ele>
        <time>2015-04-19T06:31:14Z</time>
      </trkpt>
      <trkpt lat="45.42244" lon="4.48812">
        <ele>949</ele>
        <time>2015-04-19T06:31:16Z</time>
      </trkpt>
      <trkpt lat="45.42242" lon="4.48812">
        <ele>950</ele>
        <time>2015-04-19T06:31:19Z</time>
      </trkpt>
      <trkpt lat="45.42239" lon="4.48812">
        <ele>951</ele>
        <time>2015-04-19T06:31:21Z</time>
      </trkpt>
      <trkpt lat="45.42236" lon="4.48811">
        <ele>952</ele>
        <time>2015-04-19T06:31:24Z</time>
      </trkpt>
      <trkpt lat="45.42235" lon="4.4881">
        <ele>952</ele>
        <time>2015-04-19T06:31:26Z</time>
      </trkpt>
      <trkpt lat="45.42231" lon="4.48808">
        <ele>952</ele>
        <time>2015-04-19T06:31:29Z</time>
      </trkpt>
      <trkpt lat="45.42228" lon="4.48808">
        <ele>953</ele>
        <time>2015-04-19T06:31:32Z</time>
      </trkpt>
      <trkpt lat="45.42227" lon="4.48807">
        <ele>954</ele>
        <time>2015-04-19T06:31:34Z</time>
      </trkpt>
      <trkpt lat="45.42225" lon="4.48808">
        <ele>954</ele>
        <time>2015-04-19T06:31:37Z</time>
      </trkpt>
      <trkpt lat="45.42226" lon="4.4881">
        <ele>955</ele>
        <time>2015-04-19T06:31:40Z</time>
      </trkpt>
      <trkpt lat="45.42228" lon="4.48815">
        <ele>955</ele>
        <time>2015-04-19T06:31:42Z</time>
      </trkpt>
      <trkpt lat="45.42234" lon="4.4882">
        <ele>955</ele>
        <time>2015-04-19T06:31:45Z</time>
      </trkpt>
      <trkpt lat="45.42239" lon="4.48825">
        <ele>955</ele>
        <time>2015-04-19T06:31:48Z</time>
      </trkpt>
      <trkpt lat="45.42242" lon="4.48829">
        <ele>955</ele>
        <time>2015-04-19T06:31:50Z</time>
      </trkpt>
      <trkpt lat="45.42247" lon="4.48833">
        <ele>955</ele>
        <time>2015-04-19T06:31:53Z</time>
      </trkpt>
      <trkpt lat="45.42249" lon="4.48838">
        <ele>956</ele>
        <time>2015-04-19T06:31:56Z</time>
      </trkpt>
      <trkpt lat="45.42252" lon="4.48842">
        <ele>955</ele>
        <time>2015-04-19T06:31:59Z</time>
      </trkpt>
      <trkpt lat="45.42255" lon="4.48843">
        <ele>955</ele>
        <time>2015-04-19T06:32:01Z</time>
      </trkpt>
      <trkpt lat="45.42262" lon="4.48846">
        <ele>955</ele>
        <time>2015-04-19T06:32:04Z</time>
      </trkpt>
      <trkpt lat="45.42267" lon="4.48848">
        <ele>955</ele>
        <time>2015-04-19T06:32:07Z</time>
      </trkpt>
      <trkpt lat="45.42274" lon="4.48848">
        <ele>956</ele>
        <time>2015-04-19T06:32:10Z</time>
      </trkpt>
      <trkpt lat="45.42279" lon="4.48848">
        <ele>956</ele>
        <time>2015-04-19T06:32:12Z</time>
      </trkpt>
      <trkpt lat="45.42285" lon="4.48846">
        <ele>956</ele>
        <time>2015-04-19T06:32:15Z</time>
      </trkpt>
      <trkpt lat="45.42289" lon="4.48844">
        <ele>956</ele>
        <time>2015-04-19T06:32:17Z</time>
      </trkpt>
      <trkpt lat="45.42297" lon="4.48842">
        <ele>956</ele>
        <time>2015-04-19T06:32:20Z</time>
      </trkpt>
      <trkpt lat="45.423" lon="4.4884">
        <ele>957</ele>
        <time>2015-04-19T06:32:22Z</time>
      </trkpt>
      <trkpt lat="45.42307" lon="4.48836">
        <ele>958</ele>
        <time>2015-04-19T06:32:25Z</time>
      </trkpt>
      <trkpt lat="45.42311" lon="4.48834">
        <ele>958</ele>
        <time>2015-04-19T06:32:27Z</time>
      </trkpt>
      <trkpt lat="45.42315" lon="4.48829">
        <ele>958</ele>
        <time>2015-04-19T06:32:30Z</time>
      </trkpt>
      <trkpt lat="45.42318" lon="4.48824">
        <ele>957</ele>
        <time>2015-04-19T06:32:32Z</time>
      </trkpt>
      <trkpt lat="45.4232" lon="4.4882">
        <ele>957</ele>
        <time>2015-04-19T06:32:34Z</time>
      </trkpt>
      <trkpt lat="45.42326" lon="4.48815">
        <ele>957</ele>
        <time>2015-04-19T06:32:37Z</time>
      </trkpt>
      <trkpt lat="45.42329" lon="4.48812">
        <ele>957</ele>
        <time>2015-04-19T06:32:39Z</time>
      </trkpt>
      <trkpt lat="45.42335" lon="4.48807">
        <ele>956</ele>
        <time>2015-04-19T06:32:42Z</time>
      </trkpt>
      <trkpt lat="45.42342" lon="4.48803">
        <ele>956</ele>
        <time>2015-04-19T06:32:45Z</time>
      </trkpt>
      <trkpt lat="45.42346" lon="4.48801">
        <ele>955</ele>
        <time>2015-04-19T06:32:47Z</time>
      </trkpt>
      <trkpt lat="45.42352" lon="4.48796">
        <ele>954</ele>
        <time>2015-04-19T06:32:50Z</time>
      </trkpt>
      <trkpt lat="45.42358" lon="4.48793">
        <ele>953</ele>
        <time>2015-04-19T06:32:53Z</time>
      </trkpt>
      <trkpt lat="45.42361" lon="4.4879">
        <ele>952</ele>
        <time>2015-04-19T06:32:55Z</time>
      </trkpt>
      <trkpt lat="45.42365" lon="4.48788">
        <ele>952</ele>
        <time>2015-04-19T06:32:57Z</time>
      </trkpt>
      <trkpt lat="45.42372" lon="4.48786">
        <ele>951</ele>
        <time>2015-04-19T06:33:00Z</time>
      </trkpt>
      <trkpt lat="45.42379" lon="4.48785">
        <ele>950</ele>
        <time>2015-04-19T06:33:03Z</time>
      </trkpt>
      <trkpt lat="45.42384" lon="4.48783">
        <ele>949</ele>
        <time>2015-04-19T06:33:06Z</time>
      </trkpt>
      <trkpt lat="45.42389" lon="4.48781">
        <ele>949</ele>
        <time>2015-04-19T06:33:08Z</time>
      </trkpt>
      <trkpt lat="45.42394" lon="4.48779">
        <ele>948</ele>
        <time>2015-04-19T06:33:11Z</time>
      </trkpt>
      <trkpt lat="45.42398" lon="4.48777">
        <ele>947</ele>
        <time>2015-04-19T06:33:13Z</time>
      </trkpt>
      <trkpt lat="45.42402" lon="4.48776">
        <ele>947</ele>
        <time>2015-04-19T06:33:15Z</time>
      </trkpt>
      <trkpt lat="45.42409" lon="4.48775">
        <ele>946</ele>
        <time>2015-04-19T06:33:18Z</time>
      </trkpt>
      <trkpt lat="45.42416" lon="4.48773">
        <ele>945</ele>
        <time>2015-04-19T06:33:21Z</time>
      </trkpt>
      <trkpt lat="45.42424" lon="4.4877">
        <ele>944</ele>
        <time>2015-04-19T06:33:24Z</time>
      </trkpt>
      <trkpt lat="45.42433" lon="4.48767">
        <ele>943</ele>
        <time>2015-04-19T06:33:27Z</time>
      </trkpt>
      <trkpt lat="45.42438" lon="4.48764">
        <ele>943</ele>
        <time>2015-04-19T06:33:29Z</time>
      </trkpt>
      <trkpt lat="45.42444" lon="4.48763">
        <ele>942</ele>
        <time>2015-04-19T06:33:31Z</time>
      </trkpt>
      <trkpt lat="45.42449" lon="4.48761">
        <ele>941</ele>
        <time>2015-04-19T06:33:33Z</time>
      </trkpt>
      <trkpt lat="45.42458" lon="4.48759">
        <ele>940</ele>
        <time>2015-04-19T06:33:36Z</time>
      </trkpt>
      <trkpt lat="45.42464" lon="4.48757">
        <ele>939</ele>
        <time>2015-04-19T06:33:38Z</time>
      </trkpt>
      <trkpt lat="45.42469" lon="4.48756">
        <ele>938</ele>
        <time>2015-04-19T06:33:40Z</time>
      </trkpt>
      <trkpt lat="45.42477" lon="4.48755">
        <ele>937</ele>
        <time>2015-04-19T06:33:43Z</time>
      </trkpt>
      <trkpt lat="45.42482" lon="4.48753">
        <ele>936</ele>
        <time>2015-04-19T06:33:45Z</time>
      </trkpt>
      <trkpt lat="45.42491" lon="4.48752">
        <ele>935</ele>
        <time>2015-04-19T06:33:48Z</time>
      </trkpt>
      <trkpt lat="45.42496" lon="4.48753">
        <ele>934</ele>
        <time>2015-04-19T06:33:50Z</time>
      </trkpt>
      <trkpt lat="45.42504" lon="4.48754">
        <ele>933</ele>
        <time>2015-04-19T06:33:53Z</time>
      </trkpt>
      <trkpt lat="45.42511" lon="4.48754">
        <ele>932</ele>
        <time>2015-04-19T06:33:56Z</time>
      </trkpt>
      <trkpt lat="45.42516" lon="4.48755">
        <ele>931</ele>
        <time>2015-04-19T06:33:58Z</time>
      </trkpt>
      <trkpt lat="45.4252" lon="4.48755">
        <ele>930</ele>
        <time>2015-04-19T06:34:00Z</time>
      </trkpt>
      <trkpt lat="45.42527" lon="4.48759">
        <ele>929</ele>
        <time>2015-04-19T06:34:03Z</time>
      </trkpt>
      <trkpt lat="45.4253" lon="4.48763">
        <ele>928</ele>
        <time>2015-04-19T06:34:05Z</time>
      </trkpt>
      <trkpt lat="45.42533" lon="4.48768">
        <ele>927</ele>
        <time>2015-04-19T06:34:07Z</time>
      </trkpt>
      <trkpt lat="45.42538" lon="4.48775">
        <ele>926</ele>
        <time>2015-04-19T06:34:10Z</time>
      </trkpt>
      <trkpt lat="45.42543" lon="4.48782">
        <ele>925</ele>
        <time>2015-04-19T06:34:13Z</time>
      </trkpt>
      <trkpt lat="45.42546" lon="4.48785">
        <ele>924</ele>
        <time>2015-04-19T06:34:15Z</time>
      </trkpt>
      <trkpt lat="45.42552" lon="4.4879">
        <ele>924</ele>
        <time>2015-04-19T06:34:18Z</time>
      </trkpt>
      <trkpt lat="45.42556" lon="4.48796">
        <ele>924</ele>
        <time>2015-04-19T06:34:21Z</time>
      </trkpt>
      <trkpt lat="45.4256" lon="4.488">
        <ele>923</ele>
        <time>2015-04-19T06:34:23Z</time>
      </trkpt>
      <trkpt lat="45.42564" lon="4.48805">
        <ele>923</ele>
        <time>2015-04-19T06:34:25Z</time>
      </trkpt>
      <trkpt lat="45.42568" lon="4.48811">
        <ele>922</ele>
        <time>2015-04-19T06:34:27Z</time>
      </trkpt>
      <trkpt lat="45.42572" lon="4.48816">
        <ele>921</ele>
        <time>2015-04-19T06:34:30Z</time>
      </trkpt>
      <trkpt lat="45.42577" lon="4.48823">
        <ele>920</ele>
        <time>2015-04-19T06:34:33Z</time>
      </trkpt>
      <trkpt lat="45.4258" lon="4.48826">
        <ele>920</ele>
        <time>2015-04-19T06:34:35Z</time>
      </trkpt>
      <trkpt lat="45.42585" lon="4.4883">
        <ele>918</ele>
        <time>2015-04-19T06:34:37Z</time>
      </trkpt>
      <trkpt lat="45.4259" lon="4.48835">
        <ele>918</ele>
        <time>2015-04-19T06:34:39Z</time>
      </trkpt>
      <trkpt lat="45.42594" lon="4.48839">
        <ele>917</ele>
        <time>2015-04-19T06:34:41Z</time>
      </trkpt>
      <trkpt lat="45.42598" lon="4.48844">
        <ele>917</ele>
        <time>2015-04-19T06:34:43Z</time>
      </trkpt>
      <trkpt lat="45.42601" lon="4.48849">
        <ele>916</ele>
        <time>2015-04-19T06:34:45Z</time>
      </trkpt>
      <trkpt lat="45.42607" lon="4.48856">
        <ele>916</ele>
        <time>2015-04-19T06:34:48Z</time>
      </trkpt>
      <trkpt lat="45.42611" lon="4.48859">
        <ele>915</ele>
        <time>2015-04-19T06:34:50Z</time>
      </trkpt>
      <trkpt lat="45.42618" lon="4.48863">
        <ele>914</ele>
        <time>2015-04-19T06:34:52Z</time>
      </trkpt>
      <trkpt lat="45.42623" lon="4.48867">
        <ele>913</ele>
        <time>2015-04-19T06:34:54Z</time>
      </trkpt>
      <trkpt lat="45.4263" lon="4.48874">
        <ele>912</ele>
        <time>2015-04-19T06:34:57Z</time>
      </trkpt>
      <trkpt lat="45.42638" lon="4.48878">
        <ele>911</ele>
        <time>2015-04-19T06:35:00Z</time>
      </trkpt>
      <trkpt lat="45.42644" lon="4.4888">
        <ele>910</ele>
        <time>2015-04-19T06:35:02Z</time>
      </trkpt>
      <trkpt lat="45.42652" lon="4.48883">
        <ele>909</ele>
        <time>2015-04-19T06:35:05Z</time>
      </trkpt>
      <trkpt lat="45.42661" lon="4.48887">
        <ele>909</ele>
        <time>2015-04-19T06:35:08Z</time>
      </trkpt>
      <trkpt lat="45.42667" lon="4.48891">
        <ele>908</ele>
        <time>2015-04-19T06:35:10Z</time>
      </trkpt>
      <trkpt lat="45.42672" lon="4.48893">
        <ele>908</ele>
        <time>2015-04-19T06:35:12Z</time>
      </trkpt>
      <trkpt lat="45.42677" lon="4.48897">
        <ele>907</ele>
        <time>2015-04-19T06:35:14Z</time>
      </trkpt>
      <trkpt lat="45.42683" lon="4.48904">
        <ele>906</ele>
        <time>2015-04-19T06:35:17Z</time>
      </trkpt>
      <trkpt lat="45.42687" lon="4.48907">
        <ele>905</ele>
        <time>2015-04-19T06:35:19Z</time>
      </trkpt>
      <trkpt lat="45.4269" lon="4.48911">
        <ele>904</ele>
        <time>2015-04-19T06:35:21Z</time>
      </trkpt>
      <trkpt lat="45.42696" lon="4.48915">
        <ele>903</ele>
        <time>2015-04-19T06:35:24Z</time>
      </trkpt>
      <trkpt lat="45.42701" lon="4.48918">
        <ele>903</ele>
        <time>2015-04-19T06:35:26Z</time>
      </trkpt>
      <trkpt lat="45.42706" lon="4.48921">
        <ele>902</ele>
        <time>2015-04-19T06:35:29Z</time>
      </trkpt>
      <trkpt lat="45.4271" lon="4.48924">
        <ele>902</ele>
        <time>2015-04-19T06:35:31Z</time>
      </trkpt>
      <trkpt lat="45.42713" lon="4.48926">
        <ele>901</ele>
        <time>2015-04-19T06:35:33Z</time>
      </trkpt>
      <trkpt lat="45.42719" lon="4.4893">
        <ele>900</ele>
        <time>2015-04-19T06:35:36Z</time>
      </trkpt>
      <trkpt lat="45.42725" lon="4.48933">
        <ele>899</ele>
        <time>2015-04-19T06:35:39Z</time>
      </trkpt>
      <trkpt lat="45.42729" lon="4.48936">
        <ele>898</ele>
        <time>2015-04-19T06:35:41Z</time>
      </trkpt>
      <trkpt lat="45.42735" lon="4.48941">
        <ele>897</ele>
        <time>2015-04-19T06:35:44Z</time>
      </trkpt>
      <trkpt lat="45.4274" lon="4.48945">
        <ele>896</ele>
        <time>2015-04-19T06:35:47Z</time>
      </trkpt>
      <trkpt lat="45.42744" lon="4.48949">
        <ele>895</ele>
        <time>2015-04-19T06:35:49Z</time>
      </trkpt>
      <trkpt lat="45.42749" lon="4.48952">
        <ele>894</ele>
        <time>2015-04-19T06:35:51Z</time>
      </trkpt>
      <trkpt lat="45.42754" lon="4.48959">
        <ele>893</ele>
        <time>2015-04-19T06:35:54Z</time>
      </trkpt>
      <trkpt lat="45.4276" lon="4.48968">
        <ele>892</ele>
        <time>2015-04-19T06:35:57Z</time>
      </trkpt>
      <trkpt lat="45.42766" lon="4.48973">
        <ele>892</ele>
        <time>2015-04-19T06:36:00Z</time>
      </trkpt>
      <trkpt lat="45.4277" lon="4.4898">
        <ele>890</ele>
        <time>2015-04-19T06:36:03Z</time>
      </trkpt>
      <trkpt lat="45.42772" lon="4.48985">
        <ele>890</ele>
        <time>2015-04-19T06:36:05Z</time>
      </trkpt>
      <trkpt lat="45.42774" lon="4.48992">
        <ele>889</ele>
        <time>2015-04-19T06:36:07Z</time>
      </trkpt>
      <trkpt lat="45.42777" lon="4.48997">
        <ele>888</ele>
        <time>2015-04-19T06:36:09Z</time>
      </trkpt>
      <trkpt lat="45.42781" lon="4.49004">
        <ele>887</ele>
        <time>2015-04-19T06:36:12Z</time>
      </trkpt>
      <trkpt lat="45.42784" lon="4.49009">
        <ele>886</ele>
        <time>2015-04-19T06:36:14Z</time>
      </trkpt>
      <trkpt lat="45.42786" lon="4.49014">
        <ele>886</ele>
        <time>2015-04-19T06:36:16Z</time>
      </trkpt>
      <trkpt lat="45.42792" lon="4.49022">
        <ele>885</ele>
        <time>2015-04-19T06:36:19Z</time>
      </trkpt>
      <trkpt lat="45.42795" lon="4.49026">
        <ele>884</ele>
        <time>2015-04-19T06:36:21Z</time>
      </trkpt>
      <trkpt lat="45.42798" lon="4.49031">
        <ele>884</ele>
        <time>2015-04-19T06:36:23Z</time>
      </trkpt>
      <trkpt lat="45.42801" lon="4.49034">
        <ele>883</ele>
        <time>2015-04-19T06:36:25Z</time>
      </trkpt>
      <trkpt lat="45.42806" lon="4.49042">
        <ele>882</ele>
        <time>2015-04-19T06:36:28Z</time>
      </trkpt>
      <trkpt lat="45.4281" lon="4.49049">
        <ele>881</ele>
        <time>2015-04-19T06:36:31Z</time>
      </trkpt>
      <trkpt lat="45.42812" lon="4.49054">
        <ele>879</ele>
        <time>2015-04-19T06:36:33Z</time>
      </trkpt>
      <trkpt lat="45.42816" lon="4.49063">
        <ele>878</ele>
        <time>2015-04-19T06:36:36Z</time>
      </trkpt>
      <trkpt lat="45.42819" lon="4.49068">
        <ele>877</ele>
        <time>2015-04-19T06:36:38Z</time>
      </trkpt>
      <trkpt lat="45.42824" lon="4.49075">
        <ele>876</ele>
        <time>2015-04-19T06:36:41Z</time>
      </trkpt>
      <trkpt lat="45.42828" lon="4.4908">
        <ele>875</ele>
        <time>2015-04-19T06:36:43Z</time>
      </trkpt>
      <trkpt lat="45.42831" lon="4.49088">
        <ele>874</ele>
        <time>2015-04-19T06:36:46Z</time>
      </trkpt>
      <trkpt lat="45.42838" lon="4.49096">
        <ele>872</ele>
        <time>2015-04-19T06:36:49Z</time>
      </trkpt>
      <trkpt lat="45.42845" lon="4.49103">
        <ele>871</ele>
        <time>2015-04-19T06:36:52Z</time>
      </trkpt>
      <trkpt lat="45.42851" lon="4.49112">
        <ele>871</ele>
        <time>2015-04-19T06:36:55Z</time>
      </trkpt>
      <trkpt lat="45.42855" lon="4.49121">
        <ele>870</ele>
        <time>2015-04-19T06:36:58Z</time>
      </trkpt>
      <trkpt lat="45.42859" lon="4.49127">
        <ele>870</ele>
        <time>2015-04-19T06:37:00Z</time>
      </trkpt>
      <trkpt lat="45.42863" lon="4.49134">
        <ele>868</ele>
        <time>2015-04-19T06:37:03Z</time>
      </trkpt>
      <trkpt lat="45.42866" lon="4.49143">
        <ele>867</ele>
        <time>2015-04-19T06:37:06Z</time>
      </trkpt>
      <trkpt lat="45.42868" lon="4.49155">
        <ele>866</ele>
        <time>2015-04-19T06:37:09Z</time>
      </trkpt>
      <trkpt lat="45.42869" lon="4.49163">
        <ele>866</ele>
        <time>2015-04-19T06:37:11Z</time>
      </trkpt>
      <trkpt lat="45.42871" lon="4.49169">
        <ele>865</ele>
        <time>2015-04-19T06:37:13Z</time>
      </trkpt>
      <trkpt lat="45.42873" lon="4.4918">
        <ele>865</ele>
        <time>2015-04-19T06:37:16Z</time>
      </trkpt>
      <trkpt lat="45.42876" lon="4.49186">
        <ele>865</ele>
        <time>2015-04-19T06:37:18Z</time>
      </trkpt>
      <trkpt lat="45.42879" lon="4.49193">
        <ele>865</ele>
        <time>2015-04-19T06:37:20Z</time>
      </trkpt>
      <trkpt lat="45.42883" lon="4.492">
        <ele>864</ele>
        <time>2015-04-19T06:37:22Z</time>
      </trkpt>
      <trkpt lat="45.42887" lon="4.49211">
        <ele>864</ele>
        <time>2015-04-19T06:37:25Z</time>
      </trkpt>
      <trkpt lat="45.42891" lon="4.49218">
        <ele>864</ele>
        <time>2015-04-19T06:37:27Z</time>
      </trkpt>
      <trkpt lat="45.42896" lon="4.4923">
        <ele>863</ele>
        <time>2015-04-19T06:37:30Z</time>
      </trkpt>
      <trkpt lat="45.429" lon="4.4924">
        <ele>862</ele>
        <time>2015-04-19T06:37:33Z</time>
      </trkpt>
      <trkpt lat="45.42902" lon="4.49247">
        <ele>862</ele>
        <time>2015-04-19T06:37:35Z</time>
      </trkpt>
      <trkpt lat="45.42904" lon="4.49258">
        <ele>861</ele>
        <time>2015-04-19T06:37:38Z</time>
      </trkpt>
      <trkpt lat="45.42909" lon="4.49268">
        <ele>860</ele>
        <time>2015-04-19T06:37:41Z</time>
      </trkpt>
      <trkpt lat="45.42913" lon="4.49275">
        <ele>859</ele>
        <time>2015-04-19T06:37:43Z</time>
      </trkpt>
      <trkpt lat="45.4292" lon="4.49285">
        <ele>858</ele>
        <time>2015-04-19T06:37:46Z</time>
      </trkpt>
      <trkpt lat="45.42924" lon="4.49291">
        <ele>858</ele>
        <time>2015-04-19T06:37:48Z</time>
      </trkpt>
      <trkpt lat="45.42929" lon="4.49297">
        <ele>857</ele>
        <time>2015-04-19T06:37:50Z</time>
      </trkpt>
      <trkpt lat="45.42933" lon="4.49301">
        <ele>857</ele>
        <time>2015-04-19T06:37:52Z</time>
      </trkpt>
      <trkpt lat="45.42941" lon="4.49309">
        <ele>856</ele>
        <time>2015-04-19T06:37:55Z</time>
      </trkpt>
      <trkpt lat="45.42945" lon="4.49315">
        <ele>855</ele>
        <time>2015-04-19T06:37:57Z</time>
      </trkpt>
      <trkpt lat="45.4295" lon="4.49326">
        <ele>854</ele>
        <time>2015-04-19T06:38:00Z</time>
      </trkpt>
      <trkpt lat="45.42954" lon="4.49332">
        <ele>853</ele>
        <time>2015-04-19T06:38:02Z</time>
      </trkpt>
      <trkpt lat="45.42957" lon="4.49337">
        <ele>852</ele>
        <time>2015-04-19T06:38:04Z</time>
      </trkpt>
      <trkpt lat="45.42963" lon="4.49344">
        <ele>851</ele>
        <time>2015-04-19T06:38:07Z</time>
      </trkpt>
      <trkpt lat="45.42969" lon="4.49352">
        <ele>850</ele>
        <time>2015-04-19T06:38:10Z</time>
      </trkpt>
      <trkpt lat="45.42974" lon="4.49358">
        <ele>850</ele>
        <time>2015-04-19T06:38:12Z</time>
      </trkpt>
      <trkpt lat="45.42978" lon="4.49363">
        <ele>849</ele>
        <time>2015-04-19T06:38:14Z</time>
      </trkpt>
      <trkpt lat="45.42983" lon="4.49369">
        <ele>848</ele>
        <time>2015-04-19T06:38:17Z</time>
      </trkpt>
      <trkpt lat="45.42987" lon="4.49371">
        <ele>847</ele>
        <time>2015-04-19T06:38:19Z</time>
      </trkpt>
      <trkpt lat="45.42991" lon="4.49374">
        <ele>846</ele>
        <time>2015-04-19T06:38:21Z</time>
      </trkpt>
      <trkpt lat="45.42997" lon="4.49379">
        <ele>845</ele>
        <time>2015-04-19T06:38:24Z</time>
      </trkpt>
      <trkpt lat="45.43004" lon="4.49383">
        <ele>844</ele>
        <time>2015-04-19T06:38:27Z</time>
      </trkpt>
      <trkpt lat="45.4301" lon="4.49386">
        <ele>843</ele>
        <time>2015-04-19T06:38:30Z</time>
      </trkpt>
      <trkpt lat="45.43016" lon="4.49392">
        <ele>841</ele>
        <time>2015-04-19T06:38:33Z</time>
      </trkpt>
      <trkpt lat="45.4302" lon="4.49395">
        <ele>840</ele>
        <time>2015-04-19T06:38:35Z</time>
      </trkpt>
      <trkpt lat="45.43026" lon="4.49402">
        <ele>839</ele>
        <time>2015-04-19T06:38:38Z</time>
      </trkpt>
      <trkpt lat="45.4303" lon="4.49407">
        <ele>838</ele>
        <time>2015-04-19T06:38:41Z</time>
      </trkpt>
      <trkpt lat="45.43035" lon="4.49412">
        <ele>836</ele>
        <time>2015-04-19T06:38:44Z</time>
      </trkpt>
      <trkpt lat="45.43037" lon="4.49416">
        <ele>835</ele>
        <time>2015-04-19T06:38:46Z</time>
      </trkpt>
      <trkpt lat="45.43041" lon="4.4942">
        <ele>834</ele>
        <time>2015-04-19T06:38:48Z</time>
      </trkpt>
      <trkpt lat="45.43045" lon="4.49428">
        <ele>833</ele>
        <time>2015-04-19T06:38:51Z</time>
      </trkpt>
      <trkpt lat="45.4305" lon="4.49434">
        <ele>831</ele>
        <time>2015-04-19T06:38:54Z</time>
      </trkpt>
      <trkpt lat="45.43055" lon="4.4944">
        <ele>830</ele>
        <time>2015-04-19T06:38:57Z</time>
      </trkpt>
      <trkpt lat="45.43061" lon="4.49443">
        <ele>829</ele>
        <time>2015-04-19T06:39:00Z</time>
      </trkpt>
      <trkpt lat="45.43068" lon="4.49446">
        <ele>828</ele>
        <time>2015-04-19T06:39:03Z</time>
      </trkpt>
      <trkpt lat="45.43071" lon="4.49448">
        <ele>826</ele>
        <time>2015-04-19T06:39:05Z</time>
      </trkpt>
      <trkpt lat="45.43076" lon="4.49451">
        <ele>825</ele>
        <time>2015-04-19T06:39:08Z</time>
      </trkpt>
      <trkpt lat="45.43082" lon="4.49453">
        <ele>823</ele>
        <time>2015-04-19T06:39:10Z</time>
      </trkpt>
      <trkpt lat="45.43089" lon="4.49453">
        <ele>822</ele>
        <time>2015-04-19T06:39:13Z</time>
      </trkpt>
      <trkpt lat="45.43093" lon="4.49454">
        <ele>821</ele>
        <time>2015-04-19T06:39:15Z</time>
      </trkpt>
      <trkpt lat="45.431" lon="4.49459">
        <ele>820</ele>
        <time>2015-04-19T06:39:18Z</time>
      </trkpt>
      <trkpt lat="45.43103" lon="4.49461">
        <ele>819</ele>
        <time>2015-04-19T06:39:20Z</time>
      </trkpt>
      <trkpt lat="45.4311" lon="4.49464">
        <ele>817</ele>
        <time>2015-04-19T06:39:23Z</time>
      </trkpt>
      <trkpt lat="45.43114" lon="4.49466">
        <ele>816</ele>
        <time>2015-04-19T06:39:25Z</time>
      </trkpt>
      <trkpt lat="45.4312" lon="4.49466">
        <ele>815</ele>
        <time>2015-04-19T06:39:27Z</time>
      </trkpt>
      <trkpt lat="45.43126" lon="4.49467">
        <ele>815</ele>
        <time>2015-04-19T06:39:29Z</time>
      </trkpt>
      <trkpt lat="45.43135" lon="4.4947">
        <ele>814</ele>
        <time>2015-04-19T06:39:32Z</time>
      </trkpt>
      <trkpt lat="45.43141" lon="4.4947">
        <ele>813</ele>
        <time>2015-04-19T06:39:34Z</time>
      </trkpt>
      <trkpt lat="45.43146" lon="4.49471">
        <ele>812</ele>
        <time>2015-04-19T06:39:36Z</time>
      </trkpt>
      <trkpt lat="45.43153" lon="4.49473">
        <ele>811</ele>
        <time>2015-04-19T06:39:39Z</time>
      </trkpt>
      <trkpt lat="45.43158" lon="4.49475">
        <ele>810</ele>
        <time>2015-04-19T06:39:41Z</time>
      </trkpt>
      <trkpt lat="45.43163" lon="4.49477">
        <ele>809</ele>
        <time>2015-04-19T06:39:43Z</time>
      </trkpt>
      <trkpt lat="45.43168" lon="4.49479">
        <ele>808</ele>
        <time>2015-04-19T06:39:45Z</time>
      </trkpt>
      <trkpt lat="45.43176" lon="4.49481">
        <ele>807</ele>
        <time>2015-04-19T06:39:48Z</time>
      </trkpt>
      <trkpt lat="45.43182" lon="4.49482">
        <ele>806</ele>
        <time>2015-04-19T06:39:50Z</time>
      </trkpt>
      <trkpt lat="45.4319" lon="4.49483">
        <ele>805</ele>
        <time>2015-04-19T06:39:53Z</time>
      </trkpt>
      <trkpt lat="45.43199" lon="4.49483">
        <ele>804</ele>
        <time>2015-04-19T06:39:56Z</time>
      </trkpt>
      <trkpt lat="45.43205" lon="4.49486">
        <ele>804</ele>
        <time>2015-04-19T06:39:58Z</time>
      </trkpt>
      <trkpt lat="45.43212" lon="4.49491">
        <ele>802</ele>
        <time>2015-04-19T06:40:01Z</time>
      </trkpt>
      <trkpt lat="45.4322" lon="4.49494">
        <ele>802</ele>
        <time>2015-04-19T06:40:04Z</time>
      </trkpt>
      <trkpt lat="45.43225" lon="4.49494">
        <ele>801</ele>
        <time>2015-04-19T06:40:06Z</time>
      </trkpt>
      <trkpt lat="45.43235" lon="4.49495">
        <ele>801</ele>
        <time>2015-04-19T06:40:09Z</time>
      </trkpt>
      <trkpt lat="45.4324" lon="4.49497">
        <ele>801</ele>
        <time>2015-04-19T06:40:11Z</time>
      </trkpt>
      <trkpt lat="45.43246" lon="4.495">
        <ele>800</ele>
        <time>2015-04-19T06:40:13Z</time>
      </trkpt>
      <trkpt lat="45.43251" lon="4.49502">
        <ele>799</ele>
        <time>2015-04-19T06:40:15Z</time>
      </trkpt>
      <trkpt lat="45.4326" lon="4.49504">
        <ele>798</ele>
        <time>2015-04-19T06:40:18Z</time>
      </trkpt>
      <trkpt lat="45.43267" lon="4.49503">
        <ele>797</ele>
        <time>2015-04-19T06:40:21Z</time>
      </trkpt>
      <trkpt lat="45.43271" lon="4.49502">
        <ele>796</ele>
        <time>2015-04-19T06:40:23Z</time>
      </trkpt>
      <trkpt lat="45.43277" lon="4.495">
        <ele>795</ele>
        <time>2015-04-19T06:40:26Z</time>
      </trkpt>
      <trkpt lat="45.43285" lon="4.495">
        <ele>794</ele>
        <time>2015-04-19T06:40:29Z</time>
      </trkpt>
      <trkpt lat="45.4329" lon="4.495">
        <ele>793</ele>
        <time>2015-04-19T06:40:31Z</time>
      </trkpt>
      <trkpt lat="45.43299" lon="4.49497">
        <ele>792</ele>
        <time>2015-04-19T06:40:34Z</time>
      </trkpt>
      <trkpt lat="45.43307" lon="4.49495">
        <ele>790</ele>
        <time>2015-04-19T06:40:37Z</time>
      </trkpt>
      <trkpt lat="45.43315" lon="4.49492">
        <ele>790</ele>
        <time>2015-04-19T06:40:40Z</time>
      </trkpt>
      <trkpt lat="45.43322" lon="4.4949">
        <ele>789</ele>
        <time>2015-04-19T06:40:42Z</time>
      </trkpt>
      <trkpt lat="45.4333" lon="4.49487">
        <ele>787</ele>
        <time>2015-04-19T06:40:45Z</time>
      </trkpt>
      <trkpt lat="45.43338" lon="4.49483">
        <ele>785</ele>
        <time>2015-04-19T06:40:48Z</time>
      </trkpt>
      <trkpt lat="45.43342" lon="4.49479">
        <ele>785</ele>
        <time>2015-04-19T06:40:50Z</time>
      </trkpt>
      <trkpt lat="45.43348" lon="4.49473">
        <ele>784</ele>
        <time>2015-04-19T06:40:53Z</time>
      </trkpt>
      <trkpt lat="45.43353" lon="4.49469">
        <ele>783</ele>
        <time>2015-04-19T06:40:55Z</time>
      </trkpt>
      <trkpt lat="45.43359" lon="4.49465">
        <ele>781</ele>
        <time>2015-04-19T06:40:57Z</time>
      </trkpt>
      <trkpt lat="45.43367" lon="4.4946">
        <ele>780</ele>
        <time>2015-04-19T06:41:00Z</time>
      </trkpt>
      <trkpt lat="45.43371" lon="4.49457">
        <ele>779</ele>
        <time>2015-04-19T06:41:02Z</time>
      </trkpt>
      <trkpt lat="45.43377" lon="4.49455">
        <ele>778</ele>
        <time>2015-04-19T06:41:04Z</time>
      </trkpt>
      <trkpt lat="45.43384" lon="4.49452">
        <ele>776</ele>
        <time>2015-04-19T06:41:07Z</time>
      </trkpt>
      <trkpt lat="45.4339" lon="4.4945">
        <ele>774</ele>
        <time>2015-04-19T06:41:10Z</time>
      </trkpt>
      <trkpt lat="45.43397" lon="4.49446">
        <ele>773</ele>
        <time>2015-04-19T06:41:13Z</time>
      </trkpt>
      <trkpt lat="45.43404" lon="4.49442">
        <ele>771</ele>
        <time>2015-04-19T06:41:16Z</time>
      </trkpt>
      <trkpt lat="45.43409" lon="4.49439">
        <ele>770</ele>
        <time>2015-04-19T06:41:18Z</time>
      </trkpt>
      <trkpt lat="45.43417" lon="4.49438">
        <ele>768</ele>
        <time>2015-04-19T06:41:21Z</time>
      </trkpt>
      <trkpt lat="45.43422" lon="4.49436">
        <ele>767</ele>
        <time>2015-04-19T06:41:23Z</time>
      </trkpt>
      <trkpt lat="45.43429" lon="4.49435">
        <ele>766</ele>
        <time>2015-04-19T06:41:26Z</time>
      </trkpt>
      <trkpt lat="45.43433" lon="4.49436">
        <ele>765</ele>
        <time>2015-04-19T06:41:28Z</time>
      </trkpt>
      <trkpt lat="45.43443" lon="4.49436">
        <ele>763</ele>
        <time>2015-04-19T06:41:31Z</time>
      </trkpt>
      <trkpt lat="45.43449" lon="4.49434">
        <ele>762</ele>
        <time>2015-04-19T06:41:33Z</time>
      </trkpt>
      <trkpt lat="45.43454" lon="4.49429">
        <ele>761</ele>
        <time>2015-04-19T06:41:35Z</time>
      </trkpt>
      <trkpt lat="45.43461" lon="4.49421">
        <ele>760</ele>
        <time>2015-04-19T06:41:38Z</time>
      </trkpt>
      <trkpt lat="45.43467" lon="4.49417">
        <ele>759</ele>
        <time>2015-04-19T06:41:40Z</time>
      </trkpt>
      <trkpt lat="45.43474" lon="4.49417">
        <ele>758</ele>
        <time>2015-04-19T06:41:42Z</time>
      </trkpt>
      <trkpt lat="45.43483" lon="4.49414">
        <ele>757</ele>
        <time>2015-04-19T06:41:45Z</time>
      </trkpt>
      <trkpt lat="45.43492" lon="4.49411">
        <ele>757</ele>
        <time>2015-04-19T06:41:48Z</time>
      </trkpt>
      <trkpt lat="45.43502" lon="4.49409">
        <ele>756</ele>
        <time>2015-04-19T06:41:51Z</time>
      </trkpt>
      <trkpt lat="45.43508" lon="4.49407">
        <ele>755</ele>
        <time>2015-04-19T06:41:53Z</time>
      </trkpt>
      <trkpt lat="45.43514" lon="4.49405">
        <ele>755</ele>
        <time>2015-04-19T06:41:55Z</time>
      </trkpt>
      <trkpt lat="45.4352" lon="4.49403">
        <ele>755</ele>
        <time>2015-04-19T06:41:57Z</time>
      </trkpt>
      <trkpt lat="45.43526" lon="4.49401">
        <ele>754</ele>
        <time>2015-04-19T06:41:59Z</time>
      </trkpt>
      <trkpt lat="45.43535" lon="4.49396">
        <ele>754</ele>
        <time>2015-04-19T06:42:02Z</time>
      </trkpt>
      <trkpt lat="45.43543" lon="4.49391">
        <ele>754</ele>
        <time>2015-04-19T06:42:05Z</time>
      </trkpt>
      <trkpt lat="45.43548" lon="4.49388">
        <ele>753</ele>
        <time>2015-04-19T06:42:07Z</time>
      </trkpt>
      <trkpt lat="45.43557" lon="4.49387">
        <ele>753</ele>
        <time>2015-04-19T06:42:10Z</time>
      </trkpt>
      <trkpt lat="45.43563" lon="4.49387">
        <ele>753</ele>
        <time>2015-04-19T06:42:12Z</time>
      </trkpt>
      <trkpt lat="45.43571" lon="4.49389">
        <ele>753</ele>
        <time>2015-04-19T06:42:15Z</time>
      </trkpt>
      <trkpt lat="45.43576" lon="4.4939">
        <ele>753</ele>
        <time>2015-04-19T06:42:17Z</time>
      </trkpt>
      <trkpt lat="45.4358" lon="4.49392">
        <ele>752</ele>
        <time>2015-04-19T06:42:19Z</time>
      </trkpt>
      <trkpt lat="45.43584" lon="4.49396">
        <ele>752</ele>
        <time>2015-04-19T06:42:21Z</time>
      </trkpt>
      <trkpt lat="45.43592" lon="4.494">
        <ele>752</ele>
        <time>2015-04-19T06:42:24Z</time>
      </trkpt>
      <trkpt lat="45.43597" lon="4.49402">
        <ele>751</ele>
        <time>2015-04-19T06:42:26Z</time>
      </trkpt>
      <trkpt lat="45.43604" lon="4.49406">
        <ele>750</ele>
        <time>2015-04-19T06:42:29Z</time>
      </trkpt>
      <trkpt lat="45.43613" lon="4.49411">
        <ele>750</ele>
        <time>2015-04-19T06:42:32Z</time>
      </trkpt>
      <trkpt lat="45.43618" lon="4.49414">
        <ele>749</ele>
        <time>2015-04-19T06:42:34Z</time>
      </trkpt>
      <trkpt lat="45.43627" lon="4.49417">
        <ele>749</ele>
        <time>2015-04-19T06:42:37Z</time>
      </trkpt>
      <trkpt lat="45.43631" lon="4.49423">
        <ele>749</ele>
        <time>2015-04-19T06:42:39Z</time>
      </trkpt>
      <trkpt lat="45.43638" lon="4.4943">
        <ele>749</ele>
        <time>2015-04-19T06:42:42Z</time>
      </trkpt>
      <trkpt lat="45.43644" lon="4.49438">
        <ele>749</ele>
        <time>2015-04-19T06:42:45Z</time>
      </trkpt>
      <trkpt lat="45.43651" lon="4.49447">
        <ele>749</ele>
        <time>2015-04-19T06:42:48Z</time>
      </trkpt>
      <trkpt lat="45.43657" lon="4.49458">
        <ele>748</ele>
        <time>2015-04-19T06:42:51Z</time>
      </trkpt>
      <trkpt lat="45.43662" lon="4.49463">
        <ele>747</ele>
        <time>2015-04-19T06:42:53Z</time>
      </trkpt>
      <trkpt lat="45.4367" lon="4.49472">
        <ele>746</ele>
        <time>2015-04-19T06:42:56Z</time>
      </trkpt>
      <trkpt lat="45.43675" lon="4.49477">
        <ele>745</ele>
        <time>2015-04-19T06:42:58Z</time>
      </trkpt>
      <trkpt lat="45.43681" lon="4.49487">
        <ele>745</ele>
        <time>2015-04-19T06:43:01Z</time>
      </trkpt>
      <trkpt lat="45.43687" lon="4.49496">
        <ele>745</ele>
        <time>2015-04-19T06:43:04Z</time>
      </trkpt>
      <trkpt lat="45.43693" lon="4.49505">
        <ele>744</ele>
        <time>2015-04-19T06:43:07Z</time>
      </trkpt>
      <trkpt lat="45.43696" lon="4.49511">
        <ele>744</ele>
        <time>2015-04-19T06:43:09Z</time>
      </trkpt>
      <trkpt lat="45.43702" lon="4.4952">
        <ele>743</ele>
        <time>2015-04-19T06:43:12Z</time>
      </trkpt>
      <trkpt lat="45.43708" lon="4.49529">
        <ele>743</ele>
        <time>2015-04-19T06:43:15Z</time>
      </trkpt>
      <trkpt lat="45.43713" lon="4.49534">
        <ele>743</ele>
        <time>2015-04-19T06:43:17Z</time>
      </trkpt>
      <trkpt lat="45.43721" lon="4.49542">
        <ele>743</ele>
        <time>2015-04-19T06:43:20Z</time>
      </trkpt>
      <trkpt lat="45.43724" lon="4.49547">
        <ele>743</ele>
        <time>2015-04-19T06:43:22Z</time>
      </trkpt>
      <trkpt lat="45.43728" lon="4.49552">
        <ele>742</ele>
        <time>2015-04-19T06:43:24Z</time>
      </trkpt>
      <trkpt lat="45.43734" lon="4.49561">
        <ele>742</ele>
        <time>2015-04-19T06:43:27Z</time>
      </trkpt>
      <trkpt lat="45.43738" lon="4.49566">
        <ele>742</ele>
        <time>2015-04-19T06:43:29Z</time>
      </trkpt>
      <trkpt lat="45.43744" lon="4.49574">
        <ele>742</ele>
        <time>2015-04-19T06:43:32Z</time>
      </trkpt>
      <trkpt lat="45.43749" lon="4.49583">
        <ele>741</ele>
        <time>2015-04-19T06:43:35Z</time>
      </trkpt>
      <trkpt lat="45.43753" lon="4.49589">
        <ele>741</ele>
        <time>2015-04-19T06:43:37Z</time>
      </trkpt>
      <trkpt lat="45.43757" lon="4.49597">
        <ele>741</ele>
        <time>2015-04-19T06:43:40Z</time>
      </trkpt>
      <trkpt lat="45.4376" lon="4.49603">
        <ele>741</ele>
        <time>2015-04-19T06:43:42Z</time>
      </trkpt>
      <trkpt lat="45.43763" lon="4.49608">
        <ele>741</ele>
        <time>2015-04-19T06:43:44Z</time>
      </trkpt>
      <trkpt lat="45.43767" lon="4.49613">
        <ele>740</ele>
        <time>2015-04-19T06:43:46Z</time>
      </trkpt>
      <trkpt lat="45.43775" lon="4.49623">
        <ele>740</ele>
        <time>2015-04-19T06:43:49Z</time>
      </trkpt>
      <trkpt lat="45.43778" lon="4.49629">
        <ele>740</ele>
        <time>2015-04-19T06:43:51Z</time>
      </trkpt>
      <trkpt lat="45.43783" lon="4.49635">
        <ele>740</ele>
        <time>2015-04-19T06:43:53Z</time>
      </trkpt>
      <trkpt lat="45.43788" lon="4.49645">
        <ele>739</ele>
        <time>2015-04-19T06:43:56Z</time>
      </trkpt>
      <trkpt lat="45.43791" lon="4.49654">
        <ele>738</ele>
        <time>2015-04-19T06:43:59Z</time>
      </trkpt>
      <trkpt lat="45.43794" lon="4.49661">
        <ele>738</ele>
        <time>2015-04-19T06:44:01Z</time>
      </trkpt>
      <trkpt lat="45.43798" lon="4.49672">
        <ele>738</ele>
        <time>2015-04-19T06:44:04Z</time>
      </trkpt>
      <trkpt lat="45.438" lon="4.49679">
        <ele>738</ele>
        <time>2015-04-19T06:44:06Z</time>
      </trkpt>
      <trkpt lat="45.43803" lon="4.49689">
        <ele>737</ele>
        <time>2015-04-19T06:44:09Z</time>
      </trkpt>
      <trkpt lat="45.43805" lon="4.49697">
        <ele>736</ele>
        <time>2015-04-19T06:44:11Z</time>
      </trkpt>
      <trkpt lat="45.43809" lon="4.49709">
        <ele>735</ele>
        <time>2015-04-19T06:44:14Z</time>
      </trkpt>
      <trkpt lat="45.43813" lon="4.49718">
        <ele>734</ele>
        <time>2015-04-19T06:44:17Z</time>
      </trkpt>
      <trkpt lat="45.43816" lon="4.49722">
        <ele>734</ele>
        <time>2015-04-19T06:44:19Z</time>
      </trkpt>
      <trkpt lat="45.43822" lon="4.49726">
        <ele>733</ele>
        <time>2015-04-19T06:44:21Z</time>
      </trkpt>
      <trkpt lat="45.4383" lon="4.49727">
        <ele>732</ele>
        <time>2015-04-19T06:44:24Z</time>
      </trkpt>
      <trkpt lat="45.4384" lon="4.49728">
        <ele>731</ele>
        <time>2015-04-19T06:44:27Z</time>
      </trkpt>
      <trkpt lat="45.43847" lon="4.49726">
        <ele>730</ele>
        <time>2015-04-19T06:44:30Z</time>
      </trkpt>
      <trkpt lat="45.43851" lon="4.49725">
        <ele>729</ele>
        <time>2015-04-19T06:44:32Z</time>
      </trkpt>
      <trkpt lat="45.43859" lon="4.49723">
        <ele>727</ele>
        <time>2015-04-19T06:44:35Z</time>
      </trkpt>
      <trkpt lat="45.43864" lon="4.49721">
        <ele>726</ele>
        <time>2015-04-19T06:44:37Z</time>
      </trkpt>
      <trkpt lat="45.4387" lon="4.49719">
        <ele>725</ele>
        <time>2015-04-19T06:44:39Z</time>
      </trkpt>
      <trkpt lat="45.43873" lon="4.49715">
        <ele>723</ele>
        <time>2015-04-19T06:44:41Z</time>
      </trkpt>
      <trkpt lat="45.43877" lon="4.49712">
        <ele>723</ele>
        <time>2015-04-19T06:44:43Z</time>
      </trkpt>
      <trkpt lat="45.43883" lon="4.49706">
        <ele>722</ele>
        <time>2015-04-19T06:44:46Z</time>
      </trkpt>
      <trkpt lat="45.4389" lon="4.497">
        <ele>721</ele>
        <time>2015-04-19T06:44:49Z</time>
      </trkpt>
      <trkpt lat="45.43894" lon="4.49706">
        <ele>719</ele>
        <time>2015-04-19T06:44:52Z</time>
      </trkpt>
      <trkpt lat="45.43897" lon="4.49714">
        <ele>718</ele>
        <time>2015-04-19T06:44:55Z</time>
      </trkpt>
      <trkpt lat="45.439" lon="4.4972">
        <ele>717</ele>
        <time>2015-04-19T06:44:57Z</time>
      </trkpt>
      <trkpt lat="45.43901" lon="4.49727">
        <ele>716</ele>
        <time>2015-04-19T06:44:59Z</time>
      </trkpt>
      <trkpt lat="45.43902" lon="4.49734">
        <ele>716</ele>
        <time>2015-04-19T06:45:01Z</time>
      </trkpt>
      <trkpt lat="45.43902" lon="4.49742">
        <ele>715</ele>
        <time>2015-04-19T06:45:03Z</time>
      </trkpt>
      <trkpt lat="45.43903" lon="4.49754">
        <ele>715</ele>
        <time>2015-04-19T06:45:06Z</time>
      </trkpt>
      <trkpt lat="45.43903" lon="4.49767">
        <ele>714</ele>
        <time>2015-04-19T06:45:09Z</time>
      </trkpt>
      <trkpt lat="45.43902" lon="4.49776">
        <ele>713</ele>
        <time>2015-04-19T06:45:11Z</time>
      </trkpt>
      <trkpt lat="45.43901" lon="4.49787">
        <ele>713</ele>
        <time>2015-04-19T06:45:14Z</time>
      </trkpt>
      <trkpt lat="45.43898" lon="4.49797">
        <ele>713</ele>
        <time>2015-04-19T06:45:17Z</time>
      </trkpt>
      <trkpt lat="45.43896" lon="4.49804">
        <ele>713</ele>
        <time>2015-04-19T06:45:19Z</time>
      </trkpt>
      <trkpt lat="45.43894" lon="4.49814">
        <ele>712</ele>
        <time>2015-04-19T06:45:22Z</time>
      </trkpt>
      <trkpt lat="45.4389" lon="4.49822">
        <ele>711</ele>
        <time>2015-04-19T06:45:25Z</time>
      </trkpt>
      <trkpt lat="45.43886" lon="4.49829">
        <ele>711</ele>
        <time>2015-04-19T06:45:28Z</time>
      </trkpt>
      <trkpt lat="45.43883" lon="4.49834">
        <ele>710</ele>
        <time>2015-04-19T06:45:30Z</time>
      </trkpt>
      <trkpt lat="45.43879" lon="4.49841">
        <ele>709</ele>
        <time>2015-04-19T06:45:32Z</time>
      </trkpt>
      <trkpt lat="45.43874" lon="4.49846">
        <ele>708</ele>
        <time>2015-04-19T06:45:35Z</time>
      </trkpt>
      <trkpt lat="45.43871" lon="4.49849">
        <ele>708</ele>
        <time>2015-04-19T06:45:37Z</time>
      </trkpt>
      <trkpt lat="45.43868" lon="4.49852">
        <ele>707</ele>
        <time>2015-04-19T06:45:39Z</time>
      </trkpt>
      <trkpt lat="45.43864" lon="4.49856">
        <ele>707</ele>
        <time>2015-04-19T06:45:41Z</time>
      </trkpt>
      <trkpt lat="45.43859" lon="4.4986">
        <ele>706</ele>
        <time>2015-04-19T06:45:43Z</time>
      </trkpt>
      <trkpt lat="45.43853" lon="4.49866">
        <ele>704</ele>
        <time>2015-04-19T06:45:46Z</time>
      </trkpt>
      <trkpt lat="45.43849" lon="4.49869">
        <ele>704</ele>
        <time>2015-04-19T06:45:48Z</time>
      </trkpt>
      <trkpt lat="45.43842" lon="4.49872">
        <ele>703</ele>
        <time>2015-04-19T06:45:51Z</time>
      </trkpt>
      <trkpt lat="45.43838" lon="4.49874">
        <ele>702</ele>
        <time>2015-04-19T06:45:53Z</time>
      </trkpt>
      <trkpt lat="45.43833" lon="4.49876">
        <ele>702</ele>
        <time>2015-04-19T06:45:55Z</time>
      </trkpt>
      <trkpt lat="45.43824" lon="4.49877">
        <ele>701</ele>
        <time>2015-04-19T06:45:58Z</time>
      </trkpt>
      <trkpt lat="45.43815" lon="4.49878">
        <ele>701</ele>
        <time>2015-04-19T06:46:01Z</time>
      </trkpt>
      <trkpt lat="45.4381" lon="4.49878">
        <ele>700</ele>
        <time>2015-04-19T06:46:03Z</time>
      </trkpt>
      <trkpt lat="45.43802" lon="4.4988">
        <ele>699</ele>
        <time>2015-04-19T06:46:06Z</time>
      </trkpt>
      <trkpt lat="45.43796" lon="4.4988">
        <ele>698</ele>
        <time>2015-04-19T06:46:08Z</time>
      </trkpt>
      <trkpt lat="45.43791" lon="4.49879">
        <ele>698</ele>
        <time>2015-04-19T06:46:10Z</time>
      </trkpt>
      <trkpt lat="45.43783" lon="4.49875">
        <ele>697</ele>
        <time>2015-04-19T06:46:13Z</time>
      </trkpt>
      <trkpt lat="45.43777" lon="4.49872">
        <ele>696</ele>
        <time>2015-04-19T06:46:15Z</time>
      </trkpt>
      <trkpt lat="45.43768" lon="4.49868">
        <ele>696</ele>
        <time>2015-04-19T06:46:18Z</time>
      </trkpt>
      <trkpt lat="45.43761" lon="4.4986">
        <ele>695</ele>
        <time>2015-04-19T06:46:21Z</time>
      </trkpt>
      <trkpt lat="45.43754" lon="4.49853">
        <ele>694</ele>
        <time>2015-04-19T06:46:24Z</time>
      </trkpt>
      <trkpt lat="45.43749" lon="4.49848">
        <ele>694</ele>
        <time>2015-04-19T06:46:26Z</time>
      </trkpt>
      <trkpt lat="45.43745" lon="4.49844">
        <ele>694</ele>
        <time>2015-04-19T06:46:28Z</time>
      </trkpt>
      <trkpt lat="45.43738" lon="4.49837">
        <ele>694</ele>
        <time>2015-04-19T06:46:31Z</time>
      </trkpt>
      <trkpt lat="45.43734" lon="4.49831">
        <ele>695</ele>
        <time>2015-04-19T06:46:33Z</time>
      </trkpt>
      <trkpt lat="45.43729" lon="4.49824">
        <ele>695</ele>
        <time>2015-04-19T06:46:36Z</time>
      </trkpt>
      <trkpt lat="45.43725" lon="4.49818">
        <ele>696</ele>
        <time>2015-04-19T06:46:38Z</time>
      </trkpt>
      <trkpt lat="45.43719" lon="4.49809">
        <ele>696</ele>
        <time>2015-04-19T06:46:41Z</time>
      </trkpt>
      <trkpt lat="45.43714" lon="4.49805">
        <ele>696</ele>
        <time>2015-04-19T06:46:43Z</time>
      </trkpt>
      <trkpt lat="45.43707" lon="4.49797">
        <ele>696</ele>
        <time>2015-04-19T06:46:46Z</time>
      </trkpt>
      <trkpt lat="45.43702" lon="4.49793">
        <ele>696</ele>
        <time>2015-04-19T06:46:48Z</time>
      </trkpt>
      <trkpt lat="45.43694" lon="4.49787">
        <ele>696</ele>
        <time>2015-04-19T06:46:51Z</time>
      </trkpt>
      <trkpt lat="45.43688" lon="4.4978">
        <ele>695</ele>
        <time>2015-04-19T06:46:54Z</time>
      </trkpt>
      <trkpt lat="45.43683" lon="4.49776">
        <ele>695</ele>
        <time>2015-04-19T06:46:56Z</time>
      </trkpt>
      <trkpt lat="45.43678" lon="4.49771">
        <ele>694</ele>
        <time>2015-04-19T06:46:58Z</time>
      </trkpt>
      <trkpt lat="45.43674" lon="4.49766">
        <ele>693</ele>
        <time>2015-04-19T06:47:00Z</time>
      </trkpt>
      <trkpt lat="45.4367" lon="4.4976">
        <ele>692</ele>
        <time>2015-04-19T06:47:02Z</time>
      </trkpt>
      <trkpt lat="45.43663" lon="4.49752">
        <ele>692</ele>
        <time>2015-04-19T06:47:05Z</time>
      </trkpt>
      <trkpt lat="45.43658" lon="4.49746">
        <ele>691</ele>
        <time>2015-04-19T06:47:07Z</time>
      </trkpt>
      <trkpt lat="45.43654" lon="4.49741">
        <ele>691</ele>
        <time>2015-04-19T06:47:09Z</time>
      </trkpt>
      <trkpt lat="45.43649" lon="4.49736">
        <ele>691</ele>
        <time>2015-04-19T06:47:11Z</time>
      </trkpt>
      <trkpt lat="45.43642" lon="4.49727">
        <ele>691</ele>
        <time>2015-04-19T06:47:14Z</time>
      </trkpt>
      <trkpt lat="45.43638" lon="4.49722">
        <ele>691</ele>
        <time>2015-04-19T06:47:16Z</time>
      </trkpt>
      <trkpt lat="45.43634" lon="4.49717">
        <ele>690</ele>
        <time>2015-04-19T06:47:18Z</time>
      </trkpt>
      <trkpt lat="45.43628" lon="4.4971">
        <ele>690</ele>
        <time>2015-04-19T06:47:21Z</time>
      </trkpt>
      <trkpt lat="45.43624" lon="4.49705">
        <ele>690</ele>
        <time>2015-04-19T06:47:23Z</time>
      </trkpt>
      <trkpt lat="45.43617" lon="4.49698">
        <ele>690</ele>
        <time>2015-04-19T06:47:26Z</time>
      </trkpt>
      <trkpt lat="45.43609" lon="4.49692">
        <ele>691</ele>
        <time>2015-04-19T06:47:29Z</time>
      </trkpt>
      <trkpt lat="45.43601" lon="4.49686">
        <ele>690</ele>
        <time>2015-04-19T06:47:32Z</time>
      </trkpt>
      <trkpt lat="45.43596" lon="4.49684">
        <ele>690</ele>
        <time>2015-04-19T06:47:34Z</time>
      </trkpt>
      <trkpt lat="45.43588" lon="4.49681">
        <ele>689</ele>
        <time>2015-04-19T06:47:37Z</time>
      </trkpt>
      <trkpt lat="45.43582" lon="4.4968">
        <ele>689</ele>
        <time>2015-04-19T06:47:39Z</time>
      </trkpt>
      <trkpt lat="45.43574" lon="4.49678">
        <ele>688</ele>
        <time>2015-04-19T06:47:42Z</time>
      </trkpt>
      <trkpt lat="45.43565" lon="4.49677">
        <ele>687</ele>
        <time>2015-04-19T06:47:45Z</time>
      </trkpt>
      <trkpt lat="45.43557" lon="4.49678">
        <ele>686</ele>
        <time>2015-04-19T06:47:48Z</time>
      </trkpt>
      <trkpt lat="45.43552" lon="4.49678">
        <ele>686</ele>
        <time>2015-04-19T06:47:50Z</time>
      </trkpt>
      <trkpt lat="45.43548" lon="4.49679">
        <ele>686</ele>
        <time>2015-04-19T06:47:52Z</time>
      </trkpt>
      <trkpt lat="45.43541" lon="4.4968">
        <ele>686</ele>
        <time>2015-04-19T06:47:55Z</time>
      </trkpt>
      <trkpt lat="45.43536" lon="4.49681">
        <ele>685</ele>
        <time>2015-04-19T06:47:57Z</time>
      </trkpt>
      <trkpt lat="45.43531" lon="4.49682">
        <ele>685</ele>
        <time>2015-04-19T06:47:59Z</time>
      </trkpt>
      <trkpt lat="45.43526" lon="4.49683">
        <ele>685</ele>
        <time>2015-04-19T06:48:01Z</time>
      </trkpt>
      <trkpt lat="45.43521" lon="4.49685">
        <ele>685</ele>
        <time>2015-04-19T06:48:03Z</time>
      </trkpt>
      <trkpt lat="45.43516" lon="4.49688">
        <ele>685</ele>
        <time>2015-04-19T06:48:05Z</time>
      </trkpt>
      <trkpt lat="45.43511" lon="4.49694">
        <ele>686</ele>
        <time>2015-04-19T06:48:08Z</time>
      </trkpt>
      <trkpt lat="45.43508" lon="4.497">
        <ele>687</ele>
        <time>2015-04-19T06:48:10Z</time>
      </trkpt>
      <trkpt lat="45.43504" lon="4.49706">
        <ele>687</ele>
        <time>2015-04-19T06:48:12Z</time>
      </trkpt>
      <trkpt lat="45.43496" lon="4.49712">
        <ele>687</ele>
        <time>2015-04-19T06:48:15Z</time>
      </trkpt>
      <trkpt lat="45.43491" lon="4.49716">
        <ele>687</ele>
        <time>2015-04-19T06:48:17Z</time>
      </trkpt>
      <trkpt lat="45.43484" lon="4.49721">
        <ele>687</ele>
        <time>2015-04-19T06:48:20Z</time>
      </trkpt>
      <trkpt lat="45.4348" lon="4.49725">
        <ele>687</ele>
        <time>2015-04-19T06:48:22Z</time>
      </trkpt>
      <trkpt lat="45.43476" lon="4.49729">
        <ele>687</ele>
        <time>2015-04-19T06:48:24Z</time>
      </trkpt>
      <trkpt lat="45.43472" lon="4.49733">
        <ele>687</ele>
        <time>2015-04-19T06:48:26Z</time>
      </trkpt>
      <trkpt lat="45.43465" lon="4.49743">
        <ele>687</ele>
        <time>2015-04-19T06:48:29Z</time>
      </trkpt>
      <trkpt lat="45.43459" lon="4.49753">
        <ele>687</ele>
        <time>2015-04-19T06:48:32Z</time>
      </trkpt>
      <trkpt lat="45.43456" lon="4.49762">
        <ele>686</ele>
        <time>2015-04-19T06:48:34Z</time>
      </trkpt>
      <trkpt lat="45.43451" lon="4.49775">
        <ele>686</ele>
        <time>2015-04-19T06:48:37Z</time>
      </trkpt>
      <trkpt lat="45.43448" lon="4.49783">
        <ele>685</ele>
        <time>2015-04-19T06:48:39Z</time>
      </trkpt>
      <trkpt lat="45.43444" lon="4.49794">
        <ele>685</ele>
        <time>2015-04-19T06:48:42Z</time>
      </trkpt>
      <trkpt lat="45.43441" lon="4.49801">
        <ele>685</ele>
        <time>2015-04-19T06:48:44Z</time>
      </trkpt>
      <trkpt lat="45.43436" lon="4.49811">
        <ele>684</ele>
        <time>2015-04-19T06:48:47Z</time>
      </trkpt>
      <trkpt lat="45.43433" lon="4.49818">
        <ele>684</ele>
        <time>2015-04-19T06:48:49Z</time>
      </trkpt>
      <trkpt lat="45.43429" lon="4.49825">
        <ele>684</ele>
        <time>2015-04-19T06:48:51Z</time>
      </trkpt>
      <trkpt lat="45.43426" lon="4.49831">
        <ele>683</ele>
        <time>2015-04-19T06:48:53Z</time>
      </trkpt>
      <trkpt lat="45.4342" lon="4.49841">
        <ele>683</ele>
        <time>2015-04-19T06:48:56Z</time>
      </trkpt>
      <trkpt lat="45.43415" lon="4.49852">
        <ele>682</ele>
        <time>2015-04-19T06:48:59Z</time>
      </trkpt>
      <trkpt lat="45.43413" lon="4.49859">
        <ele>681</ele>
        <time>2015-04-19T06:49:01Z</time>
      </trkpt>
      <trkpt lat="45.43409" lon="4.49866">
        <ele>681</ele>
        <time>2015-04-19T06:49:03Z</time>
      </trkpt>
      <trkpt lat="45.43405" lon="4.49871">
        <ele>680</ele>
        <time>2015-04-19T06:49:05Z</time>
      </trkpt>
      <trkpt lat="45.43402" lon="4.49878">
        <ele>680</ele>
        <time>2015-04-19T06:49:07Z</time>
      </trkpt>
      <trkpt lat="45.43397" lon="4.49887">
        <ele>681</ele>
        <time>2015-04-19T06:49:10Z</time>
      </trkpt>
      <trkpt lat="45.43394" lon="4.49892">
        <ele>680</ele>
        <time>2015-04-19T06:49:12Z</time>
      </trkpt>
      <trkpt lat="45.43391" lon="4.49896">
        <ele>680</ele>
        <time>2015-04-19T06:49:14Z</time>
      </trkpt>
      <trkpt lat="45.43386" lon="4.49901">
        <ele>680</ele>
        <time>2015-04-19T06:49:17Z</time>
      </trkpt>
      <trkpt lat="45.43382" lon="4.49902">
        <ele>680</ele>
        <time>2015-04-19T06:49:19Z</time>
      </trkpt>
      <trkpt lat="45.43375" lon="4.49903">
        <ele>680</ele>
        <time>2015-04-19T06:49:22Z</time>
      </trkpt>
      <trkpt lat="45.43368" lon="4.49905">
        <ele>680</ele>
        <time>2015-04-19T06:49:25Z</time>
      </trkpt>
      <trkpt lat="45.4336" lon="4.49906">
        <ele>680</ele>
        <time>2015-04-19T06:49:28Z</time>
      </trkpt>
      <trkpt lat="45.43356" lon="4.49907">
        <ele>680</ele>
        <time>2015-04-19T06:49:30Z</time>
      </trkpt>
      <trkpt lat="45.43348" lon="4.49911">
        <ele>681</ele>
        <time>2015-04-19T06:49:33Z</time>
      </trkpt>
      <trkpt lat="45.43343" lon="4.49914">
        <ele>681</ele>
        <time>2015-04-19T06:49:36Z</time>
      </trkpt>
      <trkpt lat="45.43338" lon="4.49916">
        <ele>681</ele>
        <time>2015-04-19T06:49:38Z</time>
      </trkpt>
      <trkpt lat="45.43334" lon="4.49917">
        <ele>682</ele>
        <time>2015-04-19T06:49:40Z</time>
      </trkpt>
      <trkpt lat="45.43326" lon="4.49921">
        <ele>682</ele>
        <time>2015-04-19T06:49:43Z</time>
      </trkpt>
      <trkpt lat="45.43321" lon="4.49924">
        <ele>683</ele>
        <time>2015-04-19T06:49:45Z</time>
      </trkpt>
      <trkpt lat="45.43312" lon="4.4993">
        <ele>683</ele>
        <time>2015-04-19T06:49:48Z</time>
      </trkpt>
      <trkpt lat="45.43306" lon="4.49935">
        <ele>683</ele>
        <time>2015-04-19T06:49:51Z</time>
      </trkpt>
      <trkpt lat="45.43301" lon="4.49939">
        <ele>684</ele>
        <time>2015-04-19T06:49:53Z</time>
      </trkpt>
      <trkpt lat="45.43296" lon="4.49942">
        <ele>684</ele>
        <time>2015-04-19T06:49:55Z</time>
      </trkpt>
      <trkpt lat="45.43292" lon="4.49946">
        <ele>684</ele>
        <time>2015-04-19T06:49:57Z</time>
      </trkpt>
      <trkpt lat="45.43288" lon="4.4995">
        <ele>685</ele>
        <time>2015-04-19T06:49:59Z</time>
      </trkpt>
      <trkpt lat="45.43282" lon="4.49956">
        <ele>685</ele>
        <time>2015-04-19T06:50:02Z</time>
      </trkpt>
      <trkpt lat="45.43277" lon="4.4996">
        <ele>685</ele>
        <time>2015-04-19T06:50:04Z</time>
      </trkpt>
      <trkpt lat="45.43272" lon="4.49966">
        <ele>685</ele>
        <time>2015-04-19T06:50:07Z</time>
      </trkpt>
      <trkpt lat="45.43266" lon="4.49971">
        <ele>686</ele>
        <time>2015-04-19T06:50:10Z</time>
      </trkpt>
      <trkpt lat="45.4326" lon="4.49977">
        <ele>687</ele>
        <time>2015-04-19T06:50:13Z</time>
      </trkpt>
      <trkpt lat="45.43253" lon="4.49983">
        <ele>688</ele>
        <time>2015-04-19T06:50:16Z</time>
      </trkpt>
      <trkpt lat="45.43249" lon="4.49985">
        <ele>688</ele>
        <time>2015-04-19T06:50:18Z</time>
      </trkpt>
      <trkpt lat="45.43245" lon="4.49987">
        <ele>689</ele>
        <time>2015-04-19T06:50:20Z</time>
      </trkpt>
      <trkpt lat="45.4324" lon="4.49988">
        <ele>689</ele>
        <time>2015-04-19T06:50:22Z</time>
      </trkpt>
      <trkpt lat="45.43235" lon="4.49989">
        <ele>689</ele>
        <time>2015-04-19T06:50:24Z</time>
      </trkpt>
      <trkpt lat="45.43229" lon="4.49991">
        <ele>690</ele>
        <time>2015-04-19T06:50:27Z</time>
      </trkpt>
      <trkpt lat="45.43222" lon="4.49992">
        <ele>690</ele>
        <time>2015-04-19T06:50:30Z</time>
      </trkpt>
      <trkpt lat="45.43217" lon="4.49993">
        <ele>690</ele>
        <time>2015-04-19T06:50:32Z</time>
      </trkpt>
      <trkpt lat="45.4321" lon="4.49995">
        <ele>691</ele>
        <time>2015-04-19T06:50:35Z</time>
      </trkpt>
      <trkpt lat="45.43202" lon="4.49999">
        <ele>691</ele>
        <time>2015-04-19T06:50:38Z</time>
      </trkpt>
      <trkpt lat="45.43197" lon="4.50001">
        <ele>690</ele>
        <time>2015-04-19T06:50:40Z</time>
      </trkpt>
      <trkpt lat="45.43192" lon="4.50003">
        <ele>689</ele>
        <time>2015-04-19T06:50:42Z</time>
      </trkpt>
      <trkpt lat="45.43187" lon="4.50005">
        <ele>688</ele>
        <time>2015-04-19T06:50:44Z</time>
      </trkpt>
      <trkpt lat="45.4318" lon="4.50006">
        <ele>687</ele>
        <time>2015-04-19T06:50:47Z</time>
      </trkpt>
      <trkpt lat="45.43175" lon="4.50005">
        <ele>686</ele>
        <time>2015-04-19T06:50:49Z</time>
      </trkpt>
      <trkpt lat="45.43169" lon="4.50005">
        <ele>685</ele>
        <time>2015-04-19T06:50:51Z</time>
      </trkpt>
      <trkpt lat="45.43161" lon="4.50003">
        <ele>685</ele>
        <time>2015-04-19T06:50:54Z</time>
      </trkpt>
      <trkpt lat="45.43155" lon="4.50001">
        <ele>685</ele>
        <time>2015-04-19T06:50:56Z</time>
      </trkpt>
      <trkpt lat="45.43146" lon="4.49999">
        <ele>685</ele>
        <time>2015-04-19T06:50:59Z</time>
      </trkpt>
      <trkpt lat="45.4314" lon="4.49999">
        <ele>684</ele>
        <time>2015-04-19T06:51:01Z</time>
      </trkpt>
      <trkpt lat="45.43132" lon="4.49998">
        <ele>684</ele>
        <time>2015-04-19T06:51:04Z</time>
      </trkpt>
      <trkpt lat="45.43126" lon="4.49997">
        <ele>684</ele>
        <time>2015-04-19T06:51:06Z</time>
      </trkpt>
      <trkpt lat="45.43119" lon="4.49997">
        <ele>682</ele>
        <time>2015-04-19T06:51:09Z</time>
      </trkpt>
      <trkpt lat="45.43112" lon="4.49996">
        <ele>681</ele>
        <time>2015-04-19T06:51:12Z</time>
      </trkpt>
      <trkpt lat="45.43107" lon="4.49994">
        <ele>679</ele>
        <time>2015-04-19T06:51:14Z</time>
      </trkpt>
      <trkpt lat="45.43103" lon="4.49991">
        <ele>678</ele>
        <time>2015-04-19T06:51:16Z</time>
      </trkpt>
      <trkpt lat="45.43097" lon="4.49991">
        <ele>677</ele>
        <time>2015-04-19T06:51:18Z</time>
      </trkpt>
      <trkpt lat="45.43088" lon="4.49992">
        <ele>676</ele>
        <time>2015-04-19T06:51:21Z</time>
      </trkpt>
      <trkpt lat="45.43083" lon="4.49991">
        <ele>675</ele>
        <time>2015-04-19T06:51:23Z</time>
      </trkpt>
      <trkpt lat="45.43076" lon="4.49987">
        <ele>673</ele>
        <time>2015-04-19T06:51:26Z</time>
      </trkpt>
      <trkpt lat="45.43069" lon="4.49985">
        <ele>672</ele>
        <time>2015-04-19T06:51:29Z</time>
      </trkpt>
      <trkpt lat="45.43065" lon="4.49984">
        <ele>671</ele>
        <time>2015-04-19T06:51:31Z</time>
      </trkpt>
      <trkpt lat="45.43058" lon="4.49984">
        <ele>670</ele>
        <time>2015-04-19T06:51:34Z</time>
      </trkpt>
      <trkpt lat="45.4305" lon="4.49981">
        <ele>670</ele>
        <time>2015-04-19T06:51:37Z</time>
      </trkpt>
      <trkpt lat="45.43045" lon="4.4998">
        <ele>670</ele>
        <time>2015-04-19T06:51:39Z</time>
      </trkpt>
      <trkpt lat="45.43039" lon="4.49979">
        <ele>670</ele>
        <time>2015-04-19T06:51:42Z</time>
      </trkpt>
      <trkpt lat="45.43034" lon="4.49978">
        <ele>670</ele>
        <time>2015-04-19T06:51:44Z</time>
      </trkpt>
      <trkpt lat="45.43025" lon="4.49978">
        <ele>670</ele>
        <time>2015-04-19T06:51:47Z</time>
      </trkpt>
      <trkpt lat="45.43019" lon="4.49978">
        <ele>670</ele>
        <time>2015-04-19T06:51:49Z</time>
      </trkpt>
      <trkpt lat="45.43014" lon="4.49978">
        <ele>669</ele>
        <time>2015-04-19T06:51:51Z</time>
      </trkpt>
      <trkpt lat="45.43006" lon="4.49977">
        <ele>669</ele>
        <time>2015-04-19T06:51:54Z</time>
      </trkpt>
      <trkpt lat="45.42998" lon="4.49977">
        <ele>667</ele>
        <time>2015-04-19T06:51:57Z</time>
      </trkpt>
      <trkpt lat="45.42993" lon="4.49978">
        <ele>666</ele>
        <time>2015-04-19T06:51:59Z</time>
      </trkpt>
      <trkpt lat="45.42985" lon="4.4998">
        <ele>665</ele>
        <time>2015-04-19T06:52:02Z</time>
      </trkpt>
      <trkpt lat="45.4298" lon="4.49983">
        <ele>663</ele>
        <time>2015-04-19T06:52:04Z</time>
      </trkpt>
      <trkpt lat="45.42976" lon="4.49984">
        <ele>661</ele>
        <time>2015-04-19T06:52:06Z</time>
      </trkpt>
      <trkpt lat="45.42969" lon="4.49988">
        <ele>659</ele>
        <time>2015-04-19T06:52:09Z</time>
      </trkpt>
      <trkpt lat="45.42965" lon="4.49989">
        <ele>657</ele>
        <time>2015-04-19T06:52:11Z</time>
      </trkpt>
      <trkpt lat="45.42956" lon="4.49989">
        <ele>655</ele>
        <time>2015-04-19T06:52:14Z</time>
      </trkpt>
      <trkpt lat="45.4295" lon="4.49988">
        <ele>653</ele>
        <time>2015-04-19T06:52:16Z</time>
      </trkpt>
      <trkpt lat="45.42942" lon="4.49991">
        <ele>652</ele>
        <time>2015-04-19T06:52:19Z</time>
      </trkpt>
      <trkpt lat="45.42936" lon="4.49992">
        <ele>650</ele>
        <time>2015-04-19T06:52:21Z</time>
      </trkpt>
      <trkpt lat="45.42928" lon="4.49995">
        <ele>649</ele>
        <time>2015-04-19T06:52:24Z</time>
      </trkpt>
      <trkpt lat="45.42923" lon="4.49997">
        <ele>648</ele>
        <time>2015-04-19T06:52:26Z</time>
      </trkpt>
      <trkpt lat="45.42918" lon="4.49999">
        <ele>646</ele>
        <time>2015-04-19T06:52:28Z</time>
      </trkpt>
      <trkpt lat="45.42914" lon="4.5">
        <ele>645</ele>
        <time>2015-04-19T06:52:30Z</time>
      </trkpt>
      <trkpt lat="45.42908" lon="4.50003">
        <ele>643</ele>
        <time>2015-04-19T06:52:33Z</time>
      </trkpt>
      <trkpt lat="45.42903" lon="4.50003">
        <ele>642</ele>
        <time>2015-04-19T06:52:35Z</time>
      </trkpt>
      <trkpt lat="45.42895" lon="4.50007">
        <ele>641</ele>
        <time>2015-04-19T06:52:38Z</time>
      </trkpt>
      <trkpt lat="45.4289" lon="4.50009">
        <ele>641</ele>
        <time>2015-04-19T06:52:40Z</time>
      </trkpt>
      <trkpt lat="45.42886" lon="4.50016">
        <ele>640</ele>
        <time>2015-04-19T06:52:43Z</time>
      </trkpt>
      <trkpt lat="45.42884" lon="4.50022">
        <ele>641</ele>
        <time>2015-04-19T06:52:46Z</time>
      </trkpt>
      <trkpt lat="45.42883" lon="4.5003">
        <ele>642</ele>
        <time>2015-04-19T06:52:49Z</time>
      </trkpt>
      <trkpt lat="45.42881" lon="4.50037">
        <ele>644</ele>
        <time>2015-04-19T06:52:52Z</time>
      </trkpt>
      <trkpt lat="45.42882" lon="4.50043">
        <ele>645</ele>
        <time>2015-04-19T06:52:55Z</time>
      </trkpt>
      <trkpt lat="45.42883" lon="4.50046">
        <ele>645</ele>
        <time>2015-04-19T06:52:57Z</time>
      </trkpt>
      <trkpt lat="45.42884" lon="4.50054">
        <ele>646</ele>
        <time>2015-04-19T06:53:00Z</time>
      </trkpt>
      <trkpt lat="45.42885" lon="4.50061">
        <ele>646</ele>
        <time>2015-04-19T06:53:03Z</time>
      </trkpt>
      <trkpt lat="45.42886" lon="4.50068">
        <ele>647</ele>
        <time>2015-04-19T06:53:06Z</time>
      </trkpt>
      <trkpt lat="45.42887" lon="4.50073">
        <ele>647</ele>
        <time>2015-04-19T06:53:08Z</time>
      </trkpt>
      <trkpt lat="45.42889" lon="4.5008">
        <ele>647</ele>
        <time>2015-04-19T06:53:11Z</time>
      </trkpt>
      <trkpt lat="45.42892" lon="4.50086">
        <ele>647</ele>
        <time>2015-04-19T06:53:13Z</time>
      </trkpt>
      <trkpt lat="45.42894" lon="4.50092">
        <ele>647</ele>
        <time>2015-04-19T06:53:15Z</time>
      </trkpt>
      <trkpt lat="45.42897" lon="4.501">
        <ele>648</ele>
        <time>2015-04-19T06:53:18Z</time>
      </trkpt>
      <trkpt lat="45.42899" lon="4.50105">
        <ele>648</ele>
        <time>2015-04-19T06:53:20Z</time>
      </trkpt>
      <trkpt lat="45.42901" lon="4.5011">
        <ele>649</ele>
        <time>2015-04-19T06:53:22Z</time>
      </trkpt>
      <trkpt lat="45.42904" lon="4.50119">
        <ele>650</ele>
        <time>2015-04-19T06:53:25Z</time>
      </trkpt>
      <trkpt lat="45.42906" lon="4.50124">
        <ele>651</ele>
        <time>2015-04-19T06:53:27Z</time>
      </trkpt>
      <trkpt lat="45.42908" lon="4.50129">
        <ele>652</ele>
        <time>2015-04-19T06:53:29Z</time>
      </trkpt>
      <trkpt lat="45.42911" lon="4.50137">
        <ele>653</ele>
        <time>2015-04-19T06:53:32Z</time>
      </trkpt>
      <trkpt lat="45.42912" lon="4.50144">
        <ele>654</ele>
        <time>2015-04-19T06:53:34Z</time>
      </trkpt>
      <trkpt lat="45.42913" lon="4.50149">
        <ele>655</ele>
        <time>2015-04-19T06:53:36Z</time>
      </trkpt>
      <trkpt lat="45.42915" lon="4.50158">
        <ele>656</ele>
        <time>2015-04-19T06:53:39Z</time>
      </trkpt>
      <trkpt lat="45.42916" lon="4.50164">
        <ele>656</ele>
        <time>2015-04-19T06:53:41Z</time>
      </trkpt>
      <trkpt lat="45.42918" lon="4.50169">
        <ele>656</ele>
        <time>2015-04-19T06:53:43Z</time>
      </trkpt>
      <trkpt lat="45.42921" lon="4.50175">
        <ele>657</ele>
        <time>2015-04-19T06:53:45Z</time>
      </trkpt>
      <trkpt lat="45.42924" lon="4.50182">
        <ele>657</ele>
        <time>2015-04-19T06:53:48Z</time>
      </trkpt>
      <trkpt lat="45.42927" lon="4.50187">
        <ele>657</ele>
        <time>2015-04-19T06:53:50Z</time>
      </trkpt>
      <trkpt lat="45.42929" lon="4.50192">
        <ele>657</ele>
        <time>2015-04-19T06:53:52Z</time>
      </trkpt>
      <trkpt lat="45.42931" lon="4.50197">
        <ele>657</ele>
        <time>2015-04-19T06:53:54Z</time>
      </trkpt>
      <trkpt lat="45.42934" lon="4.50203">
        <ele>657</ele>
        <time>2015-04-19T06:53:57Z</time>
      </trkpt>
      <trkpt lat="45.4294" lon="4.50209">
        <ele>658</ele>
        <time>2015-04-19T06:54:00Z</time>
      </trkpt>
      <trkpt lat="45.42943" lon="4.50214">
        <ele>658</ele>
        <time>2015-04-19T06:54:02Z</time>
      </trkpt>
      <trkpt lat="45.42947" lon="4.50221">
        <ele>658</ele>
        <time>2015-04-19T06:54:05Z</time>
      </trkpt>
      <trkpt lat="45.4295" lon="4.50227">
        <ele>658</ele>
        <time>2015-04-19T06:54:07Z</time>
      </trkpt>
      <trkpt lat="45.42955" lon="4.50234">
        <ele>658</ele>
        <time>2015-04-19T06:54:10Z</time>
      </trkpt>
      <trkpt lat="45.42958" lon="4.50239">
        <ele>658</ele>
        <time>2015-04-19T06:54:12Z</time>
      </trkpt>
      <trkpt lat="45.42962" lon="4.50243">
        <ele>658</ele>
        <time>2015-04-19T06:54:14Z</time>
      </trkpt>
      <trkpt lat="45.42967" lon="4.5025">
        <ele>659</ele>
        <time>2015-04-19T06:54:17Z</time>
      </trkpt>
      <trkpt lat="45.4297" lon="4.50255">
        <ele>659</ele>
        <time>2015-04-19T06:54:19Z</time>
      </trkpt>
      <trkpt lat="45.42973" lon="4.50261">
        <ele>659</ele>
        <time>2015-04-19T06:54:21Z</time>
      </trkpt>
      <trkpt lat="45.42978" lon="4.5027">
        <ele>659</ele>
        <time>2015-04-19T06:54:24Z</time>
      </trkpt>
      <trkpt lat="45.4298" lon="4.50275">
        <ele>659</ele>
        <time>2015-04-19T06:54:26Z</time>
      </trkpt>
      <trkpt lat="45.42985" lon="4.50281">
        <ele>659</ele>
        <time>2015-04-19T06:54:28Z</time>
      </trkpt>
      <trkpt lat="45.42991" lon="4.50289">
        <ele>659</ele>
        <time>2015-04-19T06:54:31Z</time>
      </trkpt>
      <trkpt lat="45.42994" lon="4.50296">
        <ele>659</ele>
        <time>2015-04-19T06:54:33Z</time>
      </trkpt>
      <trkpt lat="45.42999" lon="4.50305">
        <ele>659</ele>
        <time>2015-04-19T06:54:36Z</time>
      </trkpt>
      <trkpt lat="45.43003" lon="4.5031">
        <ele>659</ele>
        <time>2015-04-19T06:54:38Z</time>
      </trkpt>
      <trkpt lat="45.43007" lon="4.50315">
        <ele>659</ele>
        <time>2015-04-19T06:54:40Z</time>
      </trkpt>
      <trkpt lat="45.43013" lon="4.50324">
        <ele>660</ele>
        <time>2015-04-19T06:54:43Z</time>
      </trkpt>
      <trkpt lat="45.43018" lon="4.50329">
        <ele>660</ele>
        <time>2015-04-19T06:54:45Z</time>
      </trkpt>
      <trkpt lat="45.43021" lon="4.50335">
        <ele>660</ele>
        <time>2015-04-19T06:54:47Z</time>
      </trkpt>
      <trkpt lat="45.43024" lon="4.5034">
        <ele>660</ele>
        <time>2015-04-19T06:54:49Z</time>
      </trkpt>
      <trkpt lat="45.43027" lon="4.50346">
        <ele>660</ele>
        <time>2015-04-19T06:54:51Z</time>
      </trkpt>
      <trkpt lat="45.4303" lon="4.50353">
        <ele>659</ele>
        <time>2015-04-19T06:54:53Z</time>
      </trkpt>
      <trkpt lat="45.43035" lon="4.50363">
        <ele>659</ele>
        <time>2015-04-19T06:54:56Z</time>
      </trkpt>
      <trkpt lat="45.43039" lon="4.5037">
        <ele>659</ele>
        <time>2015-04-19T06:54:58Z</time>
      </trkpt>
      <trkpt lat="45.43043" lon="4.50376">
        <ele>659</ele>
        <time>2015-04-19T06:55:00Z</time>
      </trkpt>
      <trkpt lat="45.43047" lon="4.50382">
        <ele>659</ele>
        <time>2015-04-19T06:55:02Z</time>
      </trkpt>
      <trkpt lat="45.4305" lon="4.5039">
        <ele>659</ele>
        <time>2015-04-19T06:55:05Z</time>
      </trkpt>
      <trkpt lat="45.43053" lon="4.50395">
        <ele>660</ele>
        <time>2015-04-19T06:55:07Z</time>
      </trkpt>
      <trkpt lat="45.43055" lon="4.50401">
        <ele>660</ele>
        <time>2015-04-19T06:55:09Z</time>
      </trkpt>
      <trkpt lat="45.43059" lon="4.50411">
        <ele>660</ele>
        <time>2015-04-19T06:55:12Z</time>
      </trkpt>
      <trkpt lat="45.43061" lon="4.50418">
        <ele>660</ele>
        <time>2015-04-19T06:55:14Z</time>
      </trkpt>
      <trkpt lat="45.43064" lon="4.50429">
        <ele>660</ele>
        <time>2015-04-19T06:55:17Z</time>
      </trkpt>
      <trkpt lat="45.43067" lon="4.50434">
        <ele>660</ele>
        <time>2015-04-19T06:55:19Z</time>
      </trkpt>
      <trkpt lat="45.43069" lon="4.50441">
        <ele>661</ele>
        <time>2015-04-19T06:55:21Z</time>
      </trkpt>
      <trkpt lat="45.43072" lon="4.50447">
        <ele>661</ele>
        <time>2015-04-19T06:55:23Z</time>
      </trkpt>
      <trkpt lat="45.43076" lon="4.50456">
        <ele>661</ele>
        <time>2015-04-19T06:55:26Z</time>
      </trkpt>
      <trkpt lat="45.43082" lon="4.50466">
        <ele>661</ele>
        <time>2015-04-19T06:55:29Z</time>
      </trkpt>
      <trkpt lat="45.43085" lon="4.50472">
        <ele>661</ele>
        <time>2015-04-19T06:55:31Z</time>
      </trkpt>
      <trkpt lat="45.4309" lon="4.50482">
        <ele>662</ele>
        <time>2015-04-19T06:55:34Z</time>
      </trkpt>
      <trkpt lat="45.43093" lon="4.50488">
        <ele>663</ele>
        <time>2015-04-19T06:55:36Z</time>
      </trkpt>
      <trkpt lat="45.43097" lon="4.50498">
        <ele>663</ele>
        <time>2015-04-19T06:55:39Z</time>
      </trkpt>
      <trkpt lat="45.431" lon="4.50508">
        <ele>664</ele>
        <time>2015-04-19T06:55:42Z</time>
      </trkpt>
      <trkpt lat="45.43102" lon="4.50516">
        <ele>664</ele>
        <time>2015-04-19T06:55:45Z</time>
      </trkpt>
      <trkpt lat="45.43104" lon="4.50526">
        <ele>665</ele>
        <time>2015-04-19T06:55:48Z</time>
      </trkpt>
      <trkpt lat="45.43107" lon="4.50531">
        <ele>665</ele>
        <time>2015-04-19T06:55:50Z</time>
      </trkpt>
      <trkpt lat="45.43109" lon="4.50537">
        <ele>666</ele>
        <time>2015-04-19T06:55:52Z</time>
      </trkpt>
      <trkpt lat="45.43112" lon="4.50546">
        <ele>666</ele>
        <time>2015-04-19T06:55:55Z</time>
      </trkpt>
      <trkpt lat="45.43114" lon="4.50552">
        <ele>667</ele>
        <time>2015-04-19T06:55:57Z</time>
      </trkpt>
      <trkpt lat="45.43115" lon="4.50557">
        <ele>668</ele>
        <time>2015-04-19T06:55:59Z</time>
      </trkpt>
      <trkpt lat="45.43116" lon="4.50566">
        <ele>668</ele>
        <time>2015-04-19T06:56:02Z</time>
      </trkpt>
      <trkpt lat="45.43116" lon="4.50573">
        <ele>669</ele>
        <time>2015-04-19T06:56:05Z</time>
      </trkpt>
      <trkpt lat="45.43115" lon="4.50578">
        <ele>670</ele>
        <time>2015-04-19T06:56:08Z</time>
      </trkpt>
      <trkpt lat="45.43115" lon="4.50583">
        <ele>670</ele>
        <time>2015-04-19T06:56:10Z</time>
      </trkpt>
      <trkpt lat="45.43112" lon="4.50589">
        <ele>671</ele>
        <time>2015-04-19T06:56:13Z</time>
      </trkpt>
      <trkpt lat="45.43109" lon="4.50595">
        <ele>671</ele>
        <time>2015-04-19T06:56:16Z</time>
      </trkpt>
      <trkpt lat="45.43106" lon="4.50598">
        <ele>671</ele>
        <time>2015-04-19T06:56:18Z</time>
      </trkpt>
      <trkpt lat="45.43101" lon="4.50604">
        <ele>671</ele>
        <time>2015-04-19T06:56:21Z</time>
      </trkpt>
      <trkpt lat="45.43096" lon="4.50609">
        <ele>670</ele>
        <time>2015-04-19T06:56:24Z</time>
      </trkpt>
      <trkpt lat="45.43092" lon="4.50611">
        <ele>671</ele>
        <time>2015-04-19T06:56:26Z</time>
      </trkpt>
      <trkpt lat="45.43086" lon="4.50617">
        <ele>671</ele>
        <time>2015-04-19T06:56:29Z</time>
      </trkpt>
      <trkpt lat="45.43083" lon="4.5062">
        <ele>671</ele>
        <time>2015-04-19T06:56:31Z</time>
      </trkpt>
      <trkpt lat="45.43076" lon="4.50625">
        <ele>672</ele>
        <time>2015-04-19T06:56:34Z</time>
      </trkpt>
      <trkpt lat="45.43071" lon="4.5063">
        <ele>672</ele>
        <time>2015-04-19T06:56:36Z</time>
      </trkpt>
      <trkpt lat="45.43065" lon="4.50635">
        <ele>673</ele>
        <time>2015-04-19T06:56:39Z</time>
      </trkpt>
      <trkpt lat="45.4306" lon="4.50638">
        <ele>673</ele>
        <time>2015-04-19T06:56:41Z</time>
      </trkpt>
      <trkpt lat="45.43053" lon="4.50643">
        <ele>673</ele>
        <time>2015-04-19T06:56:44Z</time>
      </trkpt>
      <trkpt lat="45.43048" lon="4.50647">
        <ele>673</ele>
        <time>2015-04-19T06:56:46Z</time>
      </trkpt>
      <trkpt lat="45.43042" lon="4.50651">
        <ele>672</ele>
        <time>2015-04-19T06:56:49Z</time>
      </trkpt>
      <trkpt lat="45.43035" lon="4.50655">
        <ele>672</ele>
        <time>2015-04-19T06:56:52Z</time>
      </trkpt>
      <trkpt lat="45.4303" lon="4.50657">
        <ele>672</ele>
        <time>2015-04-19T06:56:54Z</time>
      </trkpt>
      <trkpt lat="45.43021" lon="4.50661">
        <ele>672</ele>
        <time>2015-04-19T06:56:57Z</time>
      </trkpt>
      <trkpt lat="45.43013" lon="4.50667">
        <ele>671</ele>
        <time>2015-04-19T06:57:00Z</time>
      </trkpt>
      <trkpt lat="45.43007" lon="4.50669">
        <ele>670</ele>
        <time>2015-04-19T06:57:02Z</time>
      </trkpt>
      <trkpt lat="45.43001" lon="4.50672">
        <ele>670</ele>
        <time>2015-04-19T06:57:04Z</time>
      </trkpt>
      <trkpt lat="45.42997" lon="4.50674">
        <ele>669</ele>
        <time>2015-04-19T06:57:06Z</time>
      </trkpt>
      <trkpt lat="45.42988" lon="4.50676">
        <ele>669</ele>
        <time>2015-04-19T06:57:09Z</time>
      </trkpt>
      <trkpt lat="45.42979" lon="4.50678">
        <ele>668</ele>
        <time>2015-04-19T06:57:12Z</time>
      </trkpt>
      <trkpt lat="45.42975" lon="4.5068">
        <ele>668</ele>
        <time>2015-04-19T06:57:14Z</time>
      </trkpt>
      <trkpt lat="45.42968" lon="4.50683">
        <ele>667</ele>
        <time>2015-04-19T06:57:17Z</time>
      </trkpt>
      <trkpt lat="45.4296" lon="4.50684">
        <ele>666</ele>
        <time>2015-04-19T06:57:20Z</time>
      </trkpt>
      <trkpt lat="45.42953" lon="4.50688">
        <ele>666</ele>
        <time>2015-04-19T06:57:22Z</time>
      </trkpt>
      <trkpt lat="45.42948" lon="4.5069">
        <ele>665</ele>
        <time>2015-04-19T06:57:24Z</time>
      </trkpt>
      <trkpt lat="45.42943" lon="4.50692">
        <ele>664</ele>
        <time>2015-04-19T06:57:26Z</time>
      </trkpt>
      <trkpt lat="45.42934" lon="4.50695">
        <ele>663</ele>
        <time>2015-04-19T06:57:29Z</time>
      </trkpt>
      <trkpt lat="45.42929" lon="4.50698">
        <ele>663</ele>
        <time>2015-04-19T06:57:31Z</time>
      </trkpt>
      <trkpt lat="45.42923" lon="4.50701">
        <ele>663</ele>
        <time>2015-04-19T06:57:33Z</time>
      </trkpt>
      <trkpt lat="45.42916" lon="4.50705">
        <ele>663</ele>
        <time>2015-04-19T06:57:36Z</time>
      </trkpt>
      <trkpt lat="45.42908" lon="4.5071">
        <ele>663</ele>
        <time>2015-04-19T06:57:39Z</time>
      </trkpt>
      <trkpt lat="45.42899" lon="4.50717">
        <ele>662</ele>
        <time>2015-04-19T06:57:42Z</time>
      </trkpt>
      <trkpt lat="45.42894" lon="4.50723">
        <ele>661</ele>
        <time>2015-04-19T06:57:44Z</time>
      </trkpt>
      <trkpt lat="45.42889" lon="4.50731">
        <ele>661</ele>
        <time>2015-04-19T06:57:47Z</time>
      </trkpt>
      <trkpt lat="45.42883" lon="4.50741">
        <ele>660</ele>
        <time>2015-04-19T06:57:50Z</time>
      </trkpt>
      <trkpt lat="45.42877" lon="4.50752">
        <ele>660</ele>
        <time>2015-04-19T06:57:53Z</time>
      </trkpt>
      <trkpt lat="45.42873" lon="4.50759">
        <ele>660</ele>
        <time>2015-04-19T06:57:55Z</time>
      </trkpt>
      <trkpt lat="45.42868" lon="4.50771">
        <ele>659</ele>
        <time>2015-04-19T06:57:58Z</time>
      </trkpt>
      <trkpt lat="45.42861" lon="4.50782">
        <ele>660</ele>
        <time>2015-04-19T06:58:01Z</time>
      </trkpt>
      <trkpt lat="45.42854" lon="4.50792">
        <ele>659</ele>
        <time>2015-04-19T06:58:04Z</time>
      </trkpt>
      <trkpt lat="45.42847" lon="4.50802">
        <ele>659</ele>
        <time>2015-04-19T06:58:07Z</time>
      </trkpt>
      <trkpt lat="45.4284" lon="4.50809">
        <ele>658</ele>
        <time>2015-04-19T06:58:10Z</time>
      </trkpt>
      <trkpt lat="45.42835" lon="4.50815">
        <ele>658</ele>
        <time>2015-04-19T06:58:12Z</time>
      </trkpt>
      <trkpt lat="45.42828" lon="4.50823">
        <ele>657</ele>
        <time>2015-04-19T06:58:15Z</time>
      </trkpt>
      <trkpt lat="45.42823" lon="4.5083">
        <ele>656</ele>
        <time>2015-04-19T06:58:17Z</time>
      </trkpt>
      <trkpt lat="45.42814" lon="4.50838">
        <ele>656</ele>
        <time>2015-04-19T06:58:20Z</time>
      </trkpt>
      <trkpt lat="45.42809" lon="4.50843">
        <ele>656</ele>
        <time>2015-04-19T06:58:22Z</time>
      </trkpt>
      <trkpt lat="45.42799" lon="4.50849">
        <ele>655</ele>
        <time>2015-04-19T06:58:25Z</time>
      </trkpt>
      <trkpt lat="45.42794" lon="4.50852">
        <ele>654</ele>
        <time>2015-04-19T06:58:27Z</time>
      </trkpt>
      <trkpt lat="45.42784" lon="4.50856">
        <ele>654</ele>
        <time>2015-04-19T06:58:30Z</time>
      </trkpt>
      <trkpt lat="45.42779" lon="4.50859">
        <ele>654</ele>
        <time>2015-04-19T06:58:32Z</time>
      </trkpt>
      <trkpt lat="45.42773" lon="4.50861">
        <ele>654</ele>
        <time>2015-04-19T06:58:34Z</time>
      </trkpt>
      <trkpt lat="45.42764" lon="4.50863">
        <ele>654</ele>
        <time>2015-04-19T06:58:37Z</time>
      </trkpt>
      <trkpt lat="45.42754" lon="4.50864">
        <ele>653</ele>
        <time>2015-04-19T06:58:40Z</time>
      </trkpt>
      <trkpt lat="45.42745" lon="4.50864">
        <ele>652</ele>
        <time>2015-04-19T06:58:43Z</time>
      </trkpt>
      <trkpt lat="45.42737" lon="4.50864">
        <ele>650</ele>
        <time>2015-04-19T06:58:46Z</time>
      </trkpt>
      <trkpt lat="45.42728" lon="4.50863">
        <ele>649</ele>
        <time>2015-04-19T06:58:49Z</time>
      </trkpt>
      <trkpt lat="45.42718" lon="4.50862">
        <ele>647</ele>
        <time>2015-04-19T06:58:52Z</time>
      </trkpt>
      <trkpt lat="45.42708" lon="4.5086">
        <ele>646</ele>
        <time>2015-04-19T06:58:55Z</time>
      </trkpt>
      <trkpt lat="45.42699" lon="4.50856">
        <ele>645</ele>
        <time>2015-04-19T06:58:58Z</time>
      </trkpt>
      <trkpt lat="45.42693" lon="4.50853">
        <ele>644</ele>
        <time>2015-04-19T06:59:00Z</time>
      </trkpt>
      <trkpt lat="45.42684" lon="4.50849">
        <ele>643</ele>
        <time>2015-04-19T06:59:03Z</time>
      </trkpt>
      <trkpt lat="45.42675" lon="4.50844">
        <ele>642</ele>
        <time>2015-04-19T06:59:06Z</time>
      </trkpt>
      <trkpt lat="45.42667" lon="4.50839">
        <ele>641</ele>
        <time>2015-04-19T06:59:09Z</time>
      </trkpt>
      <trkpt lat="45.42658" lon="4.50834">
        <ele>640</ele>
        <time>2015-04-19T06:59:12Z</time>
      </trkpt>
      <trkpt lat="45.42652" lon="4.50831">
        <ele>639</ele>
        <time>2015-04-19T06:59:14Z</time>
      </trkpt>
      <trkpt lat="45.42646" lon="4.50827">
        <ele>638</ele>
        <time>2015-04-19T06:59:16Z</time>
      </trkpt>
      <trkpt lat="45.42641" lon="4.50823">
        <ele>638</ele>
        <time>2015-04-19T06:59:18Z</time>
      </trkpt>
      <trkpt lat="45.42635" lon="4.50818">
        <ele>638</ele>
        <time>2015-04-19T06:59:21Z</time>
      </trkpt>
      <trkpt lat="45.42627" lon="4.50815">
        <ele>637</ele>
        <time>2015-04-19T06:59:24Z</time>
      </trkpt>
      <trkpt lat="45.42622" lon="4.50812">
        <ele>636</ele>
        <time>2015-04-19T06:59:26Z</time>
      </trkpt>
      <trkpt lat="45.42614" lon="4.50808">
        <ele>636</ele>
        <time>2015-04-19T06:59:29Z</time>
      </trkpt>
      <trkpt lat="45.42605" lon="4.50805">
        <ele>635</ele>
        <time>2015-04-19T06:59:32Z</time>
      </trkpt>
      <trkpt lat="45.42599" lon="4.50803">
        <ele>634</ele>
        <time>2015-04-19T06:59:34Z</time>
      </trkpt>
      <trkpt lat="45.42593" lon="4.50801">
        <ele>634</ele>
        <time>2015-04-19T06:59:36Z</time>
      </trkpt>
      <trkpt lat="45.42587" lon="4.508">
        <ele>633</ele>
        <time>2015-04-19T06:59:38Z</time>
      </trkpt>
      <trkpt lat="45.42578" lon="4.50797">
        <ele>632</ele>
        <time>2015-04-19T06:59:41Z</time>
      </trkpt>
      <trkpt lat="45.42573" lon="4.50794">
        <ele>631</ele>
        <time>2015-04-19T06:59:43Z</time>
      </trkpt>
      <trkpt lat="45.42564" lon="4.50791">
        <ele>630</ele>
        <time>2015-04-19T06:59:46Z</time>
      </trkpt>
      <trkpt lat="45.42557" lon="4.50789">
        <ele>630</ele>
        <time>2015-04-19T06:59:49Z</time>
      </trkpt>
      <trkpt lat="45.42551" lon="4.50789">
        <ele>629</ele>
        <time>2015-04-19T06:59:51Z</time>
      </trkpt>
      <trkpt lat="45.42546" lon="4.50789">
        <ele>628</ele>
        <time>2015-04-19T06:59:53Z</time>
      </trkpt>
      <trkpt lat="45.42538" lon="4.5079">
        <ele>628</ele>
        <time>2015-04-19T06:59:56Z</time>
      </trkpt>
      <trkpt lat="45.4253" lon="4.50791">
        <ele>626</ele>
        <time>2015-04-19T06:59:59Z</time>
      </trkpt>
      <trkpt lat="45.42522" lon="4.50792">
        <ele>625</ele>
        <time>2015-04-19T07:00:02Z</time>
      </trkpt>
      <trkpt lat="45.42514" lon="4.50794">
        <ele>625</ele>
        <time>2015-04-19T07:00:05Z</time>
      </trkpt>
      <trkpt lat="45.42506" lon="4.50798">
        <ele>624</ele>
        <time>2015-04-19T07:00:08Z</time>
      </trkpt>
      <trkpt lat="45.42498" lon="4.50801">
        <ele>623</ele>
        <time>2015-04-19T07:00:11Z</time>
      </trkpt>
      <trkpt lat="45.4249" lon="4.50804">
        <ele>622</ele>
        <time>2015-04-19T07:00:14Z</time>
      </trkpt>
      <trkpt lat="45.42485" lon="4.50807">
        <ele>622</ele>
        <time>2015-04-19T07:00:16Z</time>
      </trkpt>
      <trkpt lat="45.42479" lon="4.5081">
        <ele>621</ele>
        <time>2015-04-19T07:00:18Z</time>
      </trkpt>
      <trkpt lat="45.4247" lon="4.50814">
        <ele>620</ele>
        <time>2015-04-19T07:00:21Z</time>
      </trkpt>
      <trkpt lat="45.42464" lon="4.50816">
        <ele>619</ele>
        <time>2015-04-19T07:00:24Z</time>
      </trkpt>
      <trkpt lat="45.42456" lon="4.5082">
        <ele>618</ele>
        <time>2015-04-19T07:00:27Z</time>
      </trkpt>
      <trkpt lat="45.42447" lon="4.50826">
        <ele>618</ele>
        <time>2015-04-19T07:00:30Z</time>
      </trkpt>
      <trkpt lat="45.42439" lon="4.50831">
        <ele>617</ele>
        <time>2015-04-19T07:00:33Z</time>
      </trkpt>
      <trkpt lat="45.4243" lon="4.50839">
        <ele>616</ele>
        <time>2015-04-19T07:00:36Z</time>
      </trkpt>
      <trkpt lat="45.42424" lon="4.50843">
        <ele>616</ele>
        <time>2015-04-19T07:00:38Z</time>
      </trkpt>
      <trkpt lat="45.42416" lon="4.50849">
        <ele>616</ele>
        <time>2015-04-19T07:00:41Z</time>
      </trkpt>
      <trkpt lat="45.42411" lon="4.50852">
        <ele>616</ele>
        <time>2015-04-19T07:00:43Z</time>
      </trkpt>
      <trkpt lat="45.42404" lon="4.50858">
        <ele>615</ele>
        <time>2015-04-19T07:00:46Z</time>
      </trkpt>
      <trkpt lat="45.42395" lon="4.50864">
        <ele>615</ele>
        <time>2015-04-19T07:00:49Z</time>
      </trkpt>
      <trkpt lat="45.42389" lon="4.50867">
        <ele>614</ele>
        <time>2015-04-19T07:00:51Z</time>
      </trkpt>
      <trkpt lat="45.42381" lon="4.50872">
        <ele>615</ele>
        <time>2015-04-19T07:00:54Z</time>
      </trkpt>
      <trkpt lat="45.42372" lon="4.50875">
        <ele>615</ele>
        <time>2015-04-19T07:00:57Z</time>
      </trkpt>
      <trkpt lat="45.42366" lon="4.50876">
        <ele>615</ele>
        <time>2015-04-19T07:00:59Z</time>
      </trkpt>
      <trkpt lat="45.42358" lon="4.50875">
        <ele>615</ele>
        <time>2015-04-19T07:01:02Z</time>
      </trkpt>
      <trkpt lat="45.42351" lon="4.50868">
        <ele>614</ele>
        <time>2015-04-19T07:01:05Z</time>
      </trkpt>
      <trkpt lat="45.42347" lon="4.50857">
        <ele>614</ele>
        <time>2015-04-19T07:01:08Z</time>
      </trkpt>
      <trkpt lat="45.42345" lon="4.5085">
        <ele>613</ele>
        <time>2015-04-19T07:01:10Z</time>
      </trkpt>
      <trkpt lat="45.42342" lon="4.5084">
        <ele>612</ele>
        <time>2015-04-19T07:01:13Z</time>
      </trkpt>
      <trkpt lat="45.42342" lon="4.50831">
        <ele>612</ele>
        <time>2015-04-19T07:01:16Z</time>
      </trkpt>
      <trkpt lat="45.4234" lon="4.50821">
        <ele>612</ele>
        <time>2015-04-19T07:01:19Z</time>
      </trkpt>
      <trkpt lat="45.42339" lon="4.5081">
        <ele>612</ele>
        <time>2015-04-19T07:01:22Z</time>
      </trkpt>
      <trkpt lat="45.42338" lon="4.508">
        <ele>612</ele>
        <time>2015-04-19T07:01:25Z</time>
      </trkpt>
      <trkpt lat="45.42337" lon="4.50792">
        <ele>612</ele>
        <time>2015-04-19T07:01:27Z</time>
      </trkpt>
      <trkpt lat="45.42334" lon="4.50784">
        <ele>612</ele>
        <time>2015-04-19T07:01:29Z</time>
      </trkpt>
      <trkpt lat="45.42331" lon="4.50773">
        <ele>613</ele>
        <time>2015-04-19T07:01:32Z</time>
      </trkpt>
      <trkpt lat="45.42329" lon="4.50768">
        <ele>613</ele>
        <time>2015-04-19T07:01:34Z</time>
      </trkpt>
      <trkpt lat="45.42324" lon="4.5076">
        <ele>613</ele>
        <time>2015-04-19T07:01:37Z</time>
      </trkpt>
      <trkpt lat="45.42318" lon="4.50754">
        <ele>613</ele>
        <time>2015-04-19T07:01:40Z</time>
      </trkpt>
      <trkpt lat="45.42312" lon="4.50747">
        <ele>613</ele>
        <time>2015-04-19T07:01:43Z</time>
      </trkpt>
      <trkpt lat="45.42305" lon="4.50743">
        <ele>613</ele>
        <time>2015-04-19T07:01:46Z</time>
      </trkpt>
      <trkpt lat="45.42299" lon="4.50739">
        <ele>613</ele>
        <time>2015-04-19T07:01:49Z</time>
      </trkpt>
      <trkpt lat="45.42293" lon="4.50735">
        <ele>613</ele>
        <time>2015-04-19T07:01:52Z</time>
      </trkpt>
      <trkpt lat="45.42289" lon="4.50733">
        <ele>613</ele>
        <time>2015-04-19T07:01:54Z</time>
      </trkpt>
      <trkpt lat="45.42284" lon="4.50731">
        <ele>613</ele>
        <time>2015-04-19T07:01:56Z</time>
      </trkpt>
      <trkpt lat="45.42277" lon="4.50727">
        <ele>613</ele>
        <time>2015-04-19T07:01:59Z</time>
      </trkpt>
      <trkpt lat="45.42271" lon="4.50722">
        <ele>614</ele>
        <time>2015-04-19T07:02:02Z</time>
      </trkpt>
      <trkpt lat="45.42266" lon="4.50717">
        <ele>614</ele>
        <time>2015-04-19T07:02:05Z</time>
      </trkpt>
      <trkpt lat="45.4226" lon="4.50713">
        <ele>615</ele>
        <time>2015-04-19T07:02:08Z</time>
      </trkpt>
      <trkpt lat="45.42255" lon="4.5071">
        <ele>615</ele>
        <time>2015-04-19T07:02:10Z</time>
      </trkpt>
      <trkpt lat="45.4225" lon="4.50706">
        <ele>615</ele>
        <time>2015-04-19T07:02:13Z</time>
      </trkpt>
      <trkpt lat="45.42246" lon="4.50704">
        <ele>615</ele>
        <time>2015-04-19T07:02:15Z</time>
      </trkpt>
      <trkpt lat="45.42241" lon="4.50702">
        <ele>616</ele>
        <time>2015-04-19T07:02:17Z</time>
      </trkpt>
      <trkpt lat="45.42234" lon="4.50699">
        <ele>616</ele>
        <time>2015-04-19T07:02:20Z</time>
      </trkpt>
      <trkpt lat="45.42229" lon="4.50694">
        <ele>617</ele>
        <time>2015-04-19T07:02:23Z</time>
      </trkpt>
      <trkpt lat="45.42225" lon="4.50692">
        <ele>618</ele>
        <time>2015-04-19T07:02:25Z</time>
      </trkpt>
      <trkpt lat="45.42218" lon="4.50687">
        <ele>619</ele>
        <time>2015-04-19T07:02:28Z</time>
      </trkpt>
      <trkpt lat="45.42214" lon="4.50684">
        <ele>619</ele>
        <time>2015-04-19T07:02:30Z</time>
      </trkpt>
      <trkpt lat="45.4221" lon="4.50681">
        <ele>619</ele>
        <time>2015-04-19T07:02:32Z</time>
      </trkpt>
      <trkpt lat="45.42202" lon="4.5068">
        <ele>620</ele>
        <time>2015-04-19T07:02:35Z</time>
      </trkpt>
      <trkpt lat="45.42198" lon="4.5068">
        <ele>620</ele>
        <time>2015-04-19T07:02:37Z</time>
      </trkpt>
      <trkpt lat="45.42193" lon="4.50685">
        <ele>620</ele>
        <time>2015-04-19T07:02:40Z</time>
      </trkpt>
      <trkpt lat="45.42189" lon="4.50692">
        <ele>621</ele>
        <time>2015-04-19T07:02:43Z</time>
      </trkpt>
      <trkpt lat="45.42186" lon="4.50697">
        <ele>621</ele>
        <time>2015-04-19T07:02:45Z</time>
      </trkpt>
      <trkpt lat="45.42184" lon="4.50701">
        <ele>622</ele>
        <time>2015-04-19T07:02:47Z</time>
      </trkpt>
      <trkpt lat="45.4218" lon="4.50707">
        <ele>623</ele>
        <time>2015-04-19T07:02:50Z</time>
      </trkpt>
      <trkpt lat="45.42178" lon="4.5071">
        <ele>623</ele>
        <time>2015-04-19T07:02:52Z</time>
      </trkpt>
      <trkpt lat="45.42173" lon="4.50714">
        <ele>624</ele>
        <time>2015-04-19T07:02:55Z</time>
      </trkpt>
      <trkpt lat="45.42171" lon="4.50716">
        <ele>625</ele>
        <time>2015-04-19T07:02:57Z</time>
      </trkpt>
      <trkpt lat="45.42168" lon="4.50719">
        <ele>626</ele>
        <time>2015-04-19T07:02:59Z</time>
      </trkpt>
      <trkpt lat="45.42164" lon="4.50724">
        <ele>626</ele>
        <time>2015-04-19T07:03:02Z</time>
      </trkpt>
      <trkpt lat="45.4216" lon="4.50729">
        <ele>627</ele>
        <time>2015-04-19T07:03:05Z</time>
      </trkpt>
      <trkpt lat="45.42158" lon="4.50731">
        <ele>627</ele>
        <time>2015-04-19T07:03:07Z</time>
      </trkpt>
      <trkpt lat="45.42155" lon="4.50734">
        <ele>627</ele>
        <time>2015-04-19T07:03:09Z</time>
      </trkpt>
      <trkpt lat="45.4215" lon="4.50738">
        <ele>628</ele>
        <time>2015-04-19T07:03:12Z</time>
      </trkpt>
      <trkpt lat="45.42146" lon="4.50739">
        <ele>629</ele>
        <time>2015-04-19T07:03:14Z</time>
      </trkpt>
      <trkpt lat="45.4214" lon="4.50741">
        <ele>630</ele>
        <time>2015-04-19T07:03:17Z</time>
      </trkpt>
      <trkpt lat="45.42133" lon="4.50742">
        <ele>630</ele>
        <time>2015-04-19T07:03:20Z</time>
      </trkpt>
      <trkpt lat="45.42129" lon="4.50743">
        <ele>631</ele>
        <time>2015-04-19T07:03:22Z</time>
      </trkpt>
      <trkpt lat="45.42124" lon="4.50743">
        <ele>632</ele>
        <time>2015-04-19T07:03:24Z</time>
      </trkpt>
      <trkpt lat="45.42119" lon="4.50744">
        <ele>632</ele>
        <time>2015-04-19T07:03:26Z</time>
      </trkpt>
      <trkpt lat="45.42112" lon="4.50744">
        <ele>633</ele>
        <time>2015-04-19T07:03:29Z</time>
      </trkpt>
      <trkpt lat="45.42104" lon="4.50744">
        <ele>634</ele>
        <time>2015-04-19T07:03:32Z</time>
      </trkpt>
      <trkpt lat="45.42097" lon="4.50744">
        <ele>634</ele>
        <time>2015-04-19T07:03:35Z</time>
      </trkpt>
      <trkpt lat="45.42089" lon="4.50743">
        <ele>635</ele>
        <time>2015-04-19T07:03:38Z</time>
      </trkpt>
      <trkpt lat="45.42083" lon="4.50741">
        <ele>636</ele>
        <time>2015-04-19T07:03:41Z</time>
      </trkpt>
      <trkpt lat="45.42076" lon="4.50738">
        <ele>637</ele>
        <time>2015-04-19T07:03:44Z</time>
      </trkpt>
      <trkpt lat="45.42069" lon="4.50736">
        <ele>637</ele>
        <time>2015-04-19T07:03:47Z</time>
      </trkpt>
      <trkpt lat="45.42065" lon="4.50735">
        <ele>638</ele>
        <time>2015-04-19T07:03:49Z</time>
      </trkpt>
      <trkpt lat="45.42058" lon="4.50732">
        <ele>638</ele>
        <time>2015-04-19T07:03:52Z</time>
      </trkpt>
      <trkpt lat="45.42051" lon="4.50728">
        <ele>638</ele>
        <time>2015-04-19T07:03:55Z</time>
      </trkpt>
      <trkpt lat="45.42044" lon="4.50724">
        <ele>639</ele>
        <time>2015-04-19T07:03:58Z</time>
      </trkpt>
      <trkpt lat="45.42039" lon="4.50718">
        <ele>639</ele>
        <time>2015-04-19T07:04:01Z</time>
      </trkpt>
      <trkpt lat="45.42033" lon="4.50713">
        <ele>640</ele>
        <time>2015-04-19T07:04:04Z</time>
      </trkpt>
      <trkpt lat="45.42028" lon="4.50706">
        <ele>640</ele>
        <time>2015-04-19T07:04:07Z</time>
      </trkpt>
      <trkpt lat="45.42023" lon="4.50703">
        <ele>641</ele>
        <time>2015-04-19T07:04:10Z</time>
      </trkpt>
      <trkpt lat="45.42018" lon="4.50701">
        <ele>641</ele>
        <time>2015-04-19T07:04:12Z</time>
      </trkpt>
      <trkpt lat="45.42014" lon="4.507">
        <ele>641</ele>
        <time>2015-04-19T07:04:14Z</time>
      </trkpt>
      <trkpt lat="45.42007" lon="4.50698">
        <ele>642</ele>
        <time>2015-04-19T07:04:17Z</time>
      </trkpt>
      <trkpt lat="45.42002" lon="4.50695">
        <ele>642</ele>
        <time>2015-04-19T07:04:20Z</time>
      </trkpt>
      <trkpt lat="45.41995" lon="4.50692">
        <ele>642</ele>
        <time>2015-04-19T07:04:23Z</time>
      </trkpt>
      <trkpt lat="45.41987" lon="4.50689">
        <ele>644</ele>
        <time>2015-04-19T07:04:26Z</time>
      </trkpt>
      <trkpt lat="45.4198" lon="4.50685">
        <ele>644</ele>
        <time>2015-04-19T07:04:29Z</time>
      </trkpt>
      <trkpt lat="45.41973" lon="4.50681">
        <ele>645</ele>
        <time>2015-04-19T07:04:32Z</time>
      </trkpt>
      <trkpt lat="45.41967" lon="4.50677">
        <ele>645</ele>
        <time>2015-04-19T07:04:35Z</time>
      </trkpt>
      <trkpt lat="45.41963" lon="4.50674">
        <ele>645</ele>
        <time>2015-04-19T07:04:37Z</time>
      </trkpt>
      <trkpt lat="45.41956" lon="4.50671">
        <ele>646</ele>
        <time>2015-04-19T07:04:40Z</time>
      </trkpt>
      <trkpt lat="45.41951" lon="4.5067">
        <ele>646</ele>
        <time>2015-04-19T07:04:42Z</time>
      </trkpt>
      <trkpt lat="45.41944" lon="4.50667">
        <ele>647</ele>
        <time>2015-04-19T07:04:45Z</time>
      </trkpt>
      <trkpt lat="45.4194" lon="4.50665">
        <ele>647</ele>
        <time>2015-04-19T07:04:47Z</time>
      </trkpt>
      <trkpt lat="45.41935" lon="4.50664">
        <ele>648</ele>
        <time>2015-04-19T07:04:49Z</time>
      </trkpt>
      <trkpt lat="45.4193" lon="4.50663">
        <ele>648</ele>
        <time>2015-04-19T07:04:51Z</time>
      </trkpt>
      <trkpt lat="45.41926" lon="4.50662">
        <ele>649</ele>
        <time>2015-04-19T07:04:53Z</time>
      </trkpt>
      <trkpt lat="45.41919" lon="4.5066">
        <ele>649</ele>
        <time>2015-04-19T07:04:56Z</time>
      </trkpt>
      <trkpt lat="45.41911" lon="4.5066">
        <ele>650</ele>
        <time>2015-04-19T07:04:59Z</time>
      </trkpt>
      <trkpt lat="45.41906" lon="4.5066">
        <ele>650</ele>
        <time>2015-04-19T07:05:01Z</time>
      </trkpt>
      <trkpt lat="45.41898" lon="4.5066">
        <ele>651</ele>
        <time>2015-04-19T07:05:04Z</time>
      </trkpt>
      <trkpt lat="45.41893" lon="4.50661">
        <ele>651</ele>
        <time>2015-04-19T07:05:06Z</time>
      </trkpt>
      <trkpt lat="45.41888" lon="4.50661">
        <ele>651</ele>
        <time>2015-04-19T07:05:08Z</time>
      </trkpt>
      <trkpt lat="45.41881" lon="4.50662">
        <ele>651</ele>
        <time>2015-04-19T07:05:11Z</time>
      </trkpt>
      <trkpt lat="45.41874" lon="4.50664">
        <ele>651</ele>
        <time>2015-04-19T07:05:14Z</time>
      </trkpt>
      <trkpt lat="45.41868" lon="4.50666">
        <ele>652</ele>
        <time>2015-04-19T07:05:17Z</time>
      </trkpt>
      <trkpt lat="45.41863" lon="4.50667">
        <ele>652</ele>
        <time>2015-04-19T07:05:19Z</time>
      </trkpt>
      <trkpt lat="45.41859" lon="4.50668">
        <ele>652</ele>
        <time>2015-04-19T07:05:21Z</time>
      </trkpt>
      <trkpt lat="45.41852" lon="4.50667">
        <ele>652</ele>
        <time>2015-04-19T07:05:24Z</time>
      </trkpt>
      <trkpt lat="45.41846" lon="4.50668">
        <ele>652</ele>
        <time>2015-04-19T07:05:27Z</time>
      </trkpt>
      <trkpt lat="45.41839" lon="4.50668">
        <ele>653</ele>
        <time>2015-04-19T07:05:30Z</time>
      </trkpt>
      <trkpt lat="45.41836" lon="4.50668">
        <ele>654</ele>
        <time>2015-04-19T07:05:32Z</time>
      </trkpt>
      <trkpt lat="45.41832" lon="4.50668">
        <ele>654</ele>
        <time>2015-04-19T07:05:34Z</time>
      </trkpt>
      <trkpt lat="45.41828" lon="4.50668">
        <ele>654</ele>
        <time>2015-04-19T07:05:36Z</time>
      </trkpt>
      <trkpt lat="45.41822" lon="4.50668">
        <ele>655</ele>
        <time>2015-04-19T07:05:39Z</time>
      </trkpt>
      <trkpt lat="45.41819" lon="4.50668">
        <ele>655</ele>
        <time>2015-04-19T07:05:41Z</time>
      </trkpt>
      <trkpt lat="45.41814" lon="4.50667">
        <ele>656</ele>
        <time>2015-04-19T07:05:44Z</time>
      </trkpt>
      <trkpt lat="45.41808" lon="4.50667">
        <ele>657</ele>
        <time>2015-04-19T07:05:47Z</time>
      </trkpt>
      <trkpt lat="45.41804" lon="4.50667">
        <ele>658</ele>
        <time>2015-04-19T07:05:49Z</time>
      </trkpt>
      <trkpt lat="45.41797" lon="4.50667">
        <ele>659</ele>
        <time>2015-04-19T07:05:52Z</time>
      </trkpt>
      <trkpt lat="45.41793" lon="4.50668">
        <ele>660</ele>
        <time>2015-04-19T07:05:54Z</time>
      </trkpt>
      <trkpt lat="45.41788" lon="4.50669">
        <ele>660</ele>
        <time>2015-04-19T07:05:56Z</time>
      </trkpt>
      <trkpt lat="45.41783" lon="4.50669">
        <ele>661</ele>
        <time>2015-04-19T07:05:59Z</time>
      </trkpt>
      <trkpt lat="45.41779" lon="4.5067">
        <ele>661</ele>
        <time>2015-04-19T07:06:01Z</time>
      </trkpt>
      <trkpt lat="45.41774" lon="4.50671">
        <ele>661</ele>
        <time>2015-04-19T07:06:03Z</time>
      </trkpt>
      <trkpt lat="45.41766" lon="4.50673">
        <ele>662</ele>
        <time>2015-04-19T07:06:06Z</time>
      </trkpt>
      <trkpt lat="45.41759" lon="4.50675">
        <ele>662</ele>
        <time>2015-04-19T07:06:09Z</time>
      </trkpt>
      <trkpt lat="45.41755" lon="4.50675">
        <ele>663</ele>
        <time>2015-04-19T07:06:11Z</time>
      </trkpt>
      <trkpt lat="45.41749" lon="4.50675">
        <ele>664</ele>
        <time>2015-04-19T07:06:14Z</time>
      </trkpt>
      <trkpt lat="45.41744" lon="4.50676">
        <ele>664</ele>
        <time>2015-04-19T07:06:16Z</time>
      </trkpt>
      <trkpt lat="45.41737" lon="4.50677">
        <ele>664</ele>
        <time>2015-04-19T07:06:19Z</time>
      </trkpt>
      <trkpt lat="45.4173" lon="4.50678">
        <ele>665</ele>
        <time>2015-04-19T07:06:22Z</time>
      </trkpt>
      <trkpt lat="45.41726" lon="4.50678">
        <ele>666</ele>
        <time>2015-04-19T07:06:24Z</time>
      </trkpt>
      <trkpt lat="45.41721" lon="4.50678">
        <ele>667</ele>
        <time>2015-04-19T07:06:26Z</time>
      </trkpt>
      <trkpt lat="45.41717" lon="4.50677">
        <ele>667</ele>
        <time>2015-04-19T07:06:28Z</time>
      </trkpt>
      <trkpt lat="45.4171" lon="4.50676">
        <ele>667</ele>
        <time>2015-04-19T07:06:31Z</time>
      </trkpt>
      <trkpt lat="45.41706" lon="4.50675">
        <ele>668</ele>
        <time>2015-04-19T07:06:33Z</time>
      </trkpt>
      <trkpt lat="45.41702" lon="4.50672">
        <ele>669</ele>
        <time>2015-04-19T07:06:35Z</time>
      </trkpt>
      <trkpt lat="45.41694" lon="4.50669">
        <ele>669</ele>
        <time>2015-04-19T07:06:38Z</time>
      </trkpt>
      <trkpt lat="45.4169" lon="4.50667">
        <ele>670</ele>
        <time>2015-04-19T07:06:40Z</time>
      </trkpt>
      <trkpt lat="45.41684" lon="4.50663">
        <ele>670</ele>
        <time>2015-04-19T07:06:43Z</time>
      </trkpt>
      <trkpt lat="45.41677" lon="4.5066">
        <ele>671</ele>
        <time>2015-04-19T07:06:46Z</time>
      </trkpt>
      <trkpt lat="45.41673" lon="4.50659">
        <ele>671</ele>
        <time>2015-04-19T07:06:48Z</time>
      </trkpt>
      <trkpt lat="45.41666" lon="4.50656">
        <ele>672</ele>
        <time>2015-04-19T07:06:51Z</time>
      </trkpt>
      <trkpt lat="45.41662" lon="4.50653">
        <ele>672</ele>
        <time>2015-04-19T07:06:53Z</time>
      </trkpt>
      <trkpt lat="45.41656" lon="4.50647">
        <ele>673</ele>
        <time>2015-04-19T07:06:56Z</time>
      </trkpt>
      <trkpt lat="45.4165" lon="4.50643">
        <ele>673</ele>
        <time>2015-04-19T07:06:59Z</time>
      </trkpt>
      <trkpt lat="45.41643" lon="4.50638">
        <ele>674</ele>
        <time>2015-04-19T07:07:02Z</time>
      </trkpt>
      <trkpt lat="45.41637" lon="4.50634">
        <ele>674</ele>
        <time>2015-04-19T07:07:05Z</time>
      </trkpt>
      <trkpt lat="45.4163" lon="4.5063">
        <ele>674</ele>
        <time>2015-04-19T07:07:08Z</time>
      </trkpt>
      <trkpt lat="45.41626" lon="4.50626">
        <ele>675</ele>
        <time>2015-04-19T07:07:10Z</time>
      </trkpt>
      <trkpt lat="45.41622" lon="4.50622">
        <ele>675</ele>
        <time>2015-04-19T07:07:12Z</time>
      </trkpt>
      <trkpt lat="45.41616" lon="4.50617">
        <ele>675</ele>
        <time>2015-04-19T07:07:15Z</time>
      </trkpt>
      <trkpt lat="45.4161" lon="4.50612">
        <ele>675</ele>
        <time>2015-04-19T07:07:18Z</time>
      </trkpt>
      <trkpt lat="45.41604" lon="4.50607">
        <ele>676</ele>
        <time>2015-04-19T07:07:21Z</time>
      </trkpt>
      <trkpt lat="45.41597" lon="4.50602">
        <ele>676</ele>
        <time>2015-04-19T07:07:24Z</time>
      </trkpt>
      <trkpt lat="45.41591" lon="4.50597">
        <ele>676</ele>
        <time>2015-04-19T07:07:27Z</time>
      </trkpt>
      <trkpt lat="45.41585" lon="4.50593">
        <ele>676</ele>
        <time>2015-04-19T07:07:30Z</time>
      </trkpt>
      <trkpt lat="45.41579" lon="4.50587">
        <ele>676</ele>
        <time>2015-04-19T07:07:33Z</time>
      </trkpt>
      <trkpt lat="45.41574" lon="4.50584">
        <ele>677</ele>
        <time>2015-04-19T07:07:35Z</time>
      </trkpt>
      <trkpt lat="45.4157" lon="4.50581">
        <ele>677</ele>
        <time>2015-04-19T07:07:37Z</time>
      </trkpt>
      <trkpt lat="45.41564" lon="4.50576">
        <ele>677</ele>
        <time>2015-04-19T07:07:40Z</time>
      </trkpt>
      <trkpt lat="45.41558" lon="4.5057">
        <ele>677</ele>
        <time>2015-04-19T07:07:43Z</time>
      </trkpt>
      <trkpt lat="45.41555" lon="4.50566">
        <ele>677</ele>
        <time>2015-04-19T07:07:45Z</time>
      </trkpt>
      <trkpt lat="45.41549" lon="4.5056">
        <ele>678</ele>
        <time>2015-04-19T07:07:48Z</time>
      </trkpt>
      <trkpt lat="45.41544" lon="4.50553">
        <ele>678</ele>
        <time>2015-04-19T07:07:51Z</time>
      </trkpt>
      <trkpt lat="45.41543" lon="4.50546">
        <ele>679</ele>
        <time>2015-04-19T07:07:54Z</time>
      </trkpt>
      <trkpt lat="45.41547" lon="4.50547">
        <ele>679</ele>
        <time>2015-04-19T07:07:56Z</time>
      </trkpt>
      <trkpt lat="45.41552" lon="4.5055">
        <ele>680</ele>
        <time>2015-04-19T07:07:59Z</time>
      </trkpt>
      <trkpt lat="45.41557" lon="4.50553">
        <ele>681</ele>
        <time>2015-04-19T07:08:02Z</time>
      </trkpt>
      <trkpt lat="45.4156" lon="4.50554">
        <ele>681</ele>
        <time>2015-04-19T07:08:04Z</time>
      </trkpt>
      <trkpt lat="45.41567" lon="4.50556">
        <ele>682</ele>
        <time>2015-04-19T07:08:07Z</time>
      </trkpt>
      <trkpt lat="45.41573" lon="4.50556">
        <ele>683</ele>
        <time>2015-04-19T07:08:10Z</time>
      </trkpt>
      <trkpt lat="45.41577" lon="4.50557">
        <ele>683</ele>
        <time>2015-04-19T07:08:12Z</time>
      </trkpt>
      <trkpt lat="45.41583" lon="4.50558">
        <ele>684</ele>
        <time>2015-04-19T07:08:15Z</time>
      </trkpt>
      <trkpt lat="45.41586" lon="4.50557">
        <ele>685</ele>
        <time>2015-04-19T07:08:17Z</time>
      </trkpt>
      <trkpt lat="45.41589" lon="4.50558">
        <ele>685</ele>
        <time>2015-04-19T07:08:19Z</time>
      </trkpt>
      <trkpt lat="45.41592" lon="4.50559">
        <ele>685</ele>
        <time>2015-04-19T07:08:22Z</time>
      </trkpt>
      <trkpt lat="45.41595" lon="4.50561">
        <ele>686</ele>
        <time>2015-04-19T07:08:24Z</time>
      </trkpt>
      <trkpt lat="45.41599" lon="4.50562">
        <ele>686</ele>
        <time>2015-04-19T07:08:27Z</time>
      </trkpt>
      <trkpt lat="45.41604" lon="4.50563">
        <ele>687</ele>
        <time>2015-04-19T07:08:30Z</time>
      </trkpt>
      <trkpt lat="45.41608" lon="4.50565">
        <ele>687</ele>
        <time>2015-04-19T07:08:33Z</time>
      </trkpt>
      <trkpt lat="45.41611" lon="4.50566">
        <ele>688</ele>
        <time>2015-04-19T07:08:35Z</time>
      </trkpt>
      <trkpt lat="45.41614" lon="4.50567">
        <ele>688</ele>
        <time>2015-04-19T07:08:37Z</time>
      </trkpt>
      <trkpt lat="45.41617" lon="4.50568">
        <ele>688</ele>
        <time>2015-04-19T07:08:39Z</time>
      </trkpt>
      <trkpt lat="45.41621" lon="4.50569">
        <ele>688</ele>
        <time>2015-04-19T07:08:42Z</time>
      </trkpt>
      <trkpt lat="45.41623" lon="4.50569">
        <ele>689</ele>
        <time>2015-04-19T07:08:44Z</time>
      </trkpt>
      <trkpt lat="45.41627" lon="4.50571">
        <ele>690</ele>
        <time>2015-04-19T07:08:47Z</time>
      </trkpt>
      <trkpt lat="45.4163" lon="4.50572">
        <ele>690</ele>
        <time>2015-04-19T07:08:49Z</time>
      </trkpt>
      <trkpt lat="45.41633" lon="4.50572">
        <ele>690</ele>
        <time>2015-04-19T07:08:51Z</time>
      </trkpt>
      <trkpt lat="45.41637" lon="4.50573">
        <ele>690</ele>
        <time>2015-04-19T07:08:54Z</time>
      </trkpt>
      <trkpt lat="45.4164" lon="4.50574">
        <ele>691</ele>
        <time>2015-04-19T07:08:56Z</time>
      </trkpt>
      <trkpt lat="45.41644" lon="4.50575">
        <ele>692</ele>
        <time>2015-04-19T07:08:59Z</time>
      </trkpt>
      <trkpt lat="45.41648" lon="4.50575">
        <ele>692</ele>
        <time>2015-04-19T07:09:02Z</time>
      </trkpt>
      <trkpt lat="45.41653" lon="4.50577">
        <ele>692</ele>
        <time>2015-04-19T07:09:05Z</time>
      </trkpt>
      <trkpt lat="45.41656" lon="4.50577">
        <ele>693</ele>
        <time>2015-04-19T07:09:08Z</time>
      </trkpt>
      <trkpt lat="45.4166" lon="4.50578">
        <ele>693</ele>
        <time>2015-04-19T07:09:11Z</time>
      </trkpt>
      <trkpt lat="45.41663" lon="4.50579">
        <ele>693</ele>
        <time>2015-04-19T07:09:13Z</time>
      </trkpt>
      <trkpt lat="45.41667" lon="4.5058">
        <ele>694</ele>
        <time>2015-04-19T07:09:16Z</time>
      </trkpt>
      <trkpt lat="45.41671" lon="4.5058">
        <ele>694</ele>
        <time>2015-04-19T07:09:19Z</time>
      </trkpt>
      <trkpt lat="45.41673" lon="4.5058">
        <ele>695</ele>
        <time>2015-04-19T07:09:21Z</time>
      </trkpt>
      <trkpt lat="45.41676" lon="4.50579">
        <ele>696</ele>
        <time>2015-04-19T07:09:23Z</time>
      </trkpt>
      <trkpt lat="45.41679" lon="4.50579">
        <ele>696</ele>
        <time>2015-04-19T07:09:25Z</time>
      </trkpt>
      <trkpt lat="45.41682" lon="4.50579">
        <ele>697</ele>
        <time>2015-04-19T07:09:27Z</time>
      </trkpt>
      <trkpt lat="45.41684" lon="4.50579">
        <ele>697</ele>
        <time>2015-04-19T07:09:29Z</time>
      </trkpt>
      <trkpt lat="45.41687" lon="4.50578">
        <ele>697</ele>
        <time>2015-04-19T07:09:31Z</time>
      </trkpt>
      <trkpt lat="45.41691" lon="4.50579">
        <ele>698</ele>
        <time>2015-04-19T07:09:34Z</time>
      </trkpt>
      <trkpt lat="45.41695" lon="4.5058">
        <ele>698</ele>
        <time>2015-04-19T07:09:37Z</time>
      </trkpt>
      <trkpt lat="45.41699" lon="4.5058">
        <ele>698</ele>
        <time>2015-04-19T07:09:40Z</time>
      </trkpt>
      <trkpt lat="45.41703" lon="4.50578">
        <ele>699</ele>
        <time>2015-04-19T07:09:43Z</time>
      </trkpt>
      <trkpt lat="45.41705" lon="4.50577">
        <ele>699</ele>
        <time>2015-04-19T07:09:45Z</time>
      </trkpt>
      <trkpt lat="45.41706" lon="4.50575">
        <ele>700</ele>
        <time>2015-04-19T07:09:47Z</time>
      </trkpt>
      <trkpt lat="45.41705" lon="4.50571">
        <ele>701</ele>
        <time>2015-04-19T07:09:50Z</time>
      </trkpt>
      <trkpt lat="45.41702" lon="4.50568">
        <ele>701</ele>
        <time>2015-04-19T07:09:53Z</time>
      </trkpt>
      <trkpt lat="45.41698" lon="4.50565">
        <ele>701</ele>
        <time>2015-04-19T07:09:56Z</time>
      </trkpt>
      <trkpt lat="45.41692" lon="4.50563">
        <ele>702</ele>
        <time>2015-04-19T07:09:59Z</time>
      </trkpt>
      <trkpt lat="45.41687" lon="4.50562">
        <ele>702</ele>
        <time>2015-04-19T07:10:01Z</time>
      </trkpt>
      <trkpt lat="45.4168" lon="4.50561">
        <ele>702</ele>
        <time>2015-04-19T07:10:04Z</time>
      </trkpt>
      <trkpt lat="45.41675" lon="4.50559">
        <ele>703</ele>
        <time>2015-04-19T07:10:06Z</time>
      </trkpt>
      <trkpt lat="45.41669" lon="4.50556">
        <ele>703</ele>
        <time>2015-04-19T07:10:09Z</time>
      </trkpt>
      <trkpt lat="45.41665" lon="4.50553">
        <ele>703</ele>
        <time>2015-04-19T07:10:11Z</time>
      </trkpt>
      <trkpt lat="45.41661" lon="4.5055">
        <ele>704</ele>
        <time>2015-04-19T07:10:13Z</time>
      </trkpt>
      <trkpt lat="45.41655" lon="4.50545">
        <ele>704</ele>
        <time>2015-04-19T07:10:16Z</time>
      </trkpt>
      <trkpt lat="45.41649" lon="4.50539">
        <ele>705</ele>
        <time>2015-04-19T07:10:19Z</time>
      </trkpt>
      <trkpt lat="45.41646" lon="4.50536">
        <ele>705</ele>
        <time>2015-04-19T07:10:21Z</time>
      </trkpt>
      <trkpt lat="45.41641" lon="4.50531">
        <ele>705</ele>
        <time>2015-04-19T07:10:24Z</time>
      </trkpt>
      <trkpt lat="45.41637" lon="4.50526">
        <ele>706</ele>
        <time>2015-04-19T07:10:26Z</time>
      </trkpt>
      <trkpt lat="45.41633" lon="4.5052">
        <ele>706</ele>
        <time>2015-04-19T07:10:29Z</time>
      </trkpt>
      <trkpt lat="45.41629" lon="4.50514">
        <ele>707</ele>
        <time>2015-04-19T07:10:32Z</time>
      </trkpt>
      <trkpt lat="45.41625" lon="4.50506">
        <ele>707</ele>
        <time>2015-04-19T07:10:35Z</time>
      </trkpt>
      <trkpt lat="45.41621" lon="4.50498">
        <ele>708</ele>
        <time>2015-04-19T07:10:38Z</time>
      </trkpt>
      <trkpt lat="45.41618" lon="4.5049">
        <ele>709</ele>
        <time>2015-04-19T07:10:41Z</time>
      </trkpt>
      <trkpt lat="45.41617" lon="4.50485">
        <ele>709</ele>
        <time>2015-04-19T07:10:43Z</time>
      </trkpt>
      <trkpt lat="45.41615" lon="4.50477">
        <ele>710</ele>
        <time>2015-04-19T07:10:46Z</time>
      </trkpt>
      <trkpt lat="45.41614" lon="4.50472">
        <ele>710</ele>
        <time>2015-04-19T07:10:48Z</time>
      </trkpt>
      <trkpt lat="45.41613" lon="4.50464">
        <ele>711</ele>
        <time>2015-04-19T07:10:51Z</time>
      </trkpt>
      <trkpt lat="45.41614" lon="4.50459">
        <ele>712</ele>
        <time>2015-04-19T07:10:53Z</time>
      </trkpt>
      <trkpt lat="45.41614" lon="4.50454">
        <ele>712</ele>
        <time>2015-04-19T07:10:55Z</time>
      </trkpt>
      <trkpt lat="45.41614" lon="4.50445">
        <ele>712</ele>
        <time>2015-04-19T07:10:58Z</time>
      </trkpt>
      <trkpt lat="45.41615" lon="4.50439">
        <ele>713</ele>
        <time>2015-04-19T07:11:00Z</time>
      </trkpt>
      <trkpt lat="45.41617" lon="4.50431">
        <ele>713</ele>
        <time>2015-04-19T07:11:03Z</time>
      </trkpt>
      <trkpt lat="45.41618" lon="4.50425">
        <ele>714</ele>
        <time>2015-04-19T07:11:05Z</time>
      </trkpt>
      <trkpt lat="45.41618" lon="4.5042">
        <ele>714</ele>
        <time>2015-04-19T07:11:07Z</time>
      </trkpt>
      <trkpt lat="45.41619" lon="4.50412">
        <ele>715</ele>
        <time>2015-04-19T07:11:10Z</time>
      </trkpt>
      <trkpt lat="45.41619" lon="4.50406">
        <ele>715</ele>
        <time>2015-04-19T07:11:12Z</time>
      </trkpt>
      <trkpt lat="45.4162" lon="4.504">
        <ele>715</ele>
        <time>2015-04-19T07:11:14Z</time>
      </trkpt>
      <trkpt lat="45.41621" lon="4.50392">
        <ele>716</ele>
        <time>2015-04-19T07:11:17Z</time>
      </trkpt>
      <trkpt lat="45.41622" lon="4.50383">
        <ele>716</ele>
        <time>2015-04-19T07:11:20Z</time>
      </trkpt>
      <trkpt lat="45.41623" lon="4.50378">
        <ele>717</ele>
        <time>2015-04-19T07:11:22Z</time>
      </trkpt>
      <trkpt lat="45.41624" lon="4.50369">
        <ele>717</ele>
        <time>2015-04-19T07:11:25Z</time>
      </trkpt>
      <trkpt lat="45.41624" lon="4.50361">
        <ele>718</ele>
        <time>2015-04-19T07:11:28Z</time>
      </trkpt>
      <trkpt lat="45.41625" lon="4.50354">
        <ele>719</ele>
        <time>2015-04-19T07:11:30Z</time>
      </trkpt>
      <trkpt lat="45.41626" lon="4.50346">
        <ele>719</ele>
        <time>2015-04-19T07:11:33Z</time>
      </trkpt>
      <trkpt lat="45.41628" lon="4.50337">
        <ele>720</ele>
        <time>2015-04-19T07:11:36Z</time>
      </trkpt>
      <trkpt lat="45.41629" lon="4.50329">
        <ele>720</ele>
        <time>2015-04-19T07:11:39Z</time>
      </trkpt>
      <trkpt lat="45.4163" lon="4.50323">
        <ele>720</ele>
        <time>2015-04-19T07:11:41Z</time>
      </trkpt>
      <trkpt lat="45.41632" lon="4.50319">
        <ele>721</ele>
        <time>2015-04-19T07:11:43Z</time>
      </trkpt>
      <trkpt lat="45.41633" lon="4.50314">
        <ele>721</ele>
        <time>2015-04-19T07:11:45Z</time>
      </trkpt>
      <trkpt lat="45.41635" lon="4.50307">
        <ele>722</ele>
        <time>2015-04-19T07:11:48Z</time>
      </trkpt>
      <trkpt lat="45.41637" lon="4.50302">
        <ele>722</ele>
        <time>2015-04-19T07:11:50Z</time>
      </trkpt>
      <trkpt lat="45.41638" lon="4.50298">
        <ele>722</ele>
        <time>2015-04-19T07:11:52Z</time>
      </trkpt>
      <trkpt lat="45.41639" lon="4.50293">
        <ele>722</ele>
        <time>2015-04-19T07:11:54Z</time>
      </trkpt>
      <trkpt lat="45.41641" lon="4.50288">
        <ele>722</ele>
        <time>2015-04-19T07:11:56Z</time>
      </trkpt>
      <trkpt lat="45.41643" lon="4.50281">
        <ele>723</ele>
        <time>2015-04-19T07:11:59Z</time>
      </trkpt>
      <trkpt lat="45.41644" lon="4.50277">
        <ele>723</ele>
        <time>2015-04-19T07:12:01Z</time>
      </trkpt>
      <trkpt lat="45.41647" lon="4.5027">
        <ele>724</ele>
        <time>2015-04-19T07:12:04Z</time>
      </trkpt>
      <trkpt lat="45.41648" lon="4.50264">
        <ele>724</ele>
        <time>2015-04-19T07:12:06Z</time>
      </trkpt>
      <trkpt lat="45.41651" lon="4.50256">
        <ele>725</ele>
        <time>2015-04-19T07:12:09Z</time>
      </trkpt>
      <trkpt lat="45.41653" lon="4.50251">
        <ele>726</ele>
        <time>2015-04-19T07:12:11Z</time>
      </trkpt>
      <trkpt lat="45.41654" lon="4.50245">
        <ele>726</ele>
        <time>2015-04-19T07:12:13Z</time>
      </trkpt>
      <trkpt lat="45.41656" lon="4.50237">
        <ele>727</ele>
        <time>2015-04-19T07:12:16Z</time>
      </trkpt>
      <trkpt lat="45.41658" lon="4.50232">
        <ele>727</ele>
        <time>2015-04-19T07:12:18Z</time>
      </trkpt>
      <trkpt lat="45.41661" lon="4.50224">
        <ele>727</ele>
        <time>2015-04-19T07:12:21Z</time>
      </trkpt>
      <trkpt lat="45.41663" lon="4.50217">
        <ele>728</ele>
        <time>2015-04-19T07:12:24Z</time>
      </trkpt>
      <trkpt lat="45.41665" lon="4.50212">
        <ele>728</ele>
        <time>2015-04-19T07:12:26Z</time>
      </trkpt>
      <trkpt lat="45.41667" lon="4.50206">
        <ele>729</ele>
        <time>2015-04-19T07:12:29Z</time>
      </trkpt>
      <trkpt lat="45.41668" lon="4.50202">
        <ele>729</ele>
        <time>2015-04-19T07:12:31Z</time>
      </trkpt>
      <trkpt lat="45.4167" lon="4.50198">
        <ele>729</ele>
        <time>2015-04-19T07:12:33Z</time>
      </trkpt>
      <trkpt lat="45.41671" lon="4.50193">
        <ele>729</ele>
        <time>2015-04-19T07:12:35Z</time>
      </trkpt>
      <trkpt lat="45.41674" lon="4.50186">
        <ele>730</ele>
        <time>2015-04-19T07:12:38Z</time>
      </trkpt>
      <trkpt lat="45.41676" lon="4.50182">
        <ele>730</ele>
        <time>2015-04-19T07:12:40Z</time>
      </trkpt>
      <trkpt lat="45.41679" lon="4.50176">
        <ele>731</ele>
        <time>2015-04-19T07:12:43Z</time>
      </trkpt>
      <trkpt lat="45.41682" lon="4.5017">
        <ele>732</ele>
        <time>2015-04-19T07:12:46Z</time>
      </trkpt>
      <trkpt lat="45.41684" lon="4.50165">
        <ele>732</ele>
        <time>2015-04-19T07:12:48Z</time>
      </trkpt>
      <trkpt lat="45.41687" lon="4.50159">
        <ele>732</ele>
        <time>2015-04-19T07:12:51Z</time>
      </trkpt>
      <trkpt lat="45.41689" lon="4.50155">
        <ele>733</ele>
        <time>2015-04-19T07:12:53Z</time>
      </trkpt>
      <trkpt lat="45.41692" lon="4.50148">
        <ele>734</ele>
        <time>2015-04-19T07:12:56Z</time>
      </trkpt>
      <trkpt lat="45.41694" lon="4.50143">
        <ele>734</ele>
        <time>2015-04-19T07:12:58Z</time>
      </trkpt>
      <trkpt lat="45.41695" lon="4.50134">
        <ele>735</ele>
        <time>2015-04-19T07:13:01Z</time>
      </trkpt>
      <trkpt lat="45.41695" lon="4.50127">
        <ele>735</ele>
        <time>2015-04-19T07:13:03Z</time>
      </trkpt>
      <trkpt lat="45.41695" lon="4.50122">
        <ele>735</ele>
        <time>2015-04-19T07:13:05Z</time>
      </trkpt>
      <trkpt lat="45.41695" lon="4.50112">
        <ele>736</ele>
        <time>2015-04-19T07:13:08Z</time>
      </trkpt>
      <trkpt lat="45.41695" lon="4.50105">
        <ele>737</ele>
        <time>2015-04-19T07:13:10Z</time>
      </trkpt>
      <trkpt lat="45.41694" lon="4.50098">
        <ele>737</ele>
        <time>2015-04-19T07:13:12Z</time>
      </trkpt>
      <trkpt lat="45.41694" lon="4.50088">
        <ele>737</ele>
        <time>2015-04-19T07:13:15Z</time>
      </trkpt>
      <trkpt lat="45.41692" lon="4.50078">
        <ele>738</ele>
        <time>2015-04-19T07:13:18Z</time>
      </trkpt>
      <trkpt lat="45.41691" lon="4.50069">
        <ele>739</ele>
        <time>2015-04-19T07:13:21Z</time>
      </trkpt>
      <trkpt lat="45.41689" lon="4.5006">
        <ele>740</ele>
        <time>2015-04-19T07:13:24Z</time>
      </trkpt>
      <trkpt lat="45.41688" lon="4.50054">
        <ele>740</ele>
        <time>2015-04-19T07:13:26Z</time>
      </trkpt>
      <trkpt lat="45.41686" lon="4.50044">
        <ele>740</ele>
        <time>2015-04-19T07:13:29Z</time>
      </trkpt>
      <trkpt lat="45.41685" lon="4.50038">
        <ele>741</ele>
        <time>2015-04-19T07:13:31Z</time>
      </trkpt>
      <trkpt lat="45.41683" lon="4.50029">
        <ele>741</ele>
        <time>2015-04-19T07:13:34Z</time>
      </trkpt>
      <trkpt lat="45.41681" lon="4.50023">
        <ele>742</ele>
        <time>2015-04-19T07:13:36Z</time>
      </trkpt>
      <trkpt lat="45.41681" lon="4.50019">
        <ele>742</ele>
        <time>2015-04-19T07:13:38Z</time>
      </trkpt>
      <trkpt lat="45.4168" lon="4.50013">
        <ele>743</ele>
        <time>2015-04-19T07:13:41Z</time>
      </trkpt>
      <trkpt lat="45.41679" lon="4.50008">
        <ele>743</ele>
        <time>2015-04-19T07:13:44Z</time>
      </trkpt>
      <trkpt lat="45.41678" lon="4.50002">
        <ele>744</ele>
        <time>2015-04-19T07:13:47Z</time>
      </trkpt>
      <trkpt lat="45.41677" lon="4.49997">
        <ele>744</ele>
        <time>2015-04-19T07:13:50Z</time>
      </trkpt>
      <trkpt lat="45.41677" lon="4.49993">
        <ele>744</ele>
        <time>2015-04-19T07:13:52Z</time>
      </trkpt>
      <trkpt lat="45.41676" lon="4.49989">
        <ele>745</ele>
        <time>2015-04-19T07:13:54Z</time>
      </trkpt>
      <trkpt lat="45.41676" lon="4.49984">
        <ele>745</ele>
        <time>2015-04-19T07:13:57Z</time>
      </trkpt>
      <trkpt lat="45.41676" lon="4.4998">
        <ele>746</ele>
        <time>2015-04-19T07:13:59Z</time>
      </trkpt>
      <trkpt lat="45.41674" lon="4.49974">
        <ele>746</ele>
        <time>2015-04-19T07:14:02Z</time>
      </trkpt>
      <trkpt lat="45.41672" lon="4.49969">
        <ele>746</ele>
        <time>2015-04-19T07:14:05Z</time>
      </trkpt>
      <trkpt lat="45.41671" lon="4.49964">
        <ele>747</ele>
        <time>2015-04-19T07:14:08Z</time>
      </trkpt>
      <trkpt lat="45.41669" lon="4.4996">
        <ele>747</ele>
        <time>2015-04-19T07:14:10Z</time>
      </trkpt>
      <trkpt lat="45.41668" lon="4.49955">
        <ele>748</ele>
        <time>2015-04-19T07:14:13Z</time>
      </trkpt>
      <trkpt lat="45.41667" lon="4.49952">
        <ele>748</ele>
        <time>2015-04-19T07:14:15Z</time>
      </trkpt>
      <trkpt lat="45.41666" lon="4.49947">
        <ele>748</ele>
        <time>2015-04-19T07:14:18Z</time>
      </trkpt>
      <trkpt lat="45.41664" lon="4.49942">
        <ele>749</ele>
        <time>2015-04-19T07:14:21Z</time>
      </trkpt>
      <trkpt lat="45.41662" lon="4.49936">
        <ele>750</ele>
        <time>2015-04-19T07:14:24Z</time>
      </trkpt>
      <trkpt lat="45.4166" lon="4.49931">
        <ele>750</ele>
        <time>2015-04-19T07:14:27Z</time>
      </trkpt>
      <trkpt lat="45.41657" lon="4.49926">
        <ele>751</ele>
        <time>2015-04-19T07:14:30Z</time>
      </trkpt>
      <trkpt lat="45.41655" lon="4.49921">
        <ele>752</ele>
        <time>2015-04-19T07:14:33Z</time>
      </trkpt>
      <trkpt lat="45.41654" lon="4.49918">
        <ele>752</ele>
        <time>2015-04-19T07:14:35Z</time>
      </trkpt>
      <trkpt lat="45.41652" lon="4.49912">
        <ele>753</ele>
        <time>2015-04-19T07:14:38Z</time>
      </trkpt>
      <trkpt lat="45.4165" lon="4.49907">
        <ele>753</ele>
        <time>2015-04-19T07:14:41Z</time>
      </trkpt>
      <trkpt lat="45.41649" lon="4.49905">
        <ele>754</ele>
        <time>2015-04-19T07:14:43Z</time>
      </trkpt>
      <trkpt lat="45.41647" lon="4.49901">
        <ele>754</ele>
        <time>2015-04-19T07:14:45Z</time>
      </trkpt>
      <trkpt lat="45.41645" lon="4.49897">
        <ele>755</ele>
        <time>2015-04-19T07:14:48Z</time>
      </trkpt>
      <trkpt lat="45.41644" lon="4.49894">
        <ele>755</ele>
        <time>2015-04-19T07:14:50Z</time>
      </trkpt>
      <trkpt lat="45.41642" lon="4.4989">
        <ele>756</ele>
        <time>2015-04-19T07:14:53Z</time>
      </trkpt>
      <trkpt lat="45.4164" lon="4.49887">
        <ele>756</ele>
        <time>2015-04-19T07:14:55Z</time>
      </trkpt>
      <trkpt lat="45.41639" lon="4.49881">
        <ele>756</ele>
        <time>2015-04-19T07:14:58Z</time>
      </trkpt>
      <trkpt lat="45.41637" lon="4.49877">
        <ele>757</ele>
        <time>2015-04-19T07:15:00Z</time>
      </trkpt>
      <trkpt lat="45.41635" lon="4.49872">
        <ele>757</ele>
        <time>2015-04-19T07:15:03Z</time>
      </trkpt>
      <trkpt lat="45.41634" lon="4.49869">
        <ele>757</ele>
        <time>2015-04-19T07:15:05Z</time>
      </trkpt>
      <trkpt lat="45.41631" lon="4.49863">
        <ele>758</ele>
        <time>2015-04-19T07:15:08Z</time>
      </trkpt>
      <trkpt lat="45.41631" lon="4.4986">
        <ele>758</ele>
        <time>2015-04-19T07:15:10Z</time>
      </trkpt>
      <trkpt lat="45.41629" lon="4.49855">
        <ele>759</ele>
        <time>2015-04-19T07:15:13Z</time>
      </trkpt>
      <trkpt lat="45.41628" lon="4.49852">
        <ele>759</ele>
        <time>2015-04-19T07:15:15Z</time>
      </trkpt>
      <trkpt lat="45.41626" lon="4.49848">
        <ele>760</ele>
        <time>2015-04-19T07:15:18Z</time>
      </trkpt>
      <trkpt lat="45.41624" lon="4.49843">
        <ele>760</ele>
        <time>2015-04-19T07:15:21Z</time>
      </trkpt>
      <trkpt lat="45.41623" lon="4.4984">
        <ele>761</ele>
        <time>2015-04-19T07:15:23Z</time>
      </trkpt>
      <trkpt lat="45.41621" lon="4.49835">
        <ele>761</ele>
        <time>2015-04-19T07:15:26Z</time>
      </trkpt>
      <trkpt lat="45.41621" lon="4.49832">
        <ele>761</ele>
        <time>2015-04-19T07:15:28Z</time>
      </trkpt>
      <trkpt lat="45.41619" lon="4.49829">
        <ele>762</ele>
        <time>2015-04-19T07:15:30Z</time>
      </trkpt>
      <trkpt lat="45.41618" lon="4.49826">
        <ele>762</ele>
        <time>2015-04-19T07:15:32Z</time>
      </trkpt>
      <trkpt lat="45.41617" lon="4.49821">
        <ele>763</ele>
        <time>2015-04-19T07:15:35Z</time>
      </trkpt>
      <trkpt lat="45.41616" lon="4.49817">
        <ele>763</ele>
        <time>2015-04-19T07:15:37Z</time>
      </trkpt>
      <trkpt lat="45.41615" lon="4.49812">
        <ele>764</ele>
        <time>2015-04-19T07:15:40Z</time>
      </trkpt>
      <trkpt lat="45.41614" lon="4.49809">
        <ele>764</ele>
        <time>2015-04-19T07:15:42Z</time>
      </trkpt>
      <trkpt lat="45.41613" lon="4.49805">
        <ele>765</ele>
        <time>2015-04-19T07:15:44Z</time>
      </trkpt>
      <trkpt lat="45.41613" lon="4.49801">
        <ele>765</ele>
        <time>2015-04-19T07:15:46Z</time>
      </trkpt>
      <trkpt lat="45.4161" lon="4.49796">
        <ele>766</ele>
        <time>2015-04-19T07:15:49Z</time>
      </trkpt>
      <trkpt lat="45.41609" lon="4.49793">
        <ele>766</ele>
        <time>2015-04-19T07:15:51Z</time>
      </trkpt>
      <trkpt lat="45.41608" lon="4.4979">
        <ele>766</ele>
        <time>2015-04-19T07:15:53Z</time>
      </trkpt>
      <trkpt lat="45.41606" lon="4.49785">
        <ele>767</ele>
        <time>2015-04-19T07:15:56Z</time>
      </trkpt>
      <trkpt lat="45.41605" lon="4.49782">
        <ele>767</ele>
        <time>2015-04-19T07:15:58Z</time>
      </trkpt>
      <trkpt lat="45.41604" lon="4.49778">
        <ele>767</ele>
        <time>2015-04-19T07:16:00Z</time>
      </trkpt>
      <trkpt lat="45.41603" lon="4.49773">
        <ele>768</ele>
        <time>2015-04-19T07:16:03Z</time>
      </trkpt>
      <trkpt lat="45.41603" lon="4.4977">
        <ele>768</ele>
        <time>2015-04-19T07:16:05Z</time>
      </trkpt>
      <trkpt lat="45.41602" lon="4.49767">
        <ele>768</ele>
        <time>2015-04-19T07:16:07Z</time>
      </trkpt>
      <trkpt lat="45.41601" lon="4.49763">
        <ele>768</ele>
        <time>2015-04-19T07:16:09Z</time>
      </trkpt>
      <trkpt lat="45.416" lon="4.49758">
        <ele>769</ele>
        <time>2015-04-19T07:16:12Z</time>
      </trkpt>
      <trkpt lat="45.41598" lon="4.49753">
        <ele>770</ele>
        <time>2015-04-19T07:16:15Z</time>
      </trkpt>
      <trkpt lat="45.41594" lon="4.49748">
        <ele>770</ele>
        <time>2015-04-19T07:16:18Z</time>
      </trkpt>
      <trkpt lat="45.41593" lon="4.49745">
        <ele>770</ele>
        <time>2015-04-19T07:16:20Z</time>
      </trkpt>
      <trkpt lat="45.41592" lon="4.49742">
        <ele>771</ele>
        <time>2015-04-19T07:16:22Z</time>
      </trkpt>
      <trkpt lat="45.4159" lon="4.49738">
        <ele>771</ele>
        <time>2015-04-19T07:16:25Z</time>
      </trkpt>
      <trkpt lat="45.41589" lon="4.49735">
        <ele>772</ele>
        <time>2015-04-19T07:16:27Z</time>
      </trkpt>
      <trkpt lat="45.41587" lon="4.49729">
        <ele>772</ele>
        <time>2015-04-19T07:16:30Z</time>
      </trkpt>
      <trkpt lat="45.41585" lon="4.49727">
        <ele>772</ele>
        <time>2015-04-19T07:16:32Z</time>
      </trkpt>
      <trkpt lat="45.41582" lon="4.49722">
        <ele>773</ele>
        <time>2015-04-19T07:16:35Z</time>
      </trkpt>
      <trkpt lat="45.41579" lon="4.49717">
        <ele>774</ele>
        <time>2015-04-19T07:16:38Z</time>
      </trkpt>
      <trkpt lat="45.41574" lon="4.49711">
        <ele>775</ele>
        <time>2015-04-19T07:16:41Z</time>
      </trkpt>
      <trkpt lat="45.4157" lon="4.49703">
        <ele>775</ele>
        <time>2015-04-19T07:16:44Z</time>
      </trkpt>
      <trkpt lat="45.41563" lon="4.49697">
        <ele>775</ele>
        <time>2015-04-19T07:16:47Z</time>
      </trkpt>
      <trkpt lat="45.41557" lon="4.4969">
        <ele>775</ele>
        <time>2015-04-19T07:16:50Z</time>
      </trkpt>
      <trkpt lat="45.41553" lon="4.49685">
        <ele>776</ele>
        <time>2015-04-19T07:16:52Z</time>
      </trkpt>
      <trkpt lat="45.4155" lon="4.4968">
        <ele>776</ele>
        <time>2015-04-19T07:16:54Z</time>
      </trkpt>
      <trkpt lat="45.41543" lon="4.49673">
        <ele>776</ele>
        <time>2015-04-19T07:16:57Z</time>
      </trkpt>
      <trkpt lat="45.41537" lon="4.49667">
        <ele>776</ele>
        <time>2015-04-19T07:17:00Z</time>
      </trkpt>
      <trkpt lat="45.41533" lon="4.49663">
        <ele>776</ele>
        <time>2015-04-19T07:17:02Z</time>
      </trkpt>
      <trkpt lat="45.41529" lon="4.49658">
        <ele>775</ele>
        <time>2015-04-19T07:17:04Z</time>
      </trkpt>
      <trkpt lat="45.41524" lon="4.49652">
        <ele>775</ele>
        <time>2015-04-19T07:17:07Z</time>
      </trkpt>
      <trkpt lat="45.41521" lon="4.49647">
        <ele>775</ele>
        <time>2015-04-19T07:17:09Z</time>
      </trkpt>
      <trkpt lat="45.41519" lon="4.49642">
        <ele>775</ele>
        <time>2015-04-19T07:17:11Z</time>
      </trkpt>
      <trkpt lat="45.41515" lon="4.49636">
        <ele>775</ele>
        <time>2015-04-19T07:17:14Z</time>
      </trkpt>
      <trkpt lat="45.41512" lon="4.49631">
        <ele>775</ele>
        <time>2015-04-19T07:17:16Z</time>
      </trkpt>
      <trkpt lat="45.41509" lon="4.49625">
        <ele>775</ele>
        <time>2015-04-19T07:17:18Z</time>
      </trkpt>
      <trkpt lat="45.41506" lon="4.49621">
        <ele>775</ele>
        <time>2015-04-19T07:17:20Z</time>
      </trkpt>
      <trkpt lat="45.41502" lon="4.49615">
        <ele>775</ele>
        <time>2015-04-19T07:17:22Z</time>
      </trkpt>
      <trkpt lat="45.41497" lon="4.49606">
        <ele>775</ele>
        <time>2015-04-19T07:17:25Z</time>
      </trkpt>
      <trkpt lat="45.41493" lon="4.49601">
        <ele>775</ele>
        <time>2015-04-19T07:17:27Z</time>
      </trkpt>
      <trkpt lat="45.41487" lon="4.49594">
        <ele>774</ele>
        <time>2015-04-19T07:17:30Z</time>
      </trkpt>
      <trkpt lat="45.41481" lon="4.49587">
        <ele>774</ele>
        <time>2015-04-19T07:17:33Z</time>
      </trkpt>
      <trkpt lat="45.41476" lon="4.49583">
        <ele>774</ele>
        <time>2015-04-19T07:17:35Z</time>
      </trkpt>
      <trkpt lat="45.41471" lon="4.49577">
        <ele>774</ele>
        <time>2015-04-19T07:17:38Z</time>
      </trkpt>
      <trkpt lat="45.41467" lon="4.49574">
        <ele>773</ele>
        <time>2015-04-19T07:17:40Z</time>
      </trkpt>
      <trkpt lat="45.41464" lon="4.49569">
        <ele>772</ele>
        <time>2015-04-19T07:17:42Z</time>
      </trkpt>
      <trkpt lat="45.41461" lon="4.49566">
        <ele>772</ele>
        <time>2015-04-19T07:17:44Z</time>
      </trkpt>
      <trkpt lat="45.41459" lon="4.49562">
        <ele>772</ele>
        <time>2015-04-19T07:17:46Z</time>
      </trkpt>
      <trkpt lat="45.41457" lon="4.49556">
        <ele>773</ele>
        <time>2015-04-19T07:17:49Z</time>
      </trkpt>
      <trkpt lat="45.41454" lon="4.4955">
        <ele>773</ele>
        <time>2015-04-19T07:17:52Z</time>
      </trkpt>
      <trkpt lat="45.41452" lon="4.49545">
        <ele>774</ele>
        <time>2015-04-19T07:17:54Z</time>
      </trkpt>
      <trkpt lat="45.41449" lon="4.4954">
        <ele>774</ele>
        <time>2015-04-19T07:17:56Z</time>
      </trkpt>
      <trkpt lat="45.41445" lon="4.49533">
        <ele>774</ele>
        <time>2015-04-19T07:17:59Z</time>
      </trkpt>
      <trkpt lat="45.41442" lon="4.49525">
        <ele>775</ele>
        <time>2015-04-19T07:18:02Z</time>
      </trkpt>
      <trkpt lat="45.41441" lon="4.4952">
        <ele>776</ele>
        <time>2015-04-19T07:18:04Z</time>
      </trkpt>
      <trkpt lat="45.41438" lon="4.49513">
        <ele>777</ele>
        <time>2015-04-19T07:18:07Z</time>
      </trkpt>
      <trkpt lat="45.41435" lon="4.49506">
        <ele>777</ele>
        <time>2015-04-19T07:18:10Z</time>
      </trkpt>
      <trkpt lat="45.41434" lon="4.49501">
        <ele>778</ele>
        <time>2015-04-19T07:18:12Z</time>
      </trkpt>
      <trkpt lat="45.41431" lon="4.49493">
        <ele>779</ele>
        <time>2015-04-19T07:18:15Z</time>
      </trkpt>
      <trkpt lat="45.41428" lon="4.49488">
        <ele>779</ele>
        <time>2015-04-19T07:18:17Z</time>
      </trkpt>
      <trkpt lat="45.41423" lon="4.49481">
        <ele>780</ele>
        <time>2015-04-19T07:18:20Z</time>
      </trkpt>
      <trkpt lat="45.4142" lon="4.49478">
        <ele>780</ele>
        <time>2015-04-19T07:18:22Z</time>
      </trkpt>
      <trkpt lat="45.41415" lon="4.49472">
        <ele>782</ele>
        <time>2015-04-19T07:18:25Z</time>
      </trkpt>
      <trkpt lat="45.41411" lon="4.49465">
        <ele>782</ele>
        <time>2015-04-19T07:18:28Z</time>
      </trkpt>
      <trkpt lat="45.41408" lon="4.49461">
        <ele>782</ele>
        <time>2015-04-19T07:18:30Z</time>
      </trkpt>
      <trkpt lat="45.41405" lon="4.49457">
        <ele>783</ele>
        <time>2015-04-19T07:18:32Z</time>
      </trkpt>
      <trkpt lat="45.414" lon="4.4945">
        <ele>783</ele>
        <time>2015-04-19T07:18:35Z</time>
      </trkpt>
      <trkpt lat="45.41397" lon="4.49445">
        <ele>783</ele>
        <time>2015-04-19T07:18:37Z</time>
      </trkpt>
      <trkpt lat="45.41394" lon="4.4944">
        <ele>783</ele>
        <time>2015-04-19T07:18:39Z</time>
      </trkpt>
      <trkpt lat="45.41391" lon="4.49433">
        <ele>784</ele>
        <time>2015-04-19T07:18:42Z</time>
      </trkpt>
      <trkpt lat="45.41387" lon="4.49427">
        <ele>784</ele>
        <time>2015-04-19T07:18:45Z</time>
      </trkpt>
      <trkpt lat="45.41385" lon="4.49423">
        <ele>785</ele>
        <time>2015-04-19T07:18:47Z</time>
      </trkpt>
      <trkpt lat="45.4138" lon="4.49417">
        <ele>785</ele>
        <time>2015-04-19T07:18:50Z</time>
      </trkpt>
      <trkpt lat="45.41377" lon="4.49412">
        <ele>786</ele>
        <time>2015-04-19T07:18:52Z</time>
      </trkpt>
      <trkpt lat="45.41371" lon="4.49403">
        <ele>786</ele>
        <time>2015-04-19T07:18:55Z</time>
      </trkpt>
      <trkpt lat="45.41365" lon="4.49394">
        <ele>786</ele>
        <time>2015-04-19T07:18:58Z</time>
      </trkpt>
      <trkpt lat="45.41359" lon="4.49385">
        <ele>786</ele>
        <time>2015-04-19T07:19:01Z</time>
      </trkpt>
      <trkpt lat="45.41355" lon="4.4938">
        <ele>786</ele>
        <time>2015-04-19T07:19:03Z</time>
      </trkpt>
      <trkpt lat="45.41351" lon="4.49376">
        <ele>786</ele>
        <time>2015-04-19T07:19:05Z</time>
      </trkpt>
      <trkpt lat="45.41345" lon="4.49369">
        <ele>786</ele>
        <time>2015-04-19T07:19:08Z</time>
      </trkpt>
      <trkpt lat="45.41341" lon="4.49364">
        <ele>786</ele>
        <time>2015-04-19T07:19:10Z</time>
      </trkpt>
      <trkpt lat="45.41336" lon="4.49361">
        <ele>786</ele>
        <time>2015-04-19T07:19:12Z</time>
      </trkpt>
      <trkpt lat="45.41332" lon="4.49356">
        <ele>786</ele>
        <time>2015-04-19T07:19:14Z</time>
      </trkpt>
      <trkpt lat="45.41328" lon="4.49351">
        <ele>786</ele>
        <time>2015-04-19T07:19:16Z</time>
      </trkpt>
      <trkpt lat="45.41323" lon="4.49345">
        <ele>785</ele>
        <time>2015-04-19T07:19:19Z</time>
      </trkpt>
      <trkpt lat="45.4132" lon="4.49342">
        <ele>785</ele>
        <time>2015-04-19T07:19:21Z</time>
      </trkpt>
      <trkpt lat="45.41315" lon="4.49338">
        <ele>784</ele>
        <time>2015-04-19T07:19:24Z</time>
      </trkpt>
      <trkpt lat="45.4131" lon="4.49335">
        <ele>784</ele>
        <time>2015-04-19T07:19:27Z</time>
      </trkpt>
      <trkpt lat="45.41306" lon="4.49334">
        <ele>784</ele>
        <time>2015-04-19T07:19:30Z</time>
      </trkpt>
      <trkpt lat="45.41301" lon="4.49335">
        <ele>784</ele>
        <time>2015-04-19T07:19:33Z</time>
      </trkpt>
      <trkpt lat="45.41298" lon="4.49336">
        <ele>785</ele>
        <time>2015-04-19T07:19:35Z</time>
      </trkpt>
      <trkpt lat="45.41294" lon="4.49337">
        <ele>785</ele>
        <time>2015-04-19T07:19:37Z</time>
      </trkpt>
      <trkpt lat="45.41288" lon="4.49338">
        <ele>785</ele>
        <time>2015-04-19T07:19:40Z</time>
      </trkpt>
      <trkpt lat="45.41283" lon="4.4934">
        <ele>785</ele>
        <time>2015-04-19T07:19:43Z</time>
      </trkpt>
      <trkpt lat="45.41279" lon="4.4934">
        <ele>786</ele>
        <time>2015-04-19T07:19:45Z</time>
      </trkpt>
      <trkpt lat="45.41275" lon="4.49341">
        <ele>787</ele>
        <time>2015-04-19T07:19:48Z</time>
      </trkpt>
      <trkpt lat="45.41269" lon="4.49341">
        <ele>788</ele>
        <time>2015-04-19T07:19:51Z</time>
      </trkpt>
      <trkpt lat="45.41264" lon="4.49342">
        <ele>789</ele>
        <time>2015-04-19T07:19:54Z</time>
      </trkpt>
      <trkpt lat="45.4126" lon="4.49343">
        <ele>789</ele>
        <time>2015-04-19T07:19:56Z</time>
      </trkpt>
      <trkpt lat="45.41254" lon="4.49344">
        <ele>790</ele>
        <time>2015-04-19T07:19:59Z</time>
      </trkpt>
      <trkpt lat="45.41247" lon="4.49346">
        <ele>791</ele>
        <time>2015-04-19T07:20:02Z</time>
      </trkpt>
      <trkpt lat="45.41243" lon="4.49347">
        <ele>791</ele>
        <time>2015-04-19T07:20:04Z</time>
      </trkpt>
      <trkpt lat="45.41238" lon="4.49347">
        <ele>791</ele>
        <time>2015-04-19T07:20:06Z</time>
      </trkpt>
      <trkpt lat="45.41233" lon="4.4935">
        <ele>792</ele>
        <time>2015-04-19T07:20:09Z</time>
      </trkpt>
      <trkpt lat="45.41228" lon="4.49352">
        <ele>793</ele>
        <time>2015-04-19T07:20:12Z</time>
      </trkpt>
      <trkpt lat="45.41223" lon="4.49352">
        <ele>794</ele>
        <time>2015-04-19T07:20:15Z</time>
      </trkpt>
      <trkpt lat="45.41216" lon="4.49354">
        <ele>794</ele>
        <time>2015-04-19T07:20:18Z</time>
      </trkpt>
      <trkpt lat="45.4121" lon="4.49356">
        <ele>795</ele>
        <time>2015-04-19T07:20:21Z</time>
      </trkpt>
      <trkpt lat="45.41206" lon="4.49357">
        <ele>796</ele>
        <time>2015-04-19T07:20:23Z</time>
      </trkpt>
      <trkpt lat="45.412" lon="4.49358">
        <ele>796</ele>
        <time>2015-04-19T07:20:26Z</time>
      </trkpt>
      <trkpt lat="45.41195" lon="4.4936">
        <ele>797</ele>
        <time>2015-04-19T07:20:29Z</time>
      </trkpt>
      <trkpt lat="45.41192" lon="4.49362">
        <ele>798</ele>
        <time>2015-04-19T07:20:31Z</time>
      </trkpt>
      <trkpt lat="45.41187" lon="4.49365">
        <ele>798</ele>
        <time>2015-04-19T07:20:33Z</time>
      </trkpt>
      <trkpt lat="45.41182" lon="4.49369">
        <ele>799</ele>
        <time>2015-04-19T07:20:36Z</time>
      </trkpt>
      <trkpt lat="45.41177" lon="4.49371">
        <ele>799</ele>
        <time>2015-04-19T07:20:39Z</time>
      </trkpt>
      <trkpt lat="45.41174" lon="4.49374">
        <ele>800</ele>
        <time>2015-04-19T07:20:42Z</time>
      </trkpt>
      <trkpt lat="45.41171" lon="4.49376">
        <ele>800</ele>
        <time>2015-04-19T07:20:44Z</time>
      </trkpt>
      <trkpt lat="45.41169" lon="4.49378">
        <ele>801</ele>
        <time>2015-04-19T07:20:46Z</time>
      </trkpt>
      <trkpt lat="45.41166" lon="4.4938">
        <ele>801</ele>
        <time>2015-04-19T07:20:49Z</time>
      </trkpt>
      <trkpt lat="45.41163" lon="4.49382">
        <ele>802</ele>
        <time>2015-04-19T07:20:52Z</time>
      </trkpt>
      <trkpt lat="45.41161" lon="4.49384">
        <ele>802</ele>
        <time>2015-04-19T07:20:54Z</time>
      </trkpt>
      <trkpt lat="45.41158" lon="4.49388">
        <ele>803</ele>
        <time>2015-04-19T07:20:57Z</time>
      </trkpt>
      <trkpt lat="45.41156" lon="4.4939">
        <ele>803</ele>
        <time>2015-04-19T07:20:59Z</time>
      </trkpt>
      <trkpt lat="45.41155" lon="4.49392">
        <ele>804</ele>
        <time>2015-04-19T07:21:01Z</time>
      </trkpt>
      <trkpt lat="45.41153" lon="4.49394">
        <ele>804</ele>
        <time>2015-04-19T07:21:03Z</time>
      </trkpt>
      <trkpt lat="45.4115" lon="4.49396">
        <ele>805</ele>
        <time>2015-04-19T07:21:06Z</time>
      </trkpt>
      <trkpt lat="45.41148" lon="4.49398">
        <ele>805</ele>
        <time>2015-04-19T07:21:08Z</time>
      </trkpt>
      <trkpt lat="45.41145" lon="4.494">
        <ele>807</ele>
        <time>2015-04-19T07:21:11Z</time>
      </trkpt>
      <trkpt lat="45.41142" lon="4.49402">
        <ele>807</ele>
        <time>2015-04-19T07:21:14Z</time>
      </trkpt>
      <trkpt lat="45.41139" lon="4.49404">
        <ele>808</ele>
        <time>2015-04-19T07:21:17Z</time>
      </trkpt>
      <trkpt lat="45.41137" lon="4.49406">
        <ele>808</ele>
        <time>2015-04-19T07:21:20Z</time>
      </trkpt>
      <trkpt lat="45.41136" lon="4.49407">
        <ele>808</ele>
        <time>2015-04-19T07:21:22Z</time>
      </trkpt>
      <trkpt lat="45.41133" lon="4.49409">
        <ele>809</ele>
        <time>2015-04-19T07:21:25Z</time>
      </trkpt>
      <trkpt lat="45.41132" lon="4.49411">
        <ele>810</ele>
        <time>2015-04-19T07:21:27Z</time>
      </trkpt>
      <trkpt lat="45.4113" lon="4.49412">
        <ele>811</ele>
        <time>2015-04-19T07:21:29Z</time>
      </trkpt>
      <trkpt lat="45.4113" lon="4.49414">
        <ele>811</ele>
        <time>2015-04-19T07:21:31Z</time>
      </trkpt>
      <trkpt lat="45.41128" lon="4.49417">
        <ele>812</ele>
        <time>2015-04-19T07:21:34Z</time>
      </trkpt>
      <trkpt lat="45.41127" lon="4.4942">
        <ele>813</ele>
        <time>2015-04-19T07:21:37Z</time>
      </trkpt>
      <trkpt lat="45.41127" lon="4.49423">
        <ele>813</ele>
        <time>2015-04-19T07:21:39Z</time>
      </trkpt>
      <trkpt lat="45.41126" lon="4.49426">
        <ele>814</ele>
        <time>2015-04-19T07:21:42Z</time>
      </trkpt>
      <trkpt lat="45.41124" lon="4.49428">
        <ele>815</ele>
        <time>2015-04-19T07:21:44Z</time>
      </trkpt>
      <trkpt lat="45.41123" lon="4.4943">
        <ele>815</ele>
        <time>2015-04-19T07:21:46Z</time>
      </trkpt>
      <trkpt lat="45.41122" lon="4.49433">
        <ele>816</ele>
        <time>2015-04-19T07:21:48Z</time>
      </trkpt>
      <trkpt lat="45.4112" lon="4.49436">
        <ele>816</ele>
        <time>2015-04-19T07:21:51Z</time>
      </trkpt>
      <trkpt lat="45.41118" lon="4.49438">
        <ele>817</ele>
        <time>2015-04-19T07:21:53Z</time>
      </trkpt>
      <trkpt lat="45.41117" lon="4.49441">
        <ele>817</ele>
        <time>2015-04-19T07:21:55Z</time>
      </trkpt>
      <trkpt lat="45.41116" lon="4.49443">
        <ele>818</ele>
        <time>2015-04-19T07:21:57Z</time>
      </trkpt>
      <trkpt lat="45.41116" lon="4.49444">
        <ele>818</ele>
        <time>2015-04-19T07:21:59Z</time>
      </trkpt>
      <trkpt lat="45.41114" lon="4.49448">
        <ele>819</ele>
        <time>2015-04-19T07:22:02Z</time>
      </trkpt>
      <trkpt lat="45.41114" lon="4.4945">
        <ele>820</ele>
        <time>2015-04-19T07:22:04Z</time>
      </trkpt>
      <trkpt lat="45.41112" lon="4.49453">
        <ele>820</ele>
        <time>2015-04-19T07:22:07Z</time>
      </trkpt>
      <trkpt lat="45.41111" lon="4.49455">
        <ele>820</ele>
        <time>2015-04-19T07:22:09Z</time>
      </trkpt>
      <trkpt lat="45.41109" lon="4.49456">
        <ele>821</ele>
        <time>2015-04-19T07:22:11Z</time>
      </trkpt>
      <trkpt lat="45.41108" lon="4.49459">
        <ele>822</ele>
        <time>2015-04-19T07:22:14Z</time>
      </trkpt>
      <trkpt lat="45.41107" lon="4.4946">
        <ele>822</ele>
        <time>2015-04-19T07:22:16Z</time>
      </trkpt>
      <trkpt lat="45.41106" lon="4.49463">
        <ele>823</ele>
        <time>2015-04-19T07:22:18Z</time>
      </trkpt>
      <trkpt lat="45.41103" lon="4.49465">
        <ele>823</ele>
        <time>2015-04-19T07:22:21Z</time>
      </trkpt>
      <trkpt lat="45.411" lon="4.49467">
        <ele>824</ele>
        <time>2015-04-19T07:22:24Z</time>
      </trkpt>
      <trkpt lat="45.41098" lon="4.49471">
        <ele>825</ele>
        <time>2015-04-19T07:22:27Z</time>
      </trkpt>
      <trkpt lat="45.41095" lon="4.49473">
        <ele>825</ele>
        <time>2015-04-19T07:22:29Z</time>
      </trkpt>
      <trkpt lat="45.41094" lon="4.49474">
        <ele>826</ele>
        <time>2015-04-19T07:22:31Z</time>
      </trkpt>
      <trkpt lat="45.41093" lon="4.49476">
        <ele>826</ele>
        <time>2015-04-19T07:22:33Z</time>
      </trkpt>
      <trkpt lat="45.4109" lon="4.4948">
        <ele>827</ele>
        <time>2015-04-19T07:22:36Z</time>
      </trkpt>
      <trkpt lat="45.41088" lon="4.49483">
        <ele>828</ele>
        <time>2015-04-19T07:22:39Z</time>
      </trkpt>
      <trkpt lat="45.41086" lon="4.49485">
        <ele>828</ele>
        <time>2015-04-19T07:22:41Z</time>
      </trkpt>
      <trkpt lat="45.41084" lon="4.49488">
        <ele>829</ele>
        <time>2015-04-19T07:22:43Z</time>
      </trkpt>
      <trkpt lat="45.4108" lon="4.4949">
        <ele>829</ele>
        <time>2015-04-19T07:22:46Z</time>
      </trkpt>
      <trkpt lat="45.41079" lon="4.49492">
        <ele>830</ele>
        <time>2015-04-19T07:22:48Z</time>
      </trkpt>
      <trkpt lat="45.41076" lon="4.49496">
        <ele>831</ele>
        <time>2015-04-19T07:22:51Z</time>
      </trkpt>
      <trkpt lat="45.41072" lon="4.49499">
        <ele>832</ele>
        <time>2015-04-19T07:22:54Z</time>
      </trkpt>
      <trkpt lat="45.41069" lon="4.49501">
        <ele>832</ele>
        <time>2015-04-19T07:22:57Z</time>
      </trkpt>
      <trkpt lat="45.41065" lon="4.49503">
        <ele>833</ele>
        <time>2015-04-19T07:23:00Z</time>
      </trkpt>
      <trkpt lat="45.41062" lon="4.49506">
        <ele>834</ele>
        <time>2015-04-19T07:23:03Z</time>
      </trkpt>
      <trkpt lat="45.4106" lon="4.49508">
        <ele>834</ele>
        <time>2015-04-19T07:23:05Z</time>
      </trkpt>
      <trkpt lat="45.41057" lon="4.4951">
        <ele>835</ele>
        <time>2015-04-19T07:23:07Z</time>
      </trkpt>
      <trkpt lat="45.41053" lon="4.49512">
        <ele>835</ele>
        <time>2015-04-19T07:23:10Z</time>
      </trkpt>
      <trkpt lat="45.4105" lon="4.49515">
        <ele>836</ele>
        <time>2015-04-19T07:23:13Z</time>
      </trkpt>
      <trkpt lat="45.41047" lon="4.49518">
        <ele>837</ele>
        <time>2015-04-19T07:23:16Z</time>
      </trkpt>
      <trkpt lat="45.41044" lon="4.4952">
        <ele>837</ele>
        <time>2015-04-19T07:23:18Z</time>
      </trkpt>
      <trkpt lat="45.4104" lon="4.49522">
        <ele>838</ele>
        <time>2015-04-19T07:23:21Z</time>
      </trkpt>
      <trkpt lat="45.41038" lon="4.49524">
        <ele>838</ele>
        <time>2015-04-19T07:23:23Z</time>
      </trkpt>
      <trkpt lat="45.41035" lon="4.49526">
        <ele>838</ele>
        <time>2015-04-19T07:23:25Z</time>
      </trkpt>
      <trkpt lat="45.41032" lon="4.49528">
        <ele>839</ele>
        <time>2015-04-19T07:23:28Z</time>
      </trkpt>
      <trkpt lat="45.4103" lon="4.4953">
        <ele>840</ele>
        <time>2015-04-19T07:23:30Z</time>
      </trkpt>
      <trkpt lat="45.41028" lon="4.49531">
        <ele>840</ele>
        <time>2015-04-19T07:23:32Z</time>
      </trkpt>
      <trkpt lat="45.41025" lon="4.49533">
        <ele>841</ele>
        <time>2015-04-19T07:23:34Z</time>
      </trkpt>
      <trkpt lat="45.41023" lon="4.49534">
        <ele>841</ele>
        <time>2015-04-19T07:23:36Z</time>
      </trkpt>
      <trkpt lat="45.4102" lon="4.49535">
        <ele>841</ele>
        <time>2015-04-19T07:23:38Z</time>
      </trkpt>
      <trkpt lat="45.41018" lon="4.49537">
        <ele>841</ele>
        <time>2015-04-19T07:23:40Z</time>
      </trkpt>
      <trkpt lat="45.41014" lon="4.49539">
        <ele>841</ele>
        <time>2015-04-19T07:23:43Z</time>
      </trkpt>
      <trkpt lat="45.41012" lon="4.49542">
        <ele>841</ele>
        <time>2015-04-19T07:23:45Z</time>
      </trkpt>
      <trkpt lat="45.41009" lon="4.49547">
        <ele>840</ele>
        <time>2015-04-19T07:23:48Z</time>
      </trkpt>
      <trkpt lat="45.41007" lon="4.49555">
        <ele>840</ele>
        <time>2015-04-19T07:23:51Z</time>
      </trkpt>
      <trkpt lat="45.41006" lon="4.49562">
        <ele>838</ele>
        <time>2015-04-19T07:23:54Z</time>
      </trkpt>
      <trkpt lat="45.41007" lon="4.49567">
        <ele>837</ele>
        <time>2015-04-19T07:23:56Z</time>
      </trkpt>
      <trkpt lat="45.41007" lon="4.49571">
        <ele>836</ele>
        <time>2015-04-19T07:23:58Z</time>
      </trkpt>
      <trkpt lat="45.41008" lon="4.49579">
        <ele>834</ele>
        <time>2015-04-19T07:24:01Z</time>
      </trkpt>
      <trkpt lat="45.41008" lon="4.49586">
        <ele>832</ele>
        <time>2015-04-19T07:24:04Z</time>
      </trkpt>
      <trkpt lat="45.41008" lon="4.49595">
        <ele>830</ele>
        <time>2015-04-19T07:24:07Z</time>
      </trkpt>
      <trkpt lat="45.41009" lon="4.49604">
        <ele>828</ele>
        <time>2015-04-19T07:24:10Z</time>
      </trkpt>
      <trkpt lat="45.4101" lon="4.49612">
        <ele>825</ele>
        <time>2015-04-19T07:24:13Z</time>
      </trkpt>
      <trkpt lat="45.41011" lon="4.4962">
        <ele>824</ele>
        <time>2015-04-19T07:24:16Z</time>
      </trkpt>
      <trkpt lat="45.41011" lon="4.49627">
        <ele>821</ele>
        <time>2015-04-19T07:24:19Z</time>
      </trkpt>
      <trkpt lat="45.41013" lon="4.49633">
        <ele>820</ele>
        <time>2015-04-19T07:24:21Z</time>
      </trkpt>
      <trkpt lat="45.41015" lon="4.4964">
        <ele>819</ele>
        <time>2015-04-19T07:24:24Z</time>
      </trkpt>
      <trkpt lat="45.41016" lon="4.49647">
        <ele>817</ele>
        <time>2015-04-19T07:24:27Z</time>
      </trkpt>
      <trkpt lat="45.41017" lon="4.49655">
        <ele>815</ele>
        <time>2015-04-19T07:24:30Z</time>
      </trkpt>
      <trkpt lat="45.41017" lon="4.4966">
        <ele>813</ele>
        <time>2015-04-19T07:24:32Z</time>
      </trkpt>
      <trkpt lat="45.41017" lon="4.49666">
        <ele>812</ele>
        <time>2015-04-19T07:24:34Z</time>
      </trkpt>
      <trkpt lat="45.41017" lon="4.49672">
        <ele>809</ele>
        <time>2015-04-19T07:24:37Z</time>
      </trkpt>
      <trkpt lat="45.41016" lon="4.4968">
        <ele>808</ele>
        <time>2015-04-19T07:24:40Z</time>
      </trkpt>
      <trkpt lat="45.41016" lon="4.49685">
        <ele>807</ele>
        <time>2015-04-19T07:24:42Z</time>
      </trkpt>
      <trkpt lat="45.41017" lon="4.49693">
        <ele>804</ele>
        <time>2015-04-19T07:24:45Z</time>
      </trkpt>
      <trkpt lat="45.41019" lon="4.49698">
        <ele>803</ele>
        <time>2015-04-19T07:24:47Z</time>
      </trkpt>
      <trkpt lat="45.41022" lon="4.49706">
        <ele>800</ele>
        <time>2015-04-19T07:24:50Z</time>
      </trkpt>
      <trkpt lat="45.41024" lon="4.49711">
        <ele>799</ele>
        <time>2015-04-19T07:24:52Z</time>
      </trkpt>
      <trkpt lat="45.41027" lon="4.49719">
        <ele>798</ele>
        <time>2015-04-19T07:24:55Z</time>
      </trkpt>
      <trkpt lat="45.41029" lon="4.49728">
        <ele>795</ele>
        <time>2015-04-19T07:24:58Z</time>
      </trkpt>
      <trkpt lat="45.41029" lon="4.49733">
        <ele>793</ele>
        <time>2015-04-19T07:25:00Z</time>
      </trkpt>
      <trkpt lat="45.4103" lon="4.49741">
        <ele>790</ele>
        <time>2015-04-19T07:25:03Z</time>
      </trkpt>
      <trkpt lat="45.41032" lon="4.49745">
        <ele>789</ele>
        <time>2015-04-19T07:25:05Z</time>
      </trkpt>
      <trkpt lat="45.41034" lon="4.49751">
        <ele>787</ele>
        <time>2015-04-19T07:25:07Z</time>
      </trkpt>
      <trkpt lat="45.41036" lon="4.49759">
        <ele>786</ele>
        <time>2015-04-19T07:25:10Z</time>
      </trkpt>
      <trkpt lat="45.41037" lon="4.49764">
        <ele>785</ele>
        <time>2015-04-19T07:25:12Z</time>
      </trkpt>
      <trkpt lat="45.4104" lon="4.4977">
        <ele>782</ele>
        <time>2015-04-19T07:25:15Z</time>
      </trkpt>
      <trkpt lat="45.41041" lon="4.49776">
        <ele>781</ele>
        <time>2015-04-19T07:25:17Z</time>
      </trkpt>
      <trkpt lat="45.41043" lon="4.49784">
        <ele>779</ele>
        <time>2015-04-19T07:25:20Z</time>
      </trkpt>
      <trkpt lat="45.41045" lon="4.49787">
        <ele>778</ele>
        <time>2015-04-19T07:25:22Z</time>
      </trkpt>
      <trkpt lat="45.41048" lon="4.49793">
        <ele>776</ele>
        <time>2015-04-19T07:25:25Z</time>
      </trkpt>
      <trkpt lat="45.41051" lon="4.498">
        <ele>774</ele>
        <time>2015-04-19T07:25:28Z</time>
      </trkpt>
      <trkpt lat="45.41053" lon="4.49805">
        <ele>773</ele>
        <time>2015-04-19T07:25:31Z</time>
      </trkpt>
      <trkpt lat="45.41055" lon="4.49812">
        <ele>771</ele>
        <time>2015-04-19T07:25:34Z</time>
      </trkpt>
      <trkpt lat="45.41057" lon="4.49818">
        <ele>769</ele>
        <time>2015-04-19T07:25:37Z</time>
      </trkpt>
      <trkpt lat="45.41059" lon="4.49824">
        <ele>767</ele>
        <time>2015-04-19T07:25:40Z</time>
      </trkpt>
      <trkpt lat="45.41061" lon="4.49828">
        <ele>766</ele>
        <time>2015-04-19T07:25:42Z</time>
      </trkpt>
      <trkpt lat="45.41063" lon="4.49835">
        <ele>764</ele>
        <time>2015-04-19T07:25:45Z</time>
      </trkpt>
      <trkpt lat="45.41065" lon="4.49839">
        <ele>763</ele>
        <time>2015-04-19T07:25:47Z</time>
      </trkpt>
      <trkpt lat="45.41067" lon="4.49844">
        <ele>762</ele>
        <time>2015-04-19T07:25:49Z</time>
      </trkpt>
      <trkpt lat="45.41068" lon="4.49849">
        <ele>761</ele>
        <time>2015-04-19T07:25:51Z</time>
      </trkpt>
      <trkpt lat="45.41072" lon="4.49855">
        <ele>760</ele>
        <time>2015-04-19T07:25:54Z</time>
      </trkpt>
      <trkpt lat="45.41074" lon="4.49861">
        <ele>758</ele>
        <time>2015-04-19T07:25:57Z</time>
      </trkpt>
      <trkpt lat="45.41077" lon="4.49868">
        <ele>756</ele>
        <time>2015-04-19T07:26:00Z</time>
      </trkpt>
      <trkpt lat="45.41078" lon="4.49872">
        <ele>754</ele>
        <time>2015-04-19T07:26:02Z</time>
      </trkpt>
      <trkpt lat="45.41078" lon="4.49877">
        <ele>753</ele>
        <time>2015-04-19T07:26:04Z</time>
      </trkpt>
      <trkpt lat="45.41079" lon="4.49881">
        <ele>752</ele>
        <time>2015-04-19T07:26:06Z</time>
      </trkpt>
      <trkpt lat="45.41077" lon="4.49883">
        <ele>751</ele>
        <time>2015-04-19T07:26:09Z</time>
      </trkpt>
      <trkpt lat="45.41075" lon="4.49886">
        <ele>750</ele>
        <time>2015-04-19T07:26:11Z</time>
      </trkpt>
      <trkpt lat="45.41074" lon="4.49888">
        <ele>749</ele>
        <time>2015-04-19T07:26:14Z</time>
      </trkpt>
      <trkpt lat="45.41074" lon="4.49892">
        <ele>748</ele>
        <time>2015-04-19T07:26:17Z</time>
      </trkpt>
      <trkpt lat="45.41071" lon="4.49894">
        <ele>747</ele>
        <time>2015-04-19T07:26:19Z</time>
      </trkpt>
      <trkpt lat="45.4107" lon="4.49898">
        <ele>745</ele>
        <time>2015-04-19T07:26:21Z</time>
      </trkpt>
      <trkpt lat="45.41067" lon="4.49901">
        <ele>743</ele>
        <time>2015-04-19T07:26:24Z</time>
      </trkpt>
      <trkpt lat="45.41067" lon="4.49903">
        <ele>742</ele>
        <time>2015-04-19T07:26:26Z</time>
      </trkpt>
      <trkpt lat="45.41065" lon="4.49907">
        <ele>741</ele>
        <time>2015-04-19T07:26:29Z</time>
      </trkpt>
      <trkpt lat="45.41063" lon="4.4991">
        <ele>739</ele>
        <time>2015-04-19T07:26:31Z</time>
      </trkpt>
      <trkpt lat="45.41061" lon="4.49913">
        <ele>737</ele>
        <time>2015-04-19T07:26:34Z</time>
      </trkpt>
      <trkpt lat="45.41058" lon="4.49918">
        <ele>736</ele>
        <time>2015-04-19T07:26:37Z</time>
      </trkpt>
      <trkpt lat="45.41056" lon="4.49923">
        <ele>736</ele>
        <time>2015-04-19T07:26:39Z</time>
      </trkpt>
      <trkpt lat="45.41053" lon="4.4993">
        <ele>734</ele>
        <time>2015-04-19T07:26:42Z</time>
      </trkpt>
      <trkpt lat="45.41054" lon="4.49933">
        <ele>733</ele>
        <time>2015-04-19T07:26:44Z</time>
      </trkpt>
      <trkpt lat="45.41055" lon="4.49936">
        <ele>732</ele>
        <time>2015-04-19T07:26:46Z</time>
      </trkpt>
      <trkpt lat="45.41057" lon="4.49944">
        <ele>730</ele>
        <time>2015-04-19T07:26:49Z</time>
      </trkpt>
      <trkpt lat="45.41058" lon="4.49952">
        <ele>729</ele>
        <time>2015-04-19T07:26:52Z</time>
      </trkpt>
      <trkpt lat="45.41059" lon="4.49957">
        <ele>728</ele>
        <time>2015-04-19T07:26:54Z</time>
      </trkpt>
      <trkpt lat="45.4106" lon="4.49965">
        <ele>726</ele>
        <time>2015-04-19T07:26:57Z</time>
      </trkpt>
      <trkpt lat="45.41061" lon="4.49971">
        <ele>725</ele>
        <time>2015-04-19T07:26:59Z</time>
      </trkpt>
      <trkpt lat="45.4106" lon="4.49976">
        <ele>724</ele>
        <time>2015-04-19T07:27:01Z</time>
      </trkpt>
      <trkpt lat="45.4106" lon="4.49982">
        <ele>723</ele>
        <time>2015-04-19T07:27:03Z</time>
      </trkpt>
      <trkpt lat="45.4106" lon="4.49988">
        <ele>722</ele>
        <time>2015-04-19T07:27:05Z</time>
      </trkpt>
      <trkpt lat="45.41059" lon="4.49993">
        <ele>720</ele>
        <time>2015-04-19T07:27:07Z</time>
      </trkpt>
      <trkpt lat="45.4106" lon="4.50003">
        <ele>719</ele>
        <time>2015-04-19T07:27:10Z</time>
      </trkpt>
      <trkpt lat="45.41063" lon="4.50013">
        <ele>717</ele>
        <time>2015-04-19T07:27:13Z</time>
      </trkpt>
      <trkpt lat="45.41064" lon="4.5002">
        <ele>716</ele>
        <time>2015-04-19T07:27:15Z</time>
      </trkpt>
      <trkpt lat="45.41067" lon="4.50025">
        <ele>715</ele>
        <time>2015-04-19T07:27:17Z</time>
      </trkpt>
      <trkpt lat="45.41073" lon="4.50028">
        <ele>713</ele>
        <time>2015-04-19T07:27:20Z</time>
      </trkpt>
      <trkpt lat="45.41077" lon="4.50029">
        <ele>712</ele>
        <time>2015-04-19T07:27:22Z</time>
      </trkpt>
      <trkpt lat="45.41083" lon="4.50032">
        <ele>710</ele>
        <time>2015-04-19T07:27:25Z</time>
      </trkpt>
      <trkpt lat="45.41088" lon="4.50035">
        <ele>709</ele>
        <time>2015-04-19T07:27:28Z</time>
      </trkpt>
      <trkpt lat="45.41093" lon="4.50039">
        <ele>708</ele>
        <time>2015-04-19T07:27:30Z</time>
      </trkpt>
      <trkpt lat="45.41098" lon="4.50045">
        <ele>707</ele>
        <time>2015-04-19T07:27:33Z</time>
      </trkpt>
      <trkpt lat="45.41103" lon="4.50049">
        <ele>706</ele>
        <time>2015-04-19T07:27:35Z</time>
      </trkpt>
      <trkpt lat="45.41108" lon="4.50057">
        <ele>704</ele>
        <time>2015-04-19T07:27:38Z</time>
      </trkpt>
      <trkpt lat="45.41106" lon="4.50065">
        <ele>702</ele>
        <time>2015-04-19T07:27:41Z</time>
      </trkpt>
      <trkpt lat="45.41104" lon="4.50068">
        <ele>701</ele>
        <time>2015-04-19T07:27:43Z</time>
      </trkpt>
      <trkpt lat="45.41101" lon="4.50072">
        <ele>700</ele>
        <time>2015-04-19T07:27:46Z</time>
      </trkpt>
      <trkpt lat="45.41097" lon="4.50075">
        <ele>701</ele>
        <time>2015-04-19T07:27:48Z</time>
      </trkpt>
      <trkpt lat="45.41093" lon="4.50079">
        <ele>701</ele>
        <time>2015-04-19T07:27:51Z</time>
      </trkpt>
      <trkpt lat="45.4109" lon="4.50082">
        <ele>701</ele>
        <time>2015-04-19T07:27:53Z</time>
      </trkpt>
      <trkpt lat="45.41086" lon="4.50083">
        <ele>701</ele>
        <time>2015-04-19T07:27:55Z</time>
      </trkpt>
      <trkpt lat="45.41081" lon="4.50086">
        <ele>701</ele>
        <time>2015-04-19T07:27:58Z</time>
      </trkpt>
      <trkpt lat="45.41074" lon="4.5009">
        <ele>701</ele>
        <time>2015-04-19T07:28:01Z</time>
      </trkpt>
      <trkpt lat="45.41069" lon="4.50091">
        <ele>701</ele>
        <time>2015-04-19T07:28:03Z</time>
      </trkpt>
      <trkpt lat="45.41064" lon="4.50091">
        <ele>701</ele>
        <time>2015-04-19T07:28:05Z</time>
      </trkpt>
      <trkpt lat="45.41056" lon="4.50093">
        <ele>702</ele>
        <time>2015-04-19T07:28:08Z</time>
      </trkpt>
      <trkpt lat="45.4105" lon="4.50092">
        <ele>701</ele>
        <time>2015-04-19T07:28:10Z</time>
      </trkpt>
      <trkpt lat="45.41041" lon="4.50089">
        <ele>701</ele>
        <time>2015-04-19T07:28:13Z</time>
      </trkpt>
      <trkpt lat="45.41037" lon="4.50086">
        <ele>701</ele>
        <time>2015-04-19T07:28:15Z</time>
      </trkpt>
      <trkpt lat="45.41031" lon="4.50083">
        <ele>701</ele>
        <time>2015-04-19T07:28:17Z</time>
      </trkpt>
      <trkpt lat="45.41024" lon="4.50077">
        <ele>700</ele>
        <time>2015-04-19T07:28:20Z</time>
      </trkpt>
      <trkpt lat="45.4102" lon="4.50073">
        <ele>700</ele>
        <time>2015-04-19T07:28:22Z</time>
      </trkpt>
      <trkpt lat="45.41014" lon="4.50065">
        <ele>699</ele>
        <time>2015-04-19T07:28:25Z</time>
      </trkpt>
      <trkpt lat="45.41011" lon="4.5006">
        <ele>698</ele>
        <time>2015-04-19T07:28:27Z</time>
      </trkpt>
      <trkpt lat="45.41006" lon="4.50055">
        <ele>698</ele>
        <time>2015-04-19T07:28:29Z</time>
      </trkpt>
      <trkpt lat="45.41001" lon="4.50049">
        <ele>697</ele>
        <time>2015-04-19T07:28:32Z</time>
      </trkpt>
      <trkpt lat="45.40995" lon="4.50042">
        <ele>697</ele>
        <time>2015-04-19T07:28:35Z</time>
      </trkpt>
      <trkpt lat="45.40992" lon="4.50038">
        <ele>696</ele>
        <time>2015-04-19T07:28:37Z</time>
      </trkpt>
      <trkpt lat="45.40988" lon="4.50033">
        <ele>695</ele>
        <time>2015-04-19T07:28:40Z</time>
      </trkpt>
      <trkpt lat="45.40984" lon="4.50029">
        <ele>695</ele>
        <time>2015-04-19T07:28:42Z</time>
      </trkpt>
      <trkpt lat="45.40977" lon="4.50023">
        <ele>695</ele>
        <time>2015-04-19T07:28:45Z</time>
      </trkpt>
      <trkpt lat="45.40973" lon="4.50019">
        <ele>695</ele>
        <time>2015-04-19T07:28:47Z</time>
      </trkpt>
      <trkpt lat="45.40968" lon="4.50014">
        <ele>695</ele>
        <time>2015-04-19T07:28:49Z</time>
      </trkpt>
      <trkpt lat="45.40963" lon="4.5001">
        <ele>694</ele>
        <time>2015-04-19T07:28:51Z</time>
      </trkpt>
      <trkpt lat="45.40955" lon="4.50005">
        <ele>694</ele>
        <time>2015-04-19T07:28:54Z</time>
      </trkpt>
      <trkpt lat="45.4095" lon="4.50002">
        <ele>694</ele>
        <time>2015-04-19T07:28:56Z</time>
      </trkpt>
      <trkpt lat="45.40946" lon="4.49999">
        <ele>693</ele>
        <time>2015-04-19T07:28:58Z</time>
      </trkpt>
      <trkpt lat="45.40942" lon="4.49998">
        <ele>693</ele>
        <time>2015-04-19T07:29:00Z</time>
      </trkpt>
      <trkpt lat="45.40934" lon="4.49996">
        <ele>693</ele>
        <time>2015-04-19T07:29:03Z</time>
      </trkpt>
      <trkpt lat="45.40927" lon="4.49994">
        <ele>693</ele>
        <time>2015-04-19T07:29:06Z</time>
      </trkpt>
      <trkpt lat="45.40922" lon="4.49994">
        <ele>693</ele>
        <time>2015-04-19T07:29:08Z</time>
      </trkpt>
      <trkpt lat="45.40915" lon="4.49992">
        <ele>693</ele>
        <time>2015-04-19T07:29:11Z</time>
      </trkpt>
      <trkpt lat="45.40911" lon="4.4999">
        <ele>693</ele>
        <time>2015-04-19T07:29:13Z</time>
      </trkpt>
      <trkpt lat="45.40903" lon="4.49988">
        <ele>694</ele>
        <time>2015-04-19T07:29:16Z</time>
      </trkpt>
      <trkpt lat="45.40895" lon="4.49985">
        <ele>693</ele>
        <time>2015-04-19T07:29:19Z</time>
      </trkpt>
      <trkpt lat="45.40891" lon="4.49983">
        <ele>693</ele>
        <time>2015-04-19T07:29:21Z</time>
      </trkpt>
      <trkpt lat="45.40885" lon="4.49982">
        <ele>692</ele>
        <time>2015-04-19T07:29:23Z</time>
      </trkpt>
      <trkpt lat="45.40879" lon="4.49978">
        <ele>692</ele>
        <time>2015-04-19T07:29:26Z</time>
      </trkpt>
      <trkpt lat="45.40875" lon="4.49976">
        <ele>692</ele>
        <time>2015-04-19T07:29:28Z</time>
      </trkpt>
      <trkpt lat="45.40868" lon="4.49973">
        <ele>691</ele>
        <time>2015-04-19T07:29:31Z</time>
      </trkpt>
      <trkpt lat="45.40863" lon="4.49971">
        <ele>691</ele>
        <time>2015-04-19T07:29:33Z</time>
      </trkpt>
      <trkpt lat="45.40855" lon="4.49968">
        <ele>691</ele>
        <time>2015-04-19T07:29:36Z</time>
      </trkpt>
      <trkpt lat="45.4085" lon="4.49966">
        <ele>691</ele>
        <time>2015-04-19T07:29:38Z</time>
      </trkpt>
      <trkpt lat="45.40843" lon="4.49963">
        <ele>691</ele>
        <time>2015-04-19T07:29:41Z</time>
      </trkpt>
      <trkpt lat="45.40838" lon="4.49961">
        <ele>691</ele>
        <time>2015-04-19T07:29:43Z</time>
      </trkpt>
      <trkpt lat="45.40832" lon="4.49959">
        <ele>691</ele>
        <time>2015-04-19T07:29:45Z</time>
      </trkpt>
      <trkpt lat="45.40826" lon="4.49957">
        <ele>692</ele>
        <time>2015-04-19T07:29:47Z</time>
      </trkpt>
      <trkpt lat="45.40817" lon="4.49954">
        <ele>692</ele>
        <time>2015-04-19T07:29:50Z</time>
      </trkpt>
      <trkpt lat="45.40811" lon="4.49953">
        <ele>692</ele>
        <time>2015-04-19T07:29:52Z</time>
      </trkpt>
      <trkpt lat="45.40806" lon="4.49951">
        <ele>692</ele>
        <time>2015-04-19T07:29:54Z</time>
      </trkpt>
      <trkpt lat="45.40801" lon="4.49949">
        <ele>691</ele>
        <time>2015-04-19T07:29:56Z</time>
      </trkpt>
      <trkpt lat="45.40795" lon="4.49946">
        <ele>691</ele>
        <time>2015-04-19T07:29:58Z</time>
      </trkpt>
      <trkpt lat="45.40789" lon="4.49943">
        <ele>691</ele>
        <time>2015-04-19T07:30:00Z</time>
      </trkpt>
      <trkpt lat="45.40781" lon="4.49939">
        <ele>691</ele>
        <time>2015-04-19T07:30:03Z</time>
      </trkpt>
      <trkpt lat="45.40773" lon="4.49932">
        <ele>692</ele>
        <time>2015-04-19T07:30:06Z</time>
      </trkpt>
      <trkpt lat="45.40768" lon="4.49927">
        <ele>692</ele>
        <time>2015-04-19T07:30:08Z</time>
      </trkpt>
      <trkpt lat="45.40762" lon="4.49923">
        <ele>691</ele>
        <time>2015-04-19T07:30:10Z</time>
      </trkpt>
      <trkpt lat="45.40757" lon="4.49917">
        <ele>691</ele>
        <time>2015-04-19T07:30:12Z</time>
      </trkpt>
      <trkpt lat="45.40752" lon="4.49912">
        <ele>691</ele>
        <time>2015-04-19T07:30:14Z</time>
      </trkpt>
      <trkpt lat="45.40747" lon="4.49902">
        <ele>690</ele>
        <time>2015-04-19T07:30:17Z</time>
      </trkpt>
      <trkpt lat="45.40741" lon="4.49891">
        <ele>691</ele>
        <time>2015-04-19T07:30:20Z</time>
      </trkpt>
      <trkpt lat="45.40734" lon="4.49882">
        <ele>690</ele>
        <time>2015-04-19T07:30:23Z</time>
      </trkpt>
      <trkpt lat="45.4073" lon="4.49876">
        <ele>690</ele>
        <time>2015-04-19T07:30:25Z</time>
      </trkpt>
      <trkpt lat="45.40724" lon="4.49867">
        <ele>690</ele>
        <time>2015-04-19T07:30:28Z</time>
      </trkpt>
      <trkpt lat="45.40721" lon="4.49862">
        <ele>690</ele>
        <time>2015-04-19T07:30:30Z</time>
      </trkpt>
      <trkpt lat="45.40717" lon="4.49857">
        <ele>690</ele>
        <time>2015-04-19T07:30:32Z</time>
      </trkpt>
      <trkpt lat="45.40711" lon="4.49849">
        <ele>690</ele>
        <time>2015-04-19T07:30:35Z</time>
      </trkpt>
      <trkpt lat="45.40707" lon="4.49845">
        <ele>691</ele>
        <time>2015-04-19T07:30:37Z</time>
      </trkpt>
      <trkpt lat="45.40702" lon="4.49842">
        <ele>691</ele>
        <time>2015-04-19T07:30:39Z</time>
      </trkpt>
      <trkpt lat="45.40694" lon="4.49838">
        <ele>691</ele>
        <time>2015-04-19T07:30:42Z</time>
      </trkpt>
      <trkpt lat="45.40689" lon="4.49834">
        <ele>691</ele>
        <time>2015-04-19T07:30:44Z</time>
      </trkpt>
      <trkpt lat="45.40686" lon="4.4983">
        <ele>692</ele>
        <time>2015-04-19T07:30:46Z</time>
      </trkpt>
      <trkpt lat="45.4068" lon="4.49827">
        <ele>692</ele>
        <time>2015-04-19T07:30:49Z</time>
      </trkpt>
      <trkpt lat="45.40675" lon="4.49825">
        <ele>693</ele>
        <time>2015-04-19T07:30:51Z</time>
      </trkpt>
      <trkpt lat="45.40671" lon="4.49824">
        <ele>693</ele>
        <time>2015-04-19T07:30:53Z</time>
      </trkpt>
      <trkpt lat="45.40665" lon="4.49822">
        <ele>693</ele>
        <time>2015-04-19T07:30:56Z</time>
      </trkpt>
      <trkpt lat="45.40658" lon="4.49821">
        <ele>694</ele>
        <time>2015-04-19T07:30:59Z</time>
      </trkpt>
      <trkpt lat="45.40652" lon="4.49818">
        <ele>695</ele>
        <time>2015-04-19T07:31:02Z</time>
      </trkpt>
      <trkpt lat="45.40647" lon="4.49813">
        <ele>695</ele>
        <time>2015-04-19T07:31:05Z</time>
      </trkpt>
      <trkpt lat="45.40642" lon="4.49809">
        <ele>695</ele>
        <time>2015-04-19T07:31:08Z</time>
      </trkpt>
      <trkpt lat="45.40638" lon="4.49806">
        <ele>696</ele>
        <time>2015-04-19T07:31:10Z</time>
      </trkpt>
      <trkpt lat="45.40635" lon="4.49802">
        <ele>697</ele>
        <time>2015-04-19T07:31:12Z</time>
      </trkpt>
      <trkpt lat="45.4063" lon="4.49798">
        <ele>698</ele>
        <time>2015-04-19T07:31:15Z</time>
      </trkpt>
      <trkpt lat="45.40627" lon="4.49795">
        <ele>698</ele>
        <time>2015-04-19T07:31:17Z</time>
      </trkpt>
      <trkpt lat="45.40624" lon="4.49792">
        <ele>699</ele>
        <time>2015-04-19T07:31:20Z</time>
      </trkpt>
      <trkpt lat="45.4062" lon="4.4979">
        <ele>699</ele>
        <time>2015-04-19T07:31:23Z</time>
      </trkpt>
      <trkpt lat="45.40617" lon="4.49789">
        <ele>700</ele>
        <time>2015-04-19T07:31:25Z</time>
      </trkpt>
      <trkpt lat="45.40613" lon="4.49786">
        <ele>700</ele>
        <time>2015-04-19T07:31:28Z</time>
      </trkpt>
      <trkpt lat="45.40609" lon="4.49783">
        <ele>700</ele>
        <time>2015-04-19T07:31:31Z</time>
      </trkpt>
      <trkpt lat="45.40605" lon="4.4978">
        <ele>701</ele>
        <time>2015-04-19T07:31:34Z</time>
      </trkpt>
      <trkpt lat="45.40602" lon="4.49775">
        <ele>701</ele>
        <time>2015-04-19T07:31:37Z</time>
      </trkpt>
      <trkpt lat="45.406" lon="4.49773">
        <ele>702</ele>
        <time>2015-04-19T07:31:39Z</time>
      </trkpt>
      <trkpt lat="45.40596" lon="4.4977">
        <ele>702</ele>
        <time>2015-04-19T07:31:42Z</time>
      </trkpt>
      <trkpt lat="45.40593" lon="4.49768">
        <ele>702</ele>
        <time>2015-04-19T07:31:44Z</time>
      </trkpt>
      <trkpt lat="45.40589" lon="4.49765">
        <ele>703</ele>
        <time>2015-04-19T07:31:47Z</time>
      </trkpt>
      <trkpt lat="45.40587" lon="4.4976">
        <ele>703</ele>
        <time>2015-04-19T07:31:50Z</time>
      </trkpt>
      <trkpt lat="45.40584" lon="4.49755">
        <ele>704</ele>
        <time>2015-04-19T07:31:53Z</time>
      </trkpt>
      <trkpt lat="45.40583" lon="4.49752">
        <ele>704</ele>
        <time>2015-04-19T07:31:55Z</time>
      </trkpt>
      <trkpt lat="45.4058" lon="4.49748">
        <ele>704</ele>
        <time>2015-04-19T07:31:58Z</time>
      </trkpt>
      <trkpt lat="45.40579" lon="4.49745">
        <ele>705</ele>
        <time>2015-04-19T07:32:00Z</time>
      </trkpt>
      <trkpt lat="45.40577" lon="4.49742">
        <ele>705</ele>
        <time>2015-04-19T07:32:02Z</time>
      </trkpt>
      <trkpt lat="45.40574" lon="4.49737">
        <ele>706</ele>
        <time>2015-04-19T07:32:05Z</time>
      </trkpt>
      <trkpt lat="45.40572" lon="4.49731">
        <ele>706</ele>
        <time>2015-04-19T07:32:08Z</time>
      </trkpt>
      <trkpt lat="45.4057" lon="4.49727">
        <ele>707</ele>
        <time>2015-04-19T07:32:10Z</time>
      </trkpt>
      <trkpt lat="45.40567" lon="4.49723">
        <ele>707</ele>
        <time>2015-04-19T07:32:13Z</time>
      </trkpt>
      <trkpt lat="45.40565" lon="4.49719">
        <ele>707</ele>
        <time>2015-04-19T07:32:15Z</time>
      </trkpt>
      <trkpt lat="45.40563" lon="4.49716">
        <ele>708</ele>
        <time>2015-04-19T07:32:17Z</time>
      </trkpt>
      <trkpt lat="45.40562" lon="4.49713">
        <ele>708</ele>
        <time>2015-04-19T07:32:19Z</time>
      </trkpt>
      <trkpt lat="45.40559" lon="4.49708">
        <ele>707</ele>
        <time>2015-04-19T07:32:22Z</time>
      </trkpt>
      <trkpt lat="45.40556" lon="4.49703">
        <ele>708</ele>
        <time>2015-04-19T07:32:25Z</time>
      </trkpt>
      <trkpt lat="45.40554" lon="4.49699">
        <ele>708</ele>
        <time>2015-04-19T07:32:27Z</time>
      </trkpt>
      <trkpt lat="45.40552" lon="4.49694">
        <ele>709</ele>
        <time>2015-04-19T07:32:30Z</time>
      </trkpt>
      <trkpt lat="45.4055" lon="4.49691">
        <ele>709</ele>
        <time>2015-04-19T07:32:32Z</time>
      </trkpt>
      <trkpt lat="45.40548" lon="4.49687">
        <ele>709</ele>
        <time>2015-04-19T07:32:34Z</time>
      </trkpt>
      <trkpt lat="45.40546" lon="4.49683">
        <ele>709</ele>
        <time>2015-04-19T07:32:37Z</time>
      </trkpt>
      <trkpt lat="45.40544" lon="4.4968">
        <ele>709</ele>
        <time>2015-04-19T07:32:39Z</time>
      </trkpt>
      <trkpt lat="45.40543" lon="4.49676">
        <ele>709</ele>
        <time>2015-04-19T07:32:41Z</time>
      </trkpt>
      <trkpt lat="45.4054" lon="4.4967">
        <ele>710</ele>
        <time>2015-04-19T07:32:44Z</time>
      </trkpt>
      <trkpt lat="45.40538" lon="4.49666">
        <ele>710</ele>
        <time>2015-04-19T07:32:46Z</time>
      </trkpt>
      <trkpt lat="45.40536" lon="4.4966">
        <ele>711</ele>
        <time>2015-04-19T07:32:49Z</time>
      </trkpt>
      <trkpt lat="45.40534" lon="4.49655">
        <ele>711</ele>
        <time>2015-04-19T07:32:52Z</time>
      </trkpt>
      <trkpt lat="45.40532" lon="4.49651">
        <ele>712</ele>
        <time>2015-04-19T07:32:54Z</time>
      </trkpt>
      <trkpt lat="45.4053" lon="4.49645">
        <ele>712</ele>
        <time>2015-04-19T07:32:57Z</time>
      </trkpt>
      <trkpt lat="45.40528" lon="4.49639">
        <ele>712</ele>
        <time>2015-04-19T07:33:00Z</time>
      </trkpt>
      <trkpt lat="45.40527" lon="4.49635">
        <ele>712</ele>
        <time>2015-04-19T07:33:02Z</time>
      </trkpt>
      <trkpt lat="45.40525" lon="4.49627">
        <ele>713</ele>
        <time>2015-04-19T07:33:05Z</time>
      </trkpt>
      <trkpt lat="45.40522" lon="4.49617">
        <ele>713</ele>
        <time>2015-04-19T07:33:08Z</time>
      </trkpt>
      <trkpt lat="45.40519" lon="4.49608">
        <ele>713</ele>
        <time>2015-04-19T07:33:11Z</time>
      </trkpt>
      <trkpt lat="45.40518" lon="4.49601">
        <ele>714</ele>
        <time>2015-04-19T07:33:13Z</time>
      </trkpt>
      <trkpt lat="45.40517" lon="4.49594">
        <ele>714</ele>
        <time>2015-04-19T07:33:15Z</time>
      </trkpt>
      <trkpt lat="45.40516" lon="4.49584">
        <ele>714</ele>
        <time>2015-04-19T07:33:18Z</time>
      </trkpt>
      <trkpt lat="45.40514" lon="4.49578">
        <ele>715</ele>
        <time>2015-04-19T07:33:20Z</time>
      </trkpt>
      <trkpt lat="45.40514" lon="4.49572">
        <ele>715</ele>
        <time>2015-04-19T07:33:22Z</time>
      </trkpt>
      <trkpt lat="45.40512" lon="4.49562">
        <ele>715</ele>
        <time>2015-04-19T07:33:25Z</time>
      </trkpt>
      <trkpt lat="45.40512" lon="4.49552">
        <ele>716</ele>
        <time>2015-04-19T07:33:28Z</time>
      </trkpt>
      <trkpt lat="45.40511" lon="4.49545">
        <ele>716</ele>
        <time>2015-04-19T07:33:30Z</time>
      </trkpt>
      <trkpt lat="45.40511" lon="4.49539">
        <ele>717</ele>
        <time>2015-04-19T07:33:32Z</time>
      </trkpt>
      <trkpt lat="45.4051" lon="4.49531">
        <ele>717</ele>
        <time>2015-04-19T07:33:34Z</time>
      </trkpt>
      <trkpt lat="45.40509" lon="4.49521">
        <ele>717</ele>
        <time>2015-04-19T07:33:37Z</time>
      </trkpt>
      <trkpt lat="45.40508" lon="4.4951">
        <ele>717</ele>
        <time>2015-04-19T07:33:40Z</time>
      </trkpt>
      <trkpt lat="45.40508" lon="4.495">
        <ele>717</ele>
        <time>2015-04-19T07:33:43Z</time>
      </trkpt>
      <trkpt lat="45.40507" lon="4.49489">
        <ele>716</ele>
        <time>2015-04-19T07:33:46Z</time>
      </trkpt>
      <trkpt lat="45.40507" lon="4.49478">
        <ele>717</ele>
        <time>2015-04-19T07:33:49Z</time>
      </trkpt>
      <trkpt lat="45.40508" lon="4.49468">
        <ele>716</ele>
        <time>2015-04-19T07:33:52Z</time>
      </trkpt>
      <trkpt lat="45.40509" lon="4.49461">
        <ele>717</ele>
        <time>2015-04-19T07:33:54Z</time>
      </trkpt>
      <trkpt lat="45.40509" lon="4.49455">
        <ele>716</ele>
        <time>2015-04-19T07:33:56Z</time>
      </trkpt>
      <trkpt lat="45.4051" lon="4.49448">
        <ele>717</ele>
        <time>2015-04-19T07:33:58Z</time>
      </trkpt>
      <trkpt lat="45.40511" lon="4.49437">
        <ele>717</ele>
        <time>2015-04-19T07:34:01Z</time>
      </trkpt>
      <trkpt lat="45.40512" lon="4.49427">
        <ele>717</ele>
        <time>2015-04-19T07:34:04Z</time>
      </trkpt>
      <trkpt lat="45.40512" lon="4.4942">
        <ele>717</ele>
        <time>2015-04-19T07:34:06Z</time>
      </trkpt>
      <trkpt lat="45.40513" lon="4.4941">
        <ele>716</ele>
        <time>2015-04-19T07:34:09Z</time>
      </trkpt>
      <trkpt lat="45.40514" lon="4.49401">
        <ele>716</ele>
        <time>2015-04-19T07:34:12Z</time>
      </trkpt>
      <trkpt lat="45.40515" lon="4.49395">
        <ele>716</ele>
        <time>2015-04-19T07:34:14Z</time>
      </trkpt>
      <trkpt lat="45.40516" lon="4.49388">
        <ele>716</ele>
        <time>2015-04-19T07:34:16Z</time>
      </trkpt>
      <trkpt lat="45.40517" lon="4.49379">
        <ele>717</ele>
        <time>2015-04-19T07:34:19Z</time>
      </trkpt>
      <trkpt lat="45.40519" lon="4.4937">
        <ele>717</ele>
        <time>2015-04-19T07:34:22Z</time>
      </trkpt>
      <trkpt lat="45.40521" lon="4.49364">
        <ele>718</ele>
        <time>2015-04-19T07:34:24Z</time>
      </trkpt>
      <trkpt lat="45.40522" lon="4.49357">
        <ele>718</ele>
        <time>2015-04-19T07:34:26Z</time>
      </trkpt>
      <trkpt lat="45.40522" lon="4.49349">
        <ele>717</ele>
        <time>2015-04-19T07:34:28Z</time>
      </trkpt>
      <trkpt lat="45.40522" lon="4.49337">
        <ele>717</ele>
        <time>2015-04-19T07:34:31Z</time>
      </trkpt>
      <trkpt lat="45.40522" lon="4.4933">
        <ele>717</ele>
        <time>2015-04-19T07:34:33Z</time>
      </trkpt>
      <trkpt lat="45.40521" lon="4.49323">
        <ele>717</ele>
        <time>2015-04-19T07:34:35Z</time>
      </trkpt>
      <trkpt lat="45.40519" lon="4.49313">
        <ele>717</ele>
        <time>2015-04-19T07:34:38Z</time>
      </trkpt>
      <trkpt lat="45.40518" lon="4.49302">
        <ele>717</ele>
        <time>2015-04-19T07:34:41Z</time>
      </trkpt>
      <trkpt lat="45.40516" lon="4.49291">
        <ele>717</ele>
        <time>2015-04-19T07:34:44Z</time>
      </trkpt>
      <trkpt lat="45.40514" lon="4.49283">
        <ele>717</ele>
        <time>2015-04-19T07:34:46Z</time>
      </trkpt>
      <trkpt lat="45.40512" lon="4.49271">
        <ele>717</ele>
        <time>2015-04-19T07:34:49Z</time>
      </trkpt>
      <trkpt lat="45.40511" lon="4.49263">
        <ele>716</ele>
        <time>2015-04-19T07:34:51Z</time>
      </trkpt>
      <trkpt lat="45.40511" lon="4.49251">
        <ele>716</ele>
        <time>2015-04-19T07:34:54Z</time>
      </trkpt>
      <trkpt lat="45.4051" lon="4.49243">
        <ele>715</ele>
        <time>2015-04-19T07:34:56Z</time>
      </trkpt>
      <trkpt lat="45.4051" lon="4.49235">
        <ele>715</ele>
        <time>2015-04-19T07:34:58Z</time>
      </trkpt>
      <trkpt lat="45.40509" lon="4.49223">
        <ele>714</ele>
        <time>2015-04-19T07:35:01Z</time>
      </trkpt>
      <trkpt lat="45.4051" lon="4.49215">
        <ele>714</ele>
        <time>2015-04-19T07:35:03Z</time>
      </trkpt>
      <trkpt lat="45.4051" lon="4.49207">
        <ele>712</ele>
        <time>2015-04-19T07:35:05Z</time>
      </trkpt>
      <trkpt lat="45.40509" lon="4.492">
        <ele>711</ele>
        <time>2015-04-19T07:35:07Z</time>
      </trkpt>
      <trkpt lat="45.40507" lon="4.49189">
        <ele>710</ele>
        <time>2015-04-19T07:35:10Z</time>
      </trkpt>
      <trkpt lat="45.40505" lon="4.49182">
        <ele>709</ele>
        <time>2015-04-19T07:35:12Z</time>
      </trkpt>
      <trkpt lat="45.40505" lon="4.49174">
        <ele>709</ele>
        <time>2015-04-19T07:35:14Z</time>
      </trkpt>
      <trkpt lat="45.40507" lon="4.49162">
        <ele>708</ele>
        <time>2015-04-19T07:35:17Z</time>
      </trkpt>
      <trkpt lat="45.40509" lon="4.49156">
        <ele>706</ele>
        <time>2015-04-19T07:35:19Z</time>
      </trkpt>
      <trkpt lat="45.40512" lon="4.49147">
        <ele>706</ele>
        <time>2015-04-19T07:35:22Z</time>
      </trkpt>
      <trkpt lat="45.40511" lon="4.49139">
        <ele>706</ele>
        <time>2015-04-19T07:35:24Z</time>
      </trkpt>
      <trkpt lat="45.40508" lon="4.49131">
        <ele>706</ele>
        <time>2015-04-19T07:35:26Z</time>
      </trkpt>
      <trkpt lat="45.40505" lon="4.49118">
        <ele>705</ele>
        <time>2015-04-19T07:35:29Z</time>
      </trkpt>
      <trkpt lat="45.40503" lon="4.49106">
        <ele>704</ele>
        <time>2015-04-19T07:35:32Z</time>
      </trkpt>
      <trkpt lat="45.40502" lon="4.49097">
        <ele>703</ele>
        <time>2015-04-19T07:35:34Z</time>
      </trkpt>
      <trkpt lat="45.40502" lon="4.49088">
        <ele>702</ele>
        <time>2015-04-19T07:35:36Z</time>
      </trkpt>
      <trkpt lat="45.40502" lon="4.49076">
        <ele>701</ele>
        <time>2015-04-19T07:35:39Z</time>
      </trkpt>
      <trkpt lat="45.40502" lon="4.49063">
        <ele>700</ele>
        <time>2015-04-19T07:35:42Z</time>
      </trkpt>
      <trkpt lat="45.40502" lon="4.49052">
        <ele>698</ele>
        <time>2015-04-19T07:35:45Z</time>
      </trkpt>
      <trkpt lat="45.40503" lon="4.49043">
        <ele>697</ele>
        <time>2015-04-19T07:35:47Z</time>
      </trkpt>
      <trkpt lat="45.40503" lon="4.4903">
        <ele>696</ele>
        <time>2015-04-19T07:35:50Z</time>
      </trkpt>
      <trkpt lat="45.40502" lon="4.4902">
        <ele>695</ele>
        <time>2015-04-19T07:35:53Z</time>
      </trkpt>
      <trkpt lat="45.40502" lon="4.49013">
        <ele>695</ele>
        <time>2015-04-19T07:35:55Z</time>
      </trkpt>
      <trkpt lat="45.40503" lon="4.49006">
        <ele>694</ele>
        <time>2015-04-19T07:35:57Z</time>
      </trkpt>
      <trkpt lat="45.40504" lon="4.48998">
        <ele>694</ele>
        <time>2015-04-19T07:35:59Z</time>
      </trkpt>
      <trkpt lat="45.40505" lon="4.4899">
        <ele>693</ele>
        <time>2015-04-19T07:36:01Z</time>
      </trkpt>
      <trkpt lat="45.40507" lon="4.48983">
        <ele>693</ele>
        <time>2015-04-19T07:36:03Z</time>
      </trkpt>
      <trkpt lat="45.40508" lon="4.48978">
        <ele>693</ele>
        <time>2015-04-19T07:36:05Z</time>
      </trkpt>
      <trkpt lat="45.4051" lon="4.48969">
        <ele>693</ele>
        <time>2015-04-19T07:36:08Z</time>
      </trkpt>
      <trkpt lat="45.40511" lon="4.48963">
        <ele>693</ele>
        <time>2015-04-19T07:36:10Z</time>
      </trkpt>
      <trkpt lat="45.40513" lon="4.48954">
        <ele>693</ele>
        <time>2015-04-19T07:36:13Z</time>
      </trkpt>
      <trkpt lat="45.40513" lon="4.48946">
        <ele>694</ele>
        <time>2015-04-19T07:36:15Z</time>
      </trkpt>
      <trkpt lat="45.40514" lon="4.48936">
        <ele>693</ele>
        <time>2015-04-19T07:36:18Z</time>
      </trkpt>
      <trkpt lat="45.40514" lon="4.48929">
        <ele>693</ele>
        <time>2015-04-19T07:36:20Z</time>
      </trkpt>
      <trkpt lat="45.40514" lon="4.48921">
        <ele>693</ele>
        <time>2015-04-19T07:36:22Z</time>
      </trkpt>
      <trkpt lat="45.40513" lon="4.4891">
        <ele>693</ele>
        <time>2015-04-19T07:36:25Z</time>
      </trkpt>
      <trkpt lat="45.40513" lon="4.48899">
        <ele>694</ele>
        <time>2015-04-19T07:36:28Z</time>
      </trkpt>
      <trkpt lat="45.40511" lon="4.48887">
        <ele>694</ele>
        <time>2015-04-19T07:36:31Z</time>
      </trkpt>
      <trkpt lat="45.40508" lon="4.48881">
        <ele>694</ele>
        <time>2015-04-19T07:36:33Z</time>
      </trkpt>
      <trkpt lat="45.40503" lon="4.48873">
        <ele>694</ele>
        <time>2015-04-19T07:36:36Z</time>
      </trkpt>
      <trkpt lat="45.40497" lon="4.48868">
        <ele>695</ele>
        <time>2015-04-19T07:36:39Z</time>
      </trkpt>
      <trkpt lat="45.40493" lon="4.48866">
        <ele>695</ele>
        <time>2015-04-19T07:36:41Z</time>
      </trkpt>
      <trkpt lat="45.4049" lon="4.48863">
        <ele>695</ele>
        <time>2015-04-19T07:36:43Z</time>
      </trkpt>
      <trkpt lat="45.40485" lon="4.4886">
        <ele>695</ele>
        <time>2015-04-19T07:36:46Z</time>
      </trkpt>
      <trkpt lat="45.40481" lon="4.48857">
        <ele>695</ele>
        <time>2015-04-19T07:36:48Z</time>
      </trkpt>
      <trkpt lat="45.40474" lon="4.48853">
        <ele>695</ele>
        <time>2015-04-19T07:36:51Z</time>
      </trkpt>
      <trkpt lat="45.40467" lon="4.48849">
        <ele>696</ele>
        <time>2015-04-19T07:36:54Z</time>
      </trkpt>
      <trkpt lat="45.40462" lon="4.48846">
        <ele>696</ele>
        <time>2015-04-19T07:36:56Z</time>
      </trkpt>
      <trkpt lat="45.40458" lon="4.48844">
        <ele>696</ele>
        <time>2015-04-19T07:36:58Z</time>
      </trkpt>
      <trkpt lat="45.40451" lon="4.48841">
        <ele>696</ele>
        <time>2015-04-19T07:37:01Z</time>
      </trkpt>
      <trkpt lat="45.40447" lon="4.48841">
        <ele>697</ele>
        <time>2015-04-19T07:37:03Z</time>
      </trkpt>
      <trkpt lat="45.40443" lon="4.48841">
        <ele>697</ele>
        <time>2015-04-19T07:37:05Z</time>
      </trkpt>
      <trkpt lat="45.40439" lon="4.48843">
        <ele>697</ele>
        <time>2015-04-19T07:37:07Z</time>
      </trkpt>
      <trkpt lat="45.40435" lon="4.48845">
        <ele>697</ele>
        <time>2015-04-19T07:37:09Z</time>
      </trkpt>
      <trkpt lat="45.40433" lon="4.4885">
        <ele>697</ele>
        <time>2015-04-19T07:37:11Z</time>
      </trkpt>
      <trkpt lat="45.40431" lon="4.48858">
        <ele>697</ele>
        <time>2015-04-19T07:37:14Z</time>
      </trkpt>
      <trkpt lat="45.40429" lon="4.48865">
        <ele>698</ele>
        <time>2015-04-19T07:37:16Z</time>
      </trkpt>
      <trkpt lat="45.40427" lon="4.48876">
        <ele>698</ele>
        <time>2015-04-19T07:37:19Z</time>
      </trkpt>
      <trkpt lat="45.40426" lon="4.48886">
        <ele>699</ele>
        <time>2015-04-19T07:37:22Z</time>
      </trkpt>
      <trkpt lat="45.40424" lon="4.48895">
        <ele>700</ele>
        <time>2015-04-19T07:37:25Z</time>
      </trkpt>
      <trkpt lat="45.40423" lon="4.48902">
        <ele>700</ele>
        <time>2015-04-19T07:37:28Z</time>
      </trkpt>
      <trkpt lat="45.40422" lon="4.48906">
        <ele>700</ele>
        <time>2015-04-19T07:37:30Z</time>
      </trkpt>
      <trkpt lat="45.4042" lon="4.48912">
        <ele>700</ele>
        <time>2015-04-19T07:37:33Z</time>
      </trkpt>
      <trkpt lat="45.40418" lon="4.48915">
        <ele>700</ele>
        <time>2015-04-19T07:37:35Z</time>
      </trkpt>
      <trkpt lat="45.40415" lon="4.48922">
        <ele>700</ele>
        <time>2015-04-19T07:37:38Z</time>
      </trkpt>
      <trkpt lat="45.40411" lon="4.48928">
        <ele>700</ele>
        <time>2015-04-19T07:37:41Z</time>
      </trkpt>
      <trkpt lat="45.40409" lon="4.48932">
        <ele>701</ele>
        <time>2015-04-19T07:37:43Z</time>
      </trkpt>
      <trkpt lat="45.40406" lon="4.48937">
        <ele>701</ele>
        <time>2015-04-19T07:37:45Z</time>
      </trkpt>
      <trkpt lat="45.404" lon="4.48943">
        <ele>701</ele>
        <time>2015-04-19T07:37:48Z</time>
      </trkpt>
      <trkpt lat="45.40397" lon="4.48947">
        <ele>701</ele>
        <time>2015-04-19T07:37:50Z</time>
      </trkpt>
      <trkpt lat="45.40394" lon="4.4895">
        <ele>701</ele>
        <time>2015-04-19T07:37:52Z</time>
      </trkpt>
      <trkpt lat="45.40389" lon="4.48956">
        <ele>701</ele>
        <time>2015-04-19T07:37:55Z</time>
      </trkpt>
      <trkpt lat="45.40386" lon="4.48961">
        <ele>702</ele>
        <time>2015-04-19T07:37:57Z</time>
      </trkpt>
      <trkpt lat="45.40381" lon="4.48968">
        <ele>702</ele>
        <time>2015-04-19T07:38:00Z</time>
      </trkpt>
      <trkpt lat="45.40377" lon="4.48975">
        <ele>702</ele>
        <time>2015-04-19T07:38:03Z</time>
      </trkpt>
      <trkpt lat="45.40372" lon="4.48983">
        <ele>703</ele>
        <time>2015-04-19T07:38:06Z</time>
      </trkpt>
      <trkpt lat="45.40367" lon="4.48992">
        <ele>703</ele>
        <time>2015-04-19T07:38:09Z</time>
      </trkpt>
      <trkpt lat="45.40364" lon="4.48998">
        <ele>703</ele>
        <time>2015-04-19T07:38:11Z</time>
      </trkpt>
      <trkpt lat="45.4036" lon="4.49007">
        <ele>703</ele>
        <time>2015-04-19T07:38:14Z</time>
      </trkpt>
      <trkpt lat="45.40357" lon="4.49013">
        <ele>703</ele>
        <time>2015-04-19T07:38:16Z</time>
      </trkpt>
      <trkpt lat="45.40352" lon="4.49021">
        <ele>704</ele>
        <time>2015-04-19T07:38:19Z</time>
      </trkpt>
      <trkpt lat="45.4035" lon="4.49027">
        <ele>704</ele>
        <time>2015-04-19T07:38:21Z</time>
      </trkpt>
      <trkpt lat="45.40346" lon="4.49037">
        <ele>704</ele>
        <time>2015-04-19T07:38:24Z</time>
      </trkpt>
      <trkpt lat="45.40341" lon="4.49047">
        <ele>704</ele>
        <time>2015-04-19T07:38:27Z</time>
      </trkpt>
      <trkpt lat="45.40338" lon="4.49052">
        <ele>704</ele>
        <time>2015-04-19T07:38:29Z</time>
      </trkpt>
      <trkpt lat="45.40334" lon="4.49057">
        <ele>704</ele>
        <time>2015-04-19T07:38:31Z</time>
      </trkpt>
      <trkpt lat="45.40328" lon="4.49065">
        <ele>703</ele>
        <time>2015-04-19T07:38:34Z</time>
      </trkpt>
      <trkpt lat="45.40324" lon="4.49069">
        <ele>702</ele>
        <time>2015-04-19T07:38:36Z</time>
      </trkpt>
      <trkpt lat="45.4032" lon="4.49071">
        <ele>702</ele>
        <time>2015-04-19T07:38:38Z</time>
      </trkpt>
      <trkpt lat="45.40314" lon="4.49073">
        <ele>701</ele>
        <time>2015-04-19T07:38:41Z</time>
      </trkpt>
      <trkpt lat="45.40306" lon="4.49074">
        <ele>700</ele>
        <time>2015-04-19T07:38:44Z</time>
      </trkpt>
      <trkpt lat="45.40301" lon="4.49072">
        <ele>700</ele>
        <time>2015-04-19T07:38:46Z</time>
      </trkpt>
      <trkpt lat="45.40293" lon="4.49071">
        <ele>700</ele>
        <time>2015-04-19T07:38:49Z</time>
      </trkpt>
      <trkpt lat="45.40285" lon="4.49068">
        <ele>699</ele>
        <time>2015-04-19T07:38:52Z</time>
      </trkpt>
      <trkpt lat="45.40279" lon="4.49067">
        <ele>698</ele>
        <time>2015-04-19T07:38:54Z</time>
      </trkpt>
      <trkpt lat="45.40274" lon="4.49064">
        <ele>698</ele>
        <time>2015-04-19T07:38:56Z</time>
      </trkpt>
      <trkpt lat="45.40267" lon="4.4906">
        <ele>697</ele>
        <time>2015-04-19T07:38:59Z</time>
      </trkpt>
      <trkpt lat="45.40262" lon="4.49057">
        <ele>697</ele>
        <time>2015-04-19T07:39:01Z</time>
      </trkpt>
      <trkpt lat="45.40254" lon="4.49052">
        <ele>696</ele>
        <time>2015-04-19T07:39:04Z</time>
      </trkpt>
      <trkpt lat="45.40246" lon="4.49046">
        <ele>696</ele>
        <time>2015-04-19T07:39:07Z</time>
      </trkpt>
      <trkpt lat="45.40241" lon="4.49041">
        <ele>696</ele>
        <time>2015-04-19T07:39:09Z</time>
      </trkpt>
      <trkpt lat="45.40236" lon="4.49037">
        <ele>695</ele>
        <time>2015-04-19T07:39:11Z</time>
      </trkpt>
      <trkpt lat="45.40231" lon="4.49032">
        <ele>694</ele>
        <time>2015-04-19T07:39:13Z</time>
      </trkpt>
      <trkpt lat="45.40225" lon="4.49023">
        <ele>693</ele>
        <time>2015-04-19T07:39:16Z</time>
      </trkpt>
      <trkpt lat="45.40221" lon="4.49017">
        <ele>692</ele>
        <time>2015-04-19T07:39:18Z</time>
      </trkpt>
      <trkpt lat="45.40217" lon="4.49011">
        <ele>691</ele>
        <time>2015-04-19T07:39:20Z</time>
      </trkpt>
      <trkpt lat="45.40212" lon="4.49001">
        <ele>690</ele>
        <time>2015-04-19T07:39:23Z</time>
      </trkpt>
      <trkpt lat="45.40207" lon="4.48991">
        <ele>689</ele>
        <time>2015-04-19T07:39:26Z</time>
      </trkpt>
      <trkpt lat="45.40204" lon="4.48988">
        <ele>688</ele>
        <time>2015-04-19T07:39:28Z</time>
      </trkpt>
      <trkpt lat="45.402" lon="4.48983">
        <ele>687</ele>
        <time>2015-04-19T07:39:30Z</time>
      </trkpt>
      <trkpt lat="45.40194" lon="4.48979">
        <ele>687</ele>
        <time>2015-04-19T07:39:33Z</time>
      </trkpt>
      <trkpt lat="45.40188" lon="4.48977">
        <ele>686</ele>
        <time>2015-04-19T07:39:36Z</time>
      </trkpt>
      <trkpt lat="45.40184" lon="4.48979">
        <ele>685</ele>
        <time>2015-04-19T07:39:38Z</time>
      </trkpt>
      <trkpt lat="45.40179" lon="4.48982">
        <ele>684</ele>
        <time>2015-04-19T07:39:41Z</time>
      </trkpt>
      <trkpt lat="45.40179" lon="4.48991">
        <ele>683</ele>
        <time>2015-04-19T07:39:44Z</time>
      </trkpt>
      <trkpt lat="45.40179" lon="4.48999">
        <ele>682</ele>
        <time>2015-04-19T07:39:46Z</time>
      </trkpt>
      <trkpt lat="45.4018" lon="4.49006">
        <ele>681</ele>
        <time>2015-04-19T07:39:48Z</time>
      </trkpt>
      <trkpt lat="45.40181" lon="4.49018">
        <ele>680</ele>
        <time>2015-04-19T07:39:51Z</time>
      </trkpt>
      <trkpt lat="45.40183" lon="4.49029">
        <ele>679</ele>
        <time>2015-04-19T07:39:54Z</time>
      </trkpt>
      <trkpt lat="45.40184" lon="4.49035">
        <ele>677</ele>
        <time>2015-04-19T07:39:56Z</time>
      </trkpt>
      <trkpt lat="45.40184" lon="4.49042">
        <ele>676</ele>
        <time>2015-04-19T07:39:58Z</time>
      </trkpt>
      <trkpt lat="45.40184" lon="4.49049">
        <ele>675</ele>
        <time>2015-04-19T07:40:00Z</time>
      </trkpt>
      <trkpt lat="45.40186" lon="4.4906">
        <ele>674</ele>
        <time>2015-04-19T07:40:03Z</time>
      </trkpt>
      <trkpt lat="45.40188" lon="4.49066">
        <ele>673</ele>
        <time>2015-04-19T07:40:05Z</time>
      </trkpt>
      <trkpt lat="45.40189" lon="4.49075">
        <ele>671</ele>
        <time>2015-04-19T07:40:08Z</time>
      </trkpt>
      <trkpt lat="45.40191" lon="4.49082">
        <ele>670</ele>
        <time>2015-04-19T07:40:10Z</time>
      </trkpt>
      <trkpt lat="45.40192" lon="4.49091">
        <ele>669</ele>
        <time>2015-04-19T07:40:13Z</time>
      </trkpt>
      <trkpt lat="45.40192" lon="4.49097">
        <ele>668</ele>
        <time>2015-04-19T07:40:15Z</time>
      </trkpt>
      <trkpt lat="45.40192" lon="4.49103">
        <ele>667</ele>
        <time>2015-04-19T07:40:17Z</time>
      </trkpt>
      <trkpt lat="45.40193" lon="4.4911">
        <ele>666</ele>
        <time>2015-04-19T07:40:19Z</time>
      </trkpt>
      <trkpt lat="45.40193" lon="4.4912">
        <ele>665</ele>
        <time>2015-04-19T07:40:22Z</time>
      </trkpt>
      <trkpt lat="45.40194" lon="4.49128">
        <ele>664</ele>
        <time>2015-04-19T07:40:24Z</time>
      </trkpt>
      <trkpt lat="45.40196" lon="4.49139">
        <ele>662</ele>
        <time>2015-04-19T07:40:27Z</time>
      </trkpt>
      <trkpt lat="45.40198" lon="4.49149">
        <ele>661</ele>
        <time>2015-04-19T07:40:30Z</time>
      </trkpt>
      <trkpt lat="45.402" lon="4.49156">
        <ele>660</ele>
        <time>2015-04-19T07:40:32Z</time>
      </trkpt>
      <trkpt lat="45.40202" lon="4.49162">
        <ele>658</ele>
        <time>2015-04-19T07:40:34Z</time>
      </trkpt>
      <trkpt lat="45.40207" lon="4.4917">
        <ele>657</ele>
        <time>2015-04-19T07:40:37Z</time>
      </trkpt>
      <trkpt lat="45.4021" lon="4.49174">
        <ele>656</ele>
        <time>2015-04-19T07:40:39Z</time>
      </trkpt>
      <trkpt lat="45.40213" lon="4.49177">
        <ele>655</ele>
        <time>2015-04-19T07:40:41Z</time>
      </trkpt>
      <trkpt lat="45.40218" lon="4.49184">
        <ele>654</ele>
        <time>2015-04-19T07:40:44Z</time>
      </trkpt>
      <trkpt lat="45.40223" lon="4.49189">
        <ele>653</ele>
        <time>2015-04-19T07:40:47Z</time>
      </trkpt>
      <trkpt lat="45.40227" lon="4.49194">
        <ele>653</ele>
        <time>2015-04-19T07:40:49Z</time>
      </trkpt>
      <trkpt lat="45.40231" lon="4.49201">
        <ele>651</ele>
        <time>2015-04-19T07:40:52Z</time>
      </trkpt>
      <trkpt lat="45.40234" lon="4.49205">
        <ele>650</ele>
        <time>2015-04-19T07:40:54Z</time>
      </trkpt>
      <trkpt lat="45.4024" lon="4.49209">
        <ele>649</ele>
        <time>2015-04-19T07:40:56Z</time>
      </trkpt>
      <trkpt lat="45.40245" lon="4.49214">
        <ele>648</ele>
        <time>2015-04-19T07:40:58Z</time>
      </trkpt>
      <trkpt lat="45.40252" lon="4.49222">
        <ele>647</ele>
        <time>2015-04-19T07:41:01Z</time>
      </trkpt>
      <trkpt lat="45.40259" lon="4.4923">
        <ele>645</ele>
        <time>2015-04-19T07:41:04Z</time>
      </trkpt>
      <trkpt lat="45.40265" lon="4.49234">
        <ele>644</ele>
        <time>2015-04-19T07:41:06Z</time>
      </trkpt>
      <trkpt lat="45.40268" lon="4.49237">
        <ele>643</ele>
        <time>2015-04-19T07:41:08Z</time>
      </trkpt>
      <trkpt lat="45.40273" lon="4.49241">
        <ele>643</ele>
        <time>2015-04-19T07:41:10Z</time>
      </trkpt>
      <trkpt lat="45.4028" lon="4.49246">
        <ele>643</ele>
        <time>2015-04-19T07:41:13Z</time>
      </trkpt>
      <trkpt lat="45.40285" lon="4.49249">
        <ele>642</ele>
        <time>2015-04-19T07:41:15Z</time>
      </trkpt>
      <trkpt lat="45.40291" lon="4.49255">
        <ele>641</ele>
        <time>2015-04-19T07:41:18Z</time>
      </trkpt>
      <trkpt lat="45.40298" lon="4.49262">
        <ele>640</ele>
        <time>2015-04-19T07:41:21Z</time>
      </trkpt>
      <trkpt lat="45.40304" lon="4.49267">
        <ele>639</ele>
        <time>2015-04-19T07:41:23Z</time>
      </trkpt>
      <trkpt lat="45.40309" lon="4.49273">
        <ele>638</ele>
        <time>2015-04-19T07:41:25Z</time>
      </trkpt>
      <trkpt lat="45.40313" lon="4.49278">
        <ele>636</ele>
        <time>2015-04-19T07:41:27Z</time>
      </trkpt>
      <trkpt lat="45.40319" lon="4.49286">
        <ele>635</ele>
        <time>2015-04-19T07:41:30Z</time>
      </trkpt>
      <trkpt lat="45.40323" lon="4.49292">
        <ele>634</ele>
        <time>2015-04-19T07:41:32Z</time>
      </trkpt>
      <trkpt lat="45.40328" lon="4.49304">
        <ele>633</ele>
        <time>2015-04-19T07:41:35Z</time>
      </trkpt>
      <trkpt lat="45.4033" lon="4.49312">
        <ele>632</ele>
        <time>2015-04-19T07:41:37Z</time>
      </trkpt>
      <trkpt lat="45.40332" lon="4.49325">
        <ele>631</ele>
        <time>2015-04-19T07:41:40Z</time>
      </trkpt>
      <trkpt lat="45.40332" lon="4.49333">
        <ele>631</ele>
        <time>2015-04-19T07:41:42Z</time>
      </trkpt>
      <trkpt lat="45.40332" lon="4.49345">
        <ele>630</ele>
        <time>2015-04-19T07:41:45Z</time>
      </trkpt>
      <trkpt lat="45.40332" lon="4.49353">
        <ele>629</ele>
        <time>2015-04-19T07:41:47Z</time>
      </trkpt>
      <trkpt lat="45.40332" lon="4.49365">
        <ele>629</ele>
        <time>2015-04-19T07:41:50Z</time>
      </trkpt>
      <trkpt lat="45.40331" lon="4.49373">
        <ele>628</ele>
        <time>2015-04-19T07:41:52Z</time>
      </trkpt>
      <trkpt lat="45.40332" lon="4.49382">
        <ele>628</ele>
        <time>2015-04-19T07:41:54Z</time>
      </trkpt>
      <trkpt lat="45.40334" lon="4.4939">
        <ele>627</ele>
        <time>2015-04-19T07:41:56Z</time>
      </trkpt>
      <trkpt lat="45.40334" lon="4.49403">
        <ele>627</ele>
        <time>2015-04-19T07:41:59Z</time>
      </trkpt>
      <trkpt lat="45.40336" lon="4.49412">
        <ele>626</ele>
        <time>2015-04-19T07:42:01Z</time>
      </trkpt>
      <trkpt lat="45.40337" lon="4.49424">
        <ele>626</ele>
        <time>2015-04-19T07:42:04Z</time>
      </trkpt>
      <trkpt lat="45.40335" lon="4.49434">
        <ele>624</ele>
        <time>2015-04-19T07:42:07Z</time>
      </trkpt>
      <trkpt lat="45.40336" lon="4.49445">
        <ele>622</ele>
        <time>2015-04-19T07:42:10Z</time>
      </trkpt>
      <trkpt lat="45.40338" lon="4.49453">
        <ele>622</ele>
        <time>2015-04-19T07:42:12Z</time>
      </trkpt>
      <trkpt lat="45.40339" lon="4.49466">
        <ele>620</ele>
        <time>2015-04-19T07:42:15Z</time>
      </trkpt>
      <trkpt lat="45.4034" lon="4.49479">
        <ele>620</ele>
        <time>2015-04-19T07:42:18Z</time>
      </trkpt>
      <trkpt lat="45.40341" lon="4.49487">
        <ele>619</ele>
        <time>2015-04-19T07:42:20Z</time>
      </trkpt>
      <trkpt lat="45.40341" lon="4.495">
        <ele>618</ele>
        <time>2015-04-19T07:42:23Z</time>
      </trkpt>
      <trkpt lat="45.40343" lon="4.49508">
        <ele>617</ele>
        <time>2015-04-19T07:42:25Z</time>
      </trkpt>
      <trkpt lat="45.40344" lon="4.49517">
        <ele>616</ele>
        <time>2015-04-19T07:42:27Z</time>
      </trkpt>
      <trkpt lat="45.40344" lon="4.49524">
        <ele>615</ele>
        <time>2015-04-19T07:42:29Z</time>
      </trkpt>
      <trkpt lat="45.40341" lon="4.49535">
        <ele>614</ele>
        <time>2015-04-19T07:42:32Z</time>
      </trkpt>
      <trkpt lat="45.40336" lon="4.49544">
        <ele>613</ele>
        <time>2015-04-19T07:42:35Z</time>
      </trkpt>
      <trkpt lat="45.40333" lon="4.49551">
        <ele>613</ele>
        <time>2015-04-19T07:42:37Z</time>
      </trkpt>
      <trkpt lat="45.40329" lon="4.49561">
        <ele>612</ele>
        <time>2015-04-19T07:42:40Z</time>
      </trkpt>
      <trkpt lat="45.40327" lon="4.49572">
        <ele>611</ele>
        <time>2015-04-19T07:42:43Z</time>
      </trkpt>
      <trkpt lat="45.40324" lon="4.49579">
        <ele>611</ele>
        <time>2015-04-19T07:42:45Z</time>
      </trkpt>
      <trkpt lat="45.40319" lon="4.49588">
        <ele>610</ele>
        <time>2015-04-19T07:42:48Z</time>
      </trkpt>
      <trkpt lat="45.40313" lon="4.49596">
        <ele>609</ele>
        <time>2015-04-19T07:42:51Z</time>
      </trkpt>
      <trkpt lat="45.40309" lon="4.49602">
        <ele>608</ele>
        <time>2015-04-19T07:42:53Z</time>
      </trkpt>
      <trkpt lat="45.40303" lon="4.49608">
        <ele>607</ele>
        <time>2015-04-19T07:42:56Z</time>
      </trkpt>
      <trkpt lat="45.40299" lon="4.49614">
        <ele>607</ele>
        <time>2015-04-19T07:42:58Z</time>
      </trkpt>
      <trkpt lat="45.40292" lon="4.49622">
        <ele>606</ele>
        <time>2015-04-19T07:43:01Z</time>
      </trkpt>
      <trkpt lat="45.40285" lon="4.49631">
        <ele>605</ele>
        <time>2015-04-19T07:43:04Z</time>
      </trkpt>
      <trkpt lat="45.40279" lon="4.4964">
        <ele>604</ele>
        <time>2015-04-19T07:43:07Z</time>
      </trkpt>
      <trkpt lat="45.40275" lon="4.49645">
        <ele>603</ele>
        <time>2015-04-19T07:43:09Z</time>
      </trkpt>
      <trkpt lat="45.40271" lon="4.49649">
        <ele>603</ele>
        <time>2015-04-19T07:43:11Z</time>
      </trkpt>
      <trkpt lat="45.40266" lon="4.49655">
        <ele>602</ele>
        <time>2015-04-19T07:43:14Z</time>
      </trkpt>
      <trkpt lat="45.4026" lon="4.49664">
        <ele>601</ele>
        <time>2015-04-19T07:43:17Z</time>
      </trkpt>
      <trkpt lat="45.40257" lon="4.49671">
        <ele>600</ele>
        <time>2015-04-19T07:43:19Z</time>
      </trkpt>
      <trkpt lat="45.40254" lon="4.4968">
        <ele>600</ele>
        <time>2015-04-19T07:43:22Z</time>
      </trkpt>
      <trkpt lat="45.4025" lon="4.49692">
        <ele>600</ele>
        <time>2015-04-19T07:43:25Z</time>
      </trkpt>
      <trkpt lat="45.40247" lon="4.497">
        <ele>599</ele>
        <time>2015-04-19T07:43:27Z</time>
      </trkpt>
      <trkpt lat="45.40243" lon="4.49714">
        <ele>599</ele>
        <time>2015-04-19T07:43:30Z</time>
      </trkpt>
      <trkpt lat="45.40241" lon="4.49723">
        <ele>599</ele>
        <time>2015-04-19T07:43:32Z</time>
      </trkpt>
      <trkpt lat="45.40237" lon="4.49735">
        <ele>598</ele>
        <time>2015-04-19T07:43:35Z</time>
      </trkpt>
      <trkpt lat="45.40234" lon="4.49744">
        <ele>598</ele>
        <time>2015-04-19T07:43:37Z</time>
      </trkpt>
      <trkpt lat="45.40231" lon="4.49752">
        <ele>596</ele>
        <time>2015-04-19T07:43:39Z</time>
      </trkpt>
      <trkpt lat="45.40229" lon="4.49759">
        <ele>596</ele>
        <time>2015-04-19T07:43:41Z</time>
      </trkpt>
      <trkpt lat="45.40227" lon="4.49767">
        <ele>596</ele>
        <time>2015-04-19T07:43:43Z</time>
      </trkpt>
      <trkpt lat="45.40225" lon="4.49775">
        <ele>596</ele>
        <time>2015-04-19T07:43:45Z</time>
      </trkpt>
      <trkpt lat="45.40223" lon="4.49783">
        <ele>596</ele>
        <time>2015-04-19T07:43:47Z</time>
      </trkpt>
      <trkpt lat="45.40223" lon="4.49794">
        <ele>596</ele>
        <time>2015-04-19T07:43:50Z</time>
      </trkpt>
      <trkpt lat="45.4022" lon="4.49802">
        <ele>595</ele>
        <time>2015-04-19T07:43:52Z</time>
      </trkpt>
      <trkpt lat="45.40218" lon="4.49813">
        <ele>594</ele>
        <time>2015-04-19T07:43:55Z</time>
      </trkpt>
      <trkpt lat="45.40216" lon="4.49821">
        <ele>594</ele>
        <time>2015-04-19T07:43:57Z</time>
      </trkpt>
      <trkpt lat="45.40214" lon="4.4983">
        <ele>594</ele>
        <time>2015-04-19T07:43:59Z</time>
      </trkpt>
      <trkpt lat="45.4021" lon="4.49841">
        <ele>594</ele>
        <time>2015-04-19T07:44:02Z</time>
      </trkpt>
      <trkpt lat="45.40207" lon="4.49845">
        <ele>593</ele>
        <time>2015-04-19T07:44:04Z</time>
      </trkpt>
      <trkpt lat="45.40202" lon="4.49846">
        <ele>593</ele>
        <time>2015-04-19T07:44:06Z</time>
      </trkpt>
      <trkpt lat="45.40198" lon="4.49848">
        <ele>593</ele>
        <time>2015-04-19T07:44:08Z</time>
      </trkpt>
      <trkpt lat="45.40194" lon="4.4985">
        <ele>594</ele>
        <time>2015-04-19T07:44:10Z</time>
      </trkpt>
      <trkpt lat="45.40188" lon="4.49851">
        <ele>595</ele>
        <time>2015-04-19T07:44:13Z</time>
      </trkpt>
      <trkpt lat="45.40181" lon="4.49852">
        <ele>596</ele>
        <time>2015-04-19T07:44:16Z</time>
      </trkpt>
      <trkpt lat="45.40176" lon="4.49852">
        <ele>596</ele>
        <time>2015-04-19T07:44:18Z</time>
      </trkpt>
      <trkpt lat="45.4017" lon="4.49852">
        <ele>597</ele>
        <time>2015-04-19T07:44:21Z</time>
      </trkpt>
      <trkpt lat="45.40165" lon="4.49852">
        <ele>597</ele>
        <time>2015-04-19T07:44:23Z</time>
      </trkpt>
      <trkpt lat="45.40159" lon="4.49851">
        <ele>597</ele>
        <time>2015-04-19T07:44:26Z</time>
      </trkpt>
      <trkpt lat="45.40152" lon="4.4985">
        <ele>597</ele>
        <time>2015-04-19T07:44:29Z</time>
      </trkpt>
      <trkpt lat="45.40147" lon="4.49849">
        <ele>598</ele>
        <time>2015-04-19T07:44:31Z</time>
      </trkpt>
      <trkpt lat="45.40141" lon="4.49849">
        <ele>598</ele>
        <time>2015-04-19T07:44:34Z</time>
      </trkpt>
      <trkpt lat="45.40134" lon="4.49849">
        <ele>599</ele>
        <time>2015-04-19T07:44:37Z</time>
      </trkpt>
      <trkpt lat="45.4013" lon="4.49849">
        <ele>599</ele>
        <time>2015-04-19T07:44:39Z</time>
      </trkpt>
      <trkpt lat="45.40126" lon="4.49849">
        <ele>600</ele>
        <time>2015-04-19T07:44:41Z</time>
      </trkpt>
      <trkpt lat="45.40121" lon="4.49848">
        <ele>600</ele>
        <time>2015-04-19T07:44:43Z</time>
      </trkpt>
      <trkpt lat="45.40115" lon="4.49847">
        <ele>600</ele>
        <time>2015-04-19T07:44:46Z</time>
      </trkpt>
      <trkpt lat="45.4011" lon="4.49848">
        <ele>601</ele>
        <time>2015-04-19T07:44:48Z</time>
      </trkpt>
      <trkpt lat="45.40103" lon="4.49849">
        <ele>601</ele>
        <time>2015-04-19T07:44:51Z</time>
      </trkpt>
      <trkpt lat="45.40096" lon="4.49852">
        <ele>601</ele>
        <time>2015-04-19T07:44:54Z</time>
      </trkpt>
      <trkpt lat="45.40091" lon="4.49854">
        <ele>601</ele>
        <time>2015-04-19T07:44:56Z</time>
      </trkpt>
      <trkpt lat="45.40084" lon="4.49857">
        <ele>601</ele>
        <time>2015-04-19T07:44:59Z</time>
      </trkpt>
      <trkpt lat="45.40075" lon="4.49858">
        <ele>601</ele>
        <time>2015-04-19T07:45:02Z</time>
      </trkpt>
      <trkpt lat="45.4007" lon="4.49858">
        <ele>601</ele>
        <time>2015-04-19T07:45:04Z</time>
      </trkpt>
      <trkpt lat="45.40061" lon="4.49858">
        <ele>600</ele>
        <time>2015-04-19T07:45:07Z</time>
      </trkpt>
      <trkpt lat="45.40054" lon="4.49859">
        <ele>600</ele>
        <time>2015-04-19T07:45:10Z</time>
      </trkpt>
      <trkpt lat="45.40049" lon="4.49862">
        <ele>600</ele>
        <time>2015-04-19T07:45:12Z</time>
      </trkpt>
      <trkpt lat="45.40044" lon="4.49864">
        <ele>600</ele>
        <time>2015-04-19T07:45:14Z</time>
      </trkpt>
      <trkpt lat="45.40038" lon="4.49867">
        <ele>600</ele>
        <time>2015-04-19T07:45:17Z</time>
      </trkpt>
      <trkpt lat="45.40034" lon="4.4987">
        <ele>601</ele>
        <time>2015-04-19T07:45:19Z</time>
      </trkpt>
      <trkpt lat="45.40029" lon="4.49873">
        <ele>601</ele>
        <time>2015-04-19T07:45:21Z</time>
      </trkpt>
      <trkpt lat="45.40023" lon="4.49878">
        <ele>601</ele>
        <time>2015-04-19T07:45:24Z</time>
      </trkpt>
      <trkpt lat="45.40018" lon="4.49882">
        <ele>601</ele>
        <time>2015-04-19T07:45:26Z</time>
      </trkpt>
      <trkpt lat="45.40014" lon="4.49885">
        <ele>601</ele>
        <time>2015-04-19T07:45:28Z</time>
      </trkpt>
      <trkpt lat="45.40009" lon="4.4989">
        <ele>602</ele>
        <time>2015-04-19T07:45:31Z</time>
      </trkpt>
      <trkpt lat="45.40004" lon="4.49893">
        <ele>602</ele>
        <time>2015-04-19T07:45:33Z</time>
      </trkpt>
      <trkpt lat="45.4" lon="4.49896">
        <ele>603</ele>
        <time>2015-04-19T07:45:35Z</time>
      </trkpt>
      <trkpt lat="45.39997" lon="4.49899">
        <ele>603</ele>
        <time>2015-04-19T07:45:37Z</time>
      </trkpt>
      <trkpt lat="45.39994" lon="4.49901">
        <ele>603</ele>
        <time>2015-04-19T07:45:39Z</time>
      </trkpt>
      <trkpt lat="45.39989" lon="4.49904">
        <ele>604</ele>
        <time>2015-04-19T07:45:42Z</time>
      </trkpt>
      <trkpt lat="45.39986" lon="4.49909">
        <ele>605</ele>
        <time>2015-04-19T07:45:45Z</time>
      </trkpt>
      <trkpt lat="45.39983" lon="4.49912">
        <ele>606</ele>
        <time>2015-04-19T07:45:47Z</time>
      </trkpt>
      <trkpt lat="45.39978" lon="4.49916">
        <ele>606</ele>
        <time>2015-04-19T07:45:50Z</time>
      </trkpt>
      <trkpt lat="45.39974" lon="4.4992">
        <ele>607</ele>
        <time>2015-04-19T07:45:52Z</time>
      </trkpt>
      <trkpt lat="45.39968" lon="4.49924">
        <ele>608</ele>
        <time>2015-04-19T07:45:55Z</time>
      </trkpt>
      <trkpt lat="45.39962" lon="4.49929">
        <ele>609</ele>
        <time>2015-04-19T07:45:58Z</time>
      </trkpt>
      <trkpt lat="45.39957" lon="4.49933">
        <ele>610</ele>
        <time>2015-04-19T07:46:01Z</time>
      </trkpt>
      <trkpt lat="45.39952" lon="4.49939">
        <ele>611</ele>
        <time>2015-04-19T07:46:04Z</time>
      </trkpt>
      <trkpt lat="45.39949" lon="4.49943">
        <ele>611</ele>
        <time>2015-04-19T07:46:06Z</time>
      </trkpt>
      <trkpt lat="45.39946" lon="4.49947">
        <ele>611</ele>
        <time>2015-04-19T07:46:08Z</time>
      </trkpt>
      <trkpt lat="45.39942" lon="4.4995">
        <ele>612</ele>
        <time>2015-04-19T07:46:10Z</time>
      </trkpt>
      <trkpt lat="45.39938" lon="4.49953">
        <ele>612</ele>
        <time>2015-04-19T07:46:12Z</time>
      </trkpt>
      <trkpt lat="45.39934" lon="4.49956">
        <ele>612</ele>
        <time>2015-04-19T07:46:14Z</time>
      </trkpt>
      <trkpt lat="45.39927" lon="4.49961">
        <ele>611</ele>
        <time>2015-04-19T07:46:17Z</time>
      </trkpt>
      <trkpt lat="45.39923" lon="4.49965">
        <ele>611</ele>
        <time>2015-04-19T07:46:19Z</time>
      </trkpt>
      <trkpt lat="45.39918" lon="4.4997">
        <ele>610</ele>
        <time>2015-04-19T07:46:22Z</time>
      </trkpt>
      <trkpt lat="45.39915" lon="4.49974">
        <ele>610</ele>
        <time>2015-04-19T07:46:24Z</time>
      </trkpt>
      <trkpt lat="45.39912" lon="4.49978">
        <ele>610</ele>
        <time>2015-04-19T07:46:26Z</time>
      </trkpt>
      <trkpt lat="45.39908" lon="4.49983">
        <ele>611</ele>
        <time>2015-04-19T07:46:28Z</time>
      </trkpt>
      <trkpt lat="45.39904" lon="4.49989">
        <ele>612</ele>
        <time>2015-04-19T07:46:31Z</time>
      </trkpt>
      <trkpt lat="45.39899" lon="4.49995">
        <ele>613</ele>
        <time>2015-04-19T07:46:34Z</time>
      </trkpt>
      <trkpt lat="45.39894" lon="4.5">
        <ele>613</ele>
        <time>2015-04-19T07:46:37Z</time>
      </trkpt>
      <trkpt lat="45.39888" lon="4.50006">
        <ele>613</ele>
        <time>2015-04-19T07:46:40Z</time>
      </trkpt>
      <trkpt lat="45.39885" lon="4.50009">
        <ele>613</ele>
        <time>2015-04-19T07:46:42Z</time>
      </trkpt>
      <trkpt lat="45.39881" lon="4.50014">
        <ele>613</ele>
        <time>2015-04-19T07:46:45Z</time>
      </trkpt>
      <trkpt lat="45.39875" lon="4.50019">
        <ele>614</ele>
        <time>2015-04-19T07:46:48Z</time>
      </trkpt>
      <trkpt lat="45.39872" lon="4.50022">
        <ele>615</ele>
        <time>2015-04-19T07:46:50Z</time>
      </trkpt>
      <trkpt lat="45.39869" lon="4.50026">
        <ele>616</ele>
        <time>2015-04-19T07:46:53Z</time>
      </trkpt>
      <trkpt lat="45.39866" lon="4.50032">
        <ele>617</ele>
        <time>2015-04-19T07:46:56Z</time>
      </trkpt>
      <trkpt lat="45.39863" lon="4.50036">
        <ele>618</ele>
        <time>2015-04-19T07:46:58Z</time>
      </trkpt>
      <trkpt lat="45.39861" lon="4.5004">
        <ele>618</ele>
        <time>2015-04-19T07:47:00Z</time>
      </trkpt>
      <trkpt lat="45.39859" lon="4.50044">
        <ele>619</ele>
        <time>2015-04-19T07:47:02Z</time>
      </trkpt>
      <trkpt lat="45.39855" lon="4.5005">
        <ele>619</ele>
        <time>2015-04-19T07:47:05Z</time>
      </trkpt>
      <trkpt lat="45.39851" lon="4.50057">
        <ele>619</ele>
        <time>2015-04-19T07:47:08Z</time>
      </trkpt>
      <trkpt lat="45.3985" lon="4.50062">
        <ele>620</ele>
        <time>2015-04-19T07:47:10Z</time>
      </trkpt>
      <trkpt lat="45.39847" lon="4.5007">
        <ele>621</ele>
        <time>2015-04-19T07:47:13Z</time>
      </trkpt>
      <trkpt lat="45.39846" lon="4.50078">
        <ele>621</ele>
        <time>2015-04-19T07:47:16Z</time>
      </trkpt>
      <trkpt lat="45.39844" lon="4.50082">
        <ele>621</ele>
        <time>2015-04-19T07:47:18Z</time>
      </trkpt>
      <trkpt lat="45.39841" lon="4.50092">
        <ele>622</ele>
        <time>2015-04-19T07:47:21Z</time>
      </trkpt>
      <trkpt lat="45.39838" lon="4.50098">
        <ele>622</ele>
        <time>2015-04-19T07:47:23Z</time>
      </trkpt>
      <trkpt lat="45.39833" lon="4.50106">
        <ele>622</ele>
        <time>2015-04-19T07:47:26Z</time>
      </trkpt>
      <trkpt lat="45.3983" lon="4.50112">
        <ele>622</ele>
        <time>2015-04-19T07:47:28Z</time>
      </trkpt>
      <trkpt lat="45.39827" lon="4.50118">
        <ele>622</ele>
        <time>2015-04-19T07:47:30Z</time>
      </trkpt>
      <trkpt lat="45.39822" lon="4.50124">
        <ele>623</ele>
        <time>2015-04-19T07:47:33Z</time>
      </trkpt>
      <trkpt lat="45.39817" lon="4.50133">
        <ele>623</ele>
        <time>2015-04-19T07:47:36Z</time>
      </trkpt>
      <trkpt lat="45.39813" lon="4.50139">
        <ele>623</ele>
        <time>2015-04-19T07:47:38Z</time>
      </trkpt>
      <trkpt lat="45.39808" lon="4.50147">
        <ele>623</ele>
        <time>2015-04-19T07:47:41Z</time>
      </trkpt>
      <trkpt lat="45.39804" lon="4.50154">
        <ele>624</ele>
        <time>2015-04-19T07:47:44Z</time>
      </trkpt>
      <trkpt lat="45.39799" lon="4.50161">
        <ele>624</ele>
        <time>2015-04-19T07:47:47Z</time>
      </trkpt>
      <trkpt lat="45.39796" lon="4.50165">
        <ele>625</ele>
        <time>2015-04-19T07:47:49Z</time>
      </trkpt>
      <trkpt lat="45.39792" lon="4.50169">
        <ele>625</ele>
        <time>2015-04-19T07:47:51Z</time>
      </trkpt>
      <trkpt lat="45.39787" lon="4.50174">
        <ele>625</ele>
        <time>2015-04-19T07:47:54Z</time>
      </trkpt>
      <trkpt lat="45.39782" lon="4.50177">
        <ele>626</ele>
        <time>2015-04-19T07:47:56Z</time>
      </trkpt>
      <trkpt lat="45.39779" lon="4.5018">
        <ele>627</ele>
        <time>2015-04-19T07:47:58Z</time>
      </trkpt>
      <trkpt lat="45.39775" lon="4.50182">
        <ele>627</ele>
        <time>2015-04-19T07:48:01Z</time>
      </trkpt>
      <trkpt lat="45.3977" lon="4.50185">
        <ele>628</ele>
        <time>2015-04-19T07:48:03Z</time>
      </trkpt>
      <trkpt lat="45.39764" lon="4.50187">
        <ele>629</ele>
        <time>2015-04-19T07:48:06Z</time>
      </trkpt>
      <trkpt lat="45.3976" lon="4.50189">
        <ele>629</ele>
        <time>2015-04-19T07:48:08Z</time>
      </trkpt>
      <trkpt lat="45.39756" lon="4.5019">
        <ele>630</ele>
        <time>2015-04-19T07:48:10Z</time>
      </trkpt>
      <trkpt lat="45.39751" lon="4.50192">
        <ele>630</ele>
        <time>2015-04-19T07:48:12Z</time>
      </trkpt>
      <trkpt lat="45.39744" lon="4.50194">
        <ele>630</ele>
        <time>2015-04-19T07:48:15Z</time>
      </trkpt>
      <trkpt lat="45.39739" lon="4.50196">
        <ele>631</ele>
        <time>2015-04-19T07:48:17Z</time>
      </trkpt>
      <trkpt lat="45.39732" lon="4.50199">
        <ele>631</ele>
        <time>2015-04-19T07:48:20Z</time>
      </trkpt>
      <trkpt lat="45.39725" lon="4.50201">
        <ele>632</ele>
        <time>2015-04-19T07:48:23Z</time>
      </trkpt>
      <trkpt lat="45.39723" lon="4.50201">
        <ele>632</ele>
        <time>2015-04-19T07:48:25Z</time>
      </trkpt>
      <trkpt lat="45.39719" lon="4.50203">
        <ele>633</ele>
        <time>2015-04-19T07:48:28Z</time>
      </trkpt>
      <trkpt lat="45.39715" lon="4.50204">
        <ele>632</ele>
        <time>2015-04-19T07:48:30Z</time>
      </trkpt>
      <trkpt lat="45.39712" lon="4.50206">
        <ele>633</ele>
        <time>2015-04-19T07:48:32Z</time>
      </trkpt>
      <trkpt lat="45.39709" lon="4.50209">
        <ele>633</ele>
        <time>2015-04-19T07:48:34Z</time>
      </trkpt>
      <trkpt lat="45.39706" lon="4.50211">
        <ele>634</ele>
        <time>2015-04-19T07:48:36Z</time>
      </trkpt>
      <trkpt lat="45.39703" lon="4.50211">
        <ele>634</ele>
        <time>2015-04-19T07:48:39Z</time>
      </trkpt>
      <trkpt lat="45.397" lon="4.50212">
        <ele>635</ele>
        <time>2015-04-19T07:48:41Z</time>
      </trkpt>
      <trkpt lat="45.39697" lon="4.50213">
        <ele>635</ele>
        <time>2015-04-19T07:48:44Z</time>
      </trkpt>
      <trkpt lat="45.39694" lon="4.50213">
        <ele>635</ele>
        <time>2015-04-19T07:48:46Z</time>
      </trkpt>
      <trkpt lat="45.39692" lon="4.50212">
        <ele>635</ele>
        <time>2015-04-19T07:48:48Z</time>
      </trkpt>
      <trkpt lat="45.3969" lon="4.50213">
        <ele>635</ele>
        <time>2015-04-19T07:48:50Z</time>
      </trkpt>
      <trkpt lat="45.39688" lon="4.50213">
        <ele>636</ele>
        <time>2015-04-19T07:48:52Z</time>
      </trkpt>
      <trkpt lat="45.39684" lon="4.50214">
        <ele>636</ele>
        <time>2015-04-19T07:48:54Z</time>
      </trkpt>
      <trkpt lat="45.39681" lon="4.50213">
        <ele>636</ele>
        <time>2015-04-19T07:48:57Z</time>
      </trkpt>
      <trkpt lat="45.39678" lon="4.50211">
        <ele>636</ele>
        <time>2015-04-19T07:48:59Z</time>
      </trkpt>
      <trkpt lat="45.39675" lon="4.50213">
        <ele>637</ele>
        <time>2015-04-19T07:49:01Z</time>
      </trkpt>
      <trkpt lat="45.3967" lon="4.50214">
        <ele>637</ele>
        <time>2015-04-19T07:49:04Z</time>
      </trkpt>
      <trkpt lat="45.39667" lon="4.50215">
        <ele>637</ele>
        <time>2015-04-19T07:49:06Z</time>
      </trkpt>
      <trkpt lat="45.39663" lon="4.50215">
        <ele>638</ele>
        <time>2015-04-19T07:49:08Z</time>
      </trkpt>
      <trkpt lat="45.3966" lon="4.50215">
        <ele>639</ele>
        <time>2015-04-19T07:49:11Z</time>
      </trkpt>
      <trkpt lat="45.39657" lon="4.50214">
        <ele>639</ele>
        <time>2015-04-19T07:49:14Z</time>
      </trkpt>
      <trkpt lat="45.39655" lon="4.50214">
        <ele>639</ele>
        <time>2015-04-19T07:49:16Z</time>
      </trkpt>
      <trkpt lat="45.39651" lon="4.50215">
        <ele>639</ele>
        <time>2015-04-19T07:49:18Z</time>
      </trkpt>
      <trkpt lat="45.39648" lon="4.50218">
        <ele>640</ele>
        <time>2015-04-19T07:49:20Z</time>
      </trkpt>
      <trkpt lat="45.39645" lon="4.50218">
        <ele>640</ele>
        <time>2015-04-19T07:49:23Z</time>
      </trkpt>
      <trkpt lat="45.39642" lon="4.50218">
        <ele>640</ele>
        <time>2015-04-19T07:49:25Z</time>
      </trkpt>
      <trkpt lat="45.39639" lon="4.50217">
        <ele>640</ele>
        <time>2015-04-19T07:49:28Z</time>
      </trkpt>
      <trkpt lat="45.39636" lon="4.50217">
        <ele>640</ele>
        <time>2015-04-19T07:49:30Z</time>
      </trkpt>
      <trkpt lat="45.39632" lon="4.50218">
        <ele>640</ele>
        <time>2015-04-19T07:49:32Z</time>
      </trkpt>
      <trkpt lat="45.39629" lon="4.50218">
        <ele>640</ele>
        <time>2015-04-19T07:49:35Z</time>
      </trkpt>
      <trkpt lat="45.39627" lon="4.50219">
        <ele>640</ele>
        <time>2015-04-19T07:49:37Z</time>
      </trkpt>
      <trkpt lat="45.39624" lon="4.50218">
        <ele>640</ele>
        <time>2015-04-19T07:49:40Z</time>
      </trkpt>
      <trkpt lat="45.39621" lon="4.50219">
        <ele>640</ele>
        <time>2015-04-19T07:49:43Z</time>
      </trkpt>
      <trkpt lat="45.39618" lon="4.50218">
        <ele>641</ele>
        <time>2015-04-19T07:49:46Z</time>
      </trkpt>
      <trkpt lat="45.39616" lon="4.50218">
        <ele>641</ele>
        <time>2015-04-19T07:49:48Z</time>
      </trkpt>
      <trkpt lat="45.39613" lon="4.50219">
        <ele>642</ele>
        <time>2015-04-19T07:49:50Z</time>
      </trkpt>
      <trkpt lat="45.39611" lon="4.50219">
        <ele>642</ele>
        <time>2015-04-19T07:49:53Z</time>
      </trkpt>
      <trkpt lat="45.39607" lon="4.50218">
        <ele>643</ele>
        <time>2015-04-19T07:49:55Z</time>
      </trkpt>
      <trkpt lat="45.39604" lon="4.50219">
        <ele>643</ele>
        <time>2015-04-19T07:49:58Z</time>
      </trkpt>
      <trkpt lat="45.396" lon="4.50219">
        <ele>643</ele>
        <time>2015-04-19T07:50:01Z</time>
      </trkpt>
      <trkpt lat="45.39596" lon="4.50218">
        <ele>643</ele>
        <time>2015-04-19T07:50:04Z</time>
      </trkpt>
      <trkpt lat="45.39593" lon="4.50219">
        <ele>643</ele>
        <time>2015-04-19T07:50:06Z</time>
      </trkpt>
      <trkpt lat="45.3959" lon="4.50219">
        <ele>643</ele>
        <time>2015-04-19T07:50:08Z</time>
      </trkpt>
      <trkpt lat="45.39585" lon="4.5022">
        <ele>644</ele>
        <time>2015-04-19T07:50:10Z</time>
      </trkpt>
      <trkpt lat="45.39582" lon="4.50221">
        <ele>644</ele>
        <time>2015-04-19T07:50:13Z</time>
      </trkpt>
      <trkpt lat="45.39579" lon="4.50221">
        <ele>644</ele>
        <time>2015-04-19T07:50:15Z</time>
      </trkpt>
      <trkpt lat="45.39576" lon="4.50222">
        <ele>644</ele>
        <time>2015-04-19T07:50:17Z</time>
      </trkpt>
      <trkpt lat="45.39572" lon="4.50222">
        <ele>644</ele>
        <time>2015-04-19T07:50:20Z</time>
      </trkpt>
      <trkpt lat="45.39569" lon="4.50221">
        <ele>645</ele>
        <time>2015-04-19T07:50:22Z</time>
      </trkpt>
      <trkpt lat="45.39566" lon="4.50222">
        <ele>645</ele>
        <time>2015-04-19T07:50:25Z</time>
      </trkpt>
      <trkpt lat="45.39563" lon="4.50223">
        <ele>646</ele>
        <time>2015-04-19T07:50:27Z</time>
      </trkpt>
      <trkpt lat="45.3956" lon="4.50225">
        <ele>645</ele>
        <time>2015-04-19T07:50:29Z</time>
      </trkpt>
      <trkpt lat="45.39557" lon="4.50227">
        <ele>645</ele>
        <time>2015-04-19T07:50:31Z</time>
      </trkpt>
      <trkpt lat="45.39555" lon="4.50228">
        <ele>645</ele>
        <time>2015-04-19T07:50:33Z</time>
      </trkpt>
      <trkpt lat="45.39552" lon="4.50228">
        <ele>645</ele>
        <time>2015-04-19T07:50:36Z</time>
      </trkpt>
      <trkpt lat="45.39548" lon="4.50229">
        <ele>646</ele>
        <time>2015-04-19T07:50:39Z</time>
      </trkpt>
      <trkpt lat="45.39546" lon="4.50229">
        <ele>646</ele>
        <time>2015-04-19T07:50:41Z</time>
      </trkpt>
      <trkpt lat="45.39542" lon="4.50229">
        <ele>646</ele>
        <time>2015-04-19T07:50:44Z</time>
      </trkpt>
      <trkpt lat="45.3954" lon="4.50229">
        <ele>646</ele>
        <time>2015-04-19T07:50:46Z</time>
      </trkpt>
      <trkpt lat="45.39536" lon="4.50229">
        <ele>646</ele>
        <time>2015-04-19T07:50:49Z</time>
      </trkpt>
      <trkpt lat="45.39533" lon="4.50229">
        <ele>646</ele>
        <time>2015-04-19T07:50:51Z</time>
      </trkpt>
      <trkpt lat="45.39529" lon="4.50228">
        <ele>646</ele>
        <time>2015-04-19T07:50:54Z</time>
      </trkpt>
      <trkpt lat="45.39527" lon="4.50227">
        <ele>646</ele>
        <time>2015-04-19T07:50:56Z</time>
      </trkpt>
      <trkpt lat="45.39522" lon="4.50227">
        <ele>646</ele>
        <time>2015-04-19T07:50:59Z</time>
      </trkpt>
      <trkpt lat="45.3952" lon="4.50226">
        <ele>647</ele>
        <time>2015-04-19T07:51:01Z</time>
      </trkpt>
      <trkpt lat="45.39516" lon="4.50225">
        <ele>647</ele>
        <time>2015-04-19T07:51:04Z</time>
      </trkpt>
      <trkpt lat="45.39513" lon="4.50225">
        <ele>647</ele>
        <time>2015-04-19T07:51:06Z</time>
      </trkpt>
      <trkpt lat="45.3951" lon="4.50224">
        <ele>647</ele>
        <time>2015-04-19T07:51:09Z</time>
      </trkpt>
      <trkpt lat="45.39507" lon="4.50223">
        <ele>648</ele>
        <time>2015-04-19T07:51:11Z</time>
      </trkpt>
      <trkpt lat="45.39504" lon="4.50223">
        <ele>648</ele>
        <time>2015-04-19T07:51:13Z</time>
      </trkpt>
      <trkpt lat="45.39502" lon="4.50222">
        <ele>648</ele>
        <time>2015-04-19T07:51:15Z</time>
      </trkpt>
      <trkpt lat="45.39499" lon="4.50222">
        <ele>649</ele>
        <time>2015-04-19T07:51:18Z</time>
      </trkpt>
      <trkpt lat="45.39497" lon="4.50222">
        <ele>650</ele>
        <time>2015-04-19T07:51:21Z</time>
      </trkpt>
      <trkpt lat="45.39495" lon="4.50222">
        <ele>650</ele>
        <time>2015-04-19T07:51:23Z</time>
      </trkpt>
      <trkpt lat="45.39491" lon="4.50222">
        <ele>650</ele>
        <time>2015-04-19T07:51:25Z</time>
      </trkpt>
      <trkpt lat="45.3949" lon="4.50221">
        <ele>651</ele>
        <time>2015-04-19T07:51:27Z</time>
      </trkpt>
      <trkpt lat="45.39489" lon="4.50221">
        <ele>651</ele>
        <time>2015-04-19T07:51:29Z</time>
      </trkpt>
      <trkpt lat="45.39487" lon="4.5022">
        <ele>652</ele>
        <time>2015-04-19T07:51:32Z</time>
      </trkpt>
      <trkpt lat="45.39486" lon="4.5022">
        <ele>652</ele>
        <time>2015-04-19T07:51:34Z</time>
      </trkpt>
      <trkpt lat="45.39483" lon="4.50221">
        <ele>653</ele>
        <time>2015-04-19T07:51:37Z</time>
      </trkpt>
      <trkpt lat="45.39479" lon="4.5022">
        <ele>653</ele>
        <time>2015-04-19T07:51:40Z</time>
      </trkpt>
      <trkpt lat="45.39476" lon="4.5022">
        <ele>653</ele>
        <time>2015-04-19T07:51:43Z</time>
      </trkpt>
      <trkpt lat="45.39473" lon="4.50219">
        <ele>653</ele>
        <time>2015-04-19T07:51:45Z</time>
      </trkpt>
      <trkpt lat="45.3947" lon="4.50217">
        <ele>654</ele>
        <time>2015-04-19T07:51:48Z</time>
      </trkpt>
      <trkpt lat="45.39466" lon="4.50216">
        <ele>654</ele>
        <time>2015-04-19T07:51:50Z</time>
      </trkpt>
      <trkpt lat="45.39463" lon="4.50215">
        <ele>654</ele>
        <time>2015-04-19T07:51:53Z</time>
      </trkpt>
      <trkpt lat="45.39459" lon="4.50213">
        <ele>654</ele>
        <time>2015-04-19T07:51:56Z</time>
      </trkpt>
      <trkpt lat="45.39454" lon="4.50211">
        <ele>655</ele>
        <time>2015-04-19T07:51:58Z</time>
      </trkpt>
      <trkpt lat="45.39451" lon="4.5021">
        <ele>655</ele>
        <time>2015-04-19T07:52:01Z</time>
      </trkpt>
      <trkpt lat="45.39448" lon="4.5021">
        <ele>655</ele>
        <time>2015-04-19T07:52:03Z</time>
      </trkpt>
      <trkpt lat="45.39445" lon="4.50209">
        <ele>655</ele>
        <time>2015-04-19T07:52:05Z</time>
      </trkpt>
      <trkpt lat="45.39441" lon="4.50208">
        <ele>655</ele>
        <time>2015-04-19T07:52:07Z</time>
      </trkpt>
      <trkpt lat="45.39439" lon="4.50207">
        <ele>655</ele>
        <time>2015-04-19T07:52:10Z</time>
      </trkpt>
      <trkpt lat="45.39434" lon="4.50207">
        <ele>655</ele>
        <time>2015-04-19T07:52:12Z</time>
      </trkpt>
      <trkpt lat="45.39432" lon="4.50207">
        <ele>655</ele>
        <time>2015-04-19T07:52:15Z</time>
      </trkpt>
      <trkpt lat="45.39428" lon="4.50207">
        <ele>656</ele>
        <time>2015-04-19T07:52:17Z</time>
      </trkpt>
      <trkpt lat="45.39425" lon="4.50206">
        <ele>656</ele>
        <time>2015-04-19T07:52:20Z</time>
      </trkpt>
      <trkpt lat="45.3942" lon="4.50207">
        <ele>656</ele>
        <time>2015-04-19T07:52:23Z</time>
      </trkpt>
      <trkpt lat="45.39415" lon="4.50209">
        <ele>657</ele>
        <time>2015-04-19T07:52:25Z</time>
      </trkpt>
      <trkpt lat="45.39412" lon="4.5021">
        <ele>657</ele>
        <time>2015-04-19T07:52:27Z</time>
      </trkpt>
      <trkpt lat="45.39409" lon="4.50211">
        <ele>657</ele>
        <time>2015-04-19T07:52:30Z</time>
      </trkpt>
      <trkpt lat="45.39405" lon="4.50212">
        <ele>657</ele>
        <time>2015-04-19T07:52:33Z</time>
      </trkpt>
      <trkpt lat="45.39402" lon="4.50212">
        <ele>657</ele>
        <time>2015-04-19T07:52:35Z</time>
      </trkpt>
      <trkpt lat="45.394" lon="4.50213">
        <ele>657</ele>
        <time>2015-04-19T07:52:37Z</time>
      </trkpt>
      <trkpt lat="45.39396" lon="4.50215">
        <ele>658</ele>
        <time>2015-04-19T07:52:40Z</time>
      </trkpt>
      <trkpt lat="45.39393" lon="4.50216">
        <ele>658</ele>
        <time>2015-04-19T07:52:42Z</time>
      </trkpt>
      <trkpt lat="45.39391" lon="4.50217">
        <ele>658</ele>
        <time>2015-04-19T07:52:45Z</time>
      </trkpt>
      <trkpt lat="45.39387" lon="4.50219">
        <ele>659</ele>
        <time>2015-04-19T07:52:48Z</time>
      </trkpt>
      <trkpt lat="45.39383" lon="4.50221">
        <ele>659</ele>
        <time>2015-04-19T07:52:50Z</time>
      </trkpt>
      <trkpt lat="45.3938" lon="4.50222">
        <ele>660</ele>
        <time>2015-04-19T07:52:52Z</time>
      </trkpt>
      <trkpt lat="45.39375" lon="4.50224">
        <ele>660</ele>
        <time>2015-04-19T07:52:55Z</time>
      </trkpt>
      <trkpt lat="45.39373" lon="4.50224">
        <ele>661</ele>
        <time>2015-04-19T07:52:57Z</time>
      </trkpt>
      <trkpt lat="45.39371" lon="4.50224">
        <ele>661</ele>
        <time>2015-04-19T07:52:59Z</time>
      </trkpt>
      <trkpt lat="45.39368" lon="4.50224">
        <ele>661</ele>
        <time>2015-04-19T07:53:03Z</time>
      </trkpt>
      <trkpt lat="45.39365" lon="4.50225">
        <ele>661</ele>
        <time>2015-04-19T07:53:05Z</time>
      </trkpt>
      <trkpt lat="45.39362" lon="4.50224">
        <ele>661</ele>
        <time>2015-04-19T07:53:07Z</time>
      </trkpt>
      <trkpt lat="45.3936" lon="4.50224">
        <ele>661</ele>
        <time>2015-04-19T07:53:09Z</time>
      </trkpt>
      <trkpt lat="45.39359" lon="4.50224">
        <ele>662</ele>
        <time>2015-04-19T07:53:11Z</time>
      </trkpt>
      <trkpt lat="45.39356" lon="4.50224">
        <ele>662</ele>
        <time>2015-04-19T07:53:14Z</time>
      </trkpt>
      <trkpt lat="45.39354" lon="4.50224">
        <ele>663</ele>
        <time>2015-04-19T07:53:16Z</time>
      </trkpt>
      <trkpt lat="45.39352" lon="4.50225">
        <ele>663</ele>
        <time>2015-04-19T07:53:18Z</time>
      </trkpt>
      <trkpt lat="45.39349" lon="4.50225">
        <ele>663</ele>
        <time>2015-04-19T07:53:21Z</time>
      </trkpt>
      <trkpt lat="45.39347" lon="4.50225">
        <ele>663</ele>
        <time>2015-04-19T07:53:23Z</time>
      </trkpt>
      <trkpt lat="45.39345" lon="4.50225">
        <ele>664</ele>
        <time>2015-04-19T07:53:26Z</time>
      </trkpt>
      <trkpt lat="45.39342" lon="4.50225">
        <ele>664</ele>
        <time>2015-04-19T07:53:28Z</time>
      </trkpt>
      <trkpt lat="45.39338" lon="4.50225">
        <ele>665</ele>
        <time>2015-04-19T07:53:31Z</time>
      </trkpt>
      <trkpt lat="45.39336" lon="4.50225">
        <ele>665</ele>
        <time>2015-04-19T07:53:33Z</time>
      </trkpt>
      <trkpt lat="45.39332" lon="4.50224">
        <ele>665</ele>
        <time>2015-04-19T07:53:35Z</time>
      </trkpt>
      <trkpt lat="45.39331" lon="4.50225">
        <ele>665</ele>
        <time>2015-04-19T07:53:37Z</time>
      </trkpt>
      <trkpt lat="45.39328" lon="4.50224">
        <ele>666</ele>
        <time>2015-04-19T07:53:40Z</time>
      </trkpt>
      <trkpt lat="45.39325" lon="4.50224">
        <ele>666</ele>
        <time>2015-04-19T07:53:43Z</time>
      </trkpt>
      <trkpt lat="45.39321" lon="4.50224">
        <ele>667</ele>
        <time>2015-04-19T07:53:46Z</time>
      </trkpt>
      <trkpt lat="45.39316" lon="4.50224">
        <ele>668</ele>
        <time>2015-04-19T07:53:48Z</time>
      </trkpt>
      <trkpt lat="45.39314" lon="4.50224">
        <ele>668</ele>
        <time>2015-04-19T07:53:51Z</time>
      </trkpt>
      <trkpt lat="45.3931" lon="4.50224">
        <ele>669</ele>
        <time>2015-04-19T07:53:54Z</time>
      </trkpt>
      <trkpt lat="45.39306" lon="4.50224">
        <ele>670</ele>
        <time>2015-04-19T07:53:57Z</time>
      </trkpt>
      <trkpt lat="45.39304" lon="4.50223">
        <ele>670</ele>
        <time>2015-04-19T07:53:59Z</time>
      </trkpt>
      <trkpt lat="45.39301" lon="4.50223">
        <ele>671</ele>
        <time>2015-04-19T07:54:01Z</time>
      </trkpt>
      <trkpt lat="45.39297" lon="4.50223">
        <ele>671</ele>
        <time>2015-04-19T07:54:04Z</time>
      </trkpt>
      <trkpt lat="45.39294" lon="4.50223">
        <ele>671</ele>
        <time>2015-04-19T07:54:06Z</time>
      </trkpt>
      <trkpt lat="45.39289" lon="4.50223">
        <ele>671</ele>
        <time>2015-04-19T07:54:09Z</time>
      </trkpt>
      <trkpt lat="45.39285" lon="4.50224">
        <ele>671</ele>
        <time>2015-04-19T07:54:11Z</time>
      </trkpt>
      <trkpt lat="45.39283" lon="4.50224">
        <ele>671</ele>
        <time>2015-04-19T07:54:13Z</time>
      </trkpt>
      <trkpt lat="45.3928" lon="4.50224">
        <ele>671</ele>
        <time>2015-04-19T07:54:16Z</time>
      </trkpt>
      <trkpt lat="45.39278" lon="4.50224">
        <ele>671</ele>
        <time>2015-04-19T07:54:18Z</time>
      </trkpt>
      <trkpt lat="45.39274" lon="4.50226">
        <ele>672</ele>
        <time>2015-04-19T07:54:20Z</time>
      </trkpt>
      <trkpt lat="45.39271" lon="4.50227">
        <ele>673</ele>
        <time>2015-04-19T07:54:22Z</time>
      </trkpt>
      <trkpt lat="45.39267" lon="4.50228">
        <ele>674</ele>
        <time>2015-04-19T07:54:25Z</time>
      </trkpt>
      <trkpt lat="45.39265" lon="4.50228">
        <ele>674</ele>
        <time>2015-04-19T07:54:27Z</time>
      </trkpt>
      <trkpt lat="45.39262" lon="4.50229">
        <ele>674</ele>
        <time>2015-04-19T07:54:29Z</time>
      </trkpt>
      <trkpt lat="45.3926" lon="4.50229">
        <ele>675</ele>
        <time>2015-04-19T07:54:31Z</time>
      </trkpt>
      <trkpt lat="45.39258" lon="4.5023">
        <ele>675</ele>
        <time>2015-04-19T07:54:34Z</time>
      </trkpt>
      <trkpt lat="45.39254" lon="4.5023">
        <ele>675</ele>
        <time>2015-04-19T07:54:37Z</time>
      </trkpt>
      <trkpt lat="45.39251" lon="4.50231">
        <ele>675</ele>
        <time>2015-04-19T07:54:39Z</time>
      </trkpt>
      <trkpt lat="45.39249" lon="4.50232">
        <ele>676</ele>
        <time>2015-04-19T07:54:41Z</time>
      </trkpt>
      <trkpt lat="45.39247" lon="4.50232">
        <ele>676</ele>
        <time>2015-04-19T07:54:44Z</time>
      </trkpt>
      <trkpt lat="45.39244" lon="4.50232">
        <ele>677</ele>
        <time>2015-04-19T07:54:46Z</time>
      </trkpt>
      <trkpt lat="45.39242" lon="4.50232">
        <ele>677</ele>
        <time>2015-04-19T07:54:48Z</time>
      </trkpt>
      <trkpt lat="45.3924" lon="4.50232">
        <ele>677</ele>
        <time>2015-04-19T07:54:50Z</time>
      </trkpt>
      <trkpt lat="45.39238" lon="4.50231">
        <ele>678</ele>
        <time>2015-04-19T07:54:52Z</time>
      </trkpt>
      <trkpt lat="45.39236" lon="4.50231">
        <ele>678</ele>
        <time>2015-04-19T07:54:55Z</time>
      </trkpt>
      <trkpt lat="45.39233" lon="4.50231">
        <ele>679</ele>
        <time>2015-04-19T07:54:57Z</time>
      </trkpt>
      <trkpt lat="45.39231" lon="4.50231">
        <ele>679</ele>
        <time>2015-04-19T07:54:59Z</time>
      </trkpt>
      <trkpt lat="45.39228" lon="4.50231">
        <ele>679</ele>
        <time>2015-04-19T07:55:01Z</time>
      </trkpt>
      <trkpt lat="45.39226" lon="4.5023">
        <ele>679</ele>
        <time>2015-04-19T07:55:04Z</time>
      </trkpt>
      <trkpt lat="45.39222" lon="4.50232">
        <ele>680</ele>
        <time>2015-04-19T07:55:07Z</time>
      </trkpt>
      <trkpt lat="45.39218" lon="4.50233">
        <ele>680</ele>
        <time>2015-04-19T07:55:09Z</time>
      </trkpt>
      <trkpt lat="45.39214" lon="4.50234">
        <ele>680</ele>
        <time>2015-04-19T07:55:12Z</time>
      </trkpt>
      <trkpt lat="45.39211" lon="4.50234">
        <ele>681</ele>
        <time>2015-04-19T07:55:14Z</time>
      </trkpt>
      <trkpt lat="45.39209" lon="4.50236">
        <ele>681</ele>
        <time>2015-04-19T07:55:17Z</time>
      </trkpt>
      <trkpt lat="45.39207" lon="4.50237">
        <ele>681</ele>
        <time>2015-04-19T07:55:19Z</time>
      </trkpt>
      <trkpt lat="45.39203" lon="4.50239">
        <ele>681</ele>
        <time>2015-04-19T07:55:22Z</time>
      </trkpt>
      <trkpt lat="45.39199" lon="4.5024">
        <ele>681</ele>
        <time>2015-04-19T07:55:25Z</time>
      </trkpt>
      <trkpt lat="45.39197" lon="4.50241">
        <ele>682</ele>
        <time>2015-04-19T07:55:27Z</time>
      </trkpt>
      <trkpt lat="45.39193" lon="4.50243">
        <ele>682</ele>
        <time>2015-04-19T07:55:29Z</time>
      </trkpt>
      <trkpt lat="45.39189" lon="4.50245">
        <ele>682</ele>
        <time>2015-04-19T07:55:33Z</time>
      </trkpt>
      <trkpt lat="45.39185" lon="4.50246">
        <ele>683</ele>
        <time>2015-04-19T07:55:36Z</time>
      </trkpt>
      <trkpt lat="45.3918" lon="4.50248">
        <ele>683</ele>
        <time>2015-04-19T07:55:38Z</time>
      </trkpt>
      <trkpt lat="45.39177" lon="4.50249">
        <ele>683</ele>
        <time>2015-04-19T07:55:40Z</time>
      </trkpt>
      <trkpt lat="45.39174" lon="4.5025">
        <ele>684</ele>
        <time>2015-04-19T07:55:42Z</time>
      </trkpt>
      <trkpt lat="45.3917" lon="4.50251">
        <ele>684</ele>
        <time>2015-04-19T07:55:44Z</time>
      </trkpt>
      <trkpt lat="45.39166" lon="4.50252">
        <ele>684</ele>
        <time>2015-04-19T07:55:46Z</time>
      </trkpt>
      <trkpt lat="45.39162" lon="4.50253">
        <ele>685</ele>
        <time>2015-04-19T07:55:48Z</time>
      </trkpt>
      <trkpt lat="45.39156" lon="4.50255">
        <ele>685</ele>
        <time>2015-04-19T07:55:51Z</time>
      </trkpt>
      <trkpt lat="45.39152" lon="4.50256">
        <ele>686</ele>
        <time>2015-04-19T07:55:54Z</time>
      </trkpt>
      <trkpt lat="45.39147" lon="4.50258">
        <ele>686</ele>
        <time>2015-04-19T07:55:56Z</time>
      </trkpt>
      <trkpt lat="45.39141" lon="4.50259">
        <ele>687</ele>
        <time>2015-04-19T07:55:59Z</time>
      </trkpt>
      <trkpt lat="45.39138" lon="4.50261">
        <ele>687</ele>
        <time>2015-04-19T07:56:02Z</time>
      </trkpt>
      <trkpt lat="45.39135" lon="4.50262">
        <ele>688</ele>
        <time>2015-04-19T07:56:04Z</time>
      </trkpt>
      <trkpt lat="45.39132" lon="4.50262">
        <ele>688</ele>
        <time>2015-04-19T07:56:06Z</time>
      </trkpt>
      <trkpt lat="45.39128" lon="4.50263">
        <ele>688</ele>
        <time>2015-04-19T07:56:08Z</time>
      </trkpt>
      <trkpt lat="45.39125" lon="4.50263">
        <ele>688</ele>
        <time>2015-04-19T07:56:10Z</time>
      </trkpt>
      <trkpt lat="45.3912" lon="4.50264">
        <ele>689</ele>
        <time>2015-04-19T07:56:12Z</time>
      </trkpt>
      <trkpt lat="45.39116" lon="4.50263">
        <ele>689</ele>
        <time>2015-04-19T07:56:15Z</time>
      </trkpt>
      <trkpt lat="45.39112" lon="4.50262">
        <ele>689</ele>
        <time>2015-04-19T07:56:18Z</time>
      </trkpt>
      <trkpt lat="45.3911" lon="4.50261">
        <ele>690</ele>
        <time>2015-04-19T07:56:20Z</time>
      </trkpt>
      <trkpt lat="45.39106" lon="4.50259">
        <ele>690</ele>
        <time>2015-04-19T07:56:23Z</time>
      </trkpt>
      <trkpt lat="45.39103" lon="4.50259">
        <ele>690</ele>
        <time>2015-04-19T07:56:25Z</time>
      </trkpt>
      <trkpt lat="45.39101" lon="4.50259">
        <ele>690</ele>
        <time>2015-04-19T07:56:28Z</time>
      </trkpt>
      <trkpt lat="45.39096" lon="4.50258">
        <ele>691</ele>
        <time>2015-04-19T07:56:30Z</time>
      </trkpt>
      <trkpt lat="45.39093" lon="4.50258">
        <ele>692</ele>
        <time>2015-04-19T07:56:34Z</time>
      </trkpt>
      <trkpt lat="45.3909" lon="4.50258">
        <ele>692</ele>
        <time>2015-04-19T07:56:36Z</time>
      </trkpt>
      <trkpt lat="45.39088" lon="4.50257">
        <ele>693</ele>
        <time>2015-04-19T07:56:38Z</time>
      </trkpt>
      <trkpt lat="45.39085" lon="4.50257">
        <ele>693</ele>
        <time>2015-04-19T07:56:41Z</time>
      </trkpt>
      <trkpt lat="45.39081" lon="4.50256">
        <ele>694</ele>
        <time>2015-04-19T07:56:43Z</time>
      </trkpt>
      <trkpt lat="45.39077" lon="4.50255">
        <ele>694</ele>
        <time>2015-04-19T07:56:46Z</time>
      </trkpt>
      <trkpt lat="45.39075" lon="4.50255">
        <ele>695</ele>
        <time>2015-04-19T07:56:48Z</time>
      </trkpt>
      <trkpt lat="45.39072" lon="4.50254">
        <ele>696</ele>
        <time>2015-04-19T07:56:51Z</time>
      </trkpt>
      <trkpt lat="45.3907" lon="4.50253">
        <ele>696</ele>
        <time>2015-04-19T07:56:54Z</time>
      </trkpt>
      <trkpt lat="45.39066" lon="4.50253">
        <ele>696</ele>
        <time>2015-04-19T07:56:56Z</time>
      </trkpt>
      <trkpt lat="45.39063" lon="4.50253">
        <ele>697</ele>
        <time>2015-04-19T07:56:59Z</time>
      </trkpt>
      <trkpt lat="45.39058" lon="4.50253">
        <ele>698</ele>
        <time>2015-04-19T07:57:01Z</time>
      </trkpt>
      <trkpt lat="45.39053" lon="4.50253">
        <ele>698</ele>
        <time>2015-04-19T07:57:04Z</time>
      </trkpt>
      <trkpt lat="45.3905" lon="4.50252">
        <ele>699</ele>
        <time>2015-04-19T07:57:06Z</time>
      </trkpt>
      <trkpt lat="45.39045" lon="4.50251">
        <ele>700</ele>
        <time>2015-04-19T07:57:09Z</time>
      </trkpt>
      <trkpt lat="45.39042" lon="4.50251">
        <ele>700</ele>
        <time>2015-04-19T07:57:12Z</time>
      </trkpt>
      <trkpt lat="45.39037" lon="4.50252">
        <ele>700</ele>
        <time>2015-04-19T07:57:14Z</time>
      </trkpt>
      <trkpt lat="45.39034" lon="4.50252">
        <ele>700</ele>
        <time>2015-04-19T07:57:17Z</time>
      </trkpt>
      <trkpt lat="45.39031" lon="4.50251">
        <ele>700</ele>
        <time>2015-04-19T07:57:20Z</time>
      </trkpt>
      <trkpt lat="45.39027" lon="4.50249">
        <ele>701</ele>
        <time>2015-04-19T07:57:23Z</time>
      </trkpt>
      <trkpt lat="45.39023" lon="4.50248">
        <ele>701</ele>
        <time>2015-04-19T07:57:25Z</time>
      </trkpt>
      <trkpt lat="45.39019" lon="4.50247">
        <ele>702</ele>
        <time>2015-04-19T07:57:28Z</time>
      </trkpt>
      <trkpt lat="45.39016" lon="4.50246">
        <ele>702</ele>
        <time>2015-04-19T07:57:31Z</time>
      </trkpt>
      <trkpt lat="45.39013" lon="4.50245">
        <ele>702</ele>
        <time>2015-04-19T07:57:33Z</time>
      </trkpt>
      <trkpt lat="45.39009" lon="4.50244">
        <ele>702</ele>
        <time>2015-04-19T07:57:35Z</time>
      </trkpt>
      <trkpt lat="45.39006" lon="4.50242">
        <ele>703</ele>
        <time>2015-04-19T07:57:38Z</time>
      </trkpt>
      <trkpt lat="45.39004" lon="4.5024">
        <ele>704</ele>
        <time>2015-04-19T07:57:41Z</time>
      </trkpt>
      <trkpt lat="45.39001" lon="4.50236">
        <ele>704</ele>
        <time>2015-04-19T07:57:44Z</time>
      </trkpt>
      <trkpt lat="45.38997" lon="4.50232">
        <ele>705</ele>
        <time>2015-04-19T07:57:47Z</time>
      </trkpt>
      <trkpt lat="45.38994" lon="4.5023">
        <ele>705</ele>
        <time>2015-04-19T07:57:50Z</time>
      </trkpt>
      <trkpt lat="45.38992" lon="4.50226">
        <ele>706</ele>
        <time>2015-04-19T07:57:53Z</time>
      </trkpt>
      <trkpt lat="45.38991" lon="4.50224">
        <ele>706</ele>
        <time>2015-04-19T07:57:56Z</time>
      </trkpt>
      <trkpt lat="45.3899" lon="4.5022">
        <ele>706</ele>
        <time>2015-04-19T07:57:58Z</time>
      </trkpt>
      <trkpt lat="45.38987" lon="4.50216">
        <ele>707</ele>
        <time>2015-04-19T07:58:01Z</time>
      </trkpt>
      <trkpt lat="45.38984" lon="4.50213">
        <ele>708</ele>
        <time>2015-04-19T07:58:04Z</time>
      </trkpt>
      <trkpt lat="45.38982" lon="4.5021">
        <ele>709</ele>
        <time>2015-04-19T07:58:07Z</time>
      </trkpt>
      <trkpt lat="45.38978" lon="4.50206">
        <ele>709</ele>
        <time>2015-04-19T07:58:10Z</time>
      </trkpt>
      <trkpt lat="45.38974" lon="4.50204">
        <ele>710</ele>
        <time>2015-04-19T07:58:13Z</time>
      </trkpt>
      <trkpt lat="45.3897" lon="4.50201">
        <ele>711</ele>
        <time>2015-04-19T07:58:16Z</time>
      </trkpt>
      <trkpt lat="45.38968" lon="4.50199">
        <ele>712</ele>
        <time>2015-04-19T07:58:19Z</time>
      </trkpt>
      <trkpt lat="45.38965" lon="4.50198">
        <ele>713</ele>
        <time>2015-04-19T07:58:22Z</time>
      </trkpt>
      <trkpt lat="45.38962" lon="4.50196">
        <ele>713</ele>
        <time>2015-04-19T07:58:24Z</time>
      </trkpt>
      <trkpt lat="45.3896" lon="4.50195">
        <ele>714</ele>
        <time>2015-04-19T07:58:26Z</time>
      </trkpt>
      <trkpt lat="45.38958" lon="4.50192">
        <ele>715</ele>
        <time>2015-04-19T07:58:29Z</time>
      </trkpt>
      <trkpt lat="45.38954" lon="4.5019">
        <ele>716</ele>
        <time>2015-04-19T07:58:32Z</time>
      </trkpt>
      <trkpt lat="45.38949" lon="4.50187">
        <ele>717</ele>
        <time>2015-04-19T07:58:35Z</time>
      </trkpt>
      <trkpt lat="45.38946" lon="4.50186">
        <ele>717</ele>
        <time>2015-04-19T07:58:38Z</time>
      </trkpt>
      <trkpt lat="45.38944" lon="4.50184">
        <ele>718</ele>
        <time>2015-04-19T07:58:40Z</time>
      </trkpt>
      <trkpt lat="45.3894" lon="4.50181">
        <ele>718</ele>
        <time>2015-04-19T07:58:42Z</time>
      </trkpt>
      <trkpt lat="45.38938" lon="4.50179">
        <ele>718</ele>
        <time>2015-04-19T07:58:44Z</time>
      </trkpt>
      <trkpt lat="45.38935" lon="4.50175">
        <ele>718</ele>
        <time>2015-04-19T07:58:47Z</time>
      </trkpt>
      <trkpt lat="45.38933" lon="4.50173">
        <ele>719</ele>
        <time>2015-04-19T07:58:50Z</time>
      </trkpt>
      <trkpt lat="45.38929" lon="4.50169">
        <ele>720</ele>
        <time>2015-04-19T07:58:53Z</time>
      </trkpt>
      <trkpt lat="45.38927" lon="4.50165">
        <ele>721</ele>
        <time>2015-04-19T07:58:56Z</time>
      </trkpt>
      <trkpt lat="45.38925" lon="4.50164">
        <ele>721</ele>
        <time>2015-04-19T07:59:00Z</time>
      </trkpt>
      <trkpt lat="45.38923" lon="4.5016">
        <ele>722</ele>
        <time>2015-04-19T07:59:02Z</time>
      </trkpt>
      <trkpt lat="45.38921" lon="4.50156">
        <ele>722</ele>
        <time>2015-04-19T07:59:05Z</time>
      </trkpt>
      <trkpt lat="45.38918" lon="4.50154">
        <ele>723</ele>
        <time>2015-04-19T07:59:08Z</time>
      </trkpt>
      <trkpt lat="45.38915" lon="4.5015">
        <ele>723</ele>
        <time>2015-04-19T07:59:11Z</time>
      </trkpt>
      <trkpt lat="45.38912" lon="4.50146">
        <ele>724</ele>
        <time>2015-04-19T07:59:14Z</time>
      </trkpt>
      <trkpt lat="45.38907" lon="4.50143">
        <ele>725</ele>
        <time>2015-04-19T07:59:17Z</time>
      </trkpt>
      <trkpt lat="45.38903" lon="4.5014">
        <ele>725</ele>
        <time>2015-04-19T07:59:20Z</time>
      </trkpt>
      <trkpt lat="45.38901" lon="4.50139">
        <ele>726</ele>
        <time>2015-04-19T07:59:23Z</time>
      </trkpt>
      <trkpt lat="45.38896" lon="4.50137">
        <ele>726</ele>
        <time>2015-04-19T07:59:25Z</time>
      </trkpt>
      <trkpt lat="45.38893" lon="4.50135">
        <ele>727</ele>
        <time>2015-04-19T07:59:28Z</time>
      </trkpt>
      <trkpt lat="45.3889" lon="4.50134">
        <ele>727</ele>
        <time>2015-04-19T07:59:31Z</time>
      </trkpt>
      <trkpt lat="45.38887" lon="4.50133">
        <ele>728</ele>
        <time>2015-04-19T07:59:34Z</time>
      </trkpt>
      <trkpt lat="45.38884" lon="4.50132">
        <ele>729</ele>
        <time>2015-04-19T07:59:36Z</time>
      </trkpt>
      <trkpt lat="45.38881" lon="4.5013">
        <ele>729</ele>
        <time>2015-04-19T07:59:39Z</time>
      </trkpt>
      <trkpt lat="45.38879" lon="4.50128">
        <ele>730</ele>
        <time>2015-04-19T07:59:42Z</time>
      </trkpt>
      <trkpt lat="45.38877" lon="4.50125">
        <ele>730</ele>
        <time>2015-04-19T07:59:44Z</time>
      </trkpt>
      <trkpt lat="45.38875" lon="4.50121">
        <ele>731</ele>
        <time>2015-04-19T07:59:47Z</time>
      </trkpt>
      <trkpt lat="45.38872" lon="4.50117">
        <ele>731</ele>
        <time>2015-04-19T07:59:50Z</time>
      </trkpt>
      <trkpt lat="45.38869" lon="4.50113">
        <ele>732</ele>
        <time>2015-04-19T07:59:53Z</time>
      </trkpt>
      <trkpt lat="45.38865" lon="4.50109">
        <ele>732</ele>
        <time>2015-04-19T07:59:56Z</time>
      </trkpt>
      <trkpt lat="45.38862" lon="4.50106">
        <ele>733</ele>
        <time>2015-04-19T07:59:59Z</time>
      </trkpt>
      <trkpt lat="45.38859" lon="4.50102">
        <ele>733</ele>
        <time>2015-04-19T08:00:02Z</time>
      </trkpt>
      <trkpt lat="45.38857" lon="4.50101">
        <ele>734</ele>
        <time>2015-04-19T08:00:05Z</time>
      </trkpt>
      <trkpt lat="45.38855" lon="4.50097">
        <ele>734</ele>
        <time>2015-04-19T08:00:07Z</time>
      </trkpt>
      <trkpt lat="45.38853" lon="4.50092">
        <ele>735</ele>
        <time>2015-04-19T08:00:10Z</time>
      </trkpt>
      <trkpt lat="45.3885" lon="4.50088">
        <ele>736</ele>
        <time>2015-04-19T08:00:13Z</time>
      </trkpt>
      <trkpt lat="45.38852" lon="4.50085">
        <ele>737</ele>
        <time>2015-04-19T08:00:16Z</time>
      </trkpt>
      <trkpt lat="45.38855" lon="4.50083">
        <ele>738</ele>
        <time>2015-04-19T08:00:19Z</time>
      </trkpt>
      <trkpt lat="45.38857" lon="4.50082">
        <ele>738</ele>
        <time>2015-04-19T08:00:22Z</time>
      </trkpt>
      <trkpt lat="45.38859" lon="4.5008">
        <ele>738</ele>
        <time>2015-04-19T08:00:24Z</time>
      </trkpt>
      <trkpt lat="45.38862" lon="4.50076">
        <ele>739</ele>
        <time>2015-04-19T08:00:27Z</time>
      </trkpt>
      <trkpt lat="45.38865" lon="4.50072">
        <ele>739</ele>
        <time>2015-04-19T08:00:30Z</time>
      </trkpt>
      <trkpt lat="45.38867" lon="4.50069">
        <ele>740</ele>
        <time>2015-04-19T08:00:33Z</time>
      </trkpt>
      <trkpt lat="45.3887" lon="4.50067">
        <ele>740</ele>
        <time>2015-04-19T08:00:35Z</time>
      </trkpt>
      <trkpt lat="45.38873" lon="4.50066">
        <ele>741</ele>
        <time>2015-04-19T08:00:37Z</time>
      </trkpt>
      <trkpt lat="45.38874" lon="4.50064">
        <ele>741</ele>
        <time>2015-04-19T08:00:40Z</time>
      </trkpt>
      <trkpt lat="45.38877" lon="4.50064">
        <ele>742</ele>
        <time>2015-04-19T08:00:43Z</time>
      </trkpt>
      <trkpt lat="45.38879" lon="4.50065">
        <ele>742</ele>
        <time>2015-04-19T08:00:45Z</time>
      </trkpt>
      <trkpt lat="45.38881" lon="4.50066">
        <ele>743</ele>
        <time>2015-04-19T08:00:47Z</time>
      </trkpt>
      <trkpt lat="45.38884" lon="4.50066">
        <ele>743</ele>
        <time>2015-04-19T08:00:50Z</time>
      </trkpt>
      <trkpt lat="45.38887" lon="4.50066">
        <ele>744</ele>
        <time>2015-04-19T08:00:53Z</time>
      </trkpt>
      <trkpt lat="45.38889" lon="4.50067">
        <ele>744</ele>
        <time>2015-04-19T08:00:55Z</time>
      </trkpt>
      <trkpt lat="45.38892" lon="4.50069">
        <ele>744</ele>
        <time>2015-04-19T08:00:57Z</time>
      </trkpt>
      <trkpt lat="45.38895" lon="4.5007">
        <ele>745</ele>
        <time>2015-04-19T08:01:00Z</time>
      </trkpt>
      <trkpt lat="45.38898" lon="4.50069">
        <ele>746</ele>
        <time>2015-04-19T08:01:03Z</time>
      </trkpt>
      <trkpt lat="45.389" lon="4.50069">
        <ele>746</ele>
        <time>2015-04-19T08:01:05Z</time>
      </trkpt>
      <trkpt lat="45.38902" lon="4.50068">
        <ele>746</ele>
        <time>2015-04-19T08:01:08Z</time>
      </trkpt>
      <trkpt lat="45.38906" lon="4.50068">
        <ele>746</ele>
        <time>2015-04-19T08:01:10Z</time>
      </trkpt>
      <trkpt lat="45.3891" lon="4.50068">
        <ele>747</ele>
        <time>2015-04-19T08:01:13Z</time>
      </trkpt>
      <trkpt lat="45.38913" lon="4.50069">
        <ele>748</ele>
        <time>2015-04-19T08:01:16Z</time>
      </trkpt>
      <trkpt lat="45.38916" lon="4.50069">
        <ele>749</ele>
        <time>2015-04-19T08:01:18Z</time>
      </trkpt>
      <trkpt lat="45.38919" lon="4.5007">
        <ele>749</ele>
        <time>2015-04-19T08:01:21Z</time>
      </trkpt>
      <trkpt lat="45.38924" lon="4.50072">
        <ele>749</ele>
        <time>2015-04-19T08:01:23Z</time>
      </trkpt>
      <trkpt lat="45.38928" lon="4.50073">
        <ele>750</ele>
        <time>2015-04-19T08:01:26Z</time>
      </trkpt>
      <trkpt lat="45.38932" lon="4.50075">
        <ele>750</ele>
        <time>2015-04-19T08:01:29Z</time>
      </trkpt>
      <trkpt lat="45.38936" lon="4.50076">
        <ele>751</ele>
        <time>2015-04-19T08:01:32Z</time>
      </trkpt>
      <trkpt lat="45.38939" lon="4.50076">
        <ele>751</ele>
        <time>2015-04-19T08:01:34Z</time>
      </trkpt>
      <trkpt lat="45.38943" lon="4.50077">
        <ele>751</ele>
        <time>2015-04-19T08:01:37Z</time>
      </trkpt>
      <trkpt lat="45.38947" lon="4.50079">
        <ele>751</ele>
        <time>2015-04-19T08:01:40Z</time>
      </trkpt>
      <trkpt lat="45.38951" lon="4.50081">
        <ele>751</ele>
        <time>2015-04-19T08:01:43Z</time>
      </trkpt>
      <trkpt lat="45.38957" lon="4.50082">
        <ele>751</ele>
        <time>2015-04-19T08:01:45Z</time>
      </trkpt>
      <trkpt lat="45.38961" lon="4.50081">
        <ele>752</ele>
        <time>2015-04-19T08:01:47Z</time>
      </trkpt>
      <trkpt lat="45.38969" lon="4.50079">
        <ele>751</ele>
        <time>2015-04-19T08:01:50Z</time>
      </trkpt>
      <trkpt lat="45.38973" lon="4.50076">
        <ele>751</ele>
        <time>2015-04-19T08:01:52Z</time>
      </trkpt>
      <trkpt lat="45.38977" lon="4.50074">
        <ele>750</ele>
        <time>2015-04-19T08:01:54Z</time>
      </trkpt>
      <trkpt lat="45.38979" lon="4.50071">
        <ele>749</ele>
        <time>2015-04-19T08:01:57Z</time>
      </trkpt>
      <trkpt lat="45.38984" lon="4.5007">
        <ele>748</ele>
        <time>2015-04-19T08:01:59Z</time>
      </trkpt>
      <trkpt lat="45.38986" lon="4.5007">
        <ele>748</ele>
        <time>2015-04-19T08:02:01Z</time>
      </trkpt>
      <trkpt lat="45.3899" lon="4.50068">
        <ele>747</ele>
        <time>2015-04-19T08:02:04Z</time>
      </trkpt>
      <trkpt lat="45.38995" lon="4.50067">
        <ele>746</ele>
        <time>2015-04-19T08:02:07Z</time>
      </trkpt>
      <trkpt lat="45.38999" lon="4.50067">
        <ele>746</ele>
        <time>2015-04-19T08:02:10Z</time>
      </trkpt>
      <trkpt lat="45.39005" lon="4.50067">
        <ele>745</ele>
        <time>2015-04-19T08:02:12Z</time>
      </trkpt>
      <trkpt lat="45.39009" lon="4.50069">
        <ele>745</ele>
        <time>2015-04-19T08:02:14Z</time>
      </trkpt>
      <trkpt lat="45.39015" lon="4.5007">
        <ele>745</ele>
        <time>2015-04-19T08:02:17Z</time>
      </trkpt>
      <trkpt lat="45.39021" lon="4.50069">
        <ele>745</ele>
        <time>2015-04-19T08:02:20Z</time>
      </trkpt>
      <trkpt lat="45.39027" lon="4.50071">
        <ele>746</ele>
        <time>2015-04-19T08:02:23Z</time>
      </trkpt>
      <trkpt lat="45.39031" lon="4.50071">
        <ele>746</ele>
        <time>2015-04-19T08:02:25Z</time>
      </trkpt>
      <trkpt lat="45.39036" lon="4.50071">
        <ele>747</ele>
        <time>2015-04-19T08:02:28Z</time>
      </trkpt>
      <trkpt lat="45.39042" lon="4.5007">
        <ele>747</ele>
        <time>2015-04-19T08:02:30Z</time>
      </trkpt>
      <trkpt lat="45.39047" lon="4.5007">
        <ele>748</ele>
        <time>2015-04-19T08:02:32Z</time>
      </trkpt>
      <trkpt lat="45.39051" lon="4.50069">
        <ele>748</ele>
        <time>2015-04-19T08:02:34Z</time>
      </trkpt>
      <trkpt lat="45.39056" lon="4.5007">
        <ele>749</ele>
        <time>2015-04-19T08:02:37Z</time>
      </trkpt>
      <trkpt lat="45.3906" lon="4.5007">
        <ele>750</ele>
        <time>2015-04-19T08:02:39Z</time>
      </trkpt>
      <trkpt lat="45.39066" lon="4.5007">
        <ele>750</ele>
        <time>2015-04-19T08:02:42Z</time>
      </trkpt>
      <trkpt lat="45.39071" lon="4.50072">
        <ele>750</ele>
        <time>2015-04-19T08:02:45Z</time>
      </trkpt>
      <trkpt lat="45.39075" lon="4.50073">
        <ele>750</ele>
        <time>2015-04-19T08:02:47Z</time>
      </trkpt>
      <trkpt lat="45.3908" lon="4.50074">
        <ele>750</ele>
        <time>2015-04-19T08:02:50Z</time>
      </trkpt>
      <trkpt lat="45.39084" lon="4.50074">
        <ele>750</ele>
        <time>2015-04-19T08:02:52Z</time>
      </trkpt>
      <trkpt lat="45.39092" lon="4.50075">
        <ele>750</ele>
        <time>2015-04-19T08:02:54Z</time>
      </trkpt>
      <trkpt lat="45.39096" lon="4.50075">
        <ele>751</ele>
        <time>2015-04-19T08:02:56Z</time>
      </trkpt>
      <trkpt lat="45.39101" lon="4.50073">
        <ele>751</ele>
        <time>2015-04-19T08:02:58Z</time>
      </trkpt>
      <trkpt lat="45.39108" lon="4.50072">
        <ele>751</ele>
        <time>2015-04-19T08:03:01Z</time>
      </trkpt>
      <trkpt lat="45.39114" lon="4.5007">
        <ele>751</ele>
        <time>2015-04-19T08:03:03Z</time>
      </trkpt>
      <trkpt lat="45.39119" lon="4.50068">
        <ele>751</ele>
        <time>2015-04-19T08:03:05Z</time>
      </trkpt>
      <trkpt lat="45.39126" lon="4.50064">
        <ele>751</ele>
        <time>2015-04-19T08:03:08Z</time>
      </trkpt>
      <trkpt lat="45.39134" lon="4.5006">
        <ele>750</ele>
        <time>2015-04-19T08:03:11Z</time>
      </trkpt>
      <trkpt lat="45.39142" lon="4.50057">
        <ele>750</ele>
        <time>2015-04-19T08:03:14Z</time>
      </trkpt>
      <trkpt lat="45.39149" lon="4.50054">
        <ele>750</ele>
        <time>2015-04-19T08:03:16Z</time>
      </trkpt>
      <trkpt lat="45.39156" lon="4.50051">
        <ele>750</ele>
        <time>2015-04-19T08:03:19Z</time>
      </trkpt>
      <trkpt lat="45.39161" lon="4.5005">
        <ele>750</ele>
        <time>2015-04-19T08:03:21Z</time>
      </trkpt>
      <trkpt lat="45.39168" lon="4.50048">
        <ele>750</ele>
        <time>2015-04-19T08:03:24Z</time>
      </trkpt>
      <trkpt lat="45.39175" lon="4.50048">
        <ele>749</ele>
        <time>2015-04-19T08:03:27Z</time>
      </trkpt>
      <trkpt lat="45.39178" lon="4.50048">
        <ele>748</ele>
        <time>2015-04-19T08:03:29Z</time>
      </trkpt>
      <trkpt lat="45.39185" lon="4.5005">
        <ele>747</ele>
        <time>2015-04-19T08:03:32Z</time>
      </trkpt>
      <trkpt lat="45.3919" lon="4.5005">
        <ele>746</ele>
        <time>2015-04-19T08:03:35Z</time>
      </trkpt>
      <trkpt lat="45.39198" lon="4.50048">
        <ele>745</ele>
        <time>2015-04-19T08:03:37Z</time>
      </trkpt>
      <trkpt lat="45.39206" lon="4.50046">
        <ele>744</ele>
        <time>2015-04-19T08:03:40Z</time>
      </trkpt>
      <trkpt lat="45.39214" lon="4.50044">
        <ele>744</ele>
        <time>2015-04-19T08:03:43Z</time>
      </trkpt>
      <trkpt lat="45.39223" lon="4.50042">
        <ele>743</ele>
        <time>2015-04-19T08:03:46Z</time>
      </trkpt>
      <trkpt lat="45.39227" lon="4.50041">
        <ele>743</ele>
        <time>2015-04-19T08:03:49Z</time>
      </trkpt>
      <trkpt lat="45.39233" lon="4.50037">
        <ele>743</ele>
        <time>2015-04-19T08:03:51Z</time>
      </trkpt>
      <trkpt lat="45.39238" lon="4.50036">
        <ele>744</ele>
        <time>2015-04-19T08:03:54Z</time>
      </trkpt>
      <trkpt lat="45.39243" lon="4.50036">
        <ele>744</ele>
        <time>2015-04-19T08:03:56Z</time>
      </trkpt>
      <trkpt lat="45.3925" lon="4.50036">
        <ele>744</ele>
        <time>2015-04-19T08:03:59Z</time>
      </trkpt>
      <trkpt lat="45.39254" lon="4.50035">
        <ele>744</ele>
        <time>2015-04-19T08:04:02Z</time>
      </trkpt>
      <trkpt lat="45.39261" lon="4.50032">
        <ele>744</ele>
        <time>2015-04-19T08:04:04Z</time>
      </trkpt>
      <trkpt lat="45.39268" lon="4.5003">
        <ele>745</ele>
        <time>2015-04-19T08:04:07Z</time>
      </trkpt>
      <trkpt lat="45.39274" lon="4.50028">
        <ele>745</ele>
        <time>2015-04-19T08:04:09Z</time>
      </trkpt>
      <trkpt lat="45.39279" lon="4.50028">
        <ele>745</ele>
        <time>2015-04-19T08:04:11Z</time>
      </trkpt>
      <trkpt lat="45.39285" lon="4.50027">
        <ele>745</ele>
        <time>2015-04-19T08:04:14Z</time>
      </trkpt>
      <trkpt lat="45.39289" lon="4.50027">
        <ele>746</ele>
        <time>2015-04-19T08:04:16Z</time>
      </trkpt>
      <trkpt lat="45.39296" lon="4.50025">
        <ele>746</ele>
        <time>2015-04-19T08:04:19Z</time>
      </trkpt>
      <trkpt lat="45.39302" lon="4.5002">
        <ele>746</ele>
        <time>2015-04-19T08:04:22Z</time>
      </trkpt>
      <trkpt lat="45.39307" lon="4.50016">
        <ele>746</ele>
        <time>2015-04-19T08:04:25Z</time>
      </trkpt>
      <trkpt lat="45.39312" lon="4.50014">
        <ele>747</ele>
        <time>2015-04-19T08:04:27Z</time>
      </trkpt>
      <trkpt lat="45.39317" lon="4.50011">
        <ele>747</ele>
        <time>2015-04-19T08:04:29Z</time>
      </trkpt>
      <trkpt lat="45.39322" lon="4.50008">
        <ele>748</ele>
        <time>2015-04-19T08:04:31Z</time>
      </trkpt>
      <trkpt lat="45.39328" lon="4.50003">
        <ele>749</ele>
        <time>2015-04-19T08:04:34Z</time>
      </trkpt>
      <trkpt lat="45.39332" lon="4.50001">
        <ele>749</ele>
        <time>2015-04-19T08:04:37Z</time>
      </trkpt>
      <trkpt lat="45.39337" lon="4.49998">
        <ele>750</ele>
        <time>2015-04-19T08:04:39Z</time>
      </trkpt>
      <trkpt lat="45.39343" lon="4.49995">
        <ele>751</ele>
        <time>2015-04-19T08:04:42Z</time>
      </trkpt>
      <trkpt lat="45.3935" lon="4.49993">
        <ele>752</ele>
        <time>2015-04-19T08:04:45Z</time>
      </trkpt>
      <trkpt lat="45.39354" lon="4.49991">
        <ele>752</ele>
        <time>2015-04-19T08:04:47Z</time>
      </trkpt>
      <trkpt lat="45.39359" lon="4.49989">
        <ele>753</ele>
        <time>2015-04-19T08:04:49Z</time>
      </trkpt>
      <trkpt lat="45.39365" lon="4.49986">
        <ele>753</ele>
        <time>2015-04-19T08:04:52Z</time>
      </trkpt>
      <trkpt lat="45.39369" lon="4.49984">
        <ele>754</ele>
        <time>2015-04-19T08:04:54Z</time>
      </trkpt>
      <trkpt lat="45.39373" lon="4.49981">
        <ele>754</ele>
        <time>2015-04-19T08:04:56Z</time>
      </trkpt>
      <trkpt lat="45.39378" lon="4.49978">
        <ele>754</ele>
        <time>2015-04-19T08:04:59Z</time>
      </trkpt>
      <trkpt lat="45.39381" lon="4.49976">
        <ele>755</ele>
        <time>2015-04-19T08:05:01Z</time>
      </trkpt>
      <trkpt lat="45.39386" lon="4.49972">
        <ele>755</ele>
        <time>2015-04-19T08:05:04Z</time>
      </trkpt>
      <trkpt lat="45.39388" lon="4.4997">
        <ele>756</ele>
        <time>2015-04-19T08:05:06Z</time>
      </trkpt>
      <trkpt lat="45.3939" lon="4.49968">
        <ele>756</ele>
        <time>2015-04-19T08:05:09Z</time>
      </trkpt>
      <trkpt lat="45.3939" lon="4.49966">
        <ele>757</ele>
        <time>2015-04-19T08:05:11Z</time>
      </trkpt>
      <trkpt lat="45.39389" lon="4.49965">
        <ele>758</ele>
        <time>2015-04-19T08:05:14Z</time>
      </trkpt>
      <trkpt lat="45.39389" lon="4.49965">
        <ele>759</ele>
        <time>2015-04-19T08:05:16Z</time>
      </trkpt>
      <trkpt lat="45.39387" lon="4.49964">
        <ele>759</ele>
        <time>2015-04-19T08:05:18Z</time>
      </trkpt>
      <trkpt lat="45.39385" lon="4.49964">
        <ele>759</ele>
        <time>2015-04-19T08:05:21Z</time>
      </trkpt>
      <trkpt lat="45.39381" lon="4.49964">
        <ele>759</ele>
        <time>2015-04-19T08:05:24Z</time>
      </trkpt>
      <trkpt lat="45.3938" lon="4.49963">
        <ele>759</ele>
        <time>2015-04-19T08:05:27Z</time>
      </trkpt>
      <trkpt lat="45.39377" lon="4.49964">
        <ele>760</ele>
        <time>2015-04-19T08:05:29Z</time>
      </trkpt>
      <trkpt lat="45.39374" lon="4.49965">
        <ele>760</ele>
        <time>2015-04-19T08:05:32Z</time>
      </trkpt>
      <trkpt lat="45.39371" lon="4.49965">
        <ele>760</ele>
        <time>2015-04-19T08:05:34Z</time>
      </trkpt>
      <trkpt lat="45.39369" lon="4.49965">
        <ele>761</ele>
        <time>2015-04-19T08:05:36Z</time>
      </trkpt>
      <trkpt lat="45.39367" lon="4.49964">
        <ele>762</ele>
        <time>2015-04-19T08:05:39Z</time>
      </trkpt>
      <trkpt lat="45.39364" lon="4.49964">
        <ele>762</ele>
        <time>2015-04-19T08:05:42Z</time>
      </trkpt>
      <trkpt lat="45.39361" lon="4.49964">
        <ele>763</ele>
        <time>2015-04-19T08:05:45Z</time>
      </trkpt>
      <trkpt lat="45.39359" lon="4.49964">
        <ele>763</ele>
        <time>2015-04-19T08:05:47Z</time>
      </trkpt>
      <trkpt lat="45.39357" lon="4.49964">
        <ele>763</ele>
        <time>2015-04-19T08:05:50Z</time>
      </trkpt>
      <trkpt lat="45.39355" lon="4.49964">
        <ele>763</ele>
        <time>2015-04-19T08:05:52Z</time>
      </trkpt>
      <trkpt lat="45.39353" lon="4.49965">
        <ele>764</ele>
        <time>2015-04-19T08:05:54Z</time>
      </trkpt>
      <trkpt lat="45.39349" lon="4.49966">
        <ele>764</ele>
        <time>2015-04-19T08:05:57Z</time>
      </trkpt>
      <trkpt lat="45.39345" lon="4.49967">
        <ele>765</ele>
        <time>2015-04-19T08:06:00Z</time>
      </trkpt>
      <trkpt lat="45.39344" lon="4.49967">
        <ele>765</ele>
        <time>2015-04-19T08:06:02Z</time>
      </trkpt>
      <trkpt lat="45.39339" lon="4.49968">
        <ele>766</ele>
        <time>2015-04-19T08:06:05Z</time>
      </trkpt>
      <trkpt lat="45.39336" lon="4.49969">
        <ele>766</ele>
        <time>2015-04-19T08:06:07Z</time>
      </trkpt>
      <trkpt lat="45.39331" lon="4.4997">
        <ele>766</ele>
        <time>2015-04-19T08:06:10Z</time>
      </trkpt>
      <trkpt lat="45.39328" lon="4.49971">
        <ele>767</ele>
        <time>2015-04-19T08:06:13Z</time>
      </trkpt>
      <trkpt lat="45.39324" lon="4.49972">
        <ele>768</ele>
        <time>2015-04-19T08:06:16Z</time>
      </trkpt>
      <trkpt lat="45.39321" lon="4.49972">
        <ele>768</ele>
        <time>2015-04-19T08:06:18Z</time>
      </trkpt>
      <trkpt lat="45.39319" lon="4.49971">
        <ele>768</ele>
        <time>2015-04-19T08:06:20Z</time>
      </trkpt>
      <trkpt lat="45.39316" lon="4.4997">
        <ele>768</ele>
        <time>2015-04-19T08:06:22Z</time>
      </trkpt>
      <trkpt lat="45.39312" lon="4.4997">
        <ele>769</ele>
        <time>2015-04-19T08:06:25Z</time>
      </trkpt>
      <trkpt lat="45.39309" lon="4.49969">
        <ele>769</ele>
        <time>2015-04-19T08:06:27Z</time>
      </trkpt>
      <trkpt lat="45.39304" lon="4.49968">
        <ele>769</ele>
        <time>2015-04-19T08:06:30Z</time>
      </trkpt>
      <trkpt lat="45.39301" lon="4.49968">
        <ele>770</ele>
        <time>2015-04-19T08:06:32Z</time>
      </trkpt>
      <trkpt lat="45.39297" lon="4.49968">
        <ele>770</ele>
        <time>2015-04-19T08:06:35Z</time>
      </trkpt>
      <trkpt lat="45.39294" lon="4.49969">
        <ele>770</ele>
        <time>2015-04-19T08:06:37Z</time>
      </trkpt>
      <trkpt lat="45.3929" lon="4.49969">
        <ele>771</ele>
        <time>2015-04-19T08:06:40Z</time>
      </trkpt>
      <trkpt lat="45.39286" lon="4.49969">
        <ele>771</ele>
        <time>2015-04-19T08:06:43Z</time>
      </trkpt>
      <trkpt lat="45.39282" lon="4.49969">
        <ele>771</ele>
        <time>2015-04-19T08:06:46Z</time>
      </trkpt>
      <trkpt lat="45.39279" lon="4.4997">
        <ele>771</ele>
        <time>2015-04-19T08:06:48Z</time>
      </trkpt>
      <trkpt lat="45.39276" lon="4.4997">
        <ele>771</ele>
        <time>2015-04-19T08:06:50Z</time>
      </trkpt>
      <trkpt lat="45.39274" lon="4.49969">
        <ele>772</ele>
        <time>2015-04-19T08:06:52Z</time>
      </trkpt>
      <trkpt lat="45.39272" lon="4.49968">
        <ele>773</ele>
        <time>2015-04-19T08:06:54Z</time>
      </trkpt>
      <trkpt lat="45.3927" lon="4.49967">
        <ele>773</ele>
        <time>2015-04-19T08:06:56Z</time>
      </trkpt>
      <trkpt lat="45.39268" lon="4.49966">
        <ele>774</ele>
        <time>2015-04-19T08:06:58Z</time>
      </trkpt>
      <trkpt lat="45.39264" lon="4.49965">
        <ele>775</ele>
        <time>2015-04-19T08:07:01Z</time>
      </trkpt>
      <trkpt lat="45.39262" lon="4.49965">
        <ele>776</ele>
        <time>2015-04-19T08:07:03Z</time>
      </trkpt>
      <trkpt lat="45.39259" lon="4.49964">
        <ele>777</ele>
        <time>2015-04-19T08:07:06Z</time>
      </trkpt>
      <trkpt lat="45.39256" lon="4.49962">
        <ele>777</ele>
        <time>2015-04-19T08:07:09Z</time>
      </trkpt>
      <trkpt lat="45.39254" lon="4.49961">
        <ele>778</ele>
        <time>2015-04-19T08:07:11Z</time>
      </trkpt>
      <trkpt lat="45.39251" lon="4.4996">
        <ele>779</ele>
        <time>2015-04-19T08:07:14Z</time>
      </trkpt>
      <trkpt lat="45.39249" lon="4.49959">
        <ele>780</ele>
        <time>2015-04-19T08:07:16Z</time>
      </trkpt>
      <trkpt lat="45.39246" lon="4.49959">
        <ele>780</ele>
        <time>2015-04-19T08:07:19Z</time>
      </trkpt>
      <trkpt lat="45.39243" lon="4.49959">
        <ele>781</ele>
        <time>2015-04-19T08:07:22Z</time>
      </trkpt>
      <trkpt lat="45.39241" lon="4.49959">
        <ele>782</ele>
        <time>2015-04-19T08:07:24Z</time>
      </trkpt>
      <trkpt lat="45.39237" lon="4.49959">
        <ele>782</ele>
        <time>2015-04-19T08:07:27Z</time>
      </trkpt>
      <trkpt lat="45.39234" lon="4.4996">
        <ele>783</ele>
        <time>2015-04-19T08:07:29Z</time>
      </trkpt>
      <trkpt lat="45.39227" lon="4.49963">
        <ele>783</ele>
        <time>2015-04-19T08:07:32Z</time>
      </trkpt>
      <trkpt lat="45.3922" lon="4.49965">
        <ele>783</ele>
        <time>2015-04-19T08:07:35Z</time>
      </trkpt>
      <trkpt lat="45.39216" lon="4.49965">
        <ele>783</ele>
        <time>2015-04-19T08:07:37Z</time>
      </trkpt>
      <trkpt lat="45.3921" lon="4.49964">
        <ele>783</ele>
        <time>2015-04-19T08:07:40Z</time>
      </trkpt>
      <trkpt lat="45.39204" lon="4.49963">
        <ele>784</ele>
        <time>2015-04-19T08:07:43Z</time>
      </trkpt>
      <trkpt lat="45.392" lon="4.49961">
        <ele>785</ele>
        <time>2015-04-19T08:07:46Z</time>
      </trkpt>
      <trkpt lat="45.39195" lon="4.4996">
        <ele>785</ele>
        <time>2015-04-19T08:07:49Z</time>
      </trkpt>
      <trkpt lat="45.39191" lon="4.4996">
        <ele>785</ele>
        <time>2015-04-19T08:07:51Z</time>
      </trkpt>
      <trkpt lat="45.39189" lon="4.4996">
        <ele>786</ele>
        <time>2015-04-19T08:07:53Z</time>
      </trkpt>
      <trkpt lat="45.39186" lon="4.4996">
        <ele>787</ele>
        <time>2015-04-19T08:07:56Z</time>
      </trkpt>
      <trkpt lat="45.3918" lon="4.49959">
        <ele>787</ele>
        <time>2015-04-19T08:07:58Z</time>
      </trkpt>
      <trkpt lat="45.39175" lon="4.49957">
        <ele>788</ele>
        <time>2015-04-19T08:08:01Z</time>
      </trkpt>
      <trkpt lat="45.3917" lon="4.49956">
        <ele>788</ele>
        <time>2015-04-19T08:08:04Z</time>
      </trkpt>
      <trkpt lat="45.39165" lon="4.49956">
        <ele>789</ele>
        <time>2015-04-19T08:08:06Z</time>
      </trkpt>
      <trkpt lat="45.39162" lon="4.49956">
        <ele>789</ele>
        <time>2015-04-19T08:08:08Z</time>
      </trkpt>
      <trkpt lat="45.39157" lon="4.49957">
        <ele>789</ele>
        <time>2015-04-19T08:08:10Z</time>
      </trkpt>
      <trkpt lat="45.39153" lon="4.49958">
        <ele>790</ele>
        <time>2015-04-19T08:08:12Z</time>
      </trkpt>
      <trkpt lat="45.39146" lon="4.49959">
        <ele>790</ele>
        <time>2015-04-19T08:08:15Z</time>
      </trkpt>
      <trkpt lat="45.39142" lon="4.49961">
        <ele>790</ele>
        <time>2015-04-19T08:08:17Z</time>
      </trkpt>
      <trkpt lat="45.39137" lon="4.49962">
        <ele>791</ele>
        <time>2015-04-19T08:08:19Z</time>
      </trkpt>
      <trkpt lat="45.3913" lon="4.49963">
        <ele>791</ele>
        <time>2015-04-19T08:08:22Z</time>
      </trkpt>
      <trkpt lat="45.39126" lon="4.49963">
        <ele>791</ele>
        <time>2015-04-19T08:08:24Z</time>
      </trkpt>
      <trkpt lat="45.3912" lon="4.49962">
        <ele>792</ele>
        <time>2015-04-19T08:08:27Z</time>
      </trkpt>
      <trkpt lat="45.39116" lon="4.49962">
        <ele>792</ele>
        <time>2015-04-19T08:08:30Z</time>
      </trkpt>
      <trkpt lat="45.3911" lon="4.49961">
        <ele>793</ele>
        <time>2015-04-19T08:08:32Z</time>
      </trkpt>
      <trkpt lat="45.39104" lon="4.4996">
        <ele>794</ele>
        <time>2015-04-19T08:08:35Z</time>
      </trkpt>
      <trkpt lat="45.39099" lon="4.49959">
        <ele>795</ele>
        <time>2015-04-19T08:08:38Z</time>
      </trkpt>
      <trkpt lat="45.39093" lon="4.49957">
        <ele>795</ele>
        <time>2015-04-19T08:08:41Z</time>
      </trkpt>
      <trkpt lat="45.3909" lon="4.49956">
        <ele>796</ele>
        <time>2015-04-19T08:08:43Z</time>
      </trkpt>
      <trkpt lat="45.39084" lon="4.49954">
        <ele>796</ele>
        <time>2015-04-19T08:08:46Z</time>
      </trkpt>
      <trkpt lat="45.3908" lon="4.49952">
        <ele>796</ele>
        <time>2015-04-19T08:08:48Z</time>
      </trkpt>
      <trkpt lat="45.39077" lon="4.4995">
        <ele>797</ele>
        <time>2015-04-19T08:08:51Z</time>
      </trkpt>
      <trkpt lat="45.39073" lon="4.49947">
        <ele>797</ele>
        <time>2015-04-19T08:08:54Z</time>
      </trkpt>
      <trkpt lat="45.39071" lon="4.49945">
        <ele>797</ele>
        <time>2015-04-19T08:08:56Z</time>
      </trkpt>
      <trkpt lat="45.39069" lon="4.49945">
        <ele>798</ele>
        <time>2015-04-19T08:08:59Z</time>
      </trkpt>
      <trkpt lat="45.39067" lon="4.49943">
        <ele>798</ele>
        <time>2015-04-19T08:09:01Z</time>
      </trkpt>
      <trkpt lat="45.39064" lon="4.4994">
        <ele>798</ele>
        <time>2015-04-19T08:09:04Z</time>
      </trkpt>
      <trkpt lat="45.39062" lon="4.49937">
        <ele>799</ele>
        <time>2015-04-19T08:09:06Z</time>
      </trkpt>
      <trkpt lat="45.3906" lon="4.49934">
        <ele>800</ele>
        <time>2015-04-19T08:09:09Z</time>
      </trkpt>
      <trkpt lat="45.39057" lon="4.4993">
        <ele>801</ele>
        <time>2015-04-19T08:09:12Z</time>
      </trkpt>
      <trkpt lat="45.39056" lon="4.49927">
        <ele>801</ele>
        <time>2015-04-19T08:09:14Z</time>
      </trkpt>
      <trkpt lat="45.39053" lon="4.49924">
        <ele>801</ele>
        <time>2015-04-19T08:09:17Z</time>
      </trkpt>
      <trkpt lat="45.3905" lon="4.49922">
        <ele>802</ele>
        <time>2015-04-19T08:09:20Z</time>
      </trkpt>
      <trkpt lat="45.39048" lon="4.49921">
        <ele>802</ele>
        <time>2015-04-19T08:09:22Z</time>
      </trkpt>
      <trkpt lat="45.39044" lon="4.49918">
        <ele>803</ele>
        <time>2015-04-19T08:09:25Z</time>
      </trkpt>
      <trkpt lat="45.39042" lon="4.49916">
        <ele>803</ele>
        <time>2015-04-19T08:09:27Z</time>
      </trkpt>
      <trkpt lat="45.39039" lon="4.49913">
        <ele>803</ele>
        <time>2015-04-19T08:09:30Z</time>
      </trkpt>
      <trkpt lat="45.39037" lon="4.49911">
        <ele>804</ele>
        <time>2015-04-19T08:09:32Z</time>
      </trkpt>
      <trkpt lat="45.39034" lon="4.49907">
        <ele>804</ele>
        <time>2015-04-19T08:09:35Z</time>
      </trkpt>
      <trkpt lat="45.3903" lon="4.49904">
        <ele>805</ele>
        <time>2015-04-19T08:09:38Z</time>
      </trkpt>
      <trkpt lat="45.39028" lon="4.49902">
        <ele>806</ele>
        <time>2015-04-19T08:09:40Z</time>
      </trkpt>
      <trkpt lat="45.39025" lon="4.499">
        <ele>806</ele>
        <time>2015-04-19T08:09:43Z</time>
      </trkpt>
      <trkpt lat="45.39023" lon="4.49897">
        <ele>806</ele>
        <time>2015-04-19T08:09:45Z</time>
      </trkpt>
      <trkpt lat="45.39021" lon="4.49894">
        <ele>807</ele>
        <time>2015-04-19T08:09:48Z</time>
      </trkpt>
      <trkpt lat="45.39019" lon="4.49892">
        <ele>807</ele>
        <time>2015-04-19T08:09:50Z</time>
      </trkpt>
      <trkpt lat="45.39016" lon="4.49886">
        <ele>807</ele>
        <time>2015-04-19T08:09:53Z</time>
      </trkpt>
      <trkpt lat="45.39014" lon="4.49882">
        <ele>807</ele>
        <time>2015-04-19T08:09:55Z</time>
      </trkpt>
      <trkpt lat="45.3901" lon="4.49877">
        <ele>807</ele>
        <time>2015-04-19T08:09:58Z</time>
      </trkpt>
      <trkpt lat="45.39008" lon="4.49874">
        <ele>808</ele>
        <time>2015-04-19T08:10:00Z</time>
      </trkpt>
      <trkpt lat="45.39004" lon="4.49871">
        <ele>809</ele>
        <time>2015-04-19T08:10:02Z</time>
      </trkpt>
      <trkpt lat="45.39" lon="4.49868">
        <ele>809</ele>
        <time>2015-04-19T08:10:05Z</time>
      </trkpt>
      <trkpt lat="45.38996" lon="4.49863">
        <ele>810</ele>
        <time>2015-04-19T08:10:07Z</time>
      </trkpt>
      <trkpt lat="45.3899" lon="4.49857">
        <ele>810</ele>
        <time>2015-04-19T08:10:10Z</time>
      </trkpt>
      <trkpt lat="45.38986" lon="4.49854">
        <ele>810</ele>
        <time>2015-04-19T08:10:12Z</time>
      </trkpt>
      <trkpt lat="45.38981" lon="4.49852">
        <ele>811</ele>
        <time>2015-04-19T08:10:15Z</time>
      </trkpt>
      <trkpt lat="45.38977" lon="4.4985">
        <ele>811</ele>
        <time>2015-04-19T08:10:17Z</time>
      </trkpt>
      <trkpt lat="45.38973" lon="4.49852">
        <ele>812</ele>
        <time>2015-04-19T08:10:20Z</time>
      </trkpt>
      <trkpt lat="45.38972" lon="4.49855">
        <ele>812</ele>
        <time>2015-04-19T08:10:22Z</time>
      </trkpt>
      <trkpt lat="45.3897" lon="4.49858">
        <ele>813</ele>
        <time>2015-04-19T08:10:25Z</time>
      </trkpt>
      <trkpt lat="45.38968" lon="4.4986">
        <ele>813</ele>
        <time>2015-04-19T08:10:27Z</time>
      </trkpt>
      <trkpt lat="45.38967" lon="4.49864">
        <ele>814</ele>
        <time>2015-04-19T08:10:30Z</time>
      </trkpt>
      <trkpt lat="45.38964" lon="4.49867">
        <ele>814</ele>
        <time>2015-04-19T08:10:32Z</time>
      </trkpt>
      <trkpt lat="45.38959" lon="4.49873">
        <ele>815</ele>
        <time>2015-04-19T08:10:35Z</time>
      </trkpt>
      <trkpt lat="45.38955" lon="4.49876">
        <ele>816</ele>
        <time>2015-04-19T08:10:38Z</time>
      </trkpt>
      <trkpt lat="45.38949" lon="4.49879">
        <ele>817</ele>
        <time>2015-04-19T08:10:41Z</time>
      </trkpt>
      <trkpt lat="45.38946" lon="4.49881">
        <ele>817</ele>
        <time>2015-04-19T08:10:43Z</time>
      </trkpt>
      <trkpt lat="45.38941" lon="4.49886">
        <ele>818</ele>
        <time>2015-04-19T08:10:46Z</time>
      </trkpt>
      <trkpt lat="45.38935" lon="4.49888">
        <ele>818</ele>
        <time>2015-04-19T08:10:48Z</time>
      </trkpt>
      <trkpt lat="45.38928" lon="4.49889">
        <ele>818</ele>
        <time>2015-04-19T08:10:51Z</time>
      </trkpt>
      <trkpt lat="45.38921" lon="4.49888">
        <ele>818</ele>
        <time>2015-04-19T08:10:54Z</time>
      </trkpt>
      <trkpt lat="45.38917" lon="4.49888">
        <ele>819</ele>
        <time>2015-04-19T08:10:56Z</time>
      </trkpt>
      <trkpt lat="45.38913" lon="4.49889">
        <ele>819</ele>
        <time>2015-04-19T08:10:58Z</time>
      </trkpt>
      <trkpt lat="45.38907" lon="4.49892">
        <ele>820</ele>
        <time>2015-04-19T08:11:01Z</time>
      </trkpt>
      <trkpt lat="45.38902" lon="4.49892">
        <ele>821</ele>
        <time>2015-04-19T08:11:04Z</time>
      </trkpt>
      <trkpt lat="45.38897" lon="4.49892">
        <ele>821</ele>
        <time>2015-04-19T08:11:07Z</time>
      </trkpt>
      <trkpt lat="45.38893" lon="4.49891">
        <ele>822</ele>
        <time>2015-04-19T08:11:09Z</time>
      </trkpt>
      <trkpt lat="45.38887" lon="4.4989">
        <ele>823</ele>
        <time>2015-04-19T08:11:12Z</time>
      </trkpt>
      <trkpt lat="45.38882" lon="4.49888">
        <ele>823</ele>
        <time>2015-04-19T08:11:15Z</time>
      </trkpt>
      <trkpt lat="45.38877" lon="4.49886">
        <ele>823</ele>
        <time>2015-04-19T08:11:18Z</time>
      </trkpt>
      <trkpt lat="45.38872" lon="4.49883">
        <ele>824</ele>
        <time>2015-04-19T08:11:21Z</time>
      </trkpt>
      <trkpt lat="45.38869" lon="4.49881">
        <ele>824</ele>
        <time>2015-04-19T08:11:23Z</time>
      </trkpt>
      <trkpt lat="45.38866" lon="4.4988">
        <ele>825</ele>
        <time>2015-04-19T08:11:26Z</time>
      </trkpt>
      <trkpt lat="45.38862" lon="4.49878">
        <ele>825</ele>
        <time>2015-04-19T08:11:28Z</time>
      </trkpt>
      <trkpt lat="45.38858" lon="4.49874">
        <ele>826</ele>
        <time>2015-04-19T08:11:31Z</time>
      </trkpt>
      <trkpt lat="45.38854" lon="4.49871">
        <ele>826</ele>
        <time>2015-04-19T08:11:34Z</time>
      </trkpt>
      <trkpt lat="45.3885" lon="4.49868">
        <ele>826</ele>
        <time>2015-04-19T08:11:37Z</time>
      </trkpt>
      <trkpt lat="45.38847" lon="4.49864">
        <ele>827</ele>
        <time>2015-04-19T08:11:40Z</time>
      </trkpt>
      <trkpt lat="45.38843" lon="4.49861">
        <ele>827</ele>
        <time>2015-04-19T08:11:43Z</time>
      </trkpt>
      <trkpt lat="45.3884" lon="4.49858">
        <ele>827</ele>
        <time>2015-04-19T08:11:46Z</time>
      </trkpt>
      <trkpt lat="45.38838" lon="4.49856">
        <ele>827</ele>
        <time>2015-04-19T08:11:48Z</time>
      </trkpt>
      <trkpt lat="45.38835" lon="4.49854">
        <ele>828</ele>
        <time>2015-04-19T08:11:51Z</time>
      </trkpt>
      <trkpt lat="45.38832" lon="4.4985">
        <ele>829</ele>
        <time>2015-04-19T08:11:54Z</time>
      </trkpt>
      <trkpt lat="45.38829" lon="4.49845">
        <ele>830</ele>
        <time>2015-04-19T08:11:57Z</time>
      </trkpt>
      <trkpt lat="45.38826" lon="4.4984">
        <ele>830</ele>
        <time>2015-04-19T08:12:00Z</time>
      </trkpt>
      <trkpt lat="45.38823" lon="4.49836">
        <ele>830</ele>
        <time>2015-04-19T08:12:03Z</time>
      </trkpt>
      <trkpt lat="45.3882" lon="4.49832">
        <ele>831</ele>
        <time>2015-04-19T08:12:06Z</time>
      </trkpt>
      <trkpt lat="45.38816" lon="4.49827">
        <ele>831</ele>
        <time>2015-04-19T08:12:09Z</time>
      </trkpt>
      <trkpt lat="45.38814" lon="4.49825">
        <ele>831</ele>
        <time>2015-04-19T08:12:11Z</time>
      </trkpt>
      <trkpt lat="45.38812" lon="4.49823">
        <ele>831</ele>
        <time>2015-04-19T08:12:14Z</time>
      </trkpt>
      <trkpt lat="45.38808" lon="4.49817">
        <ele>831</ele>
        <time>2015-04-19T08:12:16Z</time>
      </trkpt>
      <trkpt lat="45.38803" lon="4.49811">
        <ele>831</ele>
        <time>2015-04-19T08:12:19Z</time>
      </trkpt>
      <trkpt lat="45.38799" lon="4.49803">
        <ele>831</ele>
        <time>2015-04-19T08:12:22Z</time>
      </trkpt>
      <trkpt lat="45.38795" lon="4.49794">
        <ele>831</ele>
        <time>2015-04-19T08:12:25Z</time>
      </trkpt>
      <trkpt lat="45.38791" lon="4.49785">
        <ele>831</ele>
        <time>2015-04-19T08:12:28Z</time>
      </trkpt>
      <trkpt lat="45.38789" lon="4.49778">
        <ele>830</ele>
        <time>2015-04-19T08:12:31Z</time>
      </trkpt>
      <trkpt lat="45.38786" lon="4.4977">
        <ele>830</ele>
        <time>2015-04-19T08:12:34Z</time>
      </trkpt>
      <trkpt lat="45.38784" lon="4.49765">
        <ele>830</ele>
        <time>2015-04-19T08:12:36Z</time>
      </trkpt>
      <trkpt lat="45.38781" lon="4.49757">
        <ele>830</ele>
        <time>2015-04-19T08:12:39Z</time>
      </trkpt>
      <trkpt lat="45.38778" lon="4.49751">
        <ele>830</ele>
        <time>2015-04-19T08:12:42Z</time>
      </trkpt>
      <trkpt lat="45.38774" lon="4.49747">
        <ele>831</ele>
        <time>2015-04-19T08:12:45Z</time>
      </trkpt>
      <trkpt lat="45.38777" lon="4.49744">
        <ele>832</ele>
        <time>2015-04-19T08:12:48Z</time>
      </trkpt>
      <trkpt lat="45.38778" lon="4.49743">
        <ele>833</ele>
        <time>2015-04-19T08:12:51Z</time>
      </trkpt>
      <trkpt lat="45.38779" lon="4.49743">
        <ele>833</ele>
        <time>2015-04-19T08:12:53Z</time>
      </trkpt>
      <trkpt lat="45.38781" lon="4.49741">
        <ele>834</ele>
        <time>2015-04-19T08:12:56Z</time>
      </trkpt>
      <trkpt lat="45.38783" lon="4.49739">
        <ele>834</ele>
        <time>2015-04-19T08:12:58Z</time>
      </trkpt>
      <trkpt lat="45.38783" lon="4.49737">
        <ele>835</ele>
        <time>2015-04-19T08:13:00Z</time>
      </trkpt>
      <trkpt lat="45.38784" lon="4.49733">
        <ele>836</ele>
        <time>2015-04-19T08:13:03Z</time>
      </trkpt>
      <trkpt lat="45.38784" lon="4.4973">
        <ele>836</ele>
        <time>2015-04-19T08:13:06Z</time>
      </trkpt>
      <trkpt lat="45.38784" lon="4.49727">
        <ele>837</ele>
        <time>2015-04-19T08:13:09Z</time>
      </trkpt>
      <trkpt lat="45.38784" lon="4.49725">
        <ele>837</ele>
        <time>2015-04-19T08:13:11Z</time>
      </trkpt>
      <trkpt lat="45.38785" lon="4.4972">
        <ele>838</ele>
        <time>2015-04-19T08:13:14Z</time>
      </trkpt>
      <trkpt lat="45.38786" lon="4.49717">
        <ele>838</ele>
        <time>2015-04-19T08:13:17Z</time>
      </trkpt>
      <trkpt lat="45.38786" lon="4.49714">
        <ele>839</ele>
        <time>2015-04-19T08:13:20Z</time>
      </trkpt>
      <trkpt lat="45.38786" lon="4.49711">
        <ele>840</ele>
        <time>2015-04-19T08:13:23Z</time>
      </trkpt>
      <trkpt lat="45.38786" lon="4.49708">
        <ele>840</ele>
        <time>2015-04-19T08:13:26Z</time>
      </trkpt>
      <trkpt lat="45.38786" lon="4.49705">
        <ele>841</ele>
        <time>2015-04-19T08:13:29Z</time>
      </trkpt>
      <trkpt lat="45.38787" lon="4.49704">
        <ele>842</ele>
        <time>2015-04-19T08:13:31Z</time>
      </trkpt>
      <trkpt lat="45.38787" lon="4.49702">
        <ele>842</ele>
        <time>2015-04-19T08:13:33Z</time>
      </trkpt>
      <trkpt lat="45.38787" lon="4.49701">
        <ele>842</ele>
        <time>2015-04-19T08:13:35Z</time>
      </trkpt>
      <trkpt lat="45.38788" lon="4.49698">
        <ele>843</ele>
        <time>2015-04-19T08:13:38Z</time>
      </trkpt>
      <trkpt lat="45.38789" lon="4.49696">
        <ele>844</ele>
        <time>2015-04-19T08:13:41Z</time>
      </trkpt>
      <trkpt lat="45.38789" lon="4.49694">
        <ele>844</ele>
        <time>2015-04-19T08:13:44Z</time>
      </trkpt>
      <trkpt lat="45.38789" lon="4.49692">
        <ele>845</ele>
        <time>2015-04-19T08:13:47Z</time>
      </trkpt>
      <trkpt lat="45.38789" lon="4.49689">
        <ele>846</ele>
        <time>2015-04-19T08:13:50Z</time>
      </trkpt>
      <trkpt lat="45.38789" lon="4.49687">
        <ele>847</ele>
        <time>2015-04-19T08:13:52Z</time>
      </trkpt>
      <trkpt lat="45.3879" lon="4.49685">
        <ele>848</ele>
        <time>2015-04-19T08:13:54Z</time>
      </trkpt>
      <trkpt lat="45.3879" lon="4.49682">
        <ele>848</ele>
        <time>2015-04-19T08:13:57Z</time>
      </trkpt>
      <trkpt lat="45.3879" lon="4.49681">
        <ele>849</ele>
        <time>2015-04-19T08:13:59Z</time>
      </trkpt>
      <trkpt lat="45.38791" lon="4.49678">
        <ele>850</ele>
        <time>2015-04-19T08:14:02Z</time>
      </trkpt>
      <trkpt lat="45.38792" lon="4.49675">
        <ele>850</ele>
        <time>2015-04-19T08:14:05Z</time>
      </trkpt>
      <trkpt lat="45.38793" lon="4.49672">
        <ele>851</ele>
        <time>2015-04-19T08:14:08Z</time>
      </trkpt>
      <trkpt lat="45.38794" lon="4.49669">
        <ele>852</ele>
        <time>2015-04-19T08:14:11Z</time>
      </trkpt>
      <trkpt lat="45.38794" lon="4.49665">
        <ele>852</ele>
        <time>2015-04-19T08:14:14Z</time>
      </trkpt>
      <trkpt lat="45.38794" lon="4.49663">
        <ele>853</ele>
        <time>2015-04-19T08:14:16Z</time>
      </trkpt>
      <trkpt lat="45.38795" lon="4.49661">
        <ele>853</ele>
        <time>2015-04-19T08:14:19Z</time>
      </trkpt>
      <trkpt lat="45.38795" lon="4.4966">
        <ele>854</ele>
        <time>2015-04-19T08:14:21Z</time>
      </trkpt>
      <trkpt lat="45.38796" lon="4.49658">
        <ele>855</ele>
        <time>2015-04-19T08:14:24Z</time>
      </trkpt>
      <trkpt lat="45.38797" lon="4.49656">
        <ele>855</ele>
        <time>2015-04-19T08:14:26Z</time>
      </trkpt>
      <trkpt lat="45.38797" lon="4.49653">
        <ele>856</ele>
        <time>2015-04-19T08:14:29Z</time>
      </trkpt>
      <trkpt lat="45.38797" lon="4.49649">
        <ele>857</ele>
        <time>2015-04-19T08:14:32Z</time>
      </trkpt>
      <trkpt lat="45.38797" lon="4.49648">
        <ele>857</ele>
        <time>2015-04-19T08:14:34Z</time>
      </trkpt>
      <trkpt lat="45.38797" lon="4.49646">
        <ele>858</ele>
        <time>2015-04-19T08:14:36Z</time>
      </trkpt>
      <trkpt lat="45.38798" lon="4.49645">
        <ele>858</ele>
        <time>2015-04-19T08:14:39Z</time>
      </trkpt>
      <trkpt lat="45.38798" lon="4.49643">
        <ele>859</ele>
        <time>2015-04-19T08:14:41Z</time>
      </trkpt>
      <trkpt lat="45.38798" lon="4.49642">
        <ele>859</ele>
        <time>2015-04-19T08:14:43Z</time>
      </trkpt>
      <trkpt lat="45.38799" lon="4.49641">
        <ele>860</ele>
        <time>2015-04-19T08:14:46Z</time>
      </trkpt>
      <trkpt lat="45.38799" lon="4.4964">
        <ele>860</ele>
        <time>2015-04-19T08:14:48Z</time>
      </trkpt>
      <trkpt lat="45.388" lon="4.49638">
        <ele>861</ele>
        <time>2015-04-19T08:14:50Z</time>
      </trkpt>
      <trkpt lat="45.388" lon="4.49636">
        <ele>861</ele>
        <time>2015-04-19T08:14:52Z</time>
      </trkpt>
      <trkpt lat="45.388" lon="4.49634">
        <ele>862</ele>
        <time>2015-04-19T08:14:54Z</time>
      </trkpt>
      <trkpt lat="45.388" lon="4.49633">
        <ele>862</ele>
        <time>2015-04-19T08:14:56Z</time>
      </trkpt>
      <trkpt lat="45.38801" lon="4.4963">
        <ele>863</ele>
        <time>2015-04-19T08:14:59Z</time>
      </trkpt>
      <trkpt lat="45.38802" lon="4.49628">
        <ele>863</ele>
        <time>2015-04-19T08:15:02Z</time>
      </trkpt>
      <trkpt lat="45.38801" lon="4.49627">
        <ele>864</ele>
        <time>2015-04-19T08:15:04Z</time>
      </trkpt>
      <trkpt lat="45.38802" lon="4.49625">
        <ele>865</ele>
        <time>2015-04-19T08:15:07Z</time>
      </trkpt>
      <trkpt lat="45.38802" lon="4.49625">
        <ele>865</ele>
        <time>2015-04-19T08:15:09Z</time>
      </trkpt>
      <trkpt lat="45.38802" lon="4.49623">
        <ele>865</ele>
        <time>2015-04-19T08:15:11Z</time>
      </trkpt>
      <trkpt lat="45.38802" lon="4.49622">
        <ele>866</ele>
        <time>2015-04-19T08:15:13Z</time>
      </trkpt>
      <trkpt lat="45.38802" lon="4.49621">
        <ele>866</ele>
        <time>2015-04-19T08:15:15Z</time>
      </trkpt>
      <trkpt lat="45.38803" lon="4.49619">
        <ele>867</ele>
        <time>2015-04-19T08:15:18Z</time>
      </trkpt>
      <trkpt lat="45.38803" lon="4.49617">
        <ele>868</ele>
        <time>2015-04-19T08:15:21Z</time>
      </trkpt>
      <trkpt lat="45.38802" lon="4.49615">
        <ele>869</ele>
        <time>2015-04-19T08:15:24Z</time>
      </trkpt>
      <trkpt lat="45.38803" lon="4.49612">
        <ele>870</ele>
        <time>2015-04-19T08:15:27Z</time>
      </trkpt>
      <trkpt lat="45.38803" lon="4.49611">
        <ele>870</ele>
        <time>2015-04-19T08:15:29Z</time>
      </trkpt>
      <trkpt lat="45.38804" lon="4.4961">
        <ele>871</ele>
        <time>2015-04-19T08:15:31Z</time>
      </trkpt>
      <trkpt lat="45.38804" lon="4.49608">
        <ele>871</ele>
        <time>2015-04-19T08:15:33Z</time>
      </trkpt>
      <trkpt lat="45.38804" lon="4.49607">
        <ele>872</ele>
        <time>2015-04-19T08:15:35Z</time>
      </trkpt>
      <trkpt lat="45.38804" lon="4.49603">
        <ele>872</ele>
        <time>2015-04-19T08:15:38Z</time>
      </trkpt>
      <trkpt lat="45.38805" lon="4.49601">
        <ele>873</ele>
        <time>2015-04-19T08:15:41Z</time>
      </trkpt>
      <trkpt lat="45.38805" lon="4.49599">
        <ele>873</ele>
        <time>2015-04-19T08:15:44Z</time>
      </trkpt>
      <trkpt lat="45.38807" lon="4.49596">
        <ele>874</ele>
        <time>2015-04-19T08:15:47Z</time>
      </trkpt>
      <trkpt lat="45.38807" lon="4.49595">
        <ele>875</ele>
        <time>2015-04-19T08:15:49Z</time>
      </trkpt>
      <trkpt lat="45.38808" lon="4.49593">
        <ele>876</ele>
        <time>2015-04-19T08:15:52Z</time>
      </trkpt>
      <trkpt lat="45.38808" lon="4.49591">
        <ele>876</ele>
        <time>2015-04-19T08:15:54Z</time>
      </trkpt>
      <trkpt lat="45.38809" lon="4.49591">
        <ele>877</ele>
        <time>2015-04-19T08:15:56Z</time>
      </trkpt>
      <trkpt lat="45.38809" lon="4.4959">
        <ele>877</ele>
        <time>2015-04-19T08:15:58Z</time>
      </trkpt>
      <trkpt lat="45.38809" lon="4.49587">
        <ele>877</ele>
        <time>2015-04-19T08:16:01Z</time>
      </trkpt>
      <trkpt lat="45.38809" lon="4.49585">
        <ele>878</ele>
        <time>2015-04-19T08:16:04Z</time>
      </trkpt>
      <trkpt lat="45.38809" lon="4.49583">
        <ele>879</ele>
        <time>2015-04-19T08:16:07Z</time>
      </trkpt>
      <trkpt lat="45.38809" lon="4.4958">
        <ele>880</ele>
        <time>2015-04-19T08:16:10Z</time>
      </trkpt>
      <trkpt lat="45.3881" lon="4.49579">
        <ele>881</ele>
        <time>2015-04-19T08:16:12Z</time>
      </trkpt>
      <trkpt lat="45.3881" lon="4.49578">
        <ele>882</ele>
        <time>2015-04-19T08:16:15Z</time>
      </trkpt>
      <trkpt lat="45.3881" lon="4.49576">
        <ele>882</ele>
        <time>2015-04-19T08:16:17Z</time>
      </trkpt>
      <trkpt lat="45.3881" lon="4.49575">
        <ele>883</ele>
        <time>2015-04-19T08:16:20Z</time>
      </trkpt>
      <trkpt lat="45.3881" lon="4.49574">
        <ele>883</ele>
        <time>2015-04-19T08:16:23Z</time>
      </trkpt>
      <trkpt lat="45.3881" lon="4.49573">
        <ele>884</ele>
        <time>2015-04-19T08:16:25Z</time>
      </trkpt>
      <trkpt lat="45.3881" lon="4.49572">
        <ele>884</ele>
        <time>2015-04-19T08:16:27Z</time>
      </trkpt>
      <trkpt lat="45.38811" lon="4.49571">
        <ele>885</ele>
        <time>2015-04-19T08:16:29Z</time>
      </trkpt>
      <trkpt lat="45.38811" lon="4.49571">
        <ele>885</ele>
        <time>2015-04-19T08:16:31Z</time>
      </trkpt>
      <trkpt lat="45.38812" lon="4.4957">
        <ele>886</ele>
        <time>2015-04-19T08:16:34Z</time>
      </trkpt>
      <trkpt lat="45.38813" lon="4.4957">
        <ele>886</ele>
        <time>2015-04-19T08:16:36Z</time>
      </trkpt>
      <trkpt lat="45.38814" lon="4.49568">
        <ele>887</ele>
        <time>2015-04-19T08:16:39Z</time>
      </trkpt>
      <trkpt lat="45.38814" lon="4.49568">
        <ele>888</ele>
        <time>2015-04-19T08:16:41Z</time>
      </trkpt>
      <trkpt lat="45.38816" lon="4.49567">
        <ele>889</ele>
        <time>2015-04-19T08:16:44Z</time>
      </trkpt>
      <trkpt lat="45.38816" lon="4.49566">
        <ele>889</ele>
        <time>2015-04-19T08:16:46Z</time>
      </trkpt>
      <trkpt lat="45.38816" lon="4.49565">
        <ele>889</ele>
        <time>2015-04-19T08:16:49Z</time>
      </trkpt>
      <trkpt lat="45.38816" lon="4.49564">
        <ele>890</ele>
        <time>2015-04-19T08:16:51Z</time>
      </trkpt>
      <trkpt lat="45.38816" lon="4.49562">
        <ele>890</ele>
        <time>2015-04-19T08:16:54Z</time>
      </trkpt>
      <trkpt lat="45.38817" lon="4.49561">
        <ele>891</ele>
        <time>2015-04-19T08:16:57Z</time>
      </trkpt>
      <trkpt lat="45.38817" lon="4.49561">
        <ele>892</ele>
        <time>2015-04-19T08:16:59Z</time>
      </trkpt>
      <trkpt lat="45.38817" lon="4.49558">
        <ele>893</ele>
        <time>2015-04-19T08:17:02Z</time>
      </trkpt>
      <trkpt lat="45.38817" lon="4.49557">
        <ele>893</ele>
        <time>2015-04-19T08:17:04Z</time>
      </trkpt>
      <trkpt lat="45.38817" lon="4.49555">
        <ele>893</ele>
        <time>2015-04-19T08:17:07Z</time>
      </trkpt>
      <trkpt lat="45.38816" lon="4.49554">
        <ele>894</ele>
        <time>2015-04-19T08:17:09Z</time>
      </trkpt>
      <trkpt lat="45.38816" lon="4.49553">
        <ele>895</ele>
        <time>2015-04-19T08:17:12Z</time>
      </trkpt>
      <trkpt lat="45.38816" lon="4.49552">
        <ele>895</ele>
        <time>2015-04-19T08:17:14Z</time>
      </trkpt>
      <trkpt lat="45.38816" lon="4.49552">
        <ele>896</ele>
        <time>2015-04-19T08:17:16Z</time>
      </trkpt>
      <trkpt lat="45.38816" lon="4.49552">
        <ele>896</ele>
        <time>2015-04-19T08:17:18Z</time>
      </trkpt>
      <trkpt lat="45.38816" lon="4.49552">
        <ele>896</ele>
        <time>2015-04-19T08:17:21Z</time>
      </trkpt>
      <trkpt lat="45.38816" lon="4.49552">
        <ele>896</ele>
        <time>2015-04-19T08:17:23Z</time>
      </trkpt>
      <trkpt lat="45.38816" lon="4.4955">
        <ele>897</ele>
        <time>2015-04-19T08:17:26Z</time>
      </trkpt>
      <trkpt lat="45.38816" lon="4.49549">
        <ele>898</ele>
        <time>2015-04-19T08:17:28Z</time>
      </trkpt>
      <trkpt lat="45.38816" lon="4.49548">
        <ele>899</ele>
        <time>2015-04-19T08:17:31Z</time>
      </trkpt>
      <trkpt lat="45.38815" lon="4.49547">
        <ele>899</ele>
        <time>2015-04-19T08:17:33Z</time>
      </trkpt>
      <trkpt lat="45.38815" lon="4.49546">
        <ele>900</ele>
        <time>2015-04-19T08:17:35Z</time>
      </trkpt>
      <trkpt lat="45.38816" lon="4.49545">
        <ele>900</ele>
        <time>2015-04-19T08:17:38Z</time>
      </trkpt>
      <trkpt lat="45.38815" lon="4.49543">
        <ele>901</ele>
        <time>2015-04-19T08:17:41Z</time>
      </trkpt>
      <trkpt lat="45.38815" lon="4.49542">
        <ele>901</ele>
        <time>2015-04-19T08:17:43Z</time>
      </trkpt>
      <trkpt lat="45.38814" lon="4.49541">
        <ele>901</ele>
        <time>2015-04-19T08:17:45Z</time>
      </trkpt>
      <trkpt lat="45.38814" lon="4.4954">
        <ele>902</ele>
        <time>2015-04-19T08:17:47Z</time>
      </trkpt>
      <trkpt lat="45.38814" lon="4.49539">
        <ele>903</ele>
        <time>2015-04-19T08:17:49Z</time>
      </trkpt>
      <trkpt lat="45.38815" lon="4.49537">
        <ele>903</ele>
        <time>2015-04-19T08:17:52Z</time>
      </trkpt>
      <trkpt lat="45.38815" lon="4.49537">
        <ele>904</ele>
        <time>2015-04-19T08:17:54Z</time>
      </trkpt>
      <trkpt lat="45.38816" lon="4.49537">
        <ele>904</ele>
        <time>2015-04-19T08:17:56Z</time>
      </trkpt>
      <trkpt lat="45.38816" lon="4.49535">
        <ele>905</ele>
        <time>2015-04-19T08:17:59Z</time>
      </trkpt>
      <trkpt lat="45.38818" lon="4.49535">
        <ele>905</ele>
        <time>2015-04-19T08:18:02Z</time>
      </trkpt>
      <trkpt lat="45.38819" lon="4.49535">
        <ele>906</ele>
        <time>2015-04-19T08:18:04Z</time>
      </trkpt>
      <trkpt lat="45.38821" lon="4.49534">
        <ele>906</ele>
        <time>2015-04-19T08:18:07Z</time>
      </trkpt>
      <trkpt lat="45.38823" lon="4.49533">
        <ele>907</ele>
        <time>2015-04-19T08:18:09Z</time>
      </trkpt>
      <trkpt lat="45.38825" lon="4.49531">
        <ele>908</ele>
        <time>2015-04-19T08:18:11Z</time>
      </trkpt>
      <trkpt lat="45.38826" lon="4.4953">
        <ele>908</ele>
        <time>2015-04-19T08:18:13Z</time>
      </trkpt>
      <trkpt lat="45.38828" lon="4.49527">
        <ele>909</ele>
        <time>2015-04-19T08:18:16Z</time>
      </trkpt>
      <trkpt lat="45.3883" lon="4.49526">
        <ele>910</ele>
        <time>2015-04-19T08:18:18Z</time>
      </trkpt>
      <trkpt lat="45.38833" lon="4.49526">
        <ele>910</ele>
        <time>2015-04-19T08:18:21Z</time>
      </trkpt>
      <trkpt lat="45.38835" lon="4.49525">
        <ele>911</ele>
        <time>2015-04-19T08:18:23Z</time>
      </trkpt>
      <trkpt lat="45.38836" lon="4.49525">
        <ele>912</ele>
        <time>2015-04-19T08:18:25Z</time>
      </trkpt>
      <trkpt lat="45.38839" lon="4.49525">
        <ele>913</ele>
        <time>2015-04-19T08:18:28Z</time>
      </trkpt>
      <trkpt lat="45.3884" lon="4.49526">
        <ele>913</ele>
        <time>2015-04-19T08:18:30Z</time>
      </trkpt>
      <trkpt lat="45.38843" lon="4.49527">
        <ele>913</ele>
        <time>2015-04-19T08:18:32Z</time>
      </trkpt>
      <trkpt lat="45.38846" lon="4.49529">
        <ele>913</ele>
        <time>2015-04-19T08:18:35Z</time>
      </trkpt>
      <trkpt lat="45.38848" lon="4.49531">
        <ele>914</ele>
        <time>2015-04-19T08:18:37Z</time>
      </trkpt>
      <trkpt lat="45.3885" lon="4.49534">
        <ele>914</ele>
        <time>2015-04-19T08:18:40Z</time>
      </trkpt>
      <trkpt lat="45.38853" lon="4.49538">
        <ele>914</ele>
        <time>2015-04-19T08:18:43Z</time>
      </trkpt>
      <trkpt lat="45.38856" lon="4.49542">
        <ele>915</ele>
        <time>2015-04-19T08:18:46Z</time>
      </trkpt>
      <trkpt lat="45.38858" lon="4.49545">
        <ele>915</ele>
        <time>2015-04-19T08:18:49Z</time>
      </trkpt>
      <trkpt lat="45.38861" lon="4.49551">
        <ele>915</ele>
        <time>2015-04-19T08:18:52Z</time>
      </trkpt>
      <trkpt lat="45.38863" lon="4.49555">
        <ele>915</ele>
        <time>2015-04-19T08:18:54Z</time>
      </trkpt>
      <trkpt lat="45.38867" lon="4.4956">
        <ele>916</ele>
        <time>2015-04-19T08:18:57Z</time>
      </trkpt>
      <trkpt lat="45.38871" lon="4.49568">
        <ele>915</ele>
        <time>2015-04-19T08:19:00Z</time>
      </trkpt>
      <trkpt lat="45.38876" lon="4.49575">
        <ele>914</ele>
        <time>2015-04-19T08:19:03Z</time>
      </trkpt>
      <trkpt lat="45.38881" lon="4.49582">
        <ele>914</ele>
        <time>2015-04-19T08:19:06Z</time>
      </trkpt>
      <trkpt lat="45.38885" lon="4.4959">
        <ele>914</ele>
        <time>2015-04-19T08:19:09Z</time>
      </trkpt>
      <trkpt lat="45.3889" lon="4.49595">
        <ele>913</ele>
        <time>2015-04-19T08:19:12Z</time>
      </trkpt>
      <trkpt lat="45.38896" lon="4.49596">
        <ele>912</ele>
        <time>2015-04-19T08:19:15Z</time>
      </trkpt>
      <trkpt lat="45.38903" lon="4.49594">
        <ele>911</ele>
        <time>2015-04-19T08:19:18Z</time>
      </trkpt>
      <trkpt lat="45.38908" lon="4.49591">
        <ele>910</ele>
        <time>2015-04-19T08:19:21Z</time>
      </trkpt>
      <trkpt lat="45.38914" lon="4.49587">
        <ele>909</ele>
        <time>2015-04-19T08:19:24Z</time>
      </trkpt>
      <trkpt lat="45.3892" lon="4.49584">
        <ele>908</ele>
        <time>2015-04-19T08:19:27Z</time>
      </trkpt>
      <trkpt lat="45.38924" lon="4.49581">
        <ele>907</ele>
        <time>2015-04-19T08:19:29Z</time>
      </trkpt>
      <trkpt lat="45.38931" lon="4.49579">
        <ele>905</ele>
        <time>2015-04-19T08:19:32Z</time>
      </trkpt>
      <trkpt lat="45.38935" lon="4.49578">
        <ele>904</ele>
        <time>2015-04-19T08:19:34Z</time>
      </trkpt>
      <trkpt lat="45.38941" lon="4.49578">
        <ele>903</ele>
        <time>2015-04-19T08:19:37Z</time>
      </trkpt>
      <trkpt lat="45.38946" lon="4.49579">
        <ele>902</ele>
        <time>2015-04-19T08:19:39Z</time>
      </trkpt>
      <trkpt lat="45.38954" lon="4.49583">
        <ele>902</ele>
        <time>2015-04-19T08:19:42Z</time>
      </trkpt>
      <trkpt lat="45.3896" lon="4.49588">
        <ele>902</ele>
        <time>2015-04-19T08:19:45Z</time>
      </trkpt>
      <trkpt lat="45.38964" lon="4.49591">
        <ele>902</ele>
        <time>2015-04-19T08:19:47Z</time>
      </trkpt>
      <trkpt lat="45.38971" lon="4.49595">
        <ele>902</ele>
        <time>2015-04-19T08:19:50Z</time>
      </trkpt>
      <trkpt lat="45.38977" lon="4.49601">
        <ele>903</ele>
        <time>2015-04-19T08:19:53Z</time>
      </trkpt>
      <trkpt lat="45.3898" lon="4.49604">
        <ele>903</ele>
        <time>2015-04-19T08:19:55Z</time>
      </trkpt>
      <trkpt lat="45.38986" lon="4.49608">
        <ele>904</ele>
        <time>2015-04-19T08:19:58Z</time>
      </trkpt>
      <trkpt lat="45.3899" lon="4.4961">
        <ele>905</ele>
        <time>2015-04-19T08:20:00Z</time>
      </trkpt>
      <trkpt lat="45.38994" lon="4.49613">
        <ele>905</ele>
        <time>2015-04-19T08:20:02Z</time>
      </trkpt>
      <trkpt lat="45.39" lon="4.49617">
        <ele>906</ele>
        <time>2015-04-19T08:20:05Z</time>
      </trkpt>
      <trkpt lat="45.39005" lon="4.49619">
        <ele>906</ele>
        <time>2015-04-19T08:20:07Z</time>
      </trkpt>
      <trkpt lat="45.39011" lon="4.49622">
        <ele>906</ele>
        <time>2015-04-19T08:20:10Z</time>
      </trkpt>
      <trkpt lat="45.39018" lon="4.49626">
        <ele>906</ele>
        <time>2015-04-19T08:20:13Z</time>
      </trkpt>
      <trkpt lat="45.39022" lon="4.49629">
        <ele>906</ele>
        <time>2015-04-19T08:20:15Z</time>
      </trkpt>
      <trkpt lat="45.39029" lon="4.49633">
        <ele>906</ele>
        <time>2015-04-19T08:20:18Z</time>
      </trkpt>
      <trkpt lat="45.39035" lon="4.49638">
        <ele>906</ele>
        <time>2015-04-19T08:20:21Z</time>
      </trkpt>
      <trkpt lat="45.3904" lon="4.4964">
        <ele>906</ele>
        <time>2015-04-19T08:20:23Z</time>
      </trkpt>
      <trkpt lat="45.39048" lon="4.49642">
        <ele>907</ele>
        <time>2015-04-19T08:20:26Z</time>
      </trkpt>
      <trkpt lat="45.39053" lon="4.49644">
        <ele>906</ele>
        <time>2015-04-19T08:20:28Z</time>
      </trkpt>
      <trkpt lat="45.39057" lon="4.49648">
        <ele>906</ele>
        <time>2015-04-19T08:20:30Z</time>
      </trkpt>
      <trkpt lat="45.39061" lon="4.49651">
        <ele>906</ele>
        <time>2015-04-19T08:20:32Z</time>
      </trkpt>
      <trkpt lat="45.39068" lon="4.49655">
        <ele>905</ele>
        <time>2015-04-19T08:20:35Z</time>
      </trkpt>
      <trkpt lat="45.39075" lon="4.49659">
        <ele>905</ele>
        <time>2015-04-19T08:20:38Z</time>
      </trkpt>
      <trkpt lat="45.39079" lon="4.49662">
        <ele>904</ele>
        <time>2015-04-19T08:20:40Z</time>
      </trkpt>
      <trkpt lat="45.39085" lon="4.49667">
        <ele>903</ele>
        <time>2015-04-19T08:20:43Z</time>
      </trkpt>
      <trkpt lat="45.3909" lon="4.49671">
        <ele>903</ele>
        <time>2015-04-19T08:20:46Z</time>
      </trkpt>
      <trkpt lat="45.39098" lon="4.49675">
        <ele>902</ele>
        <time>2015-04-19T08:20:49Z</time>
      </trkpt>
      <trkpt lat="45.39103" lon="4.49677">
        <ele>901</ele>
        <time>2015-04-19T08:20:51Z</time>
      </trkpt>
      <trkpt lat="45.39109" lon="4.49681">
        <ele>900</ele>
        <time>2015-04-19T08:20:54Z</time>
      </trkpt>
      <trkpt lat="45.39117" lon="4.49685">
        <ele>899</ele>
        <time>2015-04-19T08:20:57Z</time>
      </trkpt>
      <trkpt lat="45.39121" lon="4.49688">
        <ele>898</ele>
        <time>2015-04-19T08:20:59Z</time>
      </trkpt>
      <trkpt lat="45.39128" lon="4.49692">
        <ele>897</ele>
        <time>2015-04-19T08:21:02Z</time>
      </trkpt>
      <trkpt lat="45.39131" lon="4.49693">
        <ele>895</ele>
        <time>2015-04-19T08:21:04Z</time>
      </trkpt>
      <trkpt lat="45.39138" lon="4.49697">
        <ele>894</ele>
        <time>2015-04-19T08:21:07Z</time>
      </trkpt>
      <trkpt lat="45.39145" lon="4.49699">
        <ele>894</ele>
        <time>2015-04-19T08:21:10Z</time>
      </trkpt>
      <trkpt lat="45.39149" lon="4.49701">
        <ele>893</ele>
        <time>2015-04-19T08:21:12Z</time>
      </trkpt>
      <trkpt lat="45.39159" lon="4.49703">
        <ele>891</ele>
        <time>2015-04-19T08:21:15Z</time>
      </trkpt>
      <trkpt lat="45.39165" lon="4.49704">
        <ele>891</ele>
        <time>2015-04-19T08:21:17Z</time>
      </trkpt>
      <trkpt lat="45.39172" lon="4.49706">
        <ele>889</ele>
        <time>2015-04-19T08:21:20Z</time>
      </trkpt>
      <trkpt lat="45.39176" lon="4.49707">
        <ele>888</ele>
        <time>2015-04-19T08:21:22Z</time>
      </trkpt>
      <trkpt lat="45.39181" lon="4.49708">
        <ele>888</ele>
        <time>2015-04-19T08:21:24Z</time>
      </trkpt>
      <trkpt lat="45.39186" lon="4.4971">
        <ele>887</ele>
        <time>2015-04-19T08:21:26Z</time>
      </trkpt>
      <trkpt lat="45.3919" lon="4.49711">
        <ele>886</ele>
        <time>2015-04-19T08:21:28Z</time>
      </trkpt>
      <trkpt lat="45.39197" lon="4.49714">
        <ele>885</ele>
        <time>2015-04-19T08:21:31Z</time>
      </trkpt>
      <trkpt lat="45.39201" lon="4.49715">
        <ele>884</ele>
        <time>2015-04-19T08:21:33Z</time>
      </trkpt>
      <trkpt lat="45.39209" lon="4.49716">
        <ele>883</ele>
        <time>2015-04-19T08:21:36Z</time>
      </trkpt>
      <trkpt lat="45.39215" lon="4.49718">
        <ele>882</ele>
        <time>2015-04-19T08:21:38Z</time>
      </trkpt>
      <trkpt lat="45.39223" lon="4.49719">
        <ele>882</ele>
        <time>2015-04-19T08:21:41Z</time>
      </trkpt>
      <trkpt lat="45.3923" lon="4.49721">
        <ele>880</ele>
        <time>2015-04-19T08:21:44Z</time>
      </trkpt>
      <trkpt lat="45.39238" lon="4.49724">
        <ele>879</ele>
        <time>2015-04-19T08:21:47Z</time>
      </trkpt>
      <trkpt lat="45.39244" lon="4.49725">
        <ele>878</ele>
        <time>2015-04-19T08:21:49Z</time>
      </trkpt>
      <trkpt lat="45.3925" lon="4.49725">
        <ele>877</ele>
        <time>2015-04-19T08:21:51Z</time>
      </trkpt>
      <trkpt lat="45.39258" lon="4.49727">
        <ele>876</ele>
        <time>2015-04-19T08:21:54Z</time>
      </trkpt>
      <trkpt lat="45.39265" lon="4.49726">
        <ele>875</ele>
        <time>2015-04-19T08:21:56Z</time>
      </trkpt>
      <trkpt lat="45.39273" lon="4.49725">
        <ele>875</ele>
        <time>2015-04-19T08:21:59Z</time>
      </trkpt>
      <trkpt lat="45.39279" lon="4.49724">
        <ele>875</ele>
        <time>2015-04-19T08:22:01Z</time>
      </trkpt>
      <trkpt lat="45.39283" lon="4.49723">
        <ele>874</ele>
        <time>2015-04-19T08:22:03Z</time>
      </trkpt>
      <trkpt lat="45.39293" lon="4.4972">
        <ele>874</ele>
        <time>2015-04-19T08:22:06Z</time>
      </trkpt>
      <trkpt lat="45.39299" lon="4.49718">
        <ele>874</ele>
        <time>2015-04-19T08:22:08Z</time>
      </trkpt>
      <trkpt lat="45.39305" lon="4.49715">
        <ele>873</ele>
        <time>2015-04-19T08:22:10Z</time>
      </trkpt>
      <trkpt lat="45.39312" lon="4.49711">
        <ele>872</ele>
        <time>2015-04-19T08:22:13Z</time>
      </trkpt>
      <trkpt lat="45.39317" lon="4.49708">
        <ele>872</ele>
        <time>2015-04-19T08:22:15Z</time>
      </trkpt>
      <trkpt lat="45.39327" lon="4.49702">
        <ele>871</ele>
        <time>2015-04-19T08:22:18Z</time>
      </trkpt>
      <trkpt lat="45.39336" lon="4.49696">
        <ele>870</ele>
        <time>2015-04-19T08:22:21Z</time>
      </trkpt>
      <trkpt lat="45.39342" lon="4.49693">
        <ele>869</ele>
        <time>2015-04-19T08:22:23Z</time>
      </trkpt>
      <trkpt lat="45.39349" lon="4.49689">
        <ele>868</ele>
        <time>2015-04-19T08:22:26Z</time>
      </trkpt>
      <trkpt lat="45.39358" lon="4.49684">
        <ele>866</ele>
        <time>2015-04-19T08:22:29Z</time>
      </trkpt>
      <trkpt lat="45.39364" lon="4.49681">
        <ele>865</ele>
        <time>2015-04-19T08:22:31Z</time>
      </trkpt>
      <trkpt lat="45.39369" lon="4.49675">
        <ele>864</ele>
        <time>2015-04-19T08:22:33Z</time>
      </trkpt>
      <trkpt lat="45.39376" lon="4.49671">
        <ele>862</ele>
        <time>2015-04-19T08:22:35Z</time>
      </trkpt>
      <trkpt lat="45.39389" lon="4.49666">
        <ele>861</ele>
        <time>2015-04-19T08:22:38Z</time>
      </trkpt>
      <trkpt lat="45.39398" lon="4.49659">
        <ele>859</ele>
        <time>2015-04-19T08:22:41Z</time>
      </trkpt>
      <trkpt lat="45.39402" lon="4.49655">
        <ele>857</ele>
        <time>2015-04-19T08:22:43Z</time>
      </trkpt>
      <trkpt lat="45.39408" lon="4.49648">
        <ele>856</ele>
        <time>2015-04-19T08:22:46Z</time>
      </trkpt>
      <trkpt lat="45.39412" lon="4.4964">
        <ele>854</ele>
        <time>2015-04-19T08:22:49Z</time>
      </trkpt>
      <trkpt lat="45.39413" lon="4.49635">
        <ele>853</ele>
        <time>2015-04-19T08:22:51Z</time>
      </trkpt>
      <trkpt lat="45.39415" lon="4.49626">
        <ele>851</ele>
        <time>2015-04-19T08:22:54Z</time>
      </trkpt>
      <trkpt lat="45.39418" lon="4.49618">
        <ele>850</ele>
        <time>2015-04-19T08:22:57Z</time>
      </trkpt>
      <trkpt lat="45.39421" lon="4.49614">
        <ele>849</ele>
        <time>2015-04-19T08:22:59Z</time>
      </trkpt>
      <trkpt lat="45.39427" lon="4.49608">
        <ele>848</ele>
        <time>2015-04-19T08:23:02Z</time>
      </trkpt>
      <trkpt lat="45.39431" lon="4.49604">
        <ele>847</ele>
        <time>2015-04-19T08:23:04Z</time>
      </trkpt>
      <trkpt lat="45.39434" lon="4.49602">
        <ele>846</ele>
        <time>2015-04-19T08:23:06Z</time>
      </trkpt>
      <trkpt lat="45.39441" lon="4.49599">
        <ele>845</ele>
        <time>2015-04-19T08:23:09Z</time>
      </trkpt>
      <trkpt lat="45.39448" lon="4.49595">
        <ele>844</ele>
        <time>2015-04-19T08:23:12Z</time>
      </trkpt>
      <trkpt lat="45.39453" lon="4.49593">
        <ele>843</ele>
        <time>2015-04-19T08:23:14Z</time>
      </trkpt>
      <trkpt lat="45.39461" lon="4.4959">
        <ele>841</ele>
        <time>2015-04-19T08:23:17Z</time>
      </trkpt>
      <trkpt lat="45.3947" lon="4.49585">
        <ele>840</ele>
        <time>2015-04-19T08:23:20Z</time>
      </trkpt>
      <trkpt lat="45.39476" lon="4.49584">
        <ele>839</ele>
        <time>2015-04-19T08:23:22Z</time>
      </trkpt>
      <trkpt lat="45.39484" lon="4.49582">
        <ele>837</ele>
        <time>2015-04-19T08:23:25Z</time>
      </trkpt>
      <trkpt lat="45.3949" lon="4.4958">
        <ele>835</ele>
        <time>2015-04-19T08:23:27Z</time>
      </trkpt>
      <trkpt lat="45.39495" lon="4.49579">
        <ele>833</ele>
        <time>2015-04-19T08:23:29Z</time>
      </trkpt>
      <trkpt lat="45.39501" lon="4.49577">
        <ele>832</ele>
        <time>2015-04-19T08:23:31Z</time>
      </trkpt>
      <trkpt lat="45.3951" lon="4.49574">
        <ele>831</ele>
        <time>2015-04-19T08:23:34Z</time>
      </trkpt>
      <trkpt lat="45.39519" lon="4.49571">
        <ele>829</ele>
        <time>2015-04-19T08:23:37Z</time>
      </trkpt>
      <trkpt lat="45.39525" lon="4.4957">
        <ele>828</ele>
        <time>2015-04-19T08:23:39Z</time>
      </trkpt>
      <trkpt lat="45.39531" lon="4.49569">
        <ele>827</ele>
        <time>2015-04-19T08:23:41Z</time>
      </trkpt>
      <trkpt lat="45.39539" lon="4.49569">
        <ele>825</ele>
        <time>2015-04-19T08:23:44Z</time>
      </trkpt>
      <trkpt lat="45.39548" lon="4.49568">
        <ele>823</ele>
        <time>2015-04-19T08:23:47Z</time>
      </trkpt>
      <trkpt lat="45.39558" lon="4.49567">
        <ele>822</ele>
        <time>2015-04-19T08:23:50Z</time>
      </trkpt>
      <trkpt lat="45.39563" lon="4.49567">
        <ele>821</ele>
        <time>2015-04-19T08:23:52Z</time>
      </trkpt>
      <trkpt lat="45.39571" lon="4.49568">
        <ele>819</ele>
        <time>2015-04-19T08:23:55Z</time>
      </trkpt>
      <trkpt lat="45.39577" lon="4.49567">
        <ele>818</ele>
        <time>2015-04-19T08:23:57Z</time>
      </trkpt>
      <trkpt lat="45.39583" lon="4.49568">
        <ele>816</ele>
        <time>2015-04-19T08:23:59Z</time>
      </trkpt>
      <trkpt lat="45.39589" lon="4.49567">
        <ele>815</ele>
        <time>2015-04-19T08:24:01Z</time>
      </trkpt>
      <trkpt lat="45.39596" lon="4.49566">
        <ele>813</ele>
        <time>2015-04-19T08:24:04Z</time>
      </trkpt>
      <trkpt lat="45.39602" lon="4.49566">
        <ele>812</ele>
        <time>2015-04-19T08:24:06Z</time>
      </trkpt>
      <trkpt lat="45.39611" lon="4.49565">
        <ele>809</ele>
        <time>2015-04-19T08:24:09Z</time>
      </trkpt>
      <trkpt lat="45.39616" lon="4.49565">
        <ele>808</ele>
        <time>2015-04-19T08:24:11Z</time>
      </trkpt>
      <trkpt lat="45.3962" lon="4.49566">
        <ele>807</ele>
        <time>2015-04-19T08:24:13Z</time>
      </trkpt>
      <trkpt lat="45.39625" lon="4.49565">
        <ele>806</ele>
        <time>2015-04-19T08:24:15Z</time>
      </trkpt>
      <trkpt lat="45.39632" lon="4.49567">
        <ele>805</ele>
        <time>2015-04-19T08:24:18Z</time>
      </trkpt>
      <trkpt lat="45.39641" lon="4.49567">
        <ele>803</ele>
        <time>2015-04-19T08:24:21Z</time>
      </trkpt>
      <trkpt lat="45.39645" lon="4.49567">
        <ele>802</ele>
        <time>2015-04-19T08:24:23Z</time>
      </trkpt>
      <trkpt lat="45.39652" lon="4.49566">
        <ele>800</ele>
        <time>2015-04-19T08:24:26Z</time>
      </trkpt>
      <trkpt lat="45.39657" lon="4.49565">
        <ele>799</ele>
        <time>2015-04-19T08:24:28Z</time>
      </trkpt>
      <trkpt lat="45.39662" lon="4.49564">
        <ele>798</ele>
        <time>2015-04-19T08:24:30Z</time>
      </trkpt>
      <trkpt lat="45.39672" lon="4.49562">
        <ele>797</ele>
        <time>2015-04-19T08:24:33Z</time>
      </trkpt>
      <trkpt lat="45.39683" lon="4.49558">
        <ele>795</ele>
        <time>2015-04-19T08:24:36Z</time>
      </trkpt>
      <trkpt lat="45.39689" lon="4.49557">
        <ele>794</ele>
        <time>2015-04-19T08:24:38Z</time>
      </trkpt>
      <trkpt lat="45.39695" lon="4.49555">
        <ele>792</ele>
        <time>2015-04-19T08:24:40Z</time>
      </trkpt>
      <trkpt lat="45.39703" lon="4.49551">
        <ele>790</ele>
        <time>2015-04-19T08:24:43Z</time>
      </trkpt>
      <trkpt lat="45.3971" lon="4.49546">
        <ele>789</ele>
        <time>2015-04-19T08:24:46Z</time>
      </trkpt>
      <trkpt lat="45.39715" lon="4.49542">
        <ele>787</ele>
        <time>2015-04-19T08:24:48Z</time>
      </trkpt>
      <trkpt lat="45.39722" lon="4.49537">
        <ele>786</ele>
        <time>2015-04-19T08:24:51Z</time>
      </trkpt>
      <trkpt lat="45.39727" lon="4.49532">
        <ele>784</ele>
        <time>2015-04-19T08:24:53Z</time>
      </trkpt>
      <trkpt lat="45.3973" lon="4.49526">
        <ele>783</ele>
        <time>2015-04-19T08:24:55Z</time>
      </trkpt>
      <trkpt lat="45.39733" lon="4.4952">
        <ele>782</ele>
        <time>2015-04-19T08:24:57Z</time>
      </trkpt>
      <trkpt lat="45.39738" lon="4.49511">
        <ele>781</ele>
        <time>2015-04-19T08:25:00Z</time>
      </trkpt>
      <trkpt lat="45.39742" lon="4.49502">
        <ele>780</ele>
        <time>2015-04-19T08:25:03Z</time>
      </trkpt>
      <trkpt lat="45.39744" lon="4.49494">
        <ele>779</ele>
        <time>2015-04-19T08:25:05Z</time>
      </trkpt>
      <trkpt lat="45.39747" lon="4.49484">
        <ele>777</ele>
        <time>2015-04-19T08:25:08Z</time>
      </trkpt>
      <trkpt lat="45.3975" lon="4.49474">
        <ele>776</ele>
        <time>2015-04-19T08:25:11Z</time>
      </trkpt>
      <trkpt lat="45.39751" lon="4.49466">
        <ele>775</ele>
        <time>2015-04-19T08:25:13Z</time>
      </trkpt>
      <trkpt lat="45.39752" lon="4.49459">
        <ele>773</ele>
        <time>2015-04-19T08:25:15Z</time>
      </trkpt>
      <trkpt lat="45.39753" lon="4.49448">
        <ele>772</ele>
        <time>2015-04-19T08:25:18Z</time>
      </trkpt>
      <trkpt lat="45.39754" lon="4.49441">
        <ele>771</ele>
        <time>2015-04-19T08:25:20Z</time>
      </trkpt>
      <trkpt lat="45.39755" lon="4.49431">
        <ele>770</ele>
        <time>2015-04-19T08:25:23Z</time>
      </trkpt>
      <trkpt lat="45.39755" lon="4.49424">
        <ele>769</ele>
        <time>2015-04-19T08:25:25Z</time>
      </trkpt>
      <trkpt lat="45.39754" lon="4.49417">
        <ele>768</ele>
        <time>2015-04-19T08:25:27Z</time>
      </trkpt>
      <trkpt lat="45.39754" lon="4.49409">
        <ele>767</ele>
        <time>2015-04-19T08:25:29Z</time>
      </trkpt>
      <trkpt lat="45.39753" lon="4.49401">
        <ele>766</ele>
        <time>2015-04-19T08:25:31Z</time>
      </trkpt>
      <trkpt lat="45.39751" lon="4.49391">
        <ele>765</ele>
        <time>2015-04-19T08:25:34Z</time>
      </trkpt>
      <trkpt lat="45.39747" lon="4.49383">
        <ele>764</ele>
        <time>2015-04-19T08:25:36Z</time>
      </trkpt>
      <trkpt lat="45.39744" lon="4.49372">
        <ele>762</ele>
        <time>2015-04-19T08:25:39Z</time>
      </trkpt>
      <trkpt lat="45.3974" lon="4.49361">
        <ele>760</ele>
        <time>2015-04-19T08:25:42Z</time>
      </trkpt>
      <trkpt lat="45.39738" lon="4.49355">
        <ele>760</ele>
        <time>2015-04-19T08:25:44Z</time>
      </trkpt>
      <trkpt lat="45.39736" lon="4.49348">
        <ele>758</ele>
        <time>2015-04-19T08:25:46Z</time>
      </trkpt>
      <trkpt lat="45.39734" lon="4.49339">
        <ele>757</ele>
        <time>2015-04-19T08:25:49Z</time>
      </trkpt>
      <trkpt lat="45.39734" lon="4.49332">
        <ele>756</ele>
        <time>2015-04-19T08:25:51Z</time>
      </trkpt>
      <trkpt lat="45.39732" lon="4.49326">
        <ele>755</ele>
        <time>2015-04-19T08:25:53Z</time>
      </trkpt>
      <trkpt lat="45.39731" lon="4.49319">
        <ele>754</ele>
        <time>2015-04-19T08:25:55Z</time>
      </trkpt>
      <trkpt lat="45.39735" lon="4.4931">
        <ele>753</ele>
        <time>2015-04-19T08:25:58Z</time>
      </trkpt>
      <trkpt lat="45.39739" lon="4.49314">
        <ele>751</ele>
        <time>2015-04-19T08:26:01Z</time>
      </trkpt>
      <trkpt lat="45.39743" lon="4.49316">
        <ele>750</ele>
        <time>2015-04-19T08:26:03Z</time>
      </trkpt>
      <trkpt lat="45.39747" lon="4.4932">
        <ele>749</ele>
        <time>2015-04-19T08:26:06Z</time>
      </trkpt>
      <trkpt lat="45.39753" lon="4.49325">
        <ele>748</ele>
        <time>2015-04-19T08:26:09Z</time>
      </trkpt>
      <trkpt lat="45.39757" lon="4.49329">
        <ele>747</ele>
        <time>2015-04-19T08:26:11Z</time>
      </trkpt>
      <trkpt lat="45.39764" lon="4.49334">
        <ele>747</ele>
        <time>2015-04-19T08:26:14Z</time>
      </trkpt>
      <trkpt lat="45.39769" lon="4.4934">
        <ele>747</ele>
        <time>2015-04-19T08:26:17Z</time>
      </trkpt>
      <trkpt lat="45.39772" lon="4.49345">
        <ele>746</ele>
        <time>2015-04-19T08:26:19Z</time>
      </trkpt>
      <trkpt lat="45.39778" lon="4.49352">
        <ele>746</ele>
        <time>2015-04-19T08:26:22Z</time>
      </trkpt>
      <trkpt lat="45.39783" lon="4.49356">
        <ele>745</ele>
        <time>2015-04-19T08:26:24Z</time>
      </trkpt>
      <trkpt lat="45.39787" lon="4.49362">
        <ele>745</ele>
        <time>2015-04-19T08:26:26Z</time>
      </trkpt>
      <trkpt lat="45.39793" lon="4.49367">
        <ele>744</ele>
        <time>2015-04-19T08:26:29Z</time>
      </trkpt>
      <trkpt lat="45.39795" lon="4.49372">
        <ele>743</ele>
        <time>2015-04-19T08:26:31Z</time>
      </trkpt>
      <trkpt lat="45.39799" lon="4.4938">
        <ele>743</ele>
        <time>2015-04-19T08:26:34Z</time>
      </trkpt>
      <trkpt lat="45.39802" lon="4.4939">
        <ele>742</ele>
        <time>2015-04-19T08:26:37Z</time>
      </trkpt>
      <trkpt lat="45.39803" lon="4.49396">
        <ele>742</ele>
        <time>2015-04-19T08:26:39Z</time>
      </trkpt>
      <trkpt lat="45.39807" lon="4.49405">
        <ele>742</ele>
        <time>2015-04-19T08:26:42Z</time>
      </trkpt>
      <trkpt lat="45.39809" lon="4.49414">
        <ele>742</ele>
        <time>2015-04-19T08:26:45Z</time>
      </trkpt>
      <trkpt lat="45.39811" lon="4.49421">
        <ele>742</ele>
        <time>2015-04-19T08:26:47Z</time>
      </trkpt>
      <trkpt lat="45.39816" lon="4.49432">
        <ele>742</ele>
        <time>2015-04-19T08:26:50Z</time>
      </trkpt>
      <trkpt lat="45.39819" lon="4.49439">
        <ele>742</ele>
        <time>2015-04-19T08:26:52Z</time>
      </trkpt>
      <trkpt lat="45.39824" lon="4.49449">
        <ele>742</ele>
        <time>2015-04-19T08:26:55Z</time>
      </trkpt>
      <trkpt lat="45.39828" lon="4.49457">
        <ele>742</ele>
        <time>2015-04-19T08:26:57Z</time>
      </trkpt>
      <trkpt lat="45.39832" lon="4.49463">
        <ele>741</ele>
        <time>2015-04-19T08:26:59Z</time>
      </trkpt>
      <trkpt lat="45.39835" lon="4.49473">
        <ele>740</ele>
        <time>2015-04-19T08:27:02Z</time>
      </trkpt>
      <trkpt lat="45.3984" lon="4.49477">
        <ele>739</ele>
        <time>2015-04-19T08:27:05Z</time>
      </trkpt>
      <trkpt lat="45.39843" lon="4.49471">
        <ele>738</ele>
        <time>2015-04-19T08:27:08Z</time>
      </trkpt>
      <trkpt lat="45.39844" lon="4.49465">
        <ele>737</ele>
        <time>2015-04-19T08:27:10Z</time>
      </trkpt>
      <trkpt lat="45.39845" lon="4.49456">
        <ele>737</ele>
        <time>2015-04-19T08:27:13Z</time>
      </trkpt>
      <trkpt lat="45.39846" lon="4.49449">
        <ele>736</ele>
        <time>2015-04-19T08:27:15Z</time>
      </trkpt>
      <trkpt lat="45.39848" lon="4.49439">
        <ele>735</ele>
        <time>2015-04-19T08:27:18Z</time>
      </trkpt>
      <trkpt lat="45.3985" lon="4.49433">
        <ele>734</ele>
        <time>2015-04-19T08:27:20Z</time>
      </trkpt>
      <trkpt lat="45.39851" lon="4.49424">
        <ele>733</ele>
        <time>2015-04-19T08:27:23Z</time>
      </trkpt>
      <trkpt lat="45.39854" lon="4.49415">
        <ele>731</ele>
        <time>2015-04-19T08:27:26Z</time>
      </trkpt>
      <trkpt lat="45.39854" lon="4.49405">
        <ele>731</ele>
        <time>2015-04-19T08:27:29Z</time>
      </trkpt>
      <trkpt lat="45.39854" lon="4.49398">
        <ele>729</ele>
        <time>2015-04-19T08:27:31Z</time>
      </trkpt>
      <trkpt lat="45.39854" lon="4.49391">
        <ele>728</ele>
        <time>2015-04-19T08:27:33Z</time>
      </trkpt>
      <trkpt lat="45.39854" lon="4.49385">
        <ele>727</ele>
        <time>2015-04-19T08:27:35Z</time>
      </trkpt>
      <trkpt lat="45.39854" lon="4.49375">
        <ele>726</ele>
        <time>2015-04-19T08:27:38Z</time>
      </trkpt>
      <trkpt lat="45.39853" lon="4.49369">
        <ele>725</ele>
        <time>2015-04-19T08:27:40Z</time>
      </trkpt>
      <trkpt lat="45.39852" lon="4.49359">
        <ele>723</ele>
        <time>2015-04-19T08:27:43Z</time>
      </trkpt>
      <trkpt lat="45.39849" lon="4.49348">
        <ele>722</ele>
        <time>2015-04-19T08:27:46Z</time>
      </trkpt>
      <trkpt lat="45.39848" lon="4.49342">
        <ele>721</ele>
        <time>2015-04-19T08:27:48Z</time>
      </trkpt>
      <trkpt lat="45.39843" lon="4.49332">
        <ele>720</ele>
        <time>2015-04-19T08:27:51Z</time>
      </trkpt>
      <trkpt lat="45.3984" lon="4.49325">
        <ele>719</ele>
        <time>2015-04-19T08:27:54Z</time>
      </trkpt>
      <trkpt lat="45.39837" lon="4.49322">
        <ele>718</ele>
        <time>2015-04-19T08:27:56Z</time>
      </trkpt>
      <trkpt lat="45.39834" lon="4.49315">
        <ele>718</ele>
        <time>2015-04-19T08:27:59Z</time>
      </trkpt>
      <trkpt lat="45.39829" lon="4.49305">
        <ele>717</ele>
        <time>2015-04-19T08:28:02Z</time>
      </trkpt>
      <trkpt lat="45.39825" lon="4.49299">
        <ele>717</ele>
        <time>2015-04-19T08:28:04Z</time>
      </trkpt>
      <trkpt lat="45.39821" lon="4.49291">
        <ele>717</ele>
        <time>2015-04-19T08:28:07Z</time>
      </trkpt>
      <trkpt lat="45.39817" lon="4.49285">
        <ele>716</ele>
        <time>2015-04-19T08:28:09Z</time>
      </trkpt>
      <trkpt lat="45.39812" lon="4.49278">
        <ele>716</ele>
        <time>2015-04-19T08:28:12Z</time>
      </trkpt>
      <trkpt lat="45.39809" lon="4.49272">
        <ele>716</ele>
        <time>2015-04-19T08:28:14Z</time>
      </trkpt>
      <trkpt lat="45.39805" lon="4.4926">
        <ele>715</ele>
        <time>2015-04-19T08:28:17Z</time>
      </trkpt>
      <trkpt lat="45.39802" lon="4.49251">
        <ele>715</ele>
        <time>2015-04-19T08:28:20Z</time>
      </trkpt>
      <trkpt lat="45.39798" lon="4.49239">
        <ele>713</ele>
        <time>2015-04-19T08:28:23Z</time>
      </trkpt>
      <trkpt lat="45.39793" lon="4.49228">
        <ele>713</ele>
        <time>2015-04-19T08:28:26Z</time>
      </trkpt>
      <trkpt lat="45.3979" lon="4.49219">
        <ele>712</ele>
        <time>2015-04-19T08:28:28Z</time>
      </trkpt>
      <trkpt lat="45.39785" lon="4.4921">
        <ele>712</ele>
        <time>2015-04-19T08:28:31Z</time>
      </trkpt>
      <trkpt lat="45.39781" lon="4.49201">
        <ele>712</ele>
        <time>2015-04-19T08:28:34Z</time>
      </trkpt>
      <trkpt lat="45.39779" lon="4.49192">
        <ele>712</ele>
        <time>2015-04-19T08:28:36Z</time>
      </trkpt>
      <trkpt lat="45.39779" lon="4.49182">
        <ele>711</ele>
        <time>2015-04-19T08:28:39Z</time>
      </trkpt>
      <trkpt lat="45.3978" lon="4.4917">
        <ele>711</ele>
        <time>2015-04-19T08:28:42Z</time>
      </trkpt>
      <trkpt lat="45.39782" lon="4.49163">
        <ele>711</ele>
        <time>2015-04-19T08:28:44Z</time>
      </trkpt>
      <trkpt lat="45.39781" lon="4.4915">
        <ele>710</ele>
        <time>2015-04-19T08:28:47Z</time>
      </trkpt>
      <trkpt lat="45.3978" lon="4.49136">
        <ele>710</ele>
        <time>2015-04-19T08:28:50Z</time>
      </trkpt>
      <trkpt lat="45.3978" lon="4.49128">
        <ele>710</ele>
        <time>2015-04-19T08:28:52Z</time>
      </trkpt>
      <trkpt lat="45.3978" lon="4.49114">
        <ele>709</ele>
        <time>2015-04-19T08:28:55Z</time>
      </trkpt>
      <trkpt lat="45.39783" lon="4.49106">
        <ele>708</ele>
        <time>2015-04-19T08:28:57Z</time>
      </trkpt>
      <trkpt lat="45.39786" lon="4.49101">
        <ele>708</ele>
        <time>2015-04-19T08:28:59Z</time>
      </trkpt>
      <trkpt lat="45.3979" lon="4.491">
        <ele>708</ele>
        <time>2015-04-19T08:29:02Z</time>
      </trkpt>
      <trkpt lat="45.39794" lon="4.491">
        <ele>708</ele>
        <time>2015-04-19T08:29:04Z</time>
      </trkpt>
      <trkpt lat="45.39799" lon="4.491">
        <ele>708</ele>
        <time>2015-04-19T08:29:07Z</time>
      </trkpt>
      <trkpt lat="45.39804" lon="4.49102">
        <ele>710</ele>
        <time>2015-04-19T08:29:10Z</time>
      </trkpt>
      <trkpt lat="45.39809" lon="4.49102">
        <ele>710</ele>
        <time>2015-04-19T08:29:12Z</time>
      </trkpt>
      <trkpt lat="45.39815" lon="4.49104">
        <ele>711</ele>
        <time>2015-04-19T08:29:15Z</time>
      </trkpt>
      <trkpt lat="45.39822" lon="4.49106">
        <ele>711</ele>
        <time>2015-04-19T08:29:18Z</time>
      </trkpt>
      <trkpt lat="45.39826" lon="4.49107">
        <ele>711</ele>
        <time>2015-04-19T08:29:20Z</time>
      </trkpt>
      <trkpt lat="45.39833" lon="4.49109">
        <ele>712</ele>
        <time>2015-04-19T08:29:23Z</time>
      </trkpt>
      <trkpt lat="45.3984" lon="4.4911">
        <ele>712</ele>
        <time>2015-04-19T08:29:26Z</time>
      </trkpt>
      <trkpt lat="45.39845" lon="4.49111">
        <ele>712</ele>
        <time>2015-04-19T08:29:28Z</time>
      </trkpt>
      <trkpt lat="45.3985" lon="4.49112">
        <ele>713</ele>
        <time>2015-04-19T08:29:30Z</time>
      </trkpt>
      <trkpt lat="45.39856" lon="4.49114">
        <ele>713</ele>
        <time>2015-04-19T08:29:32Z</time>
      </trkpt>
      <trkpt lat="45.39862" lon="4.49116">
        <ele>713</ele>
        <time>2015-04-19T08:29:35Z</time>
      </trkpt>
      <trkpt lat="45.39869" lon="4.49116">
        <ele>714</ele>
        <time>2015-04-19T08:29:38Z</time>
      </trkpt>
      <trkpt lat="45.39873" lon="4.49116">
        <ele>715</ele>
        <time>2015-04-19T08:29:40Z</time>
      </trkpt>
      <trkpt lat="45.3988" lon="4.49118">
        <ele>716</ele>
        <time>2015-04-19T08:29:43Z</time>
      </trkpt>
      <trkpt lat="45.39887" lon="4.4912">
        <ele>716</ele>
        <time>2015-04-19T08:29:46Z</time>
      </trkpt>
      <trkpt lat="45.39891" lon="4.49121">
        <ele>717</ele>
        <time>2015-04-19T08:29:48Z</time>
      </trkpt>
      <trkpt lat="45.39898" lon="4.49123">
        <ele>717</ele>
        <time>2015-04-19T08:29:51Z</time>
      </trkpt>
      <trkpt lat="45.39905" lon="4.49126">
        <ele>717</ele>
        <time>2015-04-19T08:29:54Z</time>
      </trkpt>
      <trkpt lat="45.39911" lon="4.49128">
        <ele>717</ele>
        <time>2015-04-19T08:29:56Z</time>
      </trkpt>
      <trkpt lat="45.39918" lon="4.4913">
        <ele>716</ele>
        <time>2015-04-19T08:29:59Z</time>
      </trkpt>
      <trkpt lat="45.39922" lon="4.49132">
        <ele>716</ele>
        <time>2015-04-19T08:30:01Z</time>
      </trkpt>
      <trkpt lat="45.39927" lon="4.49133">
        <ele>716</ele>
        <time>2015-04-19T08:30:03Z</time>
      </trkpt>
      <trkpt lat="45.39931" lon="4.49134">
        <ele>716</ele>
        <time>2015-04-19T08:30:05Z</time>
      </trkpt>
      <trkpt lat="45.39938" lon="4.49136">
        <ele>716</ele>
        <time>2015-04-19T08:30:08Z</time>
      </trkpt>
      <trkpt lat="45.39944" lon="4.49138">
        <ele>716</ele>
        <time>2015-04-19T08:30:11Z</time>
      </trkpt>
      <trkpt lat="45.39949" lon="4.49139">
        <ele>716</ele>
        <time>2015-04-19T08:30:13Z</time>
      </trkpt>
      <trkpt lat="45.39956" lon="4.49144">
        <ele>715</ele>
        <time>2015-04-19T08:30:16Z</time>
      </trkpt>
      <trkpt lat="45.39962" lon="4.49147">
        <ele>715</ele>
        <time>2015-04-19T08:30:19Z</time>
      </trkpt>
      <trkpt lat="45.39967" lon="4.49148">
        <ele>715</ele>
        <time>2015-04-19T08:30:21Z</time>
      </trkpt>
      <trkpt lat="45.39973" lon="4.4915">
        <ele>715</ele>
        <time>2015-04-19T08:30:24Z</time>
      </trkpt>
      <trkpt lat="45.39979" lon="4.49147">
        <ele>715</ele>
        <time>2015-04-19T08:30:27Z</time>
      </trkpt>
      <trkpt lat="45.39982" lon="4.49144">
        <ele>716</ele>
        <time>2015-04-19T08:30:29Z</time>
      </trkpt>
      <trkpt lat="45.39984" lon="4.49142">
        <ele>716</ele>
        <time>2015-04-19T08:30:31Z</time>
      </trkpt>
      <trkpt lat="45.39986" lon="4.49139">
        <ele>717</ele>
        <time>2015-04-19T08:30:34Z</time>
      </trkpt>
      <trkpt lat="45.39987" lon="4.49135">
        <ele>717</ele>
        <time>2015-04-19T08:30:36Z</time>
      </trkpt>
      <trkpt lat="45.39988" lon="4.49132">
        <ele>718</ele>
        <time>2015-04-19T08:30:38Z</time>
      </trkpt>
      <trkpt lat="45.39989" lon="4.49127">
        <ele>718</ele>
        <time>2015-04-19T08:30:41Z</time>
      </trkpt>
      <trkpt lat="45.39989" lon="4.49122">
        <ele>719</ele>
        <time>2015-04-19T08:30:44Z</time>
      </trkpt>
      <trkpt lat="45.39988" lon="4.49119">
        <ele>719</ele>
        <time>2015-04-19T08:30:46Z</time>
      </trkpt>
      <trkpt lat="45.39988" lon="4.49115">
        <ele>720</ele>
        <time>2015-04-19T08:30:49Z</time>
      </trkpt>
      <trkpt lat="45.39986" lon="4.49111">
        <ele>720</ele>
        <time>2015-04-19T08:30:52Z</time>
      </trkpt>
      <trkpt lat="45.39985" lon="4.49109">
        <ele>721</ele>
        <time>2015-04-19T08:30:54Z</time>
      </trkpt>
      <trkpt lat="45.39983" lon="4.49106">
        <ele>721</ele>
        <time>2015-04-19T08:30:57Z</time>
      </trkpt>
      <trkpt lat="45.3998" lon="4.49103">
        <ele>722</ele>
        <time>2015-04-19T08:31:00Z</time>
      </trkpt>
      <trkpt lat="45.39978" lon="4.49102">
        <ele>722</ele>
        <time>2015-04-19T08:31:02Z</time>
      </trkpt>
      <trkpt lat="45.39976" lon="4.49102">
        <ele>723</ele>
        <time>2015-04-19T08:31:04Z</time>
      </trkpt>
      <trkpt lat="45.39974" lon="4.49102">
        <ele>723</ele>
        <time>2015-04-19T08:31:06Z</time>
      </trkpt>
      <trkpt lat="45.39971" lon="4.49101">
        <ele>724</ele>
        <time>2015-04-19T08:31:09Z</time>
      </trkpt>
      <trkpt lat="45.39969" lon="4.49101">
        <ele>724</ele>
        <time>2015-04-19T08:31:11Z</time>
      </trkpt>
      <trkpt lat="45.39966" lon="4.491">
        <ele>725</ele>
        <time>2015-04-19T08:31:14Z</time>
      </trkpt>
      <trkpt lat="45.39963" lon="4.49099">
        <ele>725</ele>
        <time>2015-04-19T08:31:17Z</time>
      </trkpt>
      <trkpt lat="45.39961" lon="4.49099">
        <ele>726</ele>
        <time>2015-04-19T08:31:19Z</time>
      </trkpt>
      <trkpt lat="45.39958" lon="4.49097">
        <ele>726</ele>
        <time>2015-04-19T08:31:22Z</time>
      </trkpt>
      <trkpt lat="45.39956" lon="4.49097">
        <ele>727</ele>
        <time>2015-04-19T08:31:25Z</time>
      </trkpt>
      <trkpt lat="45.39953" lon="4.49096">
        <ele>728</ele>
        <time>2015-04-19T08:31:27Z</time>
      </trkpt>
      <trkpt lat="45.3995" lon="4.49094">
        <ele>728</ele>
        <time>2015-04-19T08:31:30Z</time>
      </trkpt>
      <trkpt lat="45.39947" lon="4.49093">
        <ele>729</ele>
        <time>2015-04-19T08:31:33Z</time>
      </trkpt>
      <trkpt lat="45.39945" lon="4.49092">
        <ele>729</ele>
        <time>2015-04-19T08:31:35Z</time>
      </trkpt>
      <trkpt lat="45.39943" lon="4.4909">
        <ele>730</ele>
        <time>2015-04-19T08:31:37Z</time>
      </trkpt>
      <trkpt lat="45.39942" lon="4.49089">
        <ele>730</ele>
        <time>2015-04-19T08:31:39Z</time>
      </trkpt>
      <trkpt lat="45.39939" lon="4.49086">
        <ele>730</ele>
        <time>2015-04-19T08:31:42Z</time>
      </trkpt>
      <trkpt lat="45.39938" lon="4.49084">
        <ele>731</ele>
        <time>2015-04-19T08:31:44Z</time>
      </trkpt>
      <trkpt lat="45.39936" lon="4.49081">
        <ele>732</ele>
        <time>2015-04-19T08:31:47Z</time>
      </trkpt>
      <trkpt lat="45.39934" lon="4.49078">
        <ele>733</ele>
        <time>2015-04-19T08:31:50Z</time>
      </trkpt>
      <trkpt lat="45.39933" lon="4.49076">
        <ele>733</ele>
        <time>2015-04-19T08:31:52Z</time>
      </trkpt>
      <trkpt lat="45.39932" lon="4.49073">
        <ele>733</ele>
        <time>2015-04-19T08:31:55Z</time>
      </trkpt>
      <trkpt lat="45.39931" lon="4.4907">
        <ele>733</ele>
        <time>2015-04-19T08:31:57Z</time>
      </trkpt>
      <trkpt lat="45.39931" lon="4.49066">
        <ele>734</ele>
        <time>2015-04-19T08:32:00Z</time>
      </trkpt>
      <trkpt lat="45.3993" lon="4.49064">
        <ele>735</ele>
        <time>2015-04-19T08:32:02Z</time>
      </trkpt>
      <trkpt lat="45.39931" lon="4.49061">
        <ele>736</ele>
        <time>2015-04-19T08:32:04Z</time>
      </trkpt>
      <trkpt lat="45.39931" lon="4.49058">
        <ele>736</ele>
        <time>2015-04-19T08:32:07Z</time>
      </trkpt>
      <trkpt lat="45.39931" lon="4.49055">
        <ele>736</ele>
        <time>2015-04-19T08:32:09Z</time>
      </trkpt>
      <trkpt lat="45.39932" lon="4.49052">
        <ele>737</ele>
        <time>2015-04-19T08:32:11Z</time>
      </trkpt>
      <trkpt lat="45.39932" lon="4.4905">
        <ele>738</ele>
        <time>2015-04-19T08:32:13Z</time>
      </trkpt>
      <trkpt lat="45.39932" lon="4.49045">
        <ele>738</ele>
        <time>2015-04-19T08:32:16Z</time>
      </trkpt>
      <trkpt lat="45.39932" lon="4.49041">
        <ele>739</ele>
        <time>2015-04-19T08:32:18Z</time>
      </trkpt>
      <trkpt lat="45.39933" lon="4.49036">
        <ele>739</ele>
        <time>2015-04-19T08:32:21Z</time>
      </trkpt>
      <trkpt lat="45.39933" lon="4.4903">
        <ele>740</ele>
        <time>2015-04-19T08:32:24Z</time>
      </trkpt>
      <trkpt lat="45.39934" lon="4.49027">
        <ele>740</ele>
        <time>2015-04-19T08:32:26Z</time>
      </trkpt>
      <trkpt lat="45.39934" lon="4.49023">
        <ele>740</ele>
        <time>2015-04-19T08:32:28Z</time>
      </trkpt>
      <trkpt lat="45.39934" lon="4.49019">
        <ele>741</ele>
        <time>2015-04-19T08:32:30Z</time>
      </trkpt>
      <trkpt lat="45.39933" lon="4.49014">
        <ele>741</ele>
        <time>2015-04-19T08:32:33Z</time>
      </trkpt>
      <trkpt lat="45.39933" lon="4.49011">
        <ele>742</ele>
        <time>2015-04-19T08:32:35Z</time>
      </trkpt>
      <trkpt lat="45.39932" lon="4.49007">
        <ele>742</ele>
        <time>2015-04-19T08:32:38Z</time>
      </trkpt>
      <trkpt lat="45.3993" lon="4.49003">
        <ele>743</ele>
        <time>2015-04-19T08:32:41Z</time>
      </trkpt>
      <trkpt lat="45.39929" lon="4.49001">
        <ele>743</ele>
        <time>2015-04-19T08:32:43Z</time>
      </trkpt>
      <trkpt lat="45.39928" lon="4.48998">
        <ele>744</ele>
        <time>2015-04-19T08:32:45Z</time>
      </trkpt>
      <trkpt lat="45.39926" lon="4.48995">
        <ele>744</ele>
        <time>2015-04-19T08:32:47Z</time>
      </trkpt>
      <trkpt lat="45.39924" lon="4.48992">
        <ele>745</ele>
        <time>2015-04-19T08:32:50Z</time>
      </trkpt>
      <trkpt lat="45.39922" lon="4.48988">
        <ele>745</ele>
        <time>2015-04-19T08:32:53Z</time>
      </trkpt>
      <trkpt lat="45.39921" lon="4.48986">
        <ele>746</ele>
        <time>2015-04-19T08:32:55Z</time>
      </trkpt>
      <trkpt lat="45.39919" lon="4.48984">
        <ele>746</ele>
        <time>2015-04-19T08:32:58Z</time>
      </trkpt>
      <trkpt lat="45.39916" lon="4.48981">
        <ele>747</ele>
        <time>2015-04-19T08:33:01Z</time>
      </trkpt>
      <trkpt lat="45.39915" lon="4.4898">
        <ele>747</ele>
        <time>2015-04-19T08:33:03Z</time>
      </trkpt>
      <trkpt lat="45.39913" lon="4.48978">
        <ele>748</ele>
        <time>2015-04-19T08:33:06Z</time>
      </trkpt>
      <trkpt lat="45.39911" lon="4.48976">
        <ele>749</ele>
        <time>2015-04-19T08:33:09Z</time>
      </trkpt>
      <trkpt lat="45.3991" lon="4.48975">
        <ele>750</ele>
        <time>2015-04-19T08:33:11Z</time>
      </trkpt>
      <trkpt lat="45.39909" lon="4.48973">
        <ele>750</ele>
        <time>2015-04-19T08:33:14Z</time>
      </trkpt>
      <trkpt lat="45.39907" lon="4.48971">
        <ele>751</ele>
        <time>2015-04-19T08:33:16Z</time>
      </trkpt>
      <trkpt lat="45.39906" lon="4.48968">
        <ele>751</ele>
        <time>2015-04-19T08:33:19Z</time>
      </trkpt>
      <trkpt lat="45.39904" lon="4.48966">
        <ele>751</ele>
        <time>2015-04-19T08:33:22Z</time>
      </trkpt>
      <trkpt lat="45.39903" lon="4.48963">
        <ele>752</ele>
        <time>2015-04-19T08:33:25Z</time>
      </trkpt>
      <trkpt lat="45.39901" lon="4.4896">
        <ele>753</ele>
        <time>2015-04-19T08:33:28Z</time>
      </trkpt>
      <trkpt lat="45.399" lon="4.48957">
        <ele>754</ele>
        <time>2015-04-19T08:33:31Z</time>
      </trkpt>
      <trkpt lat="45.39899" lon="4.48954">
        <ele>754</ele>
        <time>2015-04-19T08:33:33Z</time>
      </trkpt>
      <trkpt lat="45.39896" lon="4.48951">
        <ele>755</ele>
        <time>2015-04-19T08:33:36Z</time>
      </trkpt>
      <trkpt lat="45.39895" lon="4.48948">
        <ele>755</ele>
        <time>2015-04-19T08:33:39Z</time>
      </trkpt>
      <trkpt lat="45.39894" lon="4.48947">
        <ele>756</ele>
        <time>2015-04-19T08:33:41Z</time>
      </trkpt>
      <trkpt lat="45.39893" lon="4.48945">
        <ele>756</ele>
        <time>2015-04-19T08:33:43Z</time>
      </trkpt>
      <trkpt lat="45.39891" lon="4.48943">
        <ele>757</ele>
        <time>2015-04-19T08:33:45Z</time>
      </trkpt>
      <trkpt lat="45.39889" lon="4.4894">
        <ele>758</ele>
        <time>2015-04-19T08:33:48Z</time>
      </trkpt>
      <trkpt lat="45.39886" lon="4.48938">
        <ele>759</ele>
        <time>2015-04-19T08:33:51Z</time>
      </trkpt>
      <trkpt lat="45.39885" lon="4.48936">
        <ele>759</ele>
        <time>2015-04-19T08:33:53Z</time>
      </trkpt>
      <trkpt lat="45.39883" lon="4.48934">
        <ele>760</ele>
        <time>2015-04-19T08:33:56Z</time>
      </trkpt>
      <trkpt lat="45.3988" lon="4.48932">
        <ele>760</ele>
        <time>2015-04-19T08:33:59Z</time>
      </trkpt>
      <trkpt lat="45.39878" lon="4.48932">
        <ele>761</ele>
        <time>2015-04-19T08:34:01Z</time>
      </trkpt>
      <trkpt lat="45.39875" lon="4.48931">
        <ele>762</ele>
        <time>2015-04-19T08:34:04Z</time>
      </trkpt>
      <trkpt lat="45.39873" lon="4.48931">
        <ele>762</ele>
        <time>2015-04-19T08:34:07Z</time>
      </trkpt>
      <trkpt lat="45.39871" lon="4.4893">
        <ele>763</ele>
        <time>2015-04-19T08:34:09Z</time>
      </trkpt>
      <trkpt lat="45.39869" lon="4.48932">
        <ele>763</ele>
        <time>2015-04-19T08:34:12Z</time>
      </trkpt>
      <trkpt lat="45.39867" lon="4.48933">
        <ele>763</ele>
        <time>2015-04-19T08:34:14Z</time>
      </trkpt>
      <trkpt lat="45.39865" lon="4.48934">
        <ele>764</ele>
        <time>2015-04-19T08:34:16Z</time>
      </trkpt>
      <trkpt lat="45.39863" lon="4.48935">
        <ele>764</ele>
        <time>2015-04-19T08:34:19Z</time>
      </trkpt>
      <trkpt lat="45.3986" lon="4.48938">
        <ele>764</ele>
        <time>2015-04-19T08:34:22Z</time>
      </trkpt>
      <trkpt lat="45.39857" lon="4.48938">
        <ele>765</ele>
        <time>2015-04-19T08:34:25Z</time>
      </trkpt>
      <trkpt lat="45.39855" lon="4.48939">
        <ele>766</ele>
        <time>2015-04-19T08:34:27Z</time>
      </trkpt>
      <trkpt lat="45.39852" lon="4.48939">
        <ele>767</ele>
        <time>2015-04-19T08:34:30Z</time>
      </trkpt>
      <trkpt lat="45.39849" lon="4.4894">
        <ele>767</ele>
        <time>2015-04-19T08:34:33Z</time>
      </trkpt>
      <trkpt lat="45.39847" lon="4.4894">
        <ele>768</ele>
        <time>2015-04-19T08:34:35Z</time>
      </trkpt>
      <trkpt lat="45.39844" lon="4.4894">
        <ele>769</ele>
        <time>2015-04-19T08:34:38Z</time>
      </trkpt>
      <trkpt lat="45.39841" lon="4.4894">
        <ele>769</ele>
        <time>2015-04-19T08:34:41Z</time>
      </trkpt>
      <trkpt lat="45.39839" lon="4.48939">
        <ele>770</ele>
        <time>2015-04-19T08:34:43Z</time>
      </trkpt>
      <trkpt lat="45.39837" lon="4.48938">
        <ele>771</ele>
        <time>2015-04-19T08:34:45Z</time>
      </trkpt>
      <trkpt lat="45.39835" lon="4.48938">
        <ele>771</ele>
        <time>2015-04-19T08:34:47Z</time>
      </trkpt>
      <trkpt lat="45.39832" lon="4.48938">
        <ele>771</ele>
        <time>2015-04-19T08:34:50Z</time>
      </trkpt>
      <trkpt lat="45.39829" lon="4.48937">
        <ele>772</ele>
        <time>2015-04-19T08:34:53Z</time>
      </trkpt>
      <trkpt lat="45.39827" lon="4.48937">
        <ele>772</ele>
        <time>2015-04-19T08:34:55Z</time>
      </trkpt>
      <trkpt lat="45.39824" lon="4.48935">
        <ele>773</ele>
        <time>2015-04-19T08:34:58Z</time>
      </trkpt>
      <trkpt lat="45.39821" lon="4.48933">
        <ele>774</ele>
        <time>2015-04-19T08:35:01Z</time>
      </trkpt>
      <trkpt lat="45.3982" lon="4.48932">
        <ele>774</ele>
        <time>2015-04-19T08:35:03Z</time>
      </trkpt>
      <trkpt lat="45.39817" lon="4.48929">
        <ele>775</ele>
        <time>2015-04-19T08:35:06Z</time>
      </trkpt>
      <trkpt lat="45.39815" lon="4.48926">
        <ele>775</ele>
        <time>2015-04-19T08:35:09Z</time>
      </trkpt>
      <trkpt lat="45.39814" lon="4.48924">
        <ele>776</ele>
        <time>2015-04-19T08:35:11Z</time>
      </trkpt>
      <trkpt lat="45.39814" lon="4.48921">
        <ele>777</ele>
        <time>2015-04-19T08:35:14Z</time>
      </trkpt>
      <trkpt lat="45.39813" lon="4.48918">
        <ele>777</ele>
        <time>2015-04-19T08:35:16Z</time>
      </trkpt>
      <trkpt lat="45.39812" lon="4.48916">
        <ele>778</ele>
        <time>2015-04-19T08:35:18Z</time>
      </trkpt>
      <trkpt lat="45.39811" lon="4.48914">
        <ele>778</ele>
        <time>2015-04-19T08:35:20Z</time>
      </trkpt>
      <trkpt lat="45.3981" lon="4.48912">
        <ele>778</ele>
        <time>2015-04-19T08:35:22Z</time>
      </trkpt>
      <trkpt lat="45.39809" lon="4.48911">
        <ele>779</ele>
        <time>2015-04-19T08:35:24Z</time>
      </trkpt>
      <trkpt lat="45.39809" lon="4.48909">
        <ele>780</ele>
        <time>2015-04-19T08:35:26Z</time>
      </trkpt>
      <trkpt lat="45.39807" lon="4.48907">
        <ele>780</ele>
        <time>2015-04-19T08:35:28Z</time>
      </trkpt>
      <trkpt lat="45.39805" lon="4.48905">
        <ele>780</ele>
        <time>2015-04-19T08:35:31Z</time>
      </trkpt>
      <trkpt lat="45.39803" lon="4.48903">
        <ele>781</ele>
        <time>2015-04-19T08:35:33Z</time>
      </trkpt>
      <trkpt lat="45.39801" lon="4.48901">
        <ele>781</ele>
        <time>2015-04-19T08:35:36Z</time>
      </trkpt>
      <trkpt lat="45.398" lon="4.489">
        <ele>782</ele>
        <time>2015-04-19T08:35:38Z</time>
      </trkpt>
      <trkpt lat="45.39799" lon="4.48898">
        <ele>783</ele>
        <time>2015-04-19T08:35:40Z</time>
      </trkpt>
      <trkpt lat="45.39798" lon="4.48896">
        <ele>783</ele>
        <time>2015-04-19T08:35:42Z</time>
      </trkpt>
      <trkpt lat="45.39798" lon="4.48893">
        <ele>784</ele>
        <time>2015-04-19T08:35:45Z</time>
      </trkpt>
      <trkpt lat="45.39798" lon="4.48889">
        <ele>784</ele>
        <time>2015-04-19T08:35:48Z</time>
      </trkpt>
      <trkpt lat="45.39799" lon="4.48887">
        <ele>785</ele>
        <time>2015-04-19T08:35:50Z</time>
      </trkpt>
      <trkpt lat="45.39799" lon="4.48885">
        <ele>786</ele>
        <time>2015-04-19T08:35:52Z</time>
      </trkpt>
      <trkpt lat="45.39799" lon="4.48882">
        <ele>786</ele>
        <time>2015-04-19T08:35:55Z</time>
      </trkpt>
      <trkpt lat="45.398" lon="4.4888">
        <ele>787</ele>
        <time>2015-04-19T08:35:57Z</time>
      </trkpt>
      <trkpt lat="45.39801" lon="4.48878">
        <ele>787</ele>
        <time>2015-04-19T08:35:59Z</time>
      </trkpt>
      <trkpt lat="45.39801" lon="4.48876">
        <ele>788</ele>
        <time>2015-04-19T08:36:01Z</time>
      </trkpt>
      <trkpt lat="45.39801" lon="4.48872">
        <ele>788</ele>
        <time>2015-04-19T08:36:04Z</time>
      </trkpt>
      <trkpt lat="45.39802" lon="4.4887">
        <ele>789</ele>
        <time>2015-04-19T08:36:06Z</time>
      </trkpt>
      <trkpt lat="45.39803" lon="4.48868">
        <ele>789</ele>
        <time>2015-04-19T08:36:08Z</time>
      </trkpt>
      <trkpt lat="45.39803" lon="4.48864">
        <ele>790</ele>
        <time>2015-04-19T08:36:10Z</time>
      </trkpt>
      <trkpt lat="45.39804" lon="4.4886">
        <ele>790</ele>
        <time>2015-04-19T08:36:12Z</time>
      </trkpt>
      <trkpt lat="45.39804" lon="4.48857">
        <ele>791</ele>
        <time>2015-04-19T08:36:14Z</time>
      </trkpt>
      <trkpt lat="45.39804" lon="4.48854">
        <ele>791</ele>
        <time>2015-04-19T08:36:16Z</time>
      </trkpt>
      <trkpt lat="45.39805" lon="4.48851">
        <ele>791</ele>
        <time>2015-04-19T08:36:18Z</time>
      </trkpt>
      <trkpt lat="45.39805" lon="4.48846">
        <ele>792</ele>
        <time>2015-04-19T08:36:21Z</time>
      </trkpt>
      <trkpt lat="45.39805" lon="4.48843">
        <ele>792</ele>
        <time>2015-04-19T08:36:23Z</time>
      </trkpt>
      <trkpt lat="45.39805" lon="4.48841">
        <ele>793</ele>
        <time>2015-04-19T08:36:25Z</time>
      </trkpt>
      <trkpt lat="45.39805" lon="4.48837">
        <ele>793</ele>
        <time>2015-04-19T08:36:27Z</time>
      </trkpt>
      <trkpt lat="45.39804" lon="4.48834">
        <ele>793</ele>
        <time>2015-04-19T08:36:30Z</time>
      </trkpt>
      <trkpt lat="45.39804" lon="4.48831">
        <ele>794</ele>
        <time>2015-04-19T08:36:32Z</time>
      </trkpt>
      <trkpt lat="45.39804" lon="4.48828">
        <ele>794</ele>
        <time>2015-04-19T08:36:35Z</time>
      </trkpt>
      <trkpt lat="45.39804" lon="4.48826">
        <ele>795</ele>
        <time>2015-04-19T08:36:37Z</time>
      </trkpt>
      <trkpt lat="45.39803" lon="4.48822">
        <ele>795</ele>
        <time>2015-04-19T08:36:40Z</time>
      </trkpt>
      <trkpt lat="45.39803" lon="4.4882">
        <ele>796</ele>
        <time>2015-04-19T08:36:42Z</time>
      </trkpt>
      <trkpt lat="45.39803" lon="4.48817">
        <ele>796</ele>
        <time>2015-04-19T08:36:44Z</time>
      </trkpt>
      <trkpt lat="45.39802" lon="4.48814">
        <ele>797</ele>
        <time>2015-04-19T08:36:47Z</time>
      </trkpt>
      <trkpt lat="45.39801" lon="4.48812">
        <ele>797</ele>
        <time>2015-04-19T08:36:49Z</time>
      </trkpt>
      <trkpt lat="45.398" lon="4.4881">
        <ele>798</ele>
        <time>2015-04-19T08:36:51Z</time>
      </trkpt>
      <trkpt lat="45.39799" lon="4.48808">
        <ele>798</ele>
        <time>2015-04-19T08:36:53Z</time>
      </trkpt>
      <trkpt lat="45.39798" lon="4.48806">
        <ele>798</ele>
        <time>2015-04-19T08:36:55Z</time>
      </trkpt>
      <trkpt lat="45.39797" lon="4.48804">
        <ele>799</ele>
        <time>2015-04-19T08:36:57Z</time>
      </trkpt>
      <trkpt lat="45.39796" lon="4.48802">
        <ele>799</ele>
        <time>2015-04-19T08:36:59Z</time>
      </trkpt>
      <trkpt lat="45.39794" lon="4.488">
        <ele>800</ele>
        <time>2015-04-19T08:37:01Z</time>
      </trkpt>
      <trkpt lat="45.39792" lon="4.48798">
        <ele>800</ele>
        <time>2015-04-19T08:37:04Z</time>
      </trkpt>
      <trkpt lat="45.3979" lon="4.48796">
        <ele>801</ele>
        <time>2015-04-19T08:37:07Z</time>
      </trkpt>
      <trkpt lat="45.39788" lon="4.48794">
        <ele>802</ele>
        <time>2015-04-19T08:37:10Z</time>
      </trkpt>
      <trkpt lat="45.39785" lon="4.48793">
        <ele>802</ele>
        <time>2015-04-19T08:37:13Z</time>
      </trkpt>
      <trkpt lat="45.39784" lon="4.48792">
        <ele>803</ele>
        <time>2015-04-19T08:37:15Z</time>
      </trkpt>
      <trkpt lat="45.39783" lon="4.48791">
        <ele>803</ele>
        <time>2015-04-19T08:37:17Z</time>
      </trkpt>
      <trkpt lat="45.39781" lon="4.48789">
        <ele>804</ele>
        <time>2015-04-19T08:37:20Z</time>
      </trkpt>
      <trkpt lat="45.39779" lon="4.48787">
        <ele>805</ele>
        <time>2015-04-19T08:37:23Z</time>
      </trkpt>
      <trkpt lat="45.39778" lon="4.48785">
        <ele>805</ele>
        <time>2015-04-19T08:37:25Z</time>
      </trkpt>
      <trkpt lat="45.39777" lon="4.48783">
        <ele>806</ele>
        <time>2015-04-19T08:37:27Z</time>
      </trkpt>
      <trkpt lat="45.39774" lon="4.48781">
        <ele>806</ele>
        <time>2015-04-19T08:37:30Z</time>
      </trkpt>
      <trkpt lat="45.39773" lon="4.4878">
        <ele>806</ele>
        <time>2015-04-19T08:37:32Z</time>
      </trkpt>
      <trkpt lat="45.39772" lon="4.48777">
        <ele>807</ele>
        <time>2015-04-19T08:37:34Z</time>
      </trkpt>
      <trkpt lat="45.3977" lon="4.48775">
        <ele>807</ele>
        <time>2015-04-19T08:37:37Z</time>
      </trkpt>
      <trkpt lat="45.39769" lon="4.48773">
        <ele>808</ele>
        <time>2015-04-19T08:37:39Z</time>
      </trkpt>
      <trkpt lat="45.39768" lon="4.48772">
        <ele>808</ele>
        <time>2015-04-19T08:37:41Z</time>
      </trkpt>
      <trkpt lat="45.39766" lon="4.48769">
        <ele>809</ele>
        <time>2015-04-19T08:37:44Z</time>
      </trkpt>
      <trkpt lat="45.39765" lon="4.48767">
        <ele>809</ele>
        <time>2015-04-19T08:37:46Z</time>
      </trkpt>
      <trkpt lat="45.39763" lon="4.48763">
        <ele>810</ele>
        <time>2015-04-19T08:37:49Z</time>
      </trkpt>
      <trkpt lat="45.39762" lon="4.48761">
        <ele>810</ele>
        <time>2015-04-19T08:37:51Z</time>
      </trkpt>
      <trkpt lat="45.39761" lon="4.48758">
        <ele>811</ele>
        <time>2015-04-19T08:37:53Z</time>
      </trkpt>
      <trkpt lat="45.3976" lon="4.48756">
        <ele>811</ele>
        <time>2015-04-19T08:37:55Z</time>
      </trkpt>
      <trkpt lat="45.39759" lon="4.48753">
        <ele>811</ele>
        <time>2015-04-19T08:37:57Z</time>
      </trkpt>
      <trkpt lat="45.39758" lon="4.4875">
        <ele>812</ele>
        <time>2015-04-19T08:37:59Z</time>
      </trkpt>
      <trkpt lat="45.39757" lon="4.48747">
        <ele>812</ele>
        <time>2015-04-19T08:38:01Z</time>
      </trkpt>
      <trkpt lat="45.39756" lon="4.48743">
        <ele>812</ele>
        <time>2015-04-19T08:38:04Z</time>
      </trkpt>
      <trkpt lat="45.39756" lon="4.48741">
        <ele>813</ele>
        <time>2015-04-19T08:38:06Z</time>
      </trkpt>
      <trkpt lat="45.39755" lon="4.48738">
        <ele>813</ele>
        <time>2015-04-19T08:38:08Z</time>
      </trkpt>
      <trkpt lat="45.39754" lon="4.48734">
        <ele>814</ele>
        <time>2015-04-19T08:38:11Z</time>
      </trkpt>
      <trkpt lat="45.39754" lon="4.48732">
        <ele>814</ele>
        <time>2015-04-19T08:38:13Z</time>
      </trkpt>
      <trkpt lat="45.39753" lon="4.48728">
        <ele>815</ele>
        <time>2015-04-19T08:38:16Z</time>
      </trkpt>
      <trkpt lat="45.39752" lon="4.48725">
        <ele>815</ele>
        <time>2015-04-19T08:38:18Z</time>
      </trkpt>
      <trkpt lat="45.39751" lon="4.48723">
        <ele>816</ele>
        <time>2015-04-19T08:38:20Z</time>
      </trkpt>
      <trkpt lat="45.39751" lon="4.4872">
        <ele>816</ele>
        <time>2015-04-19T08:38:22Z</time>
      </trkpt>
      <trkpt lat="45.3975" lon="4.48716">
        <ele>817</ele>
        <time>2015-04-19T08:38:25Z</time>
      </trkpt>
      <trkpt lat="45.3975" lon="4.48713">
        <ele>817</ele>
        <time>2015-04-19T08:38:27Z</time>
      </trkpt>
      <trkpt lat="45.3975" lon="4.48709">
        <ele>818</ele>
        <time>2015-04-19T08:38:30Z</time>
      </trkpt>
      <trkpt lat="45.39749" lon="4.48707">
        <ele>818</ele>
        <time>2015-04-19T08:38:32Z</time>
      </trkpt>
      <trkpt lat="45.39749" lon="4.48704">
        <ele>818</ele>
        <time>2015-04-19T08:38:34Z</time>
      </trkpt>
      <trkpt lat="45.39748" lon="4.487">
        <ele>819</ele>
        <time>2015-04-19T08:38:37Z</time>
      </trkpt>
      <trkpt lat="45.39748" lon="4.48697">
        <ele>819</ele>
        <time>2015-04-19T08:38:39Z</time>
      </trkpt>
      <trkpt lat="45.39746" lon="4.48693">
        <ele>820</ele>
        <time>2015-04-19T08:38:42Z</time>
      </trkpt>
      <trkpt lat="45.39745" lon="4.4869">
        <ele>821</ele>
        <time>2015-04-19T08:38:45Z</time>
      </trkpt>
      <trkpt lat="45.39745" lon="4.48687">
        <ele>821</ele>
        <time>2015-04-19T08:38:47Z</time>
      </trkpt>
      <trkpt lat="45.39744" lon="4.48683">
        <ele>822</ele>
        <time>2015-04-19T08:38:50Z</time>
      </trkpt>
      <trkpt lat="45.39744" lon="4.48678">
        <ele>822</ele>
        <time>2015-04-19T08:38:53Z</time>
      </trkpt>
      <trkpt lat="45.39744" lon="4.48674">
        <ele>822</ele>
        <time>2015-04-19T08:38:56Z</time>
      </trkpt>
      <trkpt lat="45.39744" lon="4.48672">
        <ele>823</ele>
        <time>2015-04-19T08:38:58Z</time>
      </trkpt>
      <trkpt lat="45.39743" lon="4.4867">
        <ele>823</ele>
        <time>2015-04-19T08:39:00Z</time>
      </trkpt>
      <trkpt lat="45.39743" lon="4.48665">
        <ele>824</ele>
        <time>2015-04-19T08:39:03Z</time>
      </trkpt>
      <trkpt lat="45.39743" lon="4.48662">
        <ele>825</ele>
        <time>2015-04-19T08:39:05Z</time>
      </trkpt>
      <trkpt lat="45.39743" lon="4.48659">
        <ele>825</ele>
        <time>2015-04-19T08:39:08Z</time>
      </trkpt>
      <trkpt lat="45.39742" lon="4.48657">
        <ele>825</ele>
        <time>2015-04-19T08:39:10Z</time>
      </trkpt>
      <trkpt lat="45.39742" lon="4.48654">
        <ele>826</ele>
        <time>2015-04-19T08:39:12Z</time>
      </trkpt>
      <trkpt lat="45.39741" lon="4.4865">
        <ele>826</ele>
        <time>2015-04-19T08:39:15Z</time>
      </trkpt>
      <trkpt lat="45.39741" lon="4.48647">
        <ele>827</ele>
        <time>2015-04-19T08:39:17Z</time>
      </trkpt>
      <trkpt lat="45.3974" lon="4.48642">
        <ele>827</ele>
        <time>2015-04-19T08:39:20Z</time>
      </trkpt>
      <trkpt lat="45.3974" lon="4.48638">
        <ele>828</ele>
        <time>2015-04-19T08:39:23Z</time>
      </trkpt>
      <trkpt lat="45.39739" lon="4.48635">
        <ele>829</ele>
        <time>2015-04-19T08:39:25Z</time>
      </trkpt>
      <trkpt lat="45.39739" lon="4.48631">
        <ele>829</ele>
        <time>2015-04-19T08:39:28Z</time>
      </trkpt>
      <trkpt lat="45.39739" lon="4.48628">
        <ele>829</ele>
        <time>2015-04-19T08:39:31Z</time>
      </trkpt>
      <trkpt lat="45.39738" lon="4.48624">
        <ele>830</ele>
        <time>2015-04-19T08:39:34Z</time>
      </trkpt>
      <trkpt lat="45.39737" lon="4.48621">
        <ele>830</ele>
        <time>2015-04-19T08:39:37Z</time>
      </trkpt>
      <trkpt lat="45.39737" lon="4.48617">
        <ele>831</ele>
        <time>2015-04-19T08:39:40Z</time>
      </trkpt>
      <trkpt lat="45.39737" lon="4.48614">
        <ele>831</ele>
        <time>2015-04-19T08:39:43Z</time>
      </trkpt>
      <trkpt lat="45.39737" lon="4.48611">
        <ele>832</ele>
        <time>2015-04-19T08:39:45Z</time>
      </trkpt>
      <trkpt lat="45.39737" lon="4.48608">
        <ele>832</ele>
        <time>2015-04-19T08:39:47Z</time>
      </trkpt>
      <trkpt lat="45.39737" lon="4.48605">
        <ele>833</ele>
        <time>2015-04-19T08:39:49Z</time>
      </trkpt>
      <trkpt lat="45.39738" lon="4.48601">
        <ele>834</ele>
        <time>2015-04-19T08:39:52Z</time>
      </trkpt>
      <trkpt lat="45.39738" lon="4.48598">
        <ele>834</ele>
        <time>2015-04-19T08:39:54Z</time>
      </trkpt>
      <trkpt lat="45.39738" lon="4.48596">
        <ele>834</ele>
        <time>2015-04-19T08:39:56Z</time>
      </trkpt>
      <trkpt lat="45.39737" lon="4.48591">
        <ele>835</ele>
        <time>2015-04-19T08:39:59Z</time>
      </trkpt>
      <trkpt lat="45.39736" lon="4.48586">
        <ele>836</ele>
        <time>2015-04-19T08:40:02Z</time>
      </trkpt>
      <trkpt lat="45.39736" lon="4.48582">
        <ele>836</ele>
        <time>2015-04-19T08:40:05Z</time>
      </trkpt>
      <trkpt lat="45.39736" lon="4.48579">
        <ele>837</ele>
        <time>2015-04-19T08:40:07Z</time>
      </trkpt>
      <trkpt lat="45.39737" lon="4.48577">
        <ele>837</ele>
        <time>2015-04-19T08:40:09Z</time>
      </trkpt>
      <trkpt lat="45.39736" lon="4.48574">
        <ele>837</ele>
        <time>2015-04-19T08:40:11Z</time>
      </trkpt>
      <trkpt lat="45.39736" lon="4.48571">
        <ele>838</ele>
        <time>2015-04-19T08:40:13Z</time>
      </trkpt>
      <trkpt lat="45.39735" lon="4.48567">
        <ele>838</ele>
        <time>2015-04-19T08:40:16Z</time>
      </trkpt>
      <trkpt lat="45.39734" lon="4.48565">
        <ele>838</ele>
        <time>2015-04-19T08:40:18Z</time>
      </trkpt>
      <trkpt lat="45.39734" lon="4.48562">
        <ele>838</ele>
        <time>2015-04-19T08:40:20Z</time>
      </trkpt>
      <trkpt lat="45.39733" lon="4.4856">
        <ele>839</ele>
        <time>2015-04-19T08:40:23Z</time>
      </trkpt>
      <trkpt lat="45.39733" lon="4.48556">
        <ele>840</ele>
        <time>2015-04-19T08:40:26Z</time>
      </trkpt>
      <trkpt lat="45.39732" lon="4.48552">
        <ele>841</ele>
        <time>2015-04-19T08:40:29Z</time>
      </trkpt>
      <trkpt lat="45.39732" lon="4.4855">
        <ele>841</ele>
        <time>2015-04-19T08:40:31Z</time>
      </trkpt>
      <trkpt lat="45.39732" lon="4.48546">
        <ele>842</ele>
        <time>2015-04-19T08:40:34Z</time>
      </trkpt>
      <trkpt lat="45.39731" lon="4.48543">
        <ele>843</ele>
        <time>2015-04-19T08:40:36Z</time>
      </trkpt>
      <trkpt lat="45.39731" lon="4.4854">
        <ele>843</ele>
        <time>2015-04-19T08:40:38Z</time>
      </trkpt>
      <trkpt lat="45.39731" lon="4.48538">
        <ele>844</ele>
        <time>2015-04-19T08:40:40Z</time>
      </trkpt>
      <trkpt lat="45.3973" lon="4.48535">
        <ele>844</ele>
        <time>2015-04-19T08:40:43Z</time>
      </trkpt>
      <trkpt lat="45.3973" lon="4.48533">
        <ele>845</ele>
        <time>2015-04-19T08:40:45Z</time>
      </trkpt>
      <trkpt lat="45.3973" lon="4.48528">
        <ele>845</ele>
        <time>2015-04-19T08:40:48Z</time>
      </trkpt>
      <trkpt lat="45.3973" lon="4.48526">
        <ele>846</ele>
        <time>2015-04-19T08:40:50Z</time>
      </trkpt>
      <trkpt lat="45.3973" lon="4.48522">
        <ele>847</ele>
        <time>2015-04-19T08:40:53Z</time>
      </trkpt>
      <trkpt lat="45.39731" lon="4.4852">
        <ele>847</ele>
        <time>2015-04-19T08:40:55Z</time>
      </trkpt>
      <trkpt lat="45.39731" lon="4.48517">
        <ele>847</ele>
        <time>2015-04-19T08:40:57Z</time>
      </trkpt>
      <trkpt lat="45.3973" lon="4.48512">
        <ele>848</ele>
        <time>2015-04-19T08:41:00Z</time>
      </trkpt>
      <trkpt lat="45.3973" lon="4.48508">
        <ele>848</ele>
        <time>2015-04-19T08:41:03Z</time>
      </trkpt>
      <trkpt lat="45.3973" lon="4.48504">
        <ele>849</ele>
        <time>2015-04-19T08:41:06Z</time>
      </trkpt>
      <trkpt lat="45.3973" lon="4.485">
        <ele>850</ele>
        <time>2015-04-19T08:41:09Z</time>
      </trkpt>
      <trkpt lat="45.39731" lon="4.48498">
        <ele>851</ele>
        <time>2015-04-19T08:41:11Z</time>
      </trkpt>
      <trkpt lat="45.39731" lon="4.48496">
        <ele>851</ele>
        <time>2015-04-19T08:41:13Z</time>
      </trkpt>
      <trkpt lat="45.39732" lon="4.48492">
        <ele>852</ele>
        <time>2015-04-19T08:41:16Z</time>
      </trkpt>
      <trkpt lat="45.39732" lon="4.4849">
        <ele>852</ele>
        <time>2015-04-19T08:41:18Z</time>
      </trkpt>
      <trkpt lat="45.39732" lon="4.48488">
        <ele>852</ele>
        <time>2015-04-19T08:41:20Z</time>
      </trkpt>
      <trkpt lat="45.39731" lon="4.48485">
        <ele>852</ele>
        <time>2015-04-19T08:41:22Z</time>
      </trkpt>
      <trkpt lat="45.3973" lon="4.4848">
        <ele>853</ele>
        <time>2015-04-19T08:41:25Z</time>
      </trkpt>
      <trkpt lat="45.39729" lon="4.48475">
        <ele>853</ele>
        <time>2015-04-19T08:41:28Z</time>
      </trkpt>
      <trkpt lat="45.39727" lon="4.48472">
        <ele>854</ele>
        <time>2015-04-19T08:41:30Z</time>
      </trkpt>
      <trkpt lat="45.39725" lon="4.48468">
        <ele>855</ele>
        <time>2015-04-19T08:41:33Z</time>
      </trkpt>
      <trkpt lat="45.39724" lon="4.48466">
        <ele>855</ele>
        <time>2015-04-19T08:41:35Z</time>
      </trkpt>
      <trkpt lat="45.39722" lon="4.48463">
        <ele>855</ele>
        <time>2015-04-19T08:41:37Z</time>
      </trkpt>
      <trkpt lat="45.3972" lon="4.4846">
        <ele>856</ele>
        <time>2015-04-19T08:41:40Z</time>
      </trkpt>
      <trkpt lat="45.39717" lon="4.48457">
        <ele>857</ele>
        <time>2015-04-19T08:41:43Z</time>
      </trkpt>
      <trkpt lat="45.39716" lon="4.48455">
        <ele>858</ele>
        <time>2015-04-19T08:41:45Z</time>
      </trkpt>
      <trkpt lat="45.39713" lon="4.48452">
        <ele>858</ele>
        <time>2015-04-19T08:41:48Z</time>
      </trkpt>
      <trkpt lat="45.39711" lon="4.4845">
        <ele>858</ele>
        <time>2015-04-19T08:41:50Z</time>
      </trkpt>
      <trkpt lat="45.39709" lon="4.48449">
        <ele>859</ele>
        <time>2015-04-19T08:41:52Z</time>
      </trkpt>
      <trkpt lat="45.39706" lon="4.48447">
        <ele>859</ele>
        <time>2015-04-19T08:41:55Z</time>
      </trkpt>
      <trkpt lat="45.39704" lon="4.48446">
        <ele>860</ele>
        <time>2015-04-19T08:41:57Z</time>
      </trkpt>
      <trkpt lat="45.39701" lon="4.48444">
        <ele>860</ele>
        <time>2015-04-19T08:42:00Z</time>
      </trkpt>
      <trkpt lat="45.39698" lon="4.48441">
        <ele>860</ele>
        <time>2015-04-19T08:42:03Z</time>
      </trkpt>
      <trkpt lat="45.39696" lon="4.4844">
        <ele>861</ele>
        <time>2015-04-19T08:42:05Z</time>
      </trkpt>
      <trkpt lat="45.39693" lon="4.48437">
        <ele>861</ele>
        <time>2015-04-19T08:42:08Z</time>
      </trkpt>
      <trkpt lat="45.39691" lon="4.48436">
        <ele>861</ele>
        <time>2015-04-19T08:42:11Z</time>
      </trkpt>
      <trkpt lat="45.39689" lon="4.48434">
        <ele>862</ele>
        <time>2015-04-19T08:42:13Z</time>
      </trkpt>
      <trkpt lat="45.39687" lon="4.48431">
        <ele>863</ele>
        <time>2015-04-19T08:42:16Z</time>
      </trkpt>
      <trkpt lat="45.39684" lon="4.48429">
        <ele>863</ele>
        <time>2015-04-19T08:42:19Z</time>
      </trkpt>
      <trkpt lat="45.39683" lon="4.48428">
        <ele>864</ele>
        <time>2015-04-19T08:42:21Z</time>
      </trkpt>
      <trkpt lat="45.39681" lon="4.48427">
        <ele>864</ele>
        <time>2015-04-19T08:42:23Z</time>
      </trkpt>
      <trkpt lat="45.39679" lon="4.48425">
        <ele>865</ele>
        <time>2015-04-19T08:42:26Z</time>
      </trkpt>
      <trkpt lat="45.39678" lon="4.48423">
        <ele>865</ele>
        <time>2015-04-19T08:42:28Z</time>
      </trkpt>
      <trkpt lat="45.39675" lon="4.48421">
        <ele>865</ele>
        <time>2015-04-19T08:42:31Z</time>
      </trkpt>
      <trkpt lat="45.39673" lon="4.4842">
        <ele>865</ele>
        <time>2015-04-19T08:42:33Z</time>
      </trkpt>
      <trkpt lat="45.39671" lon="4.48418">
        <ele>866</ele>
        <time>2015-04-19T08:42:36Z</time>
      </trkpt>
      <trkpt lat="45.39669" lon="4.48417">
        <ele>867</ele>
        <time>2015-04-19T08:42:39Z</time>
      </trkpt>
      <trkpt lat="45.39667" lon="4.48416">
        <ele>867</ele>
        <time>2015-04-19T08:42:41Z</time>
      </trkpt>
      <trkpt lat="45.39666" lon="4.48414">
        <ele>868</ele>
        <time>2015-04-19T08:42:43Z</time>
      </trkpt>
      <trkpt lat="45.39664" lon="4.48412">
        <ele>869</ele>
        <time>2015-04-19T08:42:46Z</time>
      </trkpt>
      <trkpt lat="45.39662" lon="4.48409">
        <ele>869</ele>
        <time>2015-04-19T08:42:49Z</time>
      </trkpt>
      <trkpt lat="45.39662" lon="4.48406">
        <ele>870</ele>
        <time>2015-04-19T08:42:52Z</time>
      </trkpt>
      <trkpt lat="45.39661" lon="4.48403">
        <ele>871</ele>
        <time>2015-04-19T08:42:55Z</time>
      </trkpt>
      <trkpt lat="45.39663" lon="4.484">
        <ele>871</ele>
        <time>2015-04-19T08:42:57Z</time>
      </trkpt>
      <trkpt lat="45.39666" lon="4.48396">
        <ele>871</ele>
        <time>2015-04-19T08:42:59Z</time>
      </trkpt>
      <trkpt lat="45.39668" lon="4.48391">
        <ele>871</ele>
        <time>2015-04-19T08:43:01Z</time>
      </trkpt>
      <trkpt lat="45.3967" lon="4.48387">
        <ele>870</ele>
        <time>2015-04-19T08:43:03Z</time>
      </trkpt>
      <trkpt lat="45.39673" lon="4.48375">
        <ele>870</ele>
        <time>2015-04-19T08:43:06Z</time>
      </trkpt>
      <trkpt lat="45.39675" lon="4.48365">
        <ele>868</ele>
        <time>2015-04-19T08:43:09Z</time>
      </trkpt>
      <trkpt lat="45.39676" lon="4.48359">
        <ele>867</ele>
        <time>2015-04-19T08:43:11Z</time>
      </trkpt>
      <trkpt lat="45.39676" lon="4.48348">
        <ele>866</ele>
        <time>2015-04-19T08:43:14Z</time>
      </trkpt>
      <trkpt lat="45.39678" lon="4.48343">
        <ele>865</ele>
        <time>2015-04-19T08:43:16Z</time>
      </trkpt>
      <trkpt lat="45.3968" lon="4.48332">
        <ele>864</ele>
        <time>2015-04-19T08:43:19Z</time>
      </trkpt>
      <trkpt lat="45.39682" lon="4.48324">
        <ele>864</ele>
        <time>2015-04-19T08:43:21Z</time>
      </trkpt>
      <trkpt lat="45.39687" lon="4.48315">
        <ele>862</ele>
        <time>2015-04-19T08:43:24Z</time>
      </trkpt>
      <trkpt lat="45.39692" lon="4.48305">
        <ele>862</ele>
        <time>2015-04-19T08:43:27Z</time>
      </trkpt>
      <trkpt lat="45.39695" lon="4.48299">
        <ele>861</ele>
        <time>2015-04-19T08:43:29Z</time>
      </trkpt>
      <trkpt lat="45.39698" lon="4.48294">
        <ele>861</ele>
        <time>2015-04-19T08:43:31Z</time>
      </trkpt>
      <trkpt lat="45.39702" lon="4.4829">
        <ele>861</ele>
        <time>2015-04-19T08:43:33Z</time>
      </trkpt>
      <trkpt lat="45.39708" lon="4.48287">
        <ele>861</ele>
        <time>2015-04-19T08:43:36Z</time>
      </trkpt>
      <trkpt lat="45.39716" lon="4.48285">
        <ele>861</ele>
        <time>2015-04-19T08:43:39Z</time>
      </trkpt>
      <trkpt lat="45.39723" lon="4.48284">
        <ele>860</ele>
        <time>2015-04-19T08:43:42Z</time>
      </trkpt>
      <trkpt lat="45.39727" lon="4.48282">
        <ele>860</ele>
        <time>2015-04-19T08:43:44Z</time>
      </trkpt>
      <trkpt lat="45.39732" lon="4.48279">
        <ele>861</ele>
        <time>2015-04-19T08:43:47Z</time>
      </trkpt>
      <trkpt lat="45.39735" lon="4.48275">
        <ele>861</ele>
        <time>2015-04-19T08:43:50Z</time>
      </trkpt>
      <trkpt lat="45.39737" lon="4.48273">
        <ele>861</ele>
        <time>2015-04-19T08:43:52Z</time>
      </trkpt>
      <trkpt lat="45.3974" lon="4.48269">
        <ele>862</ele>
        <time>2015-04-19T08:43:55Z</time>
      </trkpt>
      <trkpt lat="45.39742" lon="4.48264">
        <ele>862</ele>
        <time>2015-04-19T08:43:58Z</time>
      </trkpt>
      <trkpt lat="45.39743" lon="4.48261">
        <ele>863</ele>
        <time>2015-04-19T08:44:00Z</time>
      </trkpt>
      <trkpt lat="45.39744" lon="4.48258">
        <ele>864</ele>
        <time>2015-04-19T08:44:02Z</time>
      </trkpt>
      <trkpt lat="45.39746" lon="4.48254">
        <ele>864</ele>
        <time>2015-04-19T08:44:05Z</time>
      </trkpt>
      <trkpt lat="45.39747" lon="4.48249">
        <ele>865</ele>
        <time>2015-04-19T08:44:08Z</time>
      </trkpt>
      <trkpt lat="45.39748" lon="4.48246">
        <ele>865</ele>
        <time>2015-04-19T08:44:10Z</time>
      </trkpt>
      <trkpt lat="45.39748" lon="4.48243">
        <ele>866</ele>
        <time>2015-04-19T08:44:12Z</time>
      </trkpt>
      <trkpt lat="45.39748" lon="4.4824">
        <ele>866</ele>
        <time>2015-04-19T08:44:14Z</time>
      </trkpt>
      <trkpt lat="45.39748" lon="4.48235">
        <ele>867</ele>
        <time>2015-04-19T08:44:17Z</time>
      </trkpt>
      <trkpt lat="45.39749" lon="4.48231">
        <ele>867</ele>
        <time>2015-04-19T08:44:20Z</time>
      </trkpt>
      <trkpt lat="45.3975" lon="4.48228">
        <ele>867</ele>
        <time>2015-04-19T08:44:22Z</time>
      </trkpt>
      <trkpt lat="45.3975" lon="4.48225">
        <ele>868</ele>
        <time>2015-04-19T08:44:24Z</time>
      </trkpt>
      <trkpt lat="45.39752" lon="4.4822">
        <ele>869</ele>
        <time>2015-04-19T08:44:27Z</time>
      </trkpt>
      <trkpt lat="45.39753" lon="4.48217">
        <ele>869</ele>
        <time>2015-04-19T08:44:29Z</time>
      </trkpt>
      <trkpt lat="45.39754" lon="4.48214">
        <ele>870</ele>
        <time>2015-04-19T08:44:32Z</time>
      </trkpt>
      <trkpt lat="45.39755" lon="4.4821">
        <ele>871</ele>
        <time>2015-04-19T08:44:35Z</time>
      </trkpt>
      <trkpt lat="45.39755" lon="4.48207">
        <ele>871</ele>
        <time>2015-04-19T08:44:37Z</time>
      </trkpt>
      <trkpt lat="45.39755" lon="4.48203">
        <ele>871</ele>
        <time>2015-04-19T08:44:40Z</time>
      </trkpt>
      <trkpt lat="45.39755" lon="4.482">
        <ele>872</ele>
        <time>2015-04-19T08:44:42Z</time>
      </trkpt>
      <trkpt lat="45.39755" lon="4.48198">
        <ele>872</ele>
        <time>2015-04-19T08:44:44Z</time>
      </trkpt>
      <trkpt lat="45.39755" lon="4.48193">
        <ele>873</ele>
        <time>2015-04-19T08:44:47Z</time>
      </trkpt>
      <trkpt lat="45.39755" lon="4.48191">
        <ele>873</ele>
        <time>2015-04-19T08:44:49Z</time>
      </trkpt>
      <trkpt lat="45.39753" lon="4.48189">
        <ele>874</ele>
        <time>2015-04-19T08:44:52Z</time>
      </trkpt>
      <trkpt lat="45.39752" lon="4.48187">
        <ele>874</ele>
        <time>2015-04-19T08:44:55Z</time>
      </trkpt>
      <trkpt lat="45.39751" lon="4.48185">
        <ele>875</ele>
        <time>2015-04-19T08:44:57Z</time>
      </trkpt>
      <trkpt lat="45.39751" lon="4.48184">
        <ele>876</ele>
        <time>2015-04-19T08:44:59Z</time>
      </trkpt>
      <trkpt lat="45.3975" lon="4.48182">
        <ele>876</ele>
        <time>2015-04-19T08:45:01Z</time>
      </trkpt>
      <trkpt lat="45.39748" lon="4.48179">
        <ele>877</ele>
        <time>2015-04-19T08:45:04Z</time>
      </trkpt>
      <trkpt lat="45.39747" lon="4.48178">
        <ele>877</ele>
        <time>2015-04-19T08:45:06Z</time>
      </trkpt>
      <trkpt lat="45.39746" lon="4.48176">
        <ele>878</ele>
        <time>2015-04-19T08:45:09Z</time>
      </trkpt>
      <trkpt lat="45.39746" lon="4.48174">
        <ele>879</ele>
        <time>2015-04-19T08:45:11Z</time>
      </trkpt>
      <trkpt lat="45.39745" lon="4.48172">
        <ele>879</ele>
        <time>2015-04-19T08:45:13Z</time>
      </trkpt>
      <trkpt lat="45.39744" lon="4.4817">
        <ele>879</ele>
        <time>2015-04-19T08:45:15Z</time>
      </trkpt>
      <trkpt lat="45.39743" lon="4.48168">
        <ele>879</ele>
        <time>2015-04-19T08:45:17Z</time>
      </trkpt>
      <trkpt lat="45.39743" lon="4.48166">
        <ele>880</ele>
        <time>2015-04-19T08:45:19Z</time>
      </trkpt>
      <trkpt lat="45.39742" lon="4.48164">
        <ele>880</ele>
        <time>2015-04-19T08:45:21Z</time>
      </trkpt>
      <trkpt lat="45.39741" lon="4.48161">
        <ele>881</ele>
        <time>2015-04-19T08:45:24Z</time>
      </trkpt>
      <trkpt lat="45.3974" lon="4.48159">
        <ele>882</ele>
        <time>2015-04-19T08:45:26Z</time>
      </trkpt>
      <trkpt lat="45.39739" lon="4.48156">
        <ele>882</ele>
        <time>2015-04-19T08:45:28Z</time>
      </trkpt>
      <trkpt lat="45.39738" lon="4.48154">
        <ele>883</ele>
        <time>2015-04-19T08:45:30Z</time>
      </trkpt>
      <trkpt lat="45.39737" lon="4.48151">
        <ele>884</ele>
        <time>2015-04-19T08:45:32Z</time>
      </trkpt>
      <trkpt lat="45.39737" lon="4.48149">
        <ele>884</ele>
        <time>2015-04-19T08:45:34Z</time>
      </trkpt>
      <trkpt lat="45.39736" lon="4.48147">
        <ele>884</ele>
        <time>2015-04-19T08:45:36Z</time>
      </trkpt>
      <trkpt lat="45.39735" lon="4.48143">
        <ele>885</ele>
        <time>2015-04-19T08:45:39Z</time>
      </trkpt>
      <trkpt lat="45.39735" lon="4.48139">
        <ele>886</ele>
        <time>2015-04-19T08:45:42Z</time>
      </trkpt>
      <trkpt lat="45.39735" lon="4.48138">
        <ele>886</ele>
        <time>2015-04-19T08:45:44Z</time>
      </trkpt>
      <trkpt lat="45.39734" lon="4.48133">
        <ele>887</ele>
        <time>2015-04-19T08:45:47Z</time>
      </trkpt>
      <trkpt lat="45.39734" lon="4.48131">
        <ele>888</ele>
        <time>2015-04-19T08:45:49Z</time>
      </trkpt>
      <trkpt lat="45.39733" lon="4.4813">
        <ele>888</ele>
        <time>2015-04-19T08:45:51Z</time>
      </trkpt>
      <trkpt lat="45.39732" lon="4.48127">
        <ele>888</ele>
        <time>2015-04-19T08:45:54Z</time>
      </trkpt>
      <trkpt lat="45.3973" lon="4.48126">
        <ele>889</ele>
        <time>2015-04-19T08:45:56Z</time>
      </trkpt>
      <trkpt lat="45.39729" lon="4.48123">
        <ele>889</ele>
        <time>2015-04-19T08:45:58Z</time>
      </trkpt>
      <trkpt lat="45.39728" lon="4.4812">
        <ele>890</ele>
        <time>2015-04-19T08:46:00Z</time>
      </trkpt>
      <trkpt lat="45.39728" lon="4.48118">
        <ele>890</ele>
        <time>2015-04-19T08:46:02Z</time>
      </trkpt>
      <trkpt lat="45.39727" lon="4.48114">
        <ele>890</ele>
        <time>2015-04-19T08:46:05Z</time>
      </trkpt>
      <trkpt lat="45.39725" lon="4.48111">
        <ele>891</ele>
        <time>2015-04-19T08:46:07Z</time>
      </trkpt>
      <trkpt lat="45.39724" lon="4.48108">
        <ele>892</ele>
        <time>2015-04-19T08:46:09Z</time>
      </trkpt>
      <trkpt lat="45.39723" lon="4.48105">
        <ele>892</ele>
        <time>2015-04-19T08:46:12Z</time>
      </trkpt>
      <trkpt lat="45.39722" lon="4.48103">
        <ele>893</ele>
        <time>2015-04-19T08:46:14Z</time>
      </trkpt>
      <trkpt lat="45.39722" lon="4.48101">
        <ele>893</ele>
        <time>2015-04-19T08:46:16Z</time>
      </trkpt>
      <trkpt lat="45.3972" lon="4.48099">
        <ele>894</ele>
        <time>2015-04-19T08:46:19Z</time>
      </trkpt>
      <trkpt lat="45.3972" lon="4.48098">
        <ele>894</ele>
        <time>2015-04-19T08:46:21Z</time>
      </trkpt>
      <trkpt lat="45.39719" lon="4.48095">
        <ele>895</ele>
        <time>2015-04-19T08:46:23Z</time>
      </trkpt>
      <trkpt lat="45.39718" lon="4.48093">
        <ele>895</ele>
        <time>2015-04-19T08:46:25Z</time>
      </trkpt>
      <trkpt lat="45.39717" lon="4.48091">
        <ele>896</ele>
        <time>2015-04-19T08:46:28Z</time>
      </trkpt>
      <trkpt lat="45.39716" lon="4.48088">
        <ele>897</ele>
        <time>2015-04-19T08:46:31Z</time>
      </trkpt>
      <trkpt lat="45.39715" lon="4.48085">
        <ele>897</ele>
        <time>2015-04-19T08:46:33Z</time>
      </trkpt>
      <trkpt lat="45.39714" lon="4.48083">
        <ele>898</ele>
        <time>2015-04-19T08:46:35Z</time>
      </trkpt>
      <trkpt lat="45.39713" lon="4.48081">
        <ele>898</ele>
        <time>2015-04-19T08:46:37Z</time>
      </trkpt>
      <trkpt lat="45.39712" lon="4.48079">
        <ele>899</ele>
        <time>2015-04-19T08:46:40Z</time>
      </trkpt>
      <trkpt lat="45.39711" lon="4.48076">
        <ele>899</ele>
        <time>2015-04-19T08:46:43Z</time>
      </trkpt>
      <trkpt lat="45.39711" lon="4.48073">
        <ele>900</ele>
        <time>2015-04-19T08:46:45Z</time>
      </trkpt>
      <trkpt lat="45.39711" lon="4.4807">
        <ele>901</ele>
        <time>2015-04-19T08:46:48Z</time>
      </trkpt>
      <trkpt lat="45.39711" lon="4.48067">
        <ele>902</ele>
        <time>2015-04-19T08:46:51Z</time>
      </trkpt>
      <trkpt lat="45.3971" lon="4.48062">
        <ele>902</ele>
        <time>2015-04-19T08:46:54Z</time>
      </trkpt>
      <trkpt lat="45.39708" lon="4.48059">
        <ele>903</ele>
        <time>2015-04-19T08:46:57Z</time>
      </trkpt>
      <trkpt lat="45.39708" lon="4.48056">
        <ele>904</ele>
        <time>2015-04-19T08:47:00Z</time>
      </trkpt>
      <trkpt lat="45.39706" lon="4.48055">
        <ele>904</ele>
        <time>2015-04-19T08:47:02Z</time>
      </trkpt>
      <trkpt lat="45.39705" lon="4.48053">
        <ele>905</ele>
        <time>2015-04-19T08:47:05Z</time>
      </trkpt>
      <trkpt lat="45.39704" lon="4.48051">
        <ele>905</ele>
        <time>2015-04-19T08:47:07Z</time>
      </trkpt>
      <trkpt lat="45.39703" lon="4.48049">
        <ele>906</ele>
        <time>2015-04-19T08:47:10Z</time>
      </trkpt>
      <trkpt lat="45.39702" lon="4.48047">
        <ele>907</ele>
        <time>2015-04-19T08:47:12Z</time>
      </trkpt>
      <trkpt lat="45.39701" lon="4.48044">
        <ele>908</ele>
        <time>2015-04-19T08:47:15Z</time>
      </trkpt>
      <trkpt lat="45.397" lon="4.48043">
        <ele>908</ele>
        <time>2015-04-19T08:47:17Z</time>
      </trkpt>
      <trkpt lat="45.39698" lon="4.4804">
        <ele>909</ele>
        <time>2015-04-19T08:47:19Z</time>
      </trkpt>
      <trkpt lat="45.39697" lon="4.48038">
        <ele>909</ele>
        <time>2015-04-19T08:47:21Z</time>
      </trkpt>
      <trkpt lat="45.39696" lon="4.48037">
        <ele>910</ele>
        <time>2015-04-19T08:47:23Z</time>
      </trkpt>
      <trkpt lat="45.39695" lon="4.48035">
        <ele>910</ele>
        <time>2015-04-19T08:47:25Z</time>
      </trkpt>
      <trkpt lat="45.39695" lon="4.48033">
        <ele>910</ele>
        <time>2015-04-19T08:47:28Z</time>
      </trkpt>
      <trkpt lat="45.39694" lon="4.4803">
        <ele>911</ele>
        <time>2015-04-19T08:47:30Z</time>
      </trkpt>
      <trkpt lat="45.39694" lon="4.48026">
        <ele>912</ele>
        <time>2015-04-19T08:47:33Z</time>
      </trkpt>
      <trkpt lat="45.39693" lon="4.48024">
        <ele>912</ele>
        <time>2015-04-19T08:47:35Z</time>
      </trkpt>
      <trkpt lat="45.39692" lon="4.48021">
        <ele>913</ele>
        <time>2015-04-19T08:47:38Z</time>
      </trkpt>
      <trkpt lat="45.3969" lon="4.48017">
        <ele>914</ele>
        <time>2015-04-19T08:47:41Z</time>
      </trkpt>
      <trkpt lat="45.39689" lon="4.48013">
        <ele>914</ele>
        <time>2015-04-19T08:47:44Z</time>
      </trkpt>
      <trkpt lat="45.39688" lon="4.48011">
        <ele>914</ele>
        <time>2015-04-19T08:47:46Z</time>
      </trkpt>
      <trkpt lat="45.39687" lon="4.48008">
        <ele>915</ele>
        <time>2015-04-19T08:47:48Z</time>
      </trkpt>
      <trkpt lat="45.39685" lon="4.48005">
        <ele>915</ele>
        <time>2015-04-19T08:47:50Z</time>
      </trkpt>
      <trkpt lat="45.39684" lon="4.48002">
        <ele>916</ele>
        <time>2015-04-19T08:47:52Z</time>
      </trkpt>
      <trkpt lat="45.39684" lon="4.48">
        <ele>916</ele>
        <time>2015-04-19T08:47:54Z</time>
      </trkpt>
      <trkpt lat="45.39683" lon="4.47996">
        <ele>916</ele>
        <time>2015-04-19T08:47:57Z</time>
      </trkpt>
      <trkpt lat="45.39682" lon="4.47994">
        <ele>917</ele>
        <time>2015-04-19T08:47:59Z</time>
      </trkpt>
      <trkpt lat="45.3968" lon="4.47991">
        <ele>917</ele>
        <time>2015-04-19T08:48:02Z</time>
      </trkpt>
      <trkpt lat="45.3968" lon="4.47987">
        <ele>918</ele>
        <time>2015-04-19T08:48:05Z</time>
      </trkpt>
      <trkpt lat="45.39679" lon="4.47985">
        <ele>919</ele>
        <time>2015-04-19T08:48:07Z</time>
      </trkpt>
      <trkpt lat="45.39679" lon="4.47983">
        <ele>919</ele>
        <time>2015-04-19T08:48:09Z</time>
      </trkpt>
      <trkpt lat="45.39679" lon="4.4798">
        <ele>920</ele>
        <time>2015-04-19T08:48:12Z</time>
      </trkpt>
      <trkpt lat="45.39679" lon="4.47977">
        <ele>920</ele>
        <time>2015-04-19T08:48:14Z</time>
      </trkpt>
      <trkpt lat="45.39678" lon="4.47973">
        <ele>921</ele>
        <time>2015-04-19T08:48:17Z</time>
      </trkpt>
      <trkpt lat="45.39677" lon="4.4797">
        <ele>922</ele>
        <time>2015-04-19T08:48:20Z</time>
      </trkpt>
      <trkpt lat="45.39677" lon="4.47967">
        <ele>922</ele>
        <time>2015-04-19T08:48:22Z</time>
      </trkpt>
      <trkpt lat="45.39677" lon="4.47964">
        <ele>923</ele>
        <time>2015-04-19T08:48:24Z</time>
      </trkpt>
      <trkpt lat="45.39677" lon="4.47961">
        <ele>923</ele>
        <time>2015-04-19T08:48:27Z</time>
      </trkpt>
      <trkpt lat="45.39677" lon="4.47957">
        <ele>924</ele>
        <time>2015-04-19T08:48:30Z</time>
      </trkpt>
      <trkpt lat="45.39677" lon="4.47952">
        <ele>925</ele>
        <time>2015-04-19T08:48:33Z</time>
      </trkpt>
      <trkpt lat="45.39677" lon="4.47949">
        <ele>925</ele>
        <time>2015-04-19T08:48:35Z</time>
      </trkpt>
      <trkpt lat="45.39677" lon="4.47946">
        <ele>926</ele>
        <time>2015-04-19T08:48:38Z</time>
      </trkpt>
      <trkpt lat="45.39677" lon="4.47943">
        <ele>926</ele>
        <time>2015-04-19T08:48:40Z</time>
      </trkpt>
      <trkpt lat="45.39677" lon="4.47939">
        <ele>926</ele>
        <time>2015-04-19T08:48:43Z</time>
      </trkpt>
      <trkpt lat="45.39677" lon="4.47937">
        <ele>927</ele>
        <time>2015-04-19T08:48:45Z</time>
      </trkpt>
      <trkpt lat="45.39677" lon="4.47934">
        <ele>928</ele>
        <time>2015-04-19T08:48:47Z</time>
      </trkpt>
      <trkpt lat="45.39677" lon="4.47931">
        <ele>928</ele>
        <time>2015-04-19T08:48:49Z</time>
      </trkpt>
      <trkpt lat="45.39677" lon="4.47928">
        <ele>929</ele>
        <time>2015-04-19T08:48:51Z</time>
      </trkpt>
      <trkpt lat="45.39677" lon="4.47924">
        <ele>929</ele>
        <time>2015-04-19T08:48:54Z</time>
      </trkpt>
      <trkpt lat="45.39677" lon="4.4792">
        <ele>929</ele>
        <time>2015-04-19T08:48:57Z</time>
      </trkpt>
      <trkpt lat="45.39677" lon="4.47917">
        <ele>930</ele>
        <time>2015-04-19T08:48:59Z</time>
      </trkpt>
      <trkpt lat="45.39677" lon="4.47913">
        <ele>931</ele>
        <time>2015-04-19T08:49:02Z</time>
      </trkpt>
      <trkpt lat="45.39677" lon="4.4791">
        <ele>931</ele>
        <time>2015-04-19T08:49:04Z</time>
      </trkpt>
      <trkpt lat="45.39678" lon="4.47908">
        <ele>932</ele>
        <time>2015-04-19T08:49:06Z</time>
      </trkpt>
      <trkpt lat="45.39678" lon="4.47905">
        <ele>932</ele>
        <time>2015-04-19T08:49:08Z</time>
      </trkpt>
      <trkpt lat="45.39677" lon="4.47901">
        <ele>932</ele>
        <time>2015-04-19T08:49:11Z</time>
      </trkpt>
      <trkpt lat="45.39678" lon="4.47897">
        <ele>933</ele>
        <time>2015-04-19T08:49:13Z</time>
      </trkpt>
      <trkpt lat="45.39678" lon="4.47895">
        <ele>933</ele>
        <time>2015-04-19T08:49:15Z</time>
      </trkpt>
      <trkpt lat="45.39678" lon="4.4789">
        <ele>934</ele>
        <time>2015-04-19T08:49:18Z</time>
      </trkpt>
      <trkpt lat="45.39679" lon="4.47886">
        <ele>935</ele>
        <time>2015-04-19T08:49:21Z</time>
      </trkpt>
      <trkpt lat="45.39679" lon="4.47882">
        <ele>935</ele>
        <time>2015-04-19T08:49:23Z</time>
      </trkpt>
      <trkpt lat="45.3968" lon="4.47878">
        <ele>936</ele>
        <time>2015-04-19T08:49:26Z</time>
      </trkpt>
      <trkpt lat="45.39682" lon="4.47874">
        <ele>936</ele>
        <time>2015-04-19T08:49:29Z</time>
      </trkpt>
      <trkpt lat="45.39683" lon="4.47869">
        <ele>937</ele>
        <time>2015-04-19T08:49:32Z</time>
      </trkpt>
      <trkpt lat="45.39684" lon="4.47868">
        <ele>938</ele>
        <time>2015-04-19T08:49:34Z</time>
      </trkpt>
      <trkpt lat="45.39684" lon="4.47865">
        <ele>938</ele>
        <time>2015-04-19T08:49:36Z</time>
      </trkpt>
      <trkpt lat="45.39685" lon="4.47861">
        <ele>938</ele>
        <time>2015-04-19T08:49:39Z</time>
      </trkpt>
      <trkpt lat="45.39686" lon="4.47859">
        <ele>939</ele>
        <time>2015-04-19T08:49:41Z</time>
      </trkpt>
      <trkpt lat="45.39687" lon="4.47856">
        <ele>939</ele>
        <time>2015-04-19T08:49:44Z</time>
      </trkpt>
      <trkpt lat="45.39687" lon="4.47854">
        <ele>940</ele>
        <time>2015-04-19T08:49:46Z</time>
      </trkpt>
      <trkpt lat="45.39688" lon="4.47851">
        <ele>941</ele>
        <time>2015-04-19T08:49:49Z</time>
      </trkpt>
      <trkpt lat="45.39689" lon="4.47849">
        <ele>941</ele>
        <time>2015-04-19T08:49:51Z</time>
      </trkpt>
      <trkpt lat="45.3969" lon="4.47845">
        <ele>942</ele>
        <time>2015-04-19T08:49:54Z</time>
      </trkpt>
      <trkpt lat="45.3969" lon="4.47843">
        <ele>942</ele>
        <time>2015-04-19T08:49:56Z</time>
      </trkpt>
      <trkpt lat="45.39691" lon="4.47841">
        <ele>942</ele>
        <time>2015-04-19T08:49:58Z</time>
      </trkpt>
      <trkpt lat="45.39693" lon="4.47838">
        <ele>943</ele>
        <time>2015-04-19T08:50:01Z</time>
      </trkpt>
      <trkpt lat="45.39693" lon="4.47836">
        <ele>943</ele>
        <time>2015-04-19T08:50:03Z</time>
      </trkpt>
      <trkpt lat="45.39695" lon="4.47835">
        <ele>944</ele>
        <time>2015-04-19T08:50:05Z</time>
      </trkpt>
      <trkpt lat="45.39697" lon="4.47833">
        <ele>944</ele>
        <time>2015-04-19T08:50:07Z</time>
      </trkpt>
      <trkpt lat="45.39697" lon="4.4783">
        <ele>945</ele>
        <time>2015-04-19T08:50:10Z</time>
      </trkpt>
      <trkpt lat="45.39698" lon="4.47829">
        <ele>945</ele>
        <time>2015-04-19T08:50:12Z</time>
      </trkpt>
      <trkpt lat="45.39699" lon="4.47827">
        <ele>946</ele>
        <time>2015-04-19T08:50:14Z</time>
      </trkpt>
      <trkpt lat="45.397" lon="4.47825">
        <ele>946</ele>
        <time>2015-04-19T08:50:16Z</time>
      </trkpt>
      <trkpt lat="45.397" lon="4.47823">
        <ele>946</ele>
        <time>2015-04-19T08:50:18Z</time>
      </trkpt>
      <trkpt lat="45.39701" lon="4.4782">
        <ele>947</ele>
        <time>2015-04-19T08:50:20Z</time>
      </trkpt>
      <trkpt lat="45.39704" lon="4.47818">
        <ele>948</ele>
        <time>2015-04-19T08:50:23Z</time>
      </trkpt>
      <trkpt lat="45.39706" lon="4.47816">
        <ele>948</ele>
        <time>2015-04-19T08:50:26Z</time>
      </trkpt>
      <trkpt lat="45.39707" lon="4.47815">
        <ele>949</ele>
        <time>2015-04-19T08:50:28Z</time>
      </trkpt>
      <trkpt lat="45.39708" lon="4.47813">
        <ele>949</ele>
        <time>2015-04-19T08:50:30Z</time>
      </trkpt>
      <trkpt lat="45.39709" lon="4.47809">
        <ele>950</ele>
        <time>2015-04-19T08:50:33Z</time>
      </trkpt>
      <trkpt lat="45.3971" lon="4.47806">
        <ele>950</ele>
        <time>2015-04-19T08:50:36Z</time>
      </trkpt>
      <trkpt lat="45.39711" lon="4.47804">
        <ele>951</ele>
        <time>2015-04-19T08:50:38Z</time>
      </trkpt>
      <trkpt lat="45.39712" lon="4.478">
        <ele>951</ele>
        <time>2015-04-19T08:50:41Z</time>
      </trkpt>
      <trkpt lat="45.39713" lon="4.47796">
        <ele>952</ele>
        <time>2015-04-19T08:50:44Z</time>
      </trkpt>
      <trkpt lat="45.39714" lon="4.47794">
        <ele>952</ele>
        <time>2015-04-19T08:50:46Z</time>
      </trkpt>
      <trkpt lat="45.39715" lon="4.47792">
        <ele>952</ele>
        <time>2015-04-19T08:50:48Z</time>
      </trkpt>
      <trkpt lat="45.39716" lon="4.47789">
        <ele>953</ele>
        <time>2015-04-19T08:50:50Z</time>
      </trkpt>
      <trkpt lat="45.39719" lon="4.47787">
        <ele>953</ele>
        <time>2015-04-19T08:50:53Z</time>
      </trkpt>
      <trkpt lat="45.39721" lon="4.47783">
        <ele>954</ele>
        <time>2015-04-19T08:50:56Z</time>
      </trkpt>
      <trkpt lat="45.39722" lon="4.47782">
        <ele>954</ele>
        <time>2015-04-19T08:50:58Z</time>
      </trkpt>
      <trkpt lat="45.39725" lon="4.47779">
        <ele>955</ele>
        <time>2015-04-19T08:51:01Z</time>
      </trkpt>
      <trkpt lat="45.39727" lon="4.47777">
        <ele>956</ele>
        <time>2015-04-19T08:51:04Z</time>
      </trkpt>
      <trkpt lat="45.39729" lon="4.47776">
        <ele>956</ele>
        <time>2015-04-19T08:51:06Z</time>
      </trkpt>
      <trkpt lat="45.39732" lon="4.47775">
        <ele>957</ele>
        <time>2015-04-19T08:51:09Z</time>
      </trkpt>
      <trkpt lat="45.39735" lon="4.47774">
        <ele>957</ele>
        <time>2015-04-19T08:51:12Z</time>
      </trkpt>
      <trkpt lat="45.39737" lon="4.47774">
        <ele>957</ele>
        <time>2015-04-19T08:51:14Z</time>
      </trkpt>
      <trkpt lat="45.3974" lon="4.47773">
        <ele>958</ele>
        <time>2015-04-19T08:51:17Z</time>
      </trkpt>
      <trkpt lat="45.39742" lon="4.47772">
        <ele>958</ele>
        <time>2015-04-19T08:51:19Z</time>
      </trkpt>
      <trkpt lat="45.39743" lon="4.47771">
        <ele>958</ele>
        <time>2015-04-19T08:51:21Z</time>
      </trkpt>
      <trkpt lat="45.39745" lon="4.4777">
        <ele>959</ele>
        <time>2015-04-19T08:51:23Z</time>
      </trkpt>
      <trkpt lat="45.39747" lon="4.4777">
        <ele>959</ele>
        <time>2015-04-19T08:51:26Z</time>
      </trkpt>
      <trkpt lat="45.3975" lon="4.47769">
        <ele>960</ele>
        <time>2015-04-19T08:51:29Z</time>
      </trkpt>
      <trkpt lat="45.39751" lon="4.47769">
        <ele>960</ele>
        <time>2015-04-19T08:51:31Z</time>
      </trkpt>
      <trkpt lat="45.39754" lon="4.47767">
        <ele>960</ele>
        <time>2015-04-19T08:51:34Z</time>
      </trkpt>
      <trkpt lat="45.39758" lon="4.47767">
        <ele>961</ele>
        <time>2015-04-19T08:51:37Z</time>
      </trkpt>
      <trkpt lat="45.3976" lon="4.47767">
        <ele>961</ele>
        <time>2015-04-19T08:51:39Z</time>
      </trkpt>
      <trkpt lat="45.39764" lon="4.47767">
        <ele>961</ele>
        <time>2015-04-19T08:51:42Z</time>
      </trkpt>
      <trkpt lat="45.39767" lon="4.47768">
        <ele>962</ele>
        <time>2015-04-19T08:51:45Z</time>
      </trkpt>
      <trkpt lat="45.3977" lon="4.47768">
        <ele>963</ele>
        <time>2015-04-19T08:51:47Z</time>
      </trkpt>
      <trkpt lat="45.39774" lon="4.47768">
        <ele>963</ele>
        <time>2015-04-19T08:51:50Z</time>
      </trkpt>
      <trkpt lat="45.39775" lon="4.47768">
        <ele>964</ele>
        <time>2015-04-19T08:51:52Z</time>
      </trkpt>
      <trkpt lat="45.39778" lon="4.47768">
        <ele>964</ele>
        <time>2015-04-19T08:51:55Z</time>
      </trkpt>
      <trkpt lat="45.3978" lon="4.47769">
        <ele>964</ele>
        <time>2015-04-19T08:51:57Z</time>
      </trkpt>
      <trkpt lat="45.39783" lon="4.47769">
        <ele>965</ele>
        <time>2015-04-19T08:52:00Z</time>
      </trkpt>
      <trkpt lat="45.39787" lon="4.4777">
        <ele>965</ele>
        <time>2015-04-19T08:52:03Z</time>
      </trkpt>
      <trkpt lat="45.3979" lon="4.4777">
        <ele>966</ele>
        <time>2015-04-19T08:52:05Z</time>
      </trkpt>
      <trkpt lat="45.39793" lon="4.47772">
        <ele>966</ele>
        <time>2015-04-19T08:52:08Z</time>
      </trkpt>
      <trkpt lat="45.39795" lon="4.47773">
        <ele>967</ele>
        <time>2015-04-19T08:52:10Z</time>
      </trkpt>
      <trkpt lat="45.39799" lon="4.47774">
        <ele>967</ele>
        <time>2015-04-19T08:52:13Z</time>
      </trkpt>
      <trkpt lat="45.39803" lon="4.47776">
        <ele>968</ele>
        <time>2015-04-19T08:52:16Z</time>
      </trkpt>
      <trkpt lat="45.39805" lon="4.47777">
        <ele>968</ele>
        <time>2015-04-19T08:52:18Z</time>
      </trkpt>
      <trkpt lat="45.39808" lon="4.47778">
        <ele>969</ele>
        <time>2015-04-19T08:52:21Z</time>
      </trkpt>
      <trkpt lat="45.3981" lon="4.47778">
        <ele>969</ele>
        <time>2015-04-19T08:52:23Z</time>
      </trkpt>
      <trkpt lat="45.39812" lon="4.47779">
        <ele>970</ele>
        <time>2015-04-19T08:52:25Z</time>
      </trkpt>
      <trkpt lat="45.39816" lon="4.47782">
        <ele>970</ele>
        <time>2015-04-19T08:52:28Z</time>
      </trkpt>
      <trkpt lat="45.39817" lon="4.47783">
        <ele>971</ele>
        <time>2015-04-19T08:52:30Z</time>
      </trkpt>
      <trkpt lat="45.39822" lon="4.47786">
        <ele>971</ele>
        <time>2015-04-19T08:52:33Z</time>
      </trkpt>
      <trkpt lat="45.39825" lon="4.47785">
        <ele>972</ele>
        <time>2015-04-19T08:52:36Z</time>
      </trkpt>
      <trkpt lat="45.39827" lon="4.47787">
        <ele>972</ele>
        <time>2015-04-19T08:52:38Z</time>
      </trkpt>
      <trkpt lat="45.3983" lon="4.47788">
        <ele>973</ele>
        <time>2015-04-19T08:52:41Z</time>
      </trkpt>
      <trkpt lat="45.39833" lon="4.4779">
        <ele>973</ele>
        <time>2015-04-19T08:52:44Z</time>
      </trkpt>
      <trkpt lat="45.39835" lon="4.4779">
        <ele>973</ele>
        <time>2015-04-19T08:52:46Z</time>
      </trkpt>
      <trkpt lat="45.3984" lon="4.47793">
        <ele>974</ele>
        <time>2015-04-19T08:52:49Z</time>
      </trkpt>
      <trkpt lat="45.39842" lon="4.47794">
        <ele>974</ele>
        <time>2015-04-19T08:52:52Z</time>
      </trkpt>
      <trkpt lat="45.39844" lon="4.47796">
        <ele>974</ele>
        <time>2015-04-19T08:52:54Z</time>
      </trkpt>
      <trkpt lat="45.39846" lon="4.47798">
        <ele>975</ele>
        <time>2015-04-19T08:52:56Z</time>
      </trkpt>
      <trkpt lat="45.39849" lon="4.47799">
        <ele>974</ele>
        <time>2015-04-19T08:52:59Z</time>
      </trkpt>
      <trkpt lat="45.39851" lon="4.478">
        <ele>975</ele>
        <time>2015-04-19T08:53:02Z</time>
      </trkpt>
      <trkpt lat="45.39853" lon="4.47802">
        <ele>976</ele>
        <time>2015-04-19T08:53:05Z</time>
      </trkpt>
      <trkpt lat="45.39854" lon="4.47803">
        <ele>978</ele>
        <time>2015-04-19T08:53:07Z</time>
      </trkpt>
      <trkpt lat="45.39857" lon="4.47803">
        <ele>977</ele>
        <time>2015-04-19T08:53:10Z</time>
      </trkpt>
      <trkpt lat="45.3986" lon="4.47804">
        <ele>978</ele>
        <time>2015-04-19T08:53:13Z</time>
      </trkpt>
      <trkpt lat="45.39862" lon="4.47804">
        <ele>978</ele>
        <time>2015-04-19T08:53:15Z</time>
      </trkpt>
      <trkpt lat="45.39864" lon="4.47806">
        <ele>979</ele>
        <time>2015-04-19T08:53:18Z</time>
      </trkpt>
      <trkpt lat="45.39867" lon="4.47807">
        <ele>979</ele>
        <time>2015-04-19T08:53:21Z</time>
      </trkpt>
      <trkpt lat="45.3987" lon="4.47808">
        <ele>980</ele>
        <time>2015-04-19T08:53:23Z</time>
      </trkpt>
      <trkpt lat="45.39872" lon="4.47808">
        <ele>980</ele>
        <time>2015-04-19T08:53:25Z</time>
      </trkpt>
      <trkpt lat="45.39874" lon="4.4781">
        <ele>980</ele>
        <time>2015-04-19T08:53:27Z</time>
      </trkpt>
      <trkpt lat="45.39877" lon="4.47811">
        <ele>981</ele>
        <time>2015-04-19T08:53:30Z</time>
      </trkpt>
      <trkpt lat="45.39879" lon="4.47813">
        <ele>981</ele>
        <time>2015-04-19T08:53:33Z</time>
      </trkpt>
      <trkpt lat="45.39881" lon="4.47813">
        <ele>982</ele>
        <time>2015-04-19T08:53:35Z</time>
      </trkpt>
      <trkpt lat="45.39885" lon="4.47815">
        <ele>983</ele>
        <time>2015-04-19T08:53:38Z</time>
      </trkpt>
      <trkpt lat="45.39887" lon="4.47815">
        <ele>984</ele>
        <time>2015-04-19T08:53:41Z</time>
      </trkpt>
      <trkpt lat="45.39889" lon="4.47815">
        <ele>984</ele>
        <time>2015-04-19T08:53:43Z</time>
      </trkpt>
      <trkpt lat="45.39892" lon="4.47816">
        <ele>985</ele>
        <time>2015-04-19T08:53:46Z</time>
      </trkpt>
      <trkpt lat="45.39894" lon="4.47815">
        <ele>985</ele>
        <time>2015-04-19T08:53:49Z</time>
      </trkpt>
      <trkpt lat="45.39896" lon="4.47815">
        <ele>985</ele>
        <time>2015-04-19T08:53:51Z</time>
      </trkpt>
      <trkpt lat="45.39898" lon="4.47815">
        <ele>986</ele>
        <time>2015-04-19T08:53:54Z</time>
      </trkpt>
      <trkpt lat="45.399" lon="4.47816">
        <ele>986</ele>
        <time>2015-04-19T08:53:56Z</time>
      </trkpt>
      <trkpt lat="45.39901" lon="4.47817">
        <ele>987</ele>
        <time>2015-04-19T08:53:58Z</time>
      </trkpt>
      <trkpt lat="45.39903" lon="4.47817">
        <ele>987</ele>
        <time>2015-04-19T08:54:00Z</time>
      </trkpt>
      <trkpt lat="45.39906" lon="4.47818">
        <ele>987</ele>
        <time>2015-04-19T08:54:03Z</time>
      </trkpt>
      <trkpt lat="45.39909" lon="4.47818">
        <ele>988</ele>
        <time>2015-04-19T08:54:06Z</time>
      </trkpt>
      <trkpt lat="45.39911" lon="4.47819">
        <ele>989</ele>
        <time>2015-04-19T08:54:08Z</time>
      </trkpt>
      <trkpt lat="45.39914" lon="4.4782">
        <ele>989</ele>
        <time>2015-04-19T08:54:11Z</time>
      </trkpt>
      <trkpt lat="45.39917" lon="4.47822">
        <ele>990</ele>
        <time>2015-04-19T08:54:14Z</time>
      </trkpt>
      <trkpt lat="45.39919" lon="4.47823">
        <ele>990</ele>
        <time>2015-04-19T08:54:16Z</time>
      </trkpt>
      <trkpt lat="45.39922" lon="4.47825">
        <ele>991</ele>
        <time>2015-04-19T08:54:19Z</time>
      </trkpt>
      <trkpt lat="45.39924" lon="4.47828">
        <ele>991</ele>
        <time>2015-04-19T08:54:22Z</time>
      </trkpt>
      <trkpt lat="45.39925" lon="4.47829">
        <ele>992</ele>
        <time>2015-04-19T08:54:24Z</time>
      </trkpt>
      <trkpt lat="45.39928" lon="4.47832">
        <ele>992</ele>
        <time>2015-04-19T08:54:27Z</time>
      </trkpt>
      <trkpt lat="45.3993" lon="4.47833">
        <ele>993</ele>
        <time>2015-04-19T08:54:29Z</time>
      </trkpt>
      <trkpt lat="45.39932" lon="4.47832">
        <ele>993</ele>
        <time>2015-04-19T08:54:31Z</time>
      </trkpt>
      <trkpt lat="45.39934" lon="4.47834">
        <ele>993</ele>
        <time>2015-04-19T08:54:33Z</time>
      </trkpt>
      <trkpt lat="45.39937" lon="4.47835">
        <ele>994</ele>
        <time>2015-04-19T08:54:36Z</time>
      </trkpt>
      <trkpt lat="45.3994" lon="4.47836">
        <ele>994</ele>
        <time>2015-04-19T08:54:39Z</time>
      </trkpt>
      <trkpt lat="45.39941" lon="4.47836">
        <ele>994</ele>
        <time>2015-04-19T08:54:41Z</time>
      </trkpt>
      <trkpt lat="45.39944" lon="4.47836">
        <ele>995</ele>
        <time>2015-04-19T08:54:44Z</time>
      </trkpt>
      <trkpt lat="45.39948" lon="4.47837">
        <ele>995</ele>
        <time>2015-04-19T08:54:47Z</time>
      </trkpt>
      <trkpt lat="45.39949" lon="4.47838">
        <ele>995</ele>
        <time>2015-04-19T08:54:49Z</time>
      </trkpt>
      <trkpt lat="45.39953" lon="4.4784">
        <ele>996</ele>
        <time>2015-04-19T08:54:52Z</time>
      </trkpt>
      <trkpt lat="45.39956" lon="4.4784">
        <ele>996</ele>
        <time>2015-04-19T08:54:55Z</time>
      </trkpt>
      <trkpt lat="45.39958" lon="4.4784">
        <ele>997</ele>
        <time>2015-04-19T08:54:57Z</time>
      </trkpt>
      <trkpt lat="45.3996" lon="4.47838">
        <ele>998</ele>
        <time>2015-04-19T08:55:00Z</time>
      </trkpt>
      <trkpt lat="45.39962" lon="4.47838">
        <ele>998</ele>
        <time>2015-04-19T08:55:02Z</time>
      </trkpt>
      <trkpt lat="45.39963" lon="4.47838">
        <ele>998</ele>
        <time>2015-04-19T08:55:04Z</time>
      </trkpt>
      <trkpt lat="45.39967" lon="4.47838">
        <ele>999</ele>
        <time>2015-04-19T08:55:07Z</time>
      </trkpt>
      <trkpt lat="45.39968" lon="4.47838">
        <ele>999</ele>
        <time>2015-04-19T08:55:09Z</time>
      </trkpt>
      <trkpt lat="45.39973" lon="4.47838">
        <ele>1000</ele>
        <time>2015-04-19T08:55:12Z</time>
      </trkpt>
      <trkpt lat="45.39976" lon="4.47838">
        <ele>1001</ele>
        <time>2015-04-19T08:55:15Z</time>
      </trkpt>
      <trkpt lat="45.39978" lon="4.47838">
        <ele>1001</ele>
        <time>2015-04-19T08:55:17Z</time>
      </trkpt>
      <trkpt lat="45.3998" lon="4.47838">
        <ele>1002</ele>
        <time>2015-04-19T08:55:20Z</time>
      </trkpt>
      <trkpt lat="45.39983" lon="4.47838">
        <ele>1002</ele>
        <time>2015-04-19T08:55:23Z</time>
      </trkpt>
      <trkpt lat="45.39985" lon="4.47838">
        <ele>1002</ele>
        <time>2015-04-19T08:55:25Z</time>
      </trkpt>
      <trkpt lat="45.39989" lon="4.47837">
        <ele>1003</ele>
        <time>2015-04-19T08:55:28Z</time>
      </trkpt>
      <trkpt lat="45.39991" lon="4.47836">
        <ele>1004</ele>
        <time>2015-04-19T08:55:31Z</time>
      </trkpt>
      <trkpt lat="45.39993" lon="4.47836">
        <ele>1004</ele>
        <time>2015-04-19T08:55:33Z</time>
      </trkpt>
      <trkpt lat="45.39994" lon="4.47835">
        <ele>1004</ele>
        <time>2015-04-19T08:55:35Z</time>
      </trkpt>
      <trkpt lat="45.39996" lon="4.47833">
        <ele>1004</ele>
        <time>2015-04-19T08:55:38Z</time>
      </trkpt>
      <trkpt lat="45.39999" lon="4.47832">
        <ele>1005</ele>
        <time>2015-04-19T08:55:41Z</time>
      </trkpt>
      <trkpt lat="45.40002" lon="4.47832">
        <ele>1005</ele>
        <time>2015-04-19T08:55:43Z</time>
      </trkpt>
      <trkpt lat="45.40005" lon="4.47832">
        <ele>1006</ele>
        <time>2015-04-19T08:55:46Z</time>
      </trkpt>
      <trkpt lat="45.40007" lon="4.47834">
        <ele>1006</ele>
        <time>2015-04-19T08:55:49Z</time>
      </trkpt>
      <trkpt lat="45.40009" lon="4.47835">
        <ele>1007</ele>
        <time>2015-04-19T08:55:51Z</time>
      </trkpt>
      <trkpt lat="45.40012" lon="4.47836">
        <ele>1007</ele>
        <time>2015-04-19T08:55:54Z</time>
      </trkpt>
      <trkpt lat="45.40014" lon="4.47837">
        <ele>1008</ele>
        <time>2015-04-19T08:55:57Z</time>
      </trkpt>
      <trkpt lat="45.40017" lon="4.47837">
        <ele>1009</ele>
        <time>2015-04-19T08:55:59Z</time>
      </trkpt>
      <trkpt lat="45.40019" lon="4.47835">
        <ele>1009</ele>
        <time>2015-04-19T08:56:02Z</time>
      </trkpt>
      <trkpt lat="45.40021" lon="4.47835">
        <ele>1010</ele>
        <time>2015-04-19T08:56:04Z</time>
      </trkpt>
      <trkpt lat="45.40023" lon="4.47833">
        <ele>1010</ele>
        <time>2015-04-19T08:56:06Z</time>
      </trkpt>
      <trkpt lat="45.40026" lon="4.47831">
        <ele>1010</ele>
        <time>2015-04-19T08:56:09Z</time>
      </trkpt>
      <trkpt lat="45.40029" lon="4.4783">
        <ele>1011</ele>
        <time>2015-04-19T08:56:12Z</time>
      </trkpt>
      <trkpt lat="45.40031" lon="4.47828">
        <ele>1011</ele>
        <time>2015-04-19T08:56:14Z</time>
      </trkpt>
      <trkpt lat="45.40035" lon="4.47828">
        <ele>1011</ele>
        <time>2015-04-19T08:56:17Z</time>
      </trkpt>
      <trkpt lat="45.40038" lon="4.47827">
        <ele>1012</ele>
        <time>2015-04-19T08:56:20Z</time>
      </trkpt>
      <trkpt lat="45.40041" lon="4.47827">
        <ele>1012</ele>
        <time>2015-04-19T08:56:22Z</time>
      </trkpt>
      <trkpt lat="45.40044" lon="4.47826">
        <ele>1013</ele>
        <time>2015-04-19T08:56:25Z</time>
      </trkpt>
      <trkpt lat="45.40047" lon="4.47825">
        <ele>1013</ele>
        <time>2015-04-19T08:56:28Z</time>
      </trkpt>
      <trkpt lat="45.4005" lon="4.47825">
        <ele>1013</ele>
        <time>2015-04-19T08:56:31Z</time>
      </trkpt>
      <trkpt lat="45.40052" lon="4.47825">
        <ele>1014</ele>
        <time>2015-04-19T08:56:33Z</time>
      </trkpt>
      <trkpt lat="45.40053" lon="4.47826">
        <ele>1014</ele>
        <time>2015-04-19T08:56:35Z</time>
      </trkpt>
      <trkpt lat="45.40057" lon="4.47827">
        <ele>1014</ele>
        <time>2015-04-19T08:56:38Z</time>
      </trkpt>
      <trkpt lat="45.40059" lon="4.47827">
        <ele>1015</ele>
        <time>2015-04-19T08:56:40Z</time>
      </trkpt>
      <trkpt lat="45.40062" lon="4.47827">
        <ele>1016</ele>
        <time>2015-04-19T08:56:43Z</time>
      </trkpt>
      <trkpt lat="45.40065" lon="4.47826">
        <ele>1016</ele>
        <time>2015-04-19T08:56:46Z</time>
      </trkpt>
      <trkpt lat="45.40067" lon="4.47825">
        <ele>1017</ele>
        <time>2015-04-19T08:56:48Z</time>
      </trkpt>
      <trkpt lat="45.40069" lon="4.47825">
        <ele>1017</ele>
        <time>2015-04-19T08:56:51Z</time>
      </trkpt>
      <trkpt lat="45.40071" lon="4.47824">
        <ele>1018</ele>
        <time>2015-04-19T08:56:53Z</time>
      </trkpt>
      <trkpt lat="45.40075" lon="4.47823">
        <ele>1018</ele>
        <time>2015-04-19T08:56:56Z</time>
      </trkpt>
      <trkpt lat="45.40079" lon="4.47822">
        <ele>1019</ele>
        <time>2015-04-19T08:57:00Z</time>
      </trkpt>
      <trkpt lat="45.40082" lon="4.4782">
        <ele>1019</ele>
        <time>2015-04-19T08:57:03Z</time>
      </trkpt>
      <trkpt lat="45.40084" lon="4.47819">
        <ele>1019</ele>
        <time>2015-04-19T08:57:05Z</time>
      </trkpt>
      <trkpt lat="45.40088" lon="4.47817">
        <ele>1020</ele>
        <time>2015-04-19T08:57:08Z</time>
      </trkpt>
      <trkpt lat="45.4009" lon="4.47816">
        <ele>1021</ele>
        <time>2015-04-19T08:57:11Z</time>
      </trkpt>
      <trkpt lat="45.40092" lon="4.47815">
        <ele>1021</ele>
        <time>2015-04-19T08:57:13Z</time>
      </trkpt>
      <trkpt lat="45.40094" lon="4.47813">
        <ele>1021</ele>
        <time>2015-04-19T08:57:16Z</time>
      </trkpt>
      <trkpt lat="45.40097" lon="4.47811">
        <ele>1022</ele>
        <time>2015-04-19T08:57:19Z</time>
      </trkpt>
      <trkpt lat="45.401" lon="4.47809">
        <ele>1022</ele>
        <time>2015-04-19T08:57:21Z</time>
      </trkpt>
      <trkpt lat="45.40103" lon="4.47807">
        <ele>1023</ele>
        <time>2015-04-19T08:57:24Z</time>
      </trkpt>
      <trkpt lat="45.40106" lon="4.47804">
        <ele>1023</ele>
        <time>2015-04-19T08:57:27Z</time>
      </trkpt>
      <trkpt lat="45.40107" lon="4.47803">
        <ele>1023</ele>
        <time>2015-04-19T08:57:29Z</time>
      </trkpt>
      <trkpt lat="45.40109" lon="4.47801">
        <ele>1024</ele>
        <time>2015-04-19T08:57:31Z</time>
      </trkpt>
      <trkpt lat="45.40111" lon="4.47799">
        <ele>1024</ele>
        <time>2015-04-19T08:57:34Z</time>
      </trkpt>
      <trkpt lat="45.40112" lon="4.47798">
        <ele>1024</ele>
        <time>2015-04-19T08:57:36Z</time>
      </trkpt>
      <trkpt lat="45.40113" lon="4.47796">
        <ele>1025</ele>
        <time>2015-04-19T08:57:39Z</time>
      </trkpt>
      <trkpt lat="45.40115" lon="4.47794">
        <ele>1025</ele>
        <time>2015-04-19T08:57:42Z</time>
      </trkpt>
      <trkpt lat="45.40117" lon="4.47792">
        <ele>1026</ele>
        <time>2015-04-19T08:57:44Z</time>
      </trkpt>
      <trkpt lat="45.4012" lon="4.47789">
        <ele>1026</ele>
        <time>2015-04-19T08:57:47Z</time>
      </trkpt>
      <trkpt lat="45.40122" lon="4.47787">
        <ele>1027</ele>
        <time>2015-04-19T08:57:49Z</time>
      </trkpt>
      <trkpt lat="45.40123" lon="4.47785">
        <ele>1027</ele>
        <time>2015-04-19T08:57:51Z</time>
      </trkpt>
      <trkpt lat="45.40126" lon="4.47782">
        <ele>1027</ele>
        <time>2015-04-19T08:57:54Z</time>
      </trkpt>
      <trkpt lat="45.40128" lon="4.4778">
        <ele>1028</ele>
        <time>2015-04-19T08:57:57Z</time>
      </trkpt>
      <trkpt lat="45.40132" lon="4.47778">
        <ele>1028</ele>
        <time>2015-04-19T08:58:00Z</time>
      </trkpt>
      <trkpt lat="45.40134" lon="4.47775">
        <ele>1028</ele>
        <time>2015-04-19T08:58:02Z</time>
      </trkpt>
      <trkpt lat="45.40136" lon="4.47772">
        <ele>1029</ele>
        <time>2015-04-19T08:58:05Z</time>
      </trkpt>
      <trkpt lat="45.40139" lon="4.47769">
        <ele>1029</ele>
        <time>2015-04-19T08:58:08Z</time>
      </trkpt>
      <trkpt lat="45.40142" lon="4.47766">
        <ele>1029</ele>
        <time>2015-04-19T08:58:11Z</time>
      </trkpt>
      <trkpt lat="45.40143" lon="4.47763">
        <ele>1030</ele>
        <time>2015-04-19T08:58:13Z</time>
      </trkpt>
      <trkpt lat="45.40144" lon="4.47759">
        <ele>1030</ele>
        <time>2015-04-19T08:58:16Z</time>
      </trkpt>
      <trkpt lat="45.40144" lon="4.47754">
        <ele>1031</ele>
        <time>2015-04-19T08:58:19Z</time>
      </trkpt>
      <trkpt lat="45.40145" lon="4.4775">
        <ele>1031</ele>
        <time>2015-04-19T08:58:22Z</time>
      </trkpt>
      <trkpt lat="45.40146" lon="4.47745">
        <ele>1032</ele>
        <time>2015-04-19T08:58:25Z</time>
      </trkpt>
      <trkpt lat="45.40146" lon="4.47742">
        <ele>1032</ele>
        <time>2015-04-19T08:58:28Z</time>
      </trkpt>
      <trkpt lat="45.40144" lon="4.4774">
        <ele>1032</ele>
        <time>2015-04-19T08:58:30Z</time>
      </trkpt>
      <trkpt lat="45.40141" lon="4.47736">
        <ele>1031</ele>
        <time>2015-04-19T08:58:33Z</time>
      </trkpt>
      <trkpt lat="45.40136" lon="4.47733">
        <ele>1031</ele>
        <time>2015-04-19T08:58:36Z</time>
      </trkpt>
      <trkpt lat="45.40131" lon="4.4773">
        <ele>1030</ele>
        <time>2015-04-19T08:58:39Z</time>
      </trkpt>
      <trkpt lat="45.40126" lon="4.47728">
        <ele>1030</ele>
        <time>2015-04-19T08:58:42Z</time>
      </trkpt>
      <trkpt lat="45.4012" lon="4.47727">
        <ele>1030</ele>
        <time>2015-04-19T08:58:44Z</time>
      </trkpt>
      <trkpt lat="45.40113" lon="4.47725">
        <ele>1030</ele>
        <time>2015-04-19T08:58:47Z</time>
      </trkpt>
      <trkpt lat="45.40109" lon="4.47724">
        <ele>1030</ele>
        <time>2015-04-19T08:58:49Z</time>
      </trkpt>
      <trkpt lat="45.40105" lon="4.47723">
        <ele>1030</ele>
        <time>2015-04-19T08:58:51Z</time>
      </trkpt>
      <trkpt lat="45.40098" lon="4.47719">
        <ele>1029</ele>
        <time>2015-04-19T08:58:54Z</time>
      </trkpt>
      <trkpt lat="45.40093" lon="4.47715">
        <ele>1029</ele>
        <time>2015-04-19T08:58:57Z</time>
      </trkpt>
      <trkpt lat="45.40089" lon="4.47713">
        <ele>1029</ele>
        <time>2015-04-19T08:58:59Z</time>
      </trkpt>
      <trkpt lat="45.40082" lon="4.4771">
        <ele>1029</ele>
        <time>2015-04-19T08:59:02Z</time>
      </trkpt>
      <trkpt lat="45.40076" lon="4.47707">
        <ele>1028</ele>
        <time>2015-04-19T08:59:05Z</time>
      </trkpt>
      <trkpt lat="45.40072" lon="4.47706">
        <ele>1028</ele>
        <time>2015-04-19T08:59:07Z</time>
      </trkpt>
      <trkpt lat="45.40065" lon="4.47703">
        <ele>1027</ele>
        <time>2015-04-19T08:59:10Z</time>
      </trkpt>
      <trkpt lat="45.40058" lon="4.47699">
        <ele>1027</ele>
        <time>2015-04-19T08:59:13Z</time>
      </trkpt>
      <trkpt lat="45.40055" lon="4.47697">
        <ele>1027</ele>
        <time>2015-04-19T08:59:15Z</time>
      </trkpt>
      <trkpt lat="45.40049" lon="4.47695">
        <ele>1028</ele>
        <time>2015-04-19T08:59:18Z</time>
      </trkpt>
      <trkpt lat="45.40045" lon="4.47694">
        <ele>1028</ele>
        <time>2015-04-19T08:59:20Z</time>
      </trkpt>
      <trkpt lat="45.4004" lon="4.47693">
        <ele>1027</ele>
        <time>2015-04-19T08:59:22Z</time>
      </trkpt>
      <trkpt lat="45.40033" lon="4.47691">
        <ele>1027</ele>
        <time>2015-04-19T08:59:25Z</time>
      </trkpt>
      <trkpt lat="45.40027" lon="4.47688">
        <ele>1027</ele>
        <time>2015-04-19T08:59:28Z</time>
      </trkpt>
      <trkpt lat="45.40023" lon="4.47684">
        <ele>1027</ele>
        <time>2015-04-19T08:59:30Z</time>
      </trkpt>
      <trkpt lat="45.40017" lon="4.4768">
        <ele>1026</ele>
        <time>2015-04-19T08:59:33Z</time>
      </trkpt>
      <trkpt lat="45.40014" lon="4.47676">
        <ele>1026</ele>
        <time>2015-04-19T08:59:36Z</time>
      </trkpt>
      <trkpt lat="45.4001" lon="4.47674">
        <ele>1025</ele>
        <time>2015-04-19T08:59:38Z</time>
      </trkpt>
      <trkpt lat="45.40002" lon="4.47669">
        <ele>1025</ele>
        <time>2015-04-19T08:59:41Z</time>
      </trkpt>
      <trkpt lat="45.39994" lon="4.47664">
        <ele>1025</ele>
        <time>2015-04-19T08:59:44Z</time>
      </trkpt>
      <trkpt lat="45.3999" lon="4.47662">
        <ele>1026</ele>
        <time>2015-04-19T08:59:46Z</time>
      </trkpt>
      <trkpt lat="45.39984" lon="4.4766">
        <ele>1025</ele>
        <time>2015-04-19T08:59:49Z</time>
      </trkpt>
      <trkpt lat="45.39979" lon="4.47656">
        <ele>1025</ele>
        <time>2015-04-19T08:59:51Z</time>
      </trkpt>
      <trkpt lat="45.39973" lon="4.47653">
        <ele>1024</ele>
        <time>2015-04-19T08:59:53Z</time>
      </trkpt>
      <trkpt lat="45.39966" lon="4.47649">
        <ele>1024</ele>
        <time>2015-04-19T08:59:56Z</time>
      </trkpt>
      <trkpt lat="45.39962" lon="4.47647">
        <ele>1024</ele>
        <time>2015-04-19T08:59:58Z</time>
      </trkpt>
      <trkpt lat="45.39954" lon="4.47643">
        <ele>1025</ele>
        <time>2015-04-19T09:00:01Z</time>
      </trkpt>
      <trkpt lat="45.39949" lon="4.4764">
        <ele>1025</ele>
        <time>2015-04-19T09:00:03Z</time>
      </trkpt>
      <trkpt lat="45.39943" lon="4.47637">
        <ele>1025</ele>
        <time>2015-04-19T09:00:06Z</time>
      </trkpt>
      <trkpt lat="45.39937" lon="4.47633">
        <ele>1024</ele>
        <time>2015-04-19T09:00:08Z</time>
      </trkpt>
      <trkpt lat="45.3993" lon="4.47628">
        <ele>1023</ele>
        <time>2015-04-19T09:00:11Z</time>
      </trkpt>
      <trkpt lat="45.39925" lon="4.47624">
        <ele>1023</ele>
        <time>2015-04-19T09:00:14Z</time>
      </trkpt>
      <trkpt lat="45.3992" lon="4.4762">
        <ele>1023</ele>
        <time>2015-04-19T09:00:16Z</time>
      </trkpt>
      <trkpt lat="45.39915" lon="4.47616">
        <ele>1024</ele>
        <time>2015-04-19T09:00:19Z</time>
      </trkpt>
      <trkpt lat="45.39913" lon="4.4761">
        <ele>1024</ele>
        <time>2015-04-19T09:00:21Z</time>
      </trkpt>
      <trkpt lat="45.39909" lon="4.47602">
        <ele>1025</ele>
        <time>2015-04-19T09:00:24Z</time>
      </trkpt>
      <trkpt lat="45.39905" lon="4.47594">
        <ele>1026</ele>
        <time>2015-04-19T09:00:27Z</time>
      </trkpt>
      <trkpt lat="45.39903" lon="4.47588">
        <ele>1026</ele>
        <time>2015-04-19T09:00:29Z</time>
      </trkpt>
      <trkpt lat="45.39899" lon="4.47579">
        <ele>1026</ele>
        <time>2015-04-19T09:00:32Z</time>
      </trkpt>
      <trkpt lat="45.39895" lon="4.47572">
        <ele>1026</ele>
        <time>2015-04-19T09:00:35Z</time>
      </trkpt>
      <trkpt lat="45.39892" lon="4.47567">
        <ele>1027</ele>
        <time>2015-04-19T09:00:37Z</time>
      </trkpt>
      <trkpt lat="45.39888" lon="4.47562">
        <ele>1027</ele>
        <time>2015-04-19T09:00:39Z</time>
      </trkpt>
      <trkpt lat="45.39883" lon="4.47556">
        <ele>1027</ele>
        <time>2015-04-19T09:00:42Z</time>
      </trkpt>
      <trkpt lat="45.39883" lon="4.47549">
        <ele>1028</ele>
        <time>2015-04-19T09:00:45Z</time>
      </trkpt>
      <trkpt lat="45.39886" lon="4.47542">
        <ele>1029</ele>
        <time>2015-04-19T09:00:48Z</time>
      </trkpt>
      <trkpt lat="45.39886" lon="4.47535">
        <ele>1028</ele>
        <time>2015-04-19T09:00:50Z</time>
      </trkpt>
      <trkpt lat="45.39888" lon="4.47527">
        <ele>1029</ele>
        <time>2015-04-19T09:00:53Z</time>
      </trkpt>
      <trkpt lat="45.39889" lon="4.4752">
        <ele>1028</ele>
        <time>2015-04-19T09:00:56Z</time>
      </trkpt>
      <trkpt lat="45.39889" lon="4.47516">
        <ele>1029</ele>
        <time>2015-04-19T09:00:58Z</time>
      </trkpt>
      <trkpt lat="45.39888" lon="4.47512">
        <ele>1028</ele>
        <time>2015-04-19T09:01:01Z</time>
      </trkpt>
      <trkpt lat="45.39888" lon="4.4751">
        <ele>1028</ele>
        <time>2015-04-19T09:01:03Z</time>
      </trkpt>
      <trkpt lat="45.39888" lon="4.47509">
        <ele>1029</ele>
        <time>2015-04-19T09:01:05Z</time>
      </trkpt>
      <trkpt lat="45.39888" lon="4.47507">
        <ele>1029</ele>
        <time>2015-04-19T09:01:08Z</time>
      </trkpt>
      <trkpt lat="45.39888" lon="4.47507">
        <ele>1029</ele>
        <time>2015-04-19T09:01:10Z</time>
      </trkpt>
      <trkpt lat="45.39888" lon="4.47507">
        <ele>1029</ele>
        <time>2015-04-19T09:01:12Z</time>
      </trkpt>
      <trkpt lat="45.39888" lon="4.47506">
        <ele>1029</ele>
        <time>2015-04-19T09:01:15Z</time>
      </trkpt>
      <trkpt lat="45.39888" lon="4.47506">
        <ele>1028</ele>
        <time>2015-04-19T09:01:17Z</time>
      </trkpt>
      <trkpt lat="45.39888" lon="4.47505">
        <ele>1028</ele>
        <time>2015-04-19T09:01:19Z</time>
      </trkpt>
      <trkpt lat="45.39888" lon="4.47505">
        <ele>1028</ele>
        <time>2015-04-19T09:01:22Z</time>
      </trkpt>
      <trkpt lat="45.39888" lon="4.47505">
        <ele>1029</ele>
        <time>2015-04-19T09:01:25Z</time>
      </trkpt>
      <trkpt lat="45.39888" lon="4.47505">
        <ele>1029</ele>
        <time>2015-04-19T09:01:27Z</time>
      </trkpt>
      <trkpt lat="45.39888" lon="4.47505">
        <ele>1028</ele>
        <time>2015-04-19T09:01:31Z</time>
      </trkpt>
      <trkpt lat="45.39889" lon="4.47505">
        <ele>1028</ele>
        <time>2015-04-19T09:01:34Z</time>
      </trkpt>
      <trkpt lat="45.39889" lon="4.47505">
        <ele>1028</ele>
        <time>2015-04-19T09:01:36Z</time>
      </trkpt>
      <trkpt lat="45.3989" lon="4.47504">
        <ele>1028</ele>
        <time>2015-04-19T09:01:38Z</time>
      </trkpt>
      <trkpt lat="45.39889" lon="4.47503">
        <ele>1029</ele>
        <time>2015-04-19T09:01:40Z</time>
      </trkpt>
      <trkpt lat="45.3989" lon="4.47503">
        <ele>1029</ele>
        <time>2015-04-19T09:01:42Z</time>
      </trkpt>
      <trkpt lat="45.3989" lon="4.47503">
        <ele>1029</ele>
        <time>2015-04-19T09:01:44Z</time>
      </trkpt>
      <trkpt lat="45.39891" lon="4.47502">
        <ele>1029</ele>
        <time>2015-04-19T09:01:46Z</time>
      </trkpt>
      <trkpt lat="45.39891" lon="4.47503">
        <ele>1029</ele>
        <time>2015-04-19T09:01:49Z</time>
      </trkpt>
      <trkpt lat="45.39892" lon="4.47503">
        <ele>1029</ele>
        <time>2015-04-19T09:01:52Z</time>
      </trkpt>
      <trkpt lat="45.39892" lon="4.47503">
        <ele>1029</ele>
        <time>2015-04-19T09:01:55Z</time>
      </trkpt>
      <trkpt lat="45.39893" lon="4.47503">
        <ele>1029</ele>
        <time>2015-04-19T09:01:58Z</time>
      </trkpt>
      <trkpt lat="45.39893" lon="4.47503">
        <ele>1029</ele>
        <time>2015-04-19T09:02:00Z</time>
      </trkpt>
      <trkpt lat="45.39893" lon="4.47503">
        <ele>1029</ele>
        <time>2015-04-19T09:02:03Z</time>
      </trkpt>
      <trkpt lat="45.39894" lon="4.47503">
        <ele>1029</ele>
        <time>2015-04-19T09:02:05Z</time>
      </trkpt>
      <trkpt lat="45.39894" lon="4.47502">
        <ele>1029</ele>
        <time>2015-04-19T09:02:08Z</time>
      </trkpt>
      <trkpt lat="45.39895" lon="4.47501">
        <ele>1029</ele>
        <time>2015-04-19T09:02:11Z</time>
      </trkpt>
      <trkpt lat="45.39896" lon="4.475">
        <ele>1029</ele>
        <time>2015-04-19T09:02:13Z</time>
      </trkpt>
      <trkpt lat="45.39896" lon="4.47497">
        <ele>1029</ele>
        <time>2015-04-19T09:02:15Z</time>
      </trkpt>
      <trkpt lat="45.39898" lon="4.47493">
        <ele>1029</ele>
        <time>2015-04-19T09:02:18Z</time>
      </trkpt>
      <trkpt lat="45.39899" lon="4.4749">
        <ele>1029</ele>
        <time>2015-04-19T09:02:21Z</time>
      </trkpt>
      <trkpt lat="45.39899" lon="4.47487">
        <ele>1029</ele>
        <time>2015-04-19T09:02:23Z</time>
      </trkpt>
      <trkpt lat="45.399" lon="4.47483">
        <ele>1030</ele>
        <time>2015-04-19T09:02:26Z</time>
      </trkpt>
      <trkpt lat="45.39899" lon="4.4748">
        <ele>1029</ele>
        <time>2015-04-19T09:02:28Z</time>
      </trkpt>
      <trkpt lat="45.39899" lon="4.47477">
        <ele>1029</ele>
        <time>2015-04-19T09:02:31Z</time>
      </trkpt>
      <trkpt lat="45.39899" lon="4.47472">
        <ele>1029</ele>
        <time>2015-04-19T09:02:34Z</time>
      </trkpt>
      <trkpt lat="45.39898" lon="4.47468">
        <ele>1029</ele>
        <time>2015-04-19T09:02:36Z</time>
      </trkpt>
      <trkpt lat="45.39898" lon="4.47464">
        <ele>1030</ele>
        <time>2015-04-19T09:02:38Z</time>
      </trkpt>
      <trkpt lat="45.39896" lon="4.47459">
        <ele>1030</ele>
        <time>2015-04-19T09:02:41Z</time>
      </trkpt>
      <trkpt lat="45.39896" lon="4.47456">
        <ele>1030</ele>
        <time>2015-04-19T09:02:43Z</time>
      </trkpt>
      <trkpt lat="45.39895" lon="4.47451">
        <ele>1030</ele>
        <time>2015-04-19T09:02:45Z</time>
      </trkpt>
      <trkpt lat="45.39895" lon="4.47445">
        <ele>1030</ele>
        <time>2015-04-19T09:02:48Z</time>
      </trkpt>
      <trkpt lat="45.39894" lon="4.4744">
        <ele>1030</ele>
        <time>2015-04-19T09:02:51Z</time>
      </trkpt>
      <trkpt lat="45.39894" lon="4.47437">
        <ele>1030</ele>
        <time>2015-04-19T09:02:53Z</time>
      </trkpt>
      <trkpt lat="45.39893" lon="4.47433">
        <ele>1030</ele>
        <time>2015-04-19T09:02:55Z</time>
      </trkpt>
      <trkpt lat="45.39892" lon="4.47428">
        <ele>1031</ele>
        <time>2015-04-19T09:02:58Z</time>
      </trkpt>
      <trkpt lat="45.39892" lon="4.47424">
        <ele>1031</ele>
        <time>2015-04-19T09:03:01Z</time>
      </trkpt>
      <trkpt lat="45.39892" lon="4.47422">
        <ele>1031</ele>
        <time>2015-04-19T09:03:03Z</time>
      </trkpt>
      <trkpt lat="45.39891" lon="4.47419">
        <ele>1031</ele>
        <time>2015-04-19T09:03:05Z</time>
      </trkpt>
      <trkpt lat="45.3989" lon="4.47415">
        <ele>1032</ele>
        <time>2015-04-19T09:03:08Z</time>
      </trkpt>
      <trkpt lat="45.3989" lon="4.47412">
        <ele>1032</ele>
        <time>2015-04-19T09:03:10Z</time>
      </trkpt>
      <trkpt lat="45.39891" lon="4.47409">
        <ele>1032</ele>
        <time>2015-04-19T09:03:12Z</time>
      </trkpt>
      <trkpt lat="45.3989" lon="4.47404">
        <ele>1032</ele>
        <time>2015-04-19T09:03:15Z</time>
      </trkpt>
      <trkpt lat="45.3989" lon="4.474">
        <ele>1032</ele>
        <time>2015-04-19T09:03:17Z</time>
      </trkpt>
      <trkpt lat="45.3989" lon="4.47395">
        <ele>1033</ele>
        <time>2015-04-19T09:03:20Z</time>
      </trkpt>
      <trkpt lat="45.39889" lon="4.47391">
        <ele>1033</ele>
        <time>2015-04-19T09:03:23Z</time>
      </trkpt>
      <trkpt lat="45.3989" lon="4.47387">
        <ele>1034</ele>
        <time>2015-04-19T09:03:25Z</time>
      </trkpt>
      <trkpt lat="45.3989" lon="4.47382">
        <ele>1034</ele>
        <time>2015-04-19T09:03:28Z</time>
      </trkpt>
      <trkpt lat="45.39891" lon="4.47379">
        <ele>1034</ele>
        <time>2015-04-19T09:03:30Z</time>
      </trkpt>
      <trkpt lat="45.39891" lon="4.47374">
        <ele>1034</ele>
        <time>2015-04-19T09:03:32Z</time>
      </trkpt>
      <trkpt lat="45.39891" lon="4.47368">
        <ele>1034</ele>
        <time>2015-04-19T09:03:34Z</time>
      </trkpt>
      <trkpt lat="45.39893" lon="4.47359">
        <ele>1034</ele>
        <time>2015-04-19T09:03:37Z</time>
      </trkpt>
      <trkpt lat="45.39895" lon="4.4735">
        <ele>1034</ele>
        <time>2015-04-19T09:03:40Z</time>
      </trkpt>
      <trkpt lat="45.39895" lon="4.47341">
        <ele>1034</ele>
        <time>2015-04-19T09:03:42Z</time>
      </trkpt>
      <trkpt lat="45.39895" lon="4.4733">
        <ele>1035</ele>
        <time>2015-04-19T09:03:45Z</time>
      </trkpt>
      <trkpt lat="45.39895" lon="4.47322">
        <ele>1036</ele>
        <time>2015-04-19T09:03:48Z</time>
      </trkpt>
      <trkpt lat="45.39896" lon="4.47316">
        <ele>1036</ele>
        <time>2015-04-19T09:03:50Z</time>
      </trkpt>
      <trkpt lat="45.39896" lon="4.47306">
        <ele>1037</ele>
        <time>2015-04-19T09:03:53Z</time>
      </trkpt>
      <trkpt lat="45.39896" lon="4.47295">
        <ele>1036</ele>
        <time>2015-04-19T09:03:56Z</time>
      </trkpt>
      <trkpt lat="45.39896" lon="4.47288">
        <ele>1037</ele>
        <time>2015-04-19T09:03:58Z</time>
      </trkpt>
      <trkpt lat="45.39898" lon="4.47277">
        <ele>1037</ele>
        <time>2015-04-19T09:04:01Z</time>
      </trkpt>
      <trkpt lat="45.39899" lon="4.47271">
        <ele>1037</ele>
        <time>2015-04-19T09:04:03Z</time>
      </trkpt>
      <trkpt lat="45.39899" lon="4.47263">
        <ele>1037</ele>
        <time>2015-04-19T09:04:05Z</time>
      </trkpt>
      <trkpt lat="45.399" lon="4.47255">
        <ele>1037</ele>
        <time>2015-04-19T09:04:08Z</time>
      </trkpt>
      <trkpt lat="45.399" lon="4.47245">
        <ele>1037</ele>
        <time>2015-04-19T09:04:11Z</time>
      </trkpt>
      <trkpt lat="45.399" lon="4.47238">
        <ele>1038</ele>
        <time>2015-04-19T09:04:13Z</time>
      </trkpt>
      <trkpt lat="45.399" lon="4.4723">
        <ele>1038</ele>
        <time>2015-04-19T09:04:16Z</time>
      </trkpt>
      <trkpt lat="45.399" lon="4.47223">
        <ele>1038</ele>
        <time>2015-04-19T09:04:18Z</time>
      </trkpt>
      <trkpt lat="45.39901" lon="4.47214">
        <ele>1039</ele>
        <time>2015-04-19T09:04:21Z</time>
      </trkpt>
      <trkpt lat="45.39902" lon="4.47201">
        <ele>1039</ele>
        <time>2015-04-19T09:04:24Z</time>
      </trkpt>
      <trkpt lat="45.39903" lon="4.47193">
        <ele>1038</ele>
        <time>2015-04-19T09:04:26Z</time>
      </trkpt>
      <trkpt lat="45.39904" lon="4.47182">
        <ele>1039</ele>
        <time>2015-04-19T09:04:29Z</time>
      </trkpt>
      <trkpt lat="45.39906" lon="4.47176">
        <ele>1038</ele>
        <time>2015-04-19T09:04:31Z</time>
      </trkpt>
      <trkpt lat="45.39906" lon="4.47169">
        <ele>1038</ele>
        <time>2015-04-19T09:04:33Z</time>
      </trkpt>
      <trkpt lat="45.39908" lon="4.47161">
        <ele>1038</ele>
        <time>2015-04-19T09:04:36Z</time>
      </trkpt>
      <trkpt lat="45.39909" lon="4.4715">
        <ele>1038</ele>
        <time>2015-04-19T09:04:39Z</time>
      </trkpt>
      <trkpt lat="45.39911" lon="4.47143">
        <ele>1038</ele>
        <time>2015-04-19T09:04:41Z</time>
      </trkpt>
      <trkpt lat="45.39911" lon="4.47132">
        <ele>1038</ele>
        <time>2015-04-19T09:04:44Z</time>
      </trkpt>
      <trkpt lat="45.39911" lon="4.47126">
        <ele>1038</ele>
        <time>2015-04-19T09:04:46Z</time>
      </trkpt>
      <trkpt lat="45.39912" lon="4.47114">
        <ele>1038</ele>
        <time>2015-04-19T09:04:49Z</time>
      </trkpt>
      <trkpt lat="45.39912" lon="4.47108">
        <ele>1038</ele>
        <time>2015-04-19T09:04:51Z</time>
      </trkpt>
      <trkpt lat="45.39914" lon="4.47097">
        <ele>1037</ele>
        <time>2015-04-19T09:04:54Z</time>
      </trkpt>
      <trkpt lat="45.39914" lon="4.47089">
        <ele>1037</ele>
        <time>2015-04-19T09:04:56Z</time>
      </trkpt>
      <trkpt lat="45.39914" lon="4.47078">
        <ele>1036</ele>
        <time>2015-04-19T09:04:59Z</time>
      </trkpt>
      <trkpt lat="45.39915" lon="4.47067">
        <ele>1036</ele>
        <time>2015-04-19T09:05:02Z</time>
      </trkpt>
      <trkpt lat="45.39917" lon="4.47059">
        <ele>1036</ele>
        <time>2015-04-19T09:05:05Z</time>
      </trkpt>
      <trkpt lat="45.39921" lon="4.4705">
        <ele>1036</ele>
        <time>2015-04-19T09:05:08Z</time>
      </trkpt>
      <trkpt lat="45.39923" lon="4.4704">
        <ele>1036</ele>
        <time>2015-04-19T09:05:11Z</time>
      </trkpt>
      <trkpt lat="45.39925" lon="4.47036">
        <ele>1036</ele>
        <time>2015-04-19T09:05:13Z</time>
      </trkpt>
      <trkpt lat="45.39929" lon="4.47028">
        <ele>1036</ele>
        <time>2015-04-19T09:05:16Z</time>
      </trkpt>
      <trkpt lat="45.39932" lon="4.47018">
        <ele>1036</ele>
        <time>2015-04-19T09:05:19Z</time>
      </trkpt>
      <trkpt lat="45.39935" lon="4.47011">
        <ele>1036</ele>
        <time>2015-04-19T09:05:21Z</time>
      </trkpt>
      <trkpt lat="45.39938" lon="4.47003">
        <ele>1037</ele>
        <time>2015-04-19T09:05:23Z</time>
      </trkpt>
      <trkpt lat="45.3994" lon="4.46994">
        <ele>1037</ele>
        <time>2015-04-19T09:05:25Z</time>
      </trkpt>
      <trkpt lat="45.39943" lon="4.46982">
        <ele>1037</ele>
        <time>2015-04-19T09:05:28Z</time>
      </trkpt>
      <trkpt lat="45.39946" lon="4.46972">
        <ele>1037</ele>
        <time>2015-04-19T09:05:31Z</time>
      </trkpt>
      <trkpt lat="45.39948" lon="4.46965">
        <ele>1037</ele>
        <time>2015-04-19T09:05:33Z</time>
      </trkpt>
      <trkpt lat="45.39952" lon="4.46956">
        <ele>1038</ele>
        <time>2015-04-19T09:05:36Z</time>
      </trkpt>
      <trkpt lat="45.39954" lon="4.46948">
        <ele>1038</ele>
        <time>2015-04-19T09:05:39Z</time>
      </trkpt>
      <trkpt lat="45.39958" lon="4.4694">
        <ele>1038</ele>
        <time>2015-04-19T09:05:42Z</time>
      </trkpt>
      <trkpt lat="45.39962" lon="4.46936">
        <ele>1038</ele>
        <time>2015-04-19T09:05:44Z</time>
      </trkpt>
      <trkpt lat="45.39967" lon="4.46928">
        <ele>1038</ele>
        <time>2015-04-19T09:05:47Z</time>
      </trkpt>
      <trkpt lat="45.39973" lon="4.46921">
        <ele>1038</ele>
        <time>2015-04-19T09:05:50Z</time>
      </trkpt>
      <trkpt lat="45.39977" lon="4.46915">
        <ele>1038</ele>
        <time>2015-04-19T09:05:52Z</time>
      </trkpt>
      <trkpt lat="45.39981" lon="4.46907">
        <ele>1038</ele>
        <time>2015-04-19T09:05:54Z</time>
      </trkpt>
      <trkpt lat="45.39985" lon="4.469">
        <ele>1038</ele>
        <time>2015-04-19T09:05:57Z</time>
      </trkpt>
      <trkpt lat="45.39989" lon="4.46895">
        <ele>1037</ele>
        <time>2015-04-19T09:05:59Z</time>
      </trkpt>
      <trkpt lat="45.39996" lon="4.46887">
        <ele>1037</ele>
        <time>2015-04-19T09:06:02Z</time>
      </trkpt>
      <trkpt lat="45.40002" lon="4.4688">
        <ele>1036</ele>
        <time>2015-04-19T09:06:05Z</time>
      </trkpt>
      <trkpt lat="45.40008" lon="4.46874">
        <ele>1036</ele>
        <time>2015-04-19T09:06:08Z</time>
      </trkpt>
      <trkpt lat="45.40012" lon="4.46869">
        <ele>1035</ele>
        <time>2015-04-19T09:06:10Z</time>
      </trkpt>
      <trkpt lat="45.40017" lon="4.46863">
        <ele>1035</ele>
        <time>2015-04-19T09:06:13Z</time>
      </trkpt>
      <trkpt lat="45.40024" lon="4.46854">
        <ele>1034</ele>
        <time>2015-04-19T09:06:16Z</time>
      </trkpt>
      <trkpt lat="45.40029" lon="4.46844">
        <ele>1034</ele>
        <time>2015-04-19T09:06:19Z</time>
      </trkpt>
      <trkpt lat="45.40033" lon="4.46838">
        <ele>1034</ele>
        <time>2015-04-19T09:06:21Z</time>
      </trkpt>
      <trkpt lat="45.40038" lon="4.46831">
        <ele>1034</ele>
        <time>2015-04-19T09:06:23Z</time>
      </trkpt>
      <trkpt lat="45.40045" lon="4.4682">
        <ele>1034</ele>
        <time>2015-04-19T09:06:26Z</time>
      </trkpt>
      <trkpt lat="45.4005" lon="4.46813">
        <ele>1034</ele>
        <time>2015-04-19T09:06:28Z</time>
      </trkpt>
      <trkpt lat="45.40057" lon="4.46803">
        <ele>1033</ele>
        <time>2015-04-19T09:06:31Z</time>
      </trkpt>
      <trkpt lat="45.40063" lon="4.46792">
        <ele>1033</ele>
        <time>2015-04-19T09:06:34Z</time>
      </trkpt>
      <trkpt lat="45.40071" lon="4.46782">
        <ele>1033</ele>
        <time>2015-04-19T09:06:37Z</time>
      </trkpt>
      <trkpt lat="45.40077" lon="4.46772">
        <ele>1032</ele>
        <time>2015-04-19T09:06:40Z</time>
      </trkpt>
      <trkpt lat="45.40081" lon="4.46766">
        <ele>1032</ele>
        <time>2015-04-19T09:06:42Z</time>
      </trkpt>
      <trkpt lat="45.40088" lon="4.46755">
        <ele>1032</ele>
        <time>2015-04-19T09:06:45Z</time>
      </trkpt>
      <trkpt lat="45.40093" lon="4.46744">
        <ele>1032</ele>
        <time>2015-04-19T09:06:48Z</time>
      </trkpt>
      <trkpt lat="45.40097" lon="4.46737">
        <ele>1031</ele>
        <time>2015-04-19T09:06:50Z</time>
      </trkpt>
      <trkpt lat="45.40101" lon="4.4673">
        <ele>1031</ele>
        <time>2015-04-19T09:06:52Z</time>
      </trkpt>
      <trkpt lat="45.40107" lon="4.4672">
        <ele>1031</ele>
        <time>2015-04-19T09:06:55Z</time>
      </trkpt>
      <trkpt lat="45.40113" lon="4.4671">
        <ele>1031</ele>
        <time>2015-04-19T09:06:58Z</time>
      </trkpt>
      <trkpt lat="45.40116" lon="4.46703">
        <ele>1031</ele>
        <time>2015-04-19T09:07:00Z</time>
      </trkpt>
      <trkpt lat="45.40122" lon="4.46693">
        <ele>1031</ele>
        <time>2015-04-19T09:07:03Z</time>
      </trkpt>
      <trkpt lat="45.40128" lon="4.46682">
        <ele>1030</ele>
        <time>2015-04-19T09:07:06Z</time>
      </trkpt>
      <trkpt lat="45.40131" lon="4.46675">
        <ele>1030</ele>
        <time>2015-04-19T09:07:08Z</time>
      </trkpt>
      <trkpt lat="45.40135" lon="4.46664">
        <ele>1030</ele>
        <time>2015-04-19T09:07:11Z</time>
      </trkpt>
      <trkpt lat="45.40139" lon="4.46653">
        <ele>1030</ele>
        <time>2015-04-19T09:07:14Z</time>
      </trkpt>
      <trkpt lat="45.40141" lon="4.46645">
        <ele>1029</ele>
        <time>2015-04-19T09:07:16Z</time>
      </trkpt>
      <trkpt lat="45.40144" lon="4.46638">
        <ele>1029</ele>
        <time>2015-04-19T09:07:18Z</time>
      </trkpt>
      <trkpt lat="45.40147" lon="4.46627">
        <ele>1029</ele>
        <time>2015-04-19T09:07:21Z</time>
      </trkpt>
      <trkpt lat="45.4015" lon="4.46616">
        <ele>1029</ele>
        <time>2015-04-19T09:07:24Z</time>
      </trkpt>
      <trkpt lat="45.40152" lon="4.46609">
        <ele>1029</ele>
        <time>2015-04-19T09:07:26Z</time>
      </trkpt>
      <trkpt lat="45.40156" lon="4.46597">
        <ele>1029</ele>
        <time>2015-04-19T09:07:29Z</time>
      </trkpt>
      <trkpt lat="45.40158" lon="4.46585">
        <ele>1029</ele>
        <time>2015-04-19T09:07:32Z</time>
      </trkpt>
      <trkpt lat="45.40158" lon="4.46577">
        <ele>1028</ele>
        <time>2015-04-19T09:07:34Z</time>
      </trkpt>
      <trkpt lat="45.4016" lon="4.46565">
        <ele>1028</ele>
        <time>2015-04-19T09:07:37Z</time>
      </trkpt>
      <trkpt lat="45.4016" lon="4.46553">
        <ele>1028</ele>
        <time>2015-04-19T09:07:40Z</time>
      </trkpt>
      <trkpt lat="45.40159" lon="4.46545">
        <ele>1027</ele>
        <time>2015-04-19T09:07:42Z</time>
      </trkpt>
      <trkpt lat="45.40158" lon="4.46533">
        <ele>1027</ele>
        <time>2015-04-19T09:07:45Z</time>
      </trkpt>
      <trkpt lat="45.40157" lon="4.46521">
        <ele>1027</ele>
        <time>2015-04-19T09:07:48Z</time>
      </trkpt>
      <trkpt lat="45.40155" lon="4.46513">
        <ele>1027</ele>
        <time>2015-04-19T09:07:50Z</time>
      </trkpt>
      <trkpt lat="45.40154" lon="4.46502">
        <ele>1027</ele>
        <time>2015-04-19T09:07:53Z</time>
      </trkpt>
      <trkpt lat="45.40152" lon="4.46494">
        <ele>1026</ele>
        <time>2015-04-19T09:07:55Z</time>
      </trkpt>
      <trkpt lat="45.4015" lon="4.46487">
        <ele>1026</ele>
        <time>2015-04-19T09:07:57Z</time>
      </trkpt>
      <trkpt lat="45.40144" lon="4.46477">
        <ele>1025</ele>
        <time>2015-04-19T09:08:00Z</time>
      </trkpt>
      <trkpt lat="45.40139" lon="4.46473">
        <ele>1025</ele>
        <time>2015-04-19T09:08:02Z</time>
      </trkpt>
      <trkpt lat="45.40133" lon="4.46467">
        <ele>1024</ele>
        <time>2015-04-19T09:08:05Z</time>
      </trkpt>
      <trkpt lat="45.40128" lon="4.46463">
        <ele>1024</ele>
        <time>2015-04-19T09:08:08Z</time>
      </trkpt>
      <trkpt lat="45.40125" lon="4.46462">
        <ele>1024</ele>
        <time>2015-04-19T09:08:10Z</time>
      </trkpt>
      <trkpt lat="45.40119" lon="4.46459">
        <ele>1024</ele>
        <time>2015-04-19T09:08:13Z</time>
      </trkpt>
      <trkpt lat="45.40113" lon="4.46457">
        <ele>1025</ele>
        <time>2015-04-19T09:08:16Z</time>
      </trkpt>
      <trkpt lat="45.40107" lon="4.46454">
        <ele>1025</ele>
        <time>2015-04-19T09:08:19Z</time>
      </trkpt>
      <trkpt lat="45.40103" lon="4.46451">
        <ele>1026</ele>
        <time>2015-04-19T09:08:21Z</time>
      </trkpt>
      <trkpt lat="45.40097" lon="4.46448">
        <ele>1026</ele>
        <time>2015-04-19T09:08:24Z</time>
      </trkpt>
      <trkpt lat="45.40092" lon="4.46446">
        <ele>1026</ele>
        <time>2015-04-19T09:08:26Z</time>
      </trkpt>
      <trkpt lat="45.40087" lon="4.46443">
        <ele>1026</ele>
        <time>2015-04-19T09:08:28Z</time>
      </trkpt>
      <trkpt lat="45.4008" lon="4.46439">
        <ele>1027</ele>
        <time>2015-04-19T09:08:31Z</time>
      </trkpt>
      <trkpt lat="45.40075" lon="4.46436">
        <ele>1027</ele>
        <time>2015-04-19T09:08:33Z</time>
      </trkpt>
      <trkpt lat="45.40068" lon="4.46431">
        <ele>1027</ele>
        <time>2015-04-19T09:08:36Z</time>
      </trkpt>
      <trkpt lat="45.40061" lon="4.4643">
        <ele>1027</ele>
        <time>2015-04-19T09:08:39Z</time>
      </trkpt>
      <trkpt lat="45.40057" lon="4.46429">
        <ele>1027</ele>
        <time>2015-04-19T09:08:41Z</time>
      </trkpt>
      <trkpt lat="45.40051" lon="4.46426">
        <ele>1027</ele>
        <time>2015-04-19T09:08:44Z</time>
      </trkpt>
      <trkpt lat="45.40045" lon="4.46423">
        <ele>1027</ele>
        <time>2015-04-19T09:08:47Z</time>
      </trkpt>
      <trkpt lat="45.40039" lon="4.46419">
        <ele>1027</ele>
        <time>2015-04-19T09:08:50Z</time>
      </trkpt>
      <trkpt lat="45.40034" lon="4.46417">
        <ele>1028</ele>
        <time>2015-04-19T09:08:52Z</time>
      </trkpt>
      <trkpt lat="45.40029" lon="4.46416">
        <ele>1028</ele>
        <time>2015-04-19T09:08:54Z</time>
      </trkpt>
      <trkpt lat="45.40022" lon="4.46412">
        <ele>1029</ele>
        <time>2015-04-19T09:08:57Z</time>
      </trkpt>
      <trkpt lat="45.40017" lon="4.46409">
        <ele>1029</ele>
        <time>2015-04-19T09:09:00Z</time>
      </trkpt>
      <trkpt lat="45.40012" lon="4.46405">
        <ele>1030</ele>
        <time>2015-04-19T09:09:03Z</time>
      </trkpt>
      <trkpt lat="45.40005" lon="4.464">
        <ele>1030</ele>
        <time>2015-04-19T09:09:06Z</time>
      </trkpt>
      <trkpt lat="45.40001" lon="4.46398">
        <ele>1030</ele>
        <time>2015-04-19T09:09:08Z</time>
      </trkpt>
      <trkpt lat="45.39997" lon="4.46397">
        <ele>1030</ele>
        <time>2015-04-19T09:09:10Z</time>
      </trkpt>
      <trkpt lat="45.39992" lon="4.46395">
        <ele>1030</ele>
        <time>2015-04-19T09:09:13Z</time>
      </trkpt>
      <trkpt lat="45.39987" lon="4.46392">
        <ele>1030</ele>
        <time>2015-04-19T09:09:15Z</time>
      </trkpt>
      <trkpt lat="45.39981" lon="4.46388">
        <ele>1030</ele>
        <time>2015-04-19T09:09:18Z</time>
      </trkpt>
      <trkpt lat="45.39976" lon="4.46385">
        <ele>1031</ele>
        <time>2015-04-19T09:09:21Z</time>
      </trkpt>
      <trkpt lat="45.39973" lon="4.46384">
        <ele>1032</ele>
        <time>2015-04-19T09:09:23Z</time>
      </trkpt>
      <trkpt lat="45.39968" lon="4.46382">
        <ele>1033</ele>
        <time>2015-04-19T09:09:26Z</time>
      </trkpt>
      <trkpt lat="45.39964" lon="4.46379">
        <ele>1033</ele>
        <time>2015-04-19T09:09:29Z</time>
      </trkpt>
      <trkpt lat="45.3996" lon="4.46377">
        <ele>1034</ele>
        <time>2015-04-19T09:09:32Z</time>
      </trkpt>
      <trkpt lat="45.39957" lon="4.46376">
        <ele>1034</ele>
        <time>2015-04-19T09:09:35Z</time>
      </trkpt>
      <trkpt lat="45.39954" lon="4.46375">
        <ele>1034</ele>
        <time>2015-04-19T09:09:38Z</time>
      </trkpt>
      <trkpt lat="45.3995" lon="4.46373">
        <ele>1035</ele>
        <time>2015-04-19T09:09:41Z</time>
      </trkpt>
      <trkpt lat="45.39948" lon="4.46371">
        <ele>1035</ele>
        <time>2015-04-19T09:09:43Z</time>
      </trkpt>
      <trkpt lat="45.39945" lon="4.46369">
        <ele>1036</ele>
        <time>2015-04-19T09:09:45Z</time>
      </trkpt>
      <trkpt lat="45.39942" lon="4.46367">
        <ele>1036</ele>
        <time>2015-04-19T09:09:48Z</time>
      </trkpt>
      <trkpt lat="45.39939" lon="4.46366">
        <ele>1036</ele>
        <time>2015-04-19T09:09:50Z</time>
      </trkpt>
      <trkpt lat="45.39935" lon="4.46363">
        <ele>1036</ele>
        <time>2015-04-19T09:09:53Z</time>
      </trkpt>
      <trkpt lat="45.39931" lon="4.46361">
        <ele>1037</ele>
        <time>2015-04-19T09:09:55Z</time>
      </trkpt>
      <trkpt lat="45.39925" lon="4.46357">
        <ele>1037</ele>
        <time>2015-04-19T09:09:58Z</time>
      </trkpt>
      <trkpt lat="45.39921" lon="4.46355">
        <ele>1037</ele>
        <time>2015-04-19T09:10:00Z</time>
      </trkpt>
      <trkpt lat="45.39914" lon="4.4635">
        <ele>1037</ele>
        <time>2015-04-19T09:10:03Z</time>
      </trkpt>
      <trkpt lat="45.3991" lon="4.46346">
        <ele>1037</ele>
        <time>2015-04-19T09:10:05Z</time>
      </trkpt>
      <trkpt lat="45.39906" lon="4.46343">
        <ele>1037</ele>
        <time>2015-04-19T09:10:07Z</time>
      </trkpt>
      <trkpt lat="45.39899" lon="4.46341">
        <ele>1036</ele>
        <time>2015-04-19T09:10:10Z</time>
      </trkpt>
      <trkpt lat="45.39894" lon="4.46339">
        <ele>1036</ele>
        <time>2015-04-19T09:10:12Z</time>
      </trkpt>
      <trkpt lat="45.39889" lon="4.46337">
        <ele>1036</ele>
        <time>2015-04-19T09:10:14Z</time>
      </trkpt>
      <trkpt lat="45.39883" lon="4.46334">
        <ele>1036</ele>
        <time>2015-04-19T09:10:16Z</time>
      </trkpt>
      <trkpt lat="45.39875" lon="4.46334">
        <ele>1036</ele>
        <time>2015-04-19T09:10:19Z</time>
      </trkpt>
      <trkpt lat="45.39869" lon="4.46334">
        <ele>1035</ele>
        <time>2015-04-19T09:10:21Z</time>
      </trkpt>
      <trkpt lat="45.39861" lon="4.46337">
        <ele>1034</ele>
        <time>2015-04-19T09:10:24Z</time>
      </trkpt>
      <trkpt lat="45.39854" lon="4.46339">
        <ele>1033</ele>
        <time>2015-04-19T09:10:27Z</time>
      </trkpt>
      <trkpt lat="45.3985" lon="4.46339">
        <ele>1031</ele>
        <time>2015-04-19T09:10:29Z</time>
      </trkpt>
      <trkpt lat="45.39848" lon="4.46331">
        <ele>1030</ele>
        <time>2015-04-19T09:10:32Z</time>
      </trkpt>
      <trkpt lat="45.3985" lon="4.46325">
        <ele>1029</ele>
        <time>2015-04-19T09:10:34Z</time>
      </trkpt>
      <trkpt lat="45.39851" lon="4.46312">
        <ele>1028</ele>
        <time>2015-04-19T09:10:37Z</time>
      </trkpt>
      <trkpt lat="45.3985" lon="4.46303">
        <ele>1027</ele>
        <time>2015-04-19T09:10:39Z</time>
      </trkpt>
      <trkpt lat="45.3985" lon="4.46294">
        <ele>1026</ele>
        <time>2015-04-19T09:10:41Z</time>
      </trkpt>
      <trkpt lat="45.3985" lon="4.46281">
        <ele>1025</ele>
        <time>2015-04-19T09:10:44Z</time>
      </trkpt>
      <trkpt lat="45.39851" lon="4.46274">
        <ele>1025</ele>
        <time>2015-04-19T09:10:46Z</time>
      </trkpt>
      <trkpt lat="45.39852" lon="4.46267">
        <ele>1025</ele>
        <time>2015-04-19T09:10:48Z</time>
      </trkpt>
      <trkpt lat="45.39855" lon="4.46255">
        <ele>1024</ele>
        <time>2015-04-19T09:10:51Z</time>
      </trkpt>
      <trkpt lat="45.39858" lon="4.4625">
        <ele>1023</ele>
        <time>2015-04-19T09:10:53Z</time>
      </trkpt>
      <trkpt lat="45.3986" lon="4.46243">
        <ele>1022</ele>
        <time>2015-04-19T09:10:55Z</time>
      </trkpt>
      <trkpt lat="45.39862" lon="4.46229">
        <ele>1021</ele>
        <time>2015-04-19T09:10:58Z</time>
      </trkpt>
      <trkpt lat="45.39865" lon="4.46216">
        <ele>1020</ele>
        <time>2015-04-19T09:11:01Z</time>
      </trkpt>
      <trkpt lat="45.39868" lon="4.4621">
        <ele>1020</ele>
        <time>2015-04-19T09:11:03Z</time>
      </trkpt>
      <trkpt lat="45.39871" lon="4.46199">
        <ele>1019</ele>
        <time>2015-04-19T09:11:06Z</time>
      </trkpt>
      <trkpt lat="45.39875" lon="4.46185">
        <ele>1018</ele>
        <time>2015-04-19T09:11:09Z</time>
      </trkpt>
      <trkpt lat="45.39877" lon="4.4617">
        <ele>1018</ele>
        <time>2015-04-19T09:11:12Z</time>
      </trkpt>
      <trkpt lat="45.3988" lon="4.46162">
        <ele>1017</ele>
        <time>2015-04-19T09:11:14Z</time>
      </trkpt>
      <trkpt lat="45.39883" lon="4.46147">
        <ele>1016</ele>
        <time>2015-04-19T09:11:17Z</time>
      </trkpt>
      <trkpt lat="45.39888" lon="4.46134">
        <ele>1015</ele>
        <time>2015-04-19T09:11:20Z</time>
      </trkpt>
      <trkpt lat="45.39891" lon="4.46125">
        <ele>1014</ele>
        <time>2015-04-19T09:11:22Z</time>
      </trkpt>
      <trkpt lat="45.39896" lon="4.46111">
        <ele>1012</ele>
        <time>2015-04-19T09:11:25Z</time>
      </trkpt>
      <trkpt lat="45.39901" lon="4.461">
        <ele>1011</ele>
        <time>2015-04-19T09:11:28Z</time>
      </trkpt>
      <trkpt lat="45.39906" lon="4.46087">
        <ele>1010</ele>
        <time>2015-04-19T09:11:31Z</time>
      </trkpt>
      <trkpt lat="45.39907" lon="4.46077">
        <ele>1010</ele>
        <time>2015-04-19T09:11:33Z</time>
      </trkpt>
      <trkpt lat="45.3991" lon="4.46064">
        <ele>1009</ele>
        <time>2015-04-19T09:11:36Z</time>
      </trkpt>
      <trkpt lat="45.39913" lon="4.46056">
        <ele>1008</ele>
        <time>2015-04-19T09:11:38Z</time>
      </trkpt>
      <trkpt lat="45.39918" lon="4.46045">
        <ele>1006</ele>
        <time>2015-04-19T09:11:41Z</time>
      </trkpt>
      <trkpt lat="45.39921" lon="4.46037">
        <ele>1006</ele>
        <time>2015-04-19T09:11:43Z</time>
      </trkpt>
      <trkpt lat="45.39927" lon="4.46025">
        <ele>1005</ele>
        <time>2015-04-19T09:11:46Z</time>
      </trkpt>
      <trkpt lat="45.39931" lon="4.46019">
        <ele>1004</ele>
        <time>2015-04-19T09:11:48Z</time>
      </trkpt>
      <trkpt lat="45.39935" lon="4.46011">
        <ele>1003</ele>
        <time>2015-04-19T09:11:50Z</time>
      </trkpt>
      <trkpt lat="45.3994" lon="4.46">
        <ele>1002</ele>
        <time>2015-04-19T09:11:53Z</time>
      </trkpt>
      <trkpt lat="45.39943" lon="4.45991">
        <ele>1001</ele>
        <time>2015-04-19T09:11:55Z</time>
      </trkpt>
      <trkpt lat="45.39947" lon="4.45983">
        <ele>1000</ele>
        <time>2015-04-19T09:11:57Z</time>
      </trkpt>
      <trkpt lat="45.39952" lon="4.45971">
        <ele>1000</ele>
        <time>2015-04-19T09:12:00Z</time>
      </trkpt>
      <trkpt lat="45.39958" lon="4.4596">
        <ele>999</ele>
        <time>2015-04-19T09:12:03Z</time>
      </trkpt>
      <trkpt lat="45.39962" lon="4.45953">
        <ele>998</ele>
        <time>2015-04-19T09:12:05Z</time>
      </trkpt>
      <trkpt lat="45.39968" lon="4.4594">
        <ele>997</ele>
        <time>2015-04-19T09:12:08Z</time>
      </trkpt>
      <trkpt lat="45.39971" lon="4.45933">
        <ele>997</ele>
        <time>2015-04-19T09:12:10Z</time>
      </trkpt>
      <trkpt lat="45.39975" lon="4.45925">
        <ele>996</ele>
        <time>2015-04-19T09:12:12Z</time>
      </trkpt>
      <trkpt lat="45.39981" lon="4.45912">
        <ele>995</ele>
        <time>2015-04-19T09:12:15Z</time>
      </trkpt>
      <trkpt lat="45.39984" lon="4.45904">
        <ele>995</ele>
        <time>2015-04-19T09:12:17Z</time>
      </trkpt>
      <trkpt lat="45.39988" lon="4.45898">
        <ele>995</ele>
        <time>2015-04-19T09:12:19Z</time>
      </trkpt>
      <trkpt lat="45.39994" lon="4.45886">
        <ele>994</ele>
        <time>2015-04-19T09:12:22Z</time>
      </trkpt>
      <trkpt lat="45.4" lon="4.45882">
        <ele>994</ele>
        <time>2015-04-19T09:12:24Z</time>
      </trkpt>
      <trkpt lat="45.40008" lon="4.45875">
        <ele>993</ele>
        <time>2015-04-19T09:12:27Z</time>
      </trkpt>
      <trkpt lat="45.40015" lon="4.45871">
        <ele>992</ele>
        <time>2015-04-19T09:12:29Z</time>
      </trkpt>
      <trkpt lat="45.40022" lon="4.45866">
        <ele>991</ele>
        <time>2015-04-19T09:12:32Z</time>
      </trkpt>
      <trkpt lat="45.40027" lon="4.45864">
        <ele>991</ele>
        <time>2015-04-19T09:12:34Z</time>
      </trkpt>
      <trkpt lat="45.40036" lon="4.45861">
        <ele>989</ele>
        <time>2015-04-19T09:12:37Z</time>
      </trkpt>
      <trkpt lat="45.40046" lon="4.45858">
        <ele>988</ele>
        <time>2015-04-19T09:12:40Z</time>
      </trkpt>
      <trkpt lat="45.40052" lon="4.45857">
        <ele>988</ele>
        <time>2015-04-19T09:12:42Z</time>
      </trkpt>
      <trkpt lat="45.40062" lon="4.45856">
        <ele>986</ele>
        <time>2015-04-19T09:12:45Z</time>
      </trkpt>
      <trkpt lat="45.40068" lon="4.45855">
        <ele>985</ele>
        <time>2015-04-19T09:12:47Z</time>
      </trkpt>
      <trkpt lat="45.40075" lon="4.45856">
        <ele>984</ele>
        <time>2015-04-19T09:12:49Z</time>
      </trkpt>
      <trkpt lat="45.40081" lon="4.45857">
        <ele>984</ele>
        <time>2015-04-19T09:12:51Z</time>
      </trkpt>
      <trkpt lat="45.40091" lon="4.45859">
        <ele>983</ele>
        <time>2015-04-19T09:12:54Z</time>
      </trkpt>
      <trkpt lat="45.40098" lon="4.45859">
        <ele>982</ele>
        <time>2015-04-19T09:12:56Z</time>
      </trkpt>
      <trkpt lat="45.40107" lon="4.45863">
        <ele>981</ele>
        <time>2015-04-19T09:12:59Z</time>
      </trkpt>
      <trkpt lat="45.40113" lon="4.45867">
        <ele>979</ele>
        <time>2015-04-19T09:13:01Z</time>
      </trkpt>
      <trkpt lat="45.40119" lon="4.45871">
        <ele>979</ele>
        <time>2015-04-19T09:13:03Z</time>
      </trkpt>
      <trkpt lat="45.40126" lon="4.45873">
        <ele>978</ele>
        <time>2015-04-19T09:13:05Z</time>
      </trkpt>
      <trkpt lat="45.40135" lon="4.45878">
        <ele>978</ele>
        <time>2015-04-19T09:13:08Z</time>
      </trkpt>
      <trkpt lat="45.40142" lon="4.45882">
        <ele>977</ele>
        <time>2015-04-19T09:13:10Z</time>
      </trkpt>
      <trkpt lat="45.40151" lon="4.45885">
        <ele>975</ele>
        <time>2015-04-19T09:13:13Z</time>
      </trkpt>
      <trkpt lat="45.40161" lon="4.4589">
        <ele>974</ele>
        <time>2015-04-19T09:13:16Z</time>
      </trkpt>
      <trkpt lat="45.40167" lon="4.45894">
        <ele>973</ele>
        <time>2015-04-19T09:13:18Z</time>
      </trkpt>
      <trkpt lat="45.40173" lon="4.45898">
        <ele>972</ele>
        <time>2015-04-19T09:13:20Z</time>
      </trkpt>
      <trkpt lat="45.40183" lon="4.45903">
        <ele>971</ele>
        <time>2015-04-19T09:13:23Z</time>
      </trkpt>
      <trkpt lat="45.4019" lon="4.45907">
        <ele>970</ele>
        <time>2015-04-19T09:13:25Z</time>
      </trkpt>
      <trkpt lat="45.40195" lon="4.45911">
        <ele>969</ele>
        <time>2015-04-19T09:13:27Z</time>
      </trkpt>
      <trkpt lat="45.40203" lon="4.45915">
        <ele>968</ele>
        <time>2015-04-19T09:13:30Z</time>
      </trkpt>
      <trkpt lat="45.40208" lon="4.45917">
        <ele>967</ele>
        <time>2015-04-19T09:13:32Z</time>
      </trkpt>
      <trkpt lat="45.40217" lon="4.45919">
        <ele>967</ele>
        <time>2015-04-19T09:13:35Z</time>
      </trkpt>
      <trkpt lat="45.40222" lon="4.45921">
        <ele>966</ele>
        <time>2015-04-19T09:13:37Z</time>
      </trkpt>
      <trkpt lat="45.40228" lon="4.45921">
        <ele>965</ele>
        <time>2015-04-19T09:13:39Z</time>
      </trkpt>
      <trkpt lat="45.40236" lon="4.45925">
        <ele>965</ele>
        <time>2015-04-19T09:13:42Z</time>
      </trkpt>
      <trkpt lat="45.40242" lon="4.45926">
        <ele>964</ele>
        <time>2015-04-19T09:13:44Z</time>
      </trkpt>
      <trkpt lat="45.40247" lon="4.45921">
        <ele>963</ele>
        <time>2015-04-19T09:13:47Z</time>
      </trkpt>
      <trkpt lat="45.40248" lon="4.4591">
        <ele>962</ele>
        <time>2015-04-19T09:13:50Z</time>
      </trkpt>
      <trkpt lat="45.40248" lon="4.45904">
        <ele>961</ele>
        <time>2015-04-19T09:13:52Z</time>
      </trkpt>
      <trkpt lat="45.40247" lon="4.459">
        <ele>960</ele>
        <time>2015-04-19T09:13:54Z</time>
      </trkpt>
      <trkpt lat="45.40244" lon="4.45893">
        <ele>959</ele>
        <time>2015-04-19T09:13:56Z</time>
      </trkpt>
      <trkpt lat="45.40241" lon="4.45887">
        <ele>958</ele>
        <time>2015-04-19T09:13:58Z</time>
      </trkpt>
      <trkpt lat="45.40237" lon="4.45876">
        <ele>956</ele>
        <time>2015-04-19T09:14:01Z</time>
      </trkpt>
      <trkpt lat="45.40234" lon="4.45868">
        <ele>955</ele>
        <time>2015-04-19T09:14:03Z</time>
      </trkpt>
      <trkpt lat="45.40232" lon="4.4586">
        <ele>954</ele>
        <time>2015-04-19T09:14:05Z</time>
      </trkpt>
      <trkpt lat="45.40229" lon="4.45849">
        <ele>951</ele>
        <time>2015-04-19T09:14:08Z</time>
      </trkpt>
      <trkpt lat="45.40228" lon="4.45842">
        <ele>950</ele>
        <time>2015-04-19T09:14:10Z</time>
      </trkpt>
      <trkpt lat="45.40227" lon="4.45833">
        <ele>949</ele>
        <time>2015-04-19T09:14:12Z</time>
      </trkpt>
      <trkpt lat="45.40226" lon="4.45825">
        <ele>947</ele>
        <time>2015-04-19T09:14:14Z</time>
      </trkpt>
      <trkpt lat="45.40226" lon="4.45813">
        <ele>946</ele>
        <time>2015-04-19T09:14:17Z</time>
      </trkpt>
      <trkpt lat="45.40227" lon="4.45806">
        <ele>945</ele>
        <time>2015-04-19T09:14:19Z</time>
      </trkpt>
      <trkpt lat="45.40229" lon="4.45797">
        <ele>943</ele>
        <time>2015-04-19T09:14:21Z</time>
      </trkpt>
      <trkpt lat="45.4023" lon="4.45787">
        <ele>942</ele>
        <time>2015-04-19T09:14:23Z</time>
      </trkpt>
      <trkpt lat="45.40232" lon="4.45779">
        <ele>940</ele>
        <time>2015-04-19T09:14:25Z</time>
      </trkpt>
      <trkpt lat="45.40237" lon="4.45765">
        <ele>939</ele>
        <time>2015-04-19T09:14:28Z</time>
      </trkpt>
      <trkpt lat="45.40239" lon="4.45756">
        <ele>938</ele>
        <time>2015-04-19T09:14:30Z</time>
      </trkpt>
      <trkpt lat="45.40244" lon="4.45743">
        <ele>937</ele>
        <time>2015-04-19T09:14:33Z</time>
      </trkpt>
      <trkpt lat="45.40246" lon="4.45736">
        <ele>935</ele>
        <time>2015-04-19T09:14:35Z</time>
      </trkpt>
      <trkpt lat="45.4025" lon="4.45724">
        <ele>933</ele>
        <time>2015-04-19T09:14:38Z</time>
      </trkpt>
      <trkpt lat="45.40254" lon="4.45716">
        <ele>932</ele>
        <time>2015-04-19T09:14:40Z</time>
      </trkpt>
      <trkpt lat="45.40257" lon="4.45708">
        <ele>931</ele>
        <time>2015-04-19T09:14:42Z</time>
      </trkpt>
      <trkpt lat="45.40263" lon="4.45697">
        <ele>930</ele>
        <time>2015-04-19T09:14:45Z</time>
      </trkpt>
      <trkpt lat="45.40269" lon="4.45687">
        <ele>929</ele>
        <time>2015-04-19T09:14:48Z</time>
      </trkpt>
      <trkpt lat="45.40274" lon="4.45682">
        <ele>928</ele>
        <time>2015-04-19T09:14:50Z</time>
      </trkpt>
      <trkpt lat="45.40279" lon="4.45671">
        <ele>926</ele>
        <time>2015-04-19T09:14:53Z</time>
      </trkpt>
      <trkpt lat="45.40282" lon="4.45663">
        <ele>925</ele>
        <time>2015-04-19T09:14:55Z</time>
      </trkpt>
      <trkpt lat="45.40286" lon="4.45649">
        <ele>922</ele>
        <time>2015-04-19T09:14:58Z</time>
      </trkpt>
      <trkpt lat="45.4029" lon="4.45636">
        <ele>920</ele>
        <time>2015-04-19T09:15:01Z</time>
      </trkpt>
      <trkpt lat="45.40295" lon="4.45622">
        <ele>919</ele>
        <time>2015-04-19T09:15:04Z</time>
      </trkpt>
      <trkpt lat="45.403" lon="4.45608">
        <ele>918</ele>
        <time>2015-04-19T09:15:07Z</time>
      </trkpt>
      <trkpt lat="45.40304" lon="4.45598">
        <ele>917</ele>
        <time>2015-04-19T09:15:09Z</time>
      </trkpt>
      <trkpt lat="45.40311" lon="4.45586">
        <ele>916</ele>
        <time>2015-04-19T09:15:12Z</time>
      </trkpt>
      <trkpt lat="45.40314" lon="4.45576">
        <ele>915</ele>
        <time>2015-04-19T09:15:14Z</time>
      </trkpt>
      <trkpt lat="45.40316" lon="4.45567">
        <ele>914</ele>
        <time>2015-04-19T09:15:16Z</time>
      </trkpt>
      <trkpt lat="45.40319" lon="4.45552">
        <ele>913</ele>
        <time>2015-04-19T09:15:19Z</time>
      </trkpt>
      <trkpt lat="45.4032" lon="4.45536">
        <ele>912</ele>
        <time>2015-04-19T09:15:22Z</time>
      </trkpt>
      <trkpt lat="45.4032" lon="4.45525">
        <ele>911</ele>
        <time>2015-04-19T09:15:24Z</time>
      </trkpt>
      <trkpt lat="45.40319" lon="4.45514">
        <ele>910</ele>
        <time>2015-04-19T09:15:26Z</time>
      </trkpt>
      <trkpt lat="45.40318" lon="4.45503">
        <ele>910</ele>
        <time>2015-04-19T09:15:28Z</time>
      </trkpt>
      <trkpt lat="45.40318" lon="4.45487">
        <ele>908</ele>
        <time>2015-04-19T09:15:31Z</time>
      </trkpt>
      <trkpt lat="45.40319" lon="4.45471">
        <ele>907</ele>
        <time>2015-04-19T09:15:34Z</time>
      </trkpt>
      <trkpt lat="45.40322" lon="4.45461">
        <ele>906</ele>
        <time>2015-04-19T09:15:36Z</time>
      </trkpt>
      <trkpt lat="45.40327" lon="4.45452">
        <ele>905</ele>
        <time>2015-04-19T09:15:38Z</time>
      </trkpt>
      <trkpt lat="45.40332" lon="4.45444">
        <ele>905</ele>
        <time>2015-04-19T09:15:40Z</time>
      </trkpt>
      <trkpt lat="45.4034" lon="4.45434">
        <ele>904</ele>
        <time>2015-04-19T09:15:43Z</time>
      </trkpt>
      <trkpt lat="45.40344" lon="4.45426">
        <ele>903</ele>
        <time>2015-04-19T09:15:45Z</time>
      </trkpt>
      <trkpt lat="45.40352" lon="4.4542">
        <ele>901</ele>
        <time>2015-04-19T09:15:48Z</time>
      </trkpt>
      <trkpt lat="45.40361" lon="4.45424">
        <ele>900</ele>
        <time>2015-04-19T09:15:51Z</time>
      </trkpt>
      <trkpt lat="45.40369" lon="4.45431">
        <ele>900</ele>
        <time>2015-04-19T09:15:54Z</time>
      </trkpt>
      <trkpt lat="45.40376" lon="4.45436">
        <ele>899</ele>
        <time>2015-04-19T09:15:57Z</time>
      </trkpt>
      <trkpt lat="45.40381" lon="4.45434">
        <ele>897</ele>
        <time>2015-04-19T09:15:59Z</time>
      </trkpt>
      <trkpt lat="45.4039" lon="4.45428">
        <ele>895</ele>
        <time>2015-04-19T09:16:02Z</time>
      </trkpt>
      <trkpt lat="45.40394" lon="4.45421">
        <ele>894</ele>
        <time>2015-04-19T09:16:04Z</time>
      </trkpt>
      <trkpt lat="45.40399" lon="4.45412">
        <ele>893</ele>
        <time>2015-04-19T09:16:07Z</time>
      </trkpt>
      <trkpt lat="45.40403" lon="4.45406">
        <ele>893</ele>
        <time>2015-04-19T09:16:09Z</time>
      </trkpt>
      <trkpt lat="45.40409" lon="4.45396">
        <ele>893</ele>
        <time>2015-04-19T09:16:12Z</time>
      </trkpt>
      <trkpt lat="45.40413" lon="4.45391">
        <ele>892</ele>
        <time>2015-04-19T09:16:14Z</time>
      </trkpt>
      <trkpt lat="45.40419" lon="4.45379">
        <ele>891</ele>
        <time>2015-04-19T09:16:17Z</time>
      </trkpt>
      <trkpt lat="45.40424" lon="4.45372">
        <ele>890</ele>
        <time>2015-04-19T09:16:19Z</time>
      </trkpt>
      <trkpt lat="45.4043" lon="4.45361">
        <ele>890</ele>
        <time>2015-04-19T09:16:22Z</time>
      </trkpt>
      <trkpt lat="45.40434" lon="4.45353">
        <ele>890</ele>
        <time>2015-04-19T09:16:24Z</time>
      </trkpt>
      <trkpt lat="45.40441" lon="4.45343">
        <ele>890</ele>
        <time>2015-04-19T09:16:27Z</time>
      </trkpt>
      <trkpt lat="45.40445" lon="4.45335">
        <ele>889</ele>
        <time>2015-04-19T09:16:29Z</time>
      </trkpt>
      <trkpt lat="45.40449" lon="4.45328">
        <ele>888</ele>
        <time>2015-04-19T09:16:31Z</time>
      </trkpt>
      <trkpt lat="45.40453" lon="4.4532">
        <ele>888</ele>
        <time>2015-04-19T09:16:33Z</time>
      </trkpt>
      <trkpt lat="45.40456" lon="4.45312">
        <ele>888</ele>
        <time>2015-04-19T09:16:35Z</time>
      </trkpt>
      <trkpt lat="45.4046" lon="4.45305">
        <ele>888</ele>
        <time>2015-04-19T09:16:37Z</time>
      </trkpt>
      <trkpt lat="45.40463" lon="4.45296">
        <ele>887</ele>
        <time>2015-04-19T09:16:39Z</time>
      </trkpt>
      <trkpt lat="45.40467" lon="4.4528">
        <ele>886</ele>
        <time>2015-04-19T09:16:42Z</time>
      </trkpt>
      <trkpt lat="45.4047" lon="4.4527">
        <ele>886</ele>
        <time>2015-04-19T09:16:44Z</time>
      </trkpt>
      <trkpt lat="45.40475" lon="4.45257">
        <ele>884</ele>
        <time>2015-04-19T09:16:47Z</time>
      </trkpt>
      <trkpt lat="45.4048" lon="4.4525">
        <ele>883</ele>
        <time>2015-04-19T09:16:49Z</time>
      </trkpt>
      <trkpt lat="45.40486" lon="4.45239">
        <ele>882</ele>
        <time>2015-04-19T09:16:52Z</time>
      </trkpt>
      <trkpt lat="45.40491" lon="4.45231">
        <ele>881</ele>
        <time>2015-04-19T09:16:54Z</time>
      </trkpt>
      <trkpt lat="45.40495" lon="4.45223">
        <ele>881</ele>
        <time>2015-04-19T09:16:56Z</time>
      </trkpt>
      <trkpt lat="45.40501" lon="4.45211">
        <ele>879</ele>
        <time>2015-04-19T09:16:59Z</time>
      </trkpt>
      <trkpt lat="45.40505" lon="4.45203">
        <ele>878</ele>
        <time>2015-04-19T09:17:01Z</time>
      </trkpt>
      <trkpt lat="45.40513" lon="4.45195">
        <ele>877</ele>
        <time>2015-04-19T09:17:04Z</time>
      </trkpt>
      <trkpt lat="45.40518" lon="4.45189">
        <ele>876</ele>
        <time>2015-04-19T09:17:06Z</time>
      </trkpt>
      <trkpt lat="45.40523" lon="4.45178">
        <ele>874</ele>
        <time>2015-04-19T09:17:09Z</time>
      </trkpt>
      <trkpt lat="45.40523" lon="4.45169">
        <ele>872</ele>
        <time>2015-04-19T09:17:11Z</time>
      </trkpt>
      <trkpt lat="45.40522" lon="4.45156">
        <ele>871</ele>
        <time>2015-04-19T09:17:14Z</time>
      </trkpt>
      <trkpt lat="45.4052" lon="4.45142">
        <ele>869</ele>
        <time>2015-04-19T09:17:17Z</time>
      </trkpt>
      <trkpt lat="45.40522" lon="4.45127">
        <ele>868</ele>
        <time>2015-04-19T09:17:20Z</time>
      </trkpt>
      <trkpt lat="45.40524" lon="4.45118">
        <ele>867</ele>
        <time>2015-04-19T09:17:22Z</time>
      </trkpt>
      <trkpt lat="45.40525" lon="4.45109">
        <ele>866</ele>
        <time>2015-04-19T09:17:24Z</time>
      </trkpt>
      <trkpt lat="45.40527" lon="4.45095">
        <ele>865</ele>
        <time>2015-04-19T09:17:27Z</time>
      </trkpt>
      <trkpt lat="45.40533" lon="4.45083">
        <ele>863</ele>
        <time>2015-04-19T09:17:30Z</time>
      </trkpt>
      <trkpt lat="45.40542" lon="4.45075">
        <ele>862</ele>
        <time>2015-04-19T09:17:33Z</time>
      </trkpt>
      <trkpt lat="45.40551" lon="4.45069">
        <ele>861</ele>
        <time>2015-04-19T09:17:36Z</time>
      </trkpt>
      <trkpt lat="45.40561" lon="4.45064">
        <ele>859</ele>
        <time>2015-04-19T09:17:39Z</time>
      </trkpt>
      <trkpt lat="45.4057" lon="4.45059">
        <ele>859</ele>
        <time>2015-04-19T09:17:42Z</time>
      </trkpt>
      <trkpt lat="45.40579" lon="4.45052">
        <ele>858</ele>
        <time>2015-04-19T09:17:45Z</time>
      </trkpt>
      <trkpt lat="45.40585" lon="4.45047">
        <ele>858</ele>
        <time>2015-04-19T09:17:47Z</time>
      </trkpt>
      <trkpt lat="45.40591" lon="4.45042">
        <ele>857</ele>
        <time>2015-04-19T09:17:49Z</time>
      </trkpt>
      <trkpt lat="45.40601" lon="4.45034">
        <ele>857</ele>
        <time>2015-04-19T09:17:52Z</time>
      </trkpt>
      <trkpt lat="45.40612" lon="4.4503">
        <ele>856</ele>
        <time>2015-04-19T09:17:55Z</time>
      </trkpt>
      <trkpt lat="45.40622" lon="4.45031">
        <ele>855</ele>
        <time>2015-04-19T09:17:58Z</time>
      </trkpt>
      <trkpt lat="45.40631" lon="4.45032">
        <ele>854</ele>
        <time>2015-04-19T09:18:01Z</time>
      </trkpt>
      <trkpt lat="45.4064" lon="4.4503">
        <ele>852</ele>
        <time>2015-04-19T09:18:04Z</time>
      </trkpt>
      <trkpt lat="45.40648" lon="4.45023">
        <ele>851</ele>
        <time>2015-04-19T09:18:07Z</time>
      </trkpt>
      <trkpt lat="45.40653" lon="4.4502">
        <ele>849</ele>
        <time>2015-04-19T09:18:09Z</time>
      </trkpt>
      <trkpt lat="45.40659" lon="4.45016">
        <ele>848</ele>
        <time>2015-04-19T09:18:11Z</time>
      </trkpt>
      <trkpt lat="45.40668" lon="4.4501">
        <ele>847</ele>
        <time>2015-04-19T09:18:14Z</time>
      </trkpt>
      <trkpt lat="45.40676" lon="4.45005">
        <ele>845</ele>
        <time>2015-04-19T09:18:17Z</time>
      </trkpt>
      <trkpt lat="45.40683" lon="4.45">
        <ele>843</ele>
        <time>2015-04-19T09:18:20Z</time>
      </trkpt>
      <trkpt lat="45.40691" lon="4.44996">
        <ele>841</ele>
        <time>2015-04-19T09:18:23Z</time>
      </trkpt>
      <trkpt lat="45.40696" lon="4.44992">
        <ele>839</ele>
        <time>2015-04-19T09:18:25Z</time>
      </trkpt>
      <trkpt lat="45.40704" lon="4.44986">
        <ele>837</ele>
        <time>2015-04-19T09:18:28Z</time>
      </trkpt>
      <trkpt lat="45.40709" lon="4.44981">
        <ele>836</ele>
        <time>2015-04-19T09:18:30Z</time>
      </trkpt>
      <trkpt lat="45.40712" lon="4.44976">
        <ele>835</ele>
        <time>2015-04-19T09:18:32Z</time>
      </trkpt>
      <trkpt lat="45.40715" lon="4.44967">
        <ele>834</ele>
        <time>2015-04-19T09:18:35Z</time>
      </trkpt>
      <trkpt lat="45.40719" lon="4.44962">
        <ele>832</ele>
        <time>2015-04-19T09:18:37Z</time>
      </trkpt>
      <trkpt lat="45.40726" lon="4.44959">
        <ele>829</ele>
        <time>2015-04-19T09:18:40Z</time>
      </trkpt>
      <trkpt lat="45.40733" lon="4.44954">
        <ele>826</ele>
        <time>2015-04-19T09:18:43Z</time>
      </trkpt>
      <trkpt lat="45.4074" lon="4.4495">
        <ele>825</ele>
        <time>2015-04-19T09:18:46Z</time>
      </trkpt>
      <trkpt lat="45.40744" lon="4.44948">
        <ele>823</ele>
        <time>2015-04-19T09:18:48Z</time>
      </trkpt>
      <trkpt lat="45.4075" lon="4.44946">
        <ele>822</ele>
        <time>2015-04-19T09:18:50Z</time>
      </trkpt>
      <trkpt lat="45.40759" lon="4.44942">
        <ele>821</ele>
        <time>2015-04-19T09:18:53Z</time>
      </trkpt>
      <trkpt lat="45.40766" lon="4.44937">
        <ele>820</ele>
        <time>2015-04-19T09:18:56Z</time>
      </trkpt>
      <trkpt lat="45.40774" lon="4.44932">
        <ele>818</ele>
        <time>2015-04-19T09:18:59Z</time>
      </trkpt>
      <trkpt lat="45.40783" lon="4.44929">
        <ele>816</ele>
        <time>2015-04-19T09:19:02Z</time>
      </trkpt>
      <trkpt lat="45.40788" lon="4.44927">
        <ele>815</ele>
        <time>2015-04-19T09:19:04Z</time>
      </trkpt>
      <trkpt lat="45.40789" lon="4.44923">
        <ele>814</ele>
        <time>2015-04-19T09:19:06Z</time>
      </trkpt>
      <trkpt lat="45.40784" lon="4.44922">
        <ele>812</ele>
        <time>2015-04-19T09:19:09Z</time>
      </trkpt>
      <trkpt lat="45.40781" lon="4.44918">
        <ele>810</ele>
        <time>2015-04-19T09:19:11Z</time>
      </trkpt>
      <trkpt lat="45.40778" lon="4.4491">
        <ele>809</ele>
        <time>2015-04-19T09:19:14Z</time>
      </trkpt>
      <trkpt lat="45.40777" lon="4.44907">
        <ele>808</ele>
        <time>2015-04-19T09:19:16Z</time>
      </trkpt>
      <trkpt lat="45.40774" lon="4.44906">
        <ele>807</ele>
        <time>2015-04-19T09:19:18Z</time>
      </trkpt>
      <trkpt lat="45.40768" lon="4.44903">
        <ele>806</ele>
        <time>2015-04-19T09:19:21Z</time>
      </trkpt>
      <trkpt lat="45.40768" lon="4.44897">
        <ele>805</ele>
        <time>2015-04-19T09:19:24Z</time>
      </trkpt>
      <trkpt lat="45.40773" lon="4.44889">
        <ele>803</ele>
        <time>2015-04-19T09:19:27Z</time>
      </trkpt>
      <trkpt lat="45.40778" lon="4.44887">
        <ele>802</ele>
        <time>2015-04-19T09:19:29Z</time>
      </trkpt>
      <trkpt lat="45.4078" lon="4.44882">
        <ele>801</ele>
        <time>2015-04-19T09:19:31Z</time>
      </trkpt>
      <trkpt lat="45.40785" lon="4.44877">
        <ele>800</ele>
        <time>2015-04-19T09:19:33Z</time>
      </trkpt>
      <trkpt lat="45.40788" lon="4.44874">
        <ele>799</ele>
        <time>2015-04-19T09:19:35Z</time>
      </trkpt>
      <trkpt lat="45.40794" lon="4.44864">
        <ele>798</ele>
        <time>2015-04-19T09:19:38Z</time>
      </trkpt>
      <trkpt lat="45.40799" lon="4.4485">
        <ele>795</ele>
        <time>2015-04-19T09:19:41Z</time>
      </trkpt>
      <trkpt lat="45.40803" lon="4.44843">
        <ele>794</ele>
        <time>2015-04-19T09:19:43Z</time>
      </trkpt>
      <trkpt lat="45.40807" lon="4.44841">
        <ele>793</ele>
        <time>2015-04-19T09:19:45Z</time>
      </trkpt>
      <trkpt lat="45.40815" lon="4.44838">
        <ele>793</ele>
        <time>2015-04-19T09:19:48Z</time>
      </trkpt>
      <trkpt lat="45.40818" lon="4.44833">
        <ele>793</ele>
        <time>2015-04-19T09:19:50Z</time>
      </trkpt>
      <trkpt lat="45.40823" lon="4.4483">
        <ele>792</ele>
        <time>2015-04-19T09:19:52Z</time>
      </trkpt>
      <trkpt lat="45.40827" lon="4.44828">
        <ele>790</ele>
        <time>2015-04-19T09:19:54Z</time>
      </trkpt>
      <trkpt lat="45.40826" lon="4.44821">
        <ele>789</ele>
        <time>2015-04-19T09:19:57Z</time>
      </trkpt>
      <trkpt lat="45.40823" lon="4.44819">
        <ele>787</ele>
        <time>2015-04-19T09:19:59Z</time>
      </trkpt>
      <trkpt lat="45.40818" lon="4.44816">
        <ele>786</ele>
        <time>2015-04-19T09:20:02Z</time>
      </trkpt>
      <trkpt lat="45.40813" lon="4.44818">
        <ele>784</ele>
        <time>2015-04-19T09:20:05Z</time>
      </trkpt>
      <trkpt lat="45.40808" lon="4.44817">
        <ele>782</ele>
        <time>2015-04-19T09:20:08Z</time>
      </trkpt>
      <trkpt lat="45.40805" lon="4.44811">
        <ele>781</ele>
        <time>2015-04-19T09:20:11Z</time>
      </trkpt>
      <trkpt lat="45.40809" lon="4.44802">
        <ele>779</ele>
        <time>2015-04-19T09:20:14Z</time>
      </trkpt>
      <trkpt lat="45.40813" lon="4.448">
        <ele>778</ele>
        <time>2015-04-19T09:20:16Z</time>
      </trkpt>
      <trkpt lat="45.40815" lon="4.44796">
        <ele>776</ele>
        <time>2015-04-19T09:20:19Z</time>
      </trkpt>
      <trkpt lat="45.40817" lon="4.44791">
        <ele>776</ele>
        <time>2015-04-19T09:20:21Z</time>
      </trkpt>
      <trkpt lat="45.40818" lon="4.44787">
        <ele>775</ele>
        <time>2015-04-19T09:20:24Z</time>
      </trkpt>
      <trkpt lat="45.40816" lon="4.44779">
        <ele>773</ele>
        <time>2015-04-19T09:20:27Z</time>
      </trkpt>
      <trkpt lat="45.4082" lon="4.44774">
        <ele>772</ele>
        <time>2015-04-19T09:20:29Z</time>
      </trkpt>
      <trkpt lat="45.40821" lon="4.44767">
        <ele>772</ele>
        <time>2015-04-19T09:20:31Z</time>
      </trkpt>
      <trkpt lat="45.40823" lon="4.4476">
        <ele>771</ele>
        <time>2015-04-19T09:20:33Z</time>
      </trkpt>
      <trkpt lat="45.40827" lon="4.44753">
        <ele>770</ele>
        <time>2015-04-19T09:20:35Z</time>
      </trkpt>
      <trkpt lat="45.40831" lon="4.4474">
        <ele>769</ele>
        <time>2015-04-19T09:20:38Z</time>
      </trkpt>
      <trkpt lat="45.40832" lon="4.4473">
        <ele>768</ele>
        <time>2015-04-19T09:20:40Z</time>
      </trkpt>
      <trkpt lat="45.40835" lon="4.44715">
        <ele>767</ele>
        <time>2015-04-19T09:20:43Z</time>
      </trkpt>
      <trkpt lat="45.40842" lon="4.44704">
        <ele>766</ele>
        <time>2015-04-19T09:20:46Z</time>
      </trkpt>
      <trkpt lat="45.40848" lon="4.447">
        <ele>766</ele>
        <time>2015-04-19T09:20:48Z</time>
      </trkpt>
      <trkpt lat="45.40857" lon="4.44694">
        <ele>764</ele>
        <time>2015-04-19T09:20:51Z</time>
      </trkpt>
      <trkpt lat="45.40866" lon="4.44693">
        <ele>763</ele>
        <time>2015-04-19T09:20:54Z</time>
      </trkpt>
      <trkpt lat="45.40872" lon="4.44691">
        <ele>762</ele>
        <time>2015-04-19T09:20:56Z</time>
      </trkpt>
      <trkpt lat="45.40879" lon="4.44688">
        <ele>761</ele>
        <time>2015-04-19T09:20:59Z</time>
      </trkpt>
      <trkpt lat="45.4089" lon="4.44688">
        <ele>760</ele>
        <time>2015-04-19T09:21:02Z</time>
      </trkpt>
      <trkpt lat="45.409" lon="4.44683">
        <ele>758</ele>
        <time>2015-04-19T09:21:05Z</time>
      </trkpt>
      <trkpt lat="45.4091" lon="4.44678">
        <ele>757</ele>
        <time>2015-04-19T09:21:08Z</time>
      </trkpt>
      <trkpt lat="45.40921" lon="4.44672">
        <ele>757</ele>
        <time>2015-04-19T09:21:11Z</time>
      </trkpt>
      <trkpt lat="45.40933" lon="4.44668">
        <ele>757</ele>
        <time>2015-04-19T09:21:14Z</time>
      </trkpt>
      <trkpt lat="45.40943" lon="4.44665">
        <ele>756</ele>
        <time>2015-04-19T09:21:17Z</time>
      </trkpt>
      <trkpt lat="45.40949" lon="4.44662">
        <ele>756</ele>
        <time>2015-04-19T09:21:19Z</time>
      </trkpt>
      <trkpt lat="45.40955" lon="4.44659">
        <ele>755</ele>
        <time>2015-04-19T09:21:21Z</time>
      </trkpt>
      <trkpt lat="45.40964" lon="4.4466">
        <ele>754</ele>
        <time>2015-04-19T09:21:24Z</time>
      </trkpt>
      <trkpt lat="45.40971" lon="4.44655">
        <ele>752</ele>
        <time>2015-04-19T09:21:27Z</time>
      </trkpt>
      <trkpt lat="45.40973" lon="4.44646">
        <ele>750</ele>
        <time>2015-04-19T09:21:30Z</time>
      </trkpt>
      <trkpt lat="45.40976" lon="4.44649">
        <ele>749</ele>
        <time>2015-04-19T09:21:32Z</time>
      </trkpt>
      <trkpt lat="45.40978" lon="4.44662">
        <ele>747</ele>
        <time>2015-04-19T09:21:35Z</time>
      </trkpt>
      <trkpt lat="45.40979" lon="4.4467">
        <ele>746</ele>
        <time>2015-04-19T09:21:37Z</time>
      </trkpt>
      <trkpt lat="45.40981" lon="4.44685">
        <ele>746</ele>
        <time>2015-04-19T09:21:40Z</time>
      </trkpt>
      <trkpt lat="45.40981" lon="4.44696">
        <ele>746</ele>
        <time>2015-04-19T09:21:42Z</time>
      </trkpt>
      <trkpt lat="45.40981" lon="4.44707">
        <ele>746</ele>
        <time>2015-04-19T09:21:44Z</time>
      </trkpt>
      <trkpt lat="45.4098" lon="4.44718">
        <ele>745</ele>
        <time>2015-04-19T09:21:46Z</time>
      </trkpt>
      <trkpt lat="45.40979" lon="4.44733">
        <ele>744</ele>
        <time>2015-04-19T09:21:49Z</time>
      </trkpt>
      <trkpt lat="45.40979" lon="4.44743">
        <ele>744</ele>
        <time>2015-04-19T09:21:51Z</time>
      </trkpt>
      <trkpt lat="45.40978" lon="4.44753">
        <ele>744</ele>
        <time>2015-04-19T09:21:53Z</time>
      </trkpt>
      <trkpt lat="45.40974" lon="4.44767">
        <ele>744</ele>
        <time>2015-04-19T09:21:56Z</time>
      </trkpt>
      <trkpt lat="45.40972" lon="4.44775">
        <ele>743</ele>
        <time>2015-04-19T09:21:58Z</time>
      </trkpt>
      <trkpt lat="45.40974" lon="4.44779">
        <ele>743</ele>
        <time>2015-04-19T09:22:01Z</time>
      </trkpt>
      <trkpt lat="45.40977" lon="4.44773">
        <ele>743</ele>
        <time>2015-04-19T09:22:03Z</time>
      </trkpt>
      <trkpt lat="45.40979" lon="4.44767">
        <ele>743</ele>
        <time>2015-04-19T09:22:05Z</time>
      </trkpt>
      <trkpt lat="45.4098" lon="4.44758">
        <ele>742</ele>
        <time>2015-04-19T09:22:07Z</time>
      </trkpt>
      <trkpt lat="45.40983" lon="4.44747">
        <ele>743</ele>
        <time>2015-04-19T09:22:10Z</time>
      </trkpt>
      <trkpt lat="45.40984" lon="4.44733">
        <ele>743</ele>
        <time>2015-04-19T09:22:13Z</time>
      </trkpt>
      <trkpt lat="45.40985" lon="4.44725">
        <ele>743</ele>
        <time>2015-04-19T09:22:14Z</time>
      </trkpt>
    </trkseg>
  </trk>
</gpx>